<?xml version='1.0' encoding='UTF-8'?><gpx version="1.1" creator="JPX - https://github.com/jenetics/jpx" xmlns="http://www.topografix.com/GPX/1/1"><trk><trkseg><trkpt lat="42.15031" lon="14.5851011"><ele>204.99999999999997</ele><time>2026-04-27T06:19:39.479Z</time></trkpt><trkpt lat="42.1502258" lon="14.585072"><ele>205.0</ele><time>2026-04-27T06:19:41.479Z</time></trkpt><trkpt lat="42.1501415" lon="14.585137"><ele>205.0</ele><time>2026-04-27T06:19:42.478Z</time></trkpt><trkpt lat="42.1502054" lon="14.5850753"><ele>205.0</ele><time>2026-04-27T06:19:45.889Z</time></trkpt><trkpt lat="42.1501419" lon="14.5850871"><ele>204.99999999999997</ele><time>2026-04-27T06:20:09.889Z</time></trkpt><trkpt lat="42.1501578" lon="14.5851764"><ele>205.0</ele><time>2026-04-27T06:20:22.889Z</time></trkpt><trkpt lat="42.1502433" lon="14.5852304"><ele>204.99999999999997</ele><time>2026-04-27T06:20:54.889Z</time></trkpt><trkpt lat="42.1501754" lon="14.585246"><ele>205.0</ele><time>2026-04-27T06:21:03.888Z</time></trkpt><trkpt lat="42.1500912" lon="14.5852832"><ele>205.0</ele><time>2026-04-27T06:21:20.889Z</time></trkpt><trkpt lat="42.1501688" lon="14.5852813"><ele>205.0</ele><time>2026-04-27T06:21:52.889Z</time></trkpt><trkpt lat="42.1502313" lon="14.585226"><ele>204.99999999999997</ele><time>2026-04-27T06:21:56.889Z</time></trkpt><trkpt lat="42.1502928" lon="14.5851707"><ele>205.0</ele><time>2026-04-27T06:22:00.889Z</time></trkpt><trkpt lat="42.1503608" lon="14.5851233"><ele>205.0</ele><time>2026-04-27T06:22:04.889Z</time></trkpt><trkpt lat="42.1504319" lon="14.5851202"><ele>205.0</ele><time>2026-04-27T06:22:07.889Z</time></trkpt><trkpt lat="42.1504968" lon="14.5851036"><ele>205.0</ele><time>2026-04-27T06:22:10.888Z</time></trkpt><trkpt lat="42.1505621" lon="14.5850792"><ele>205.0</ele><time>2026-04-27T06:22:13.889Z</time></trkpt><trkpt lat="42.1506257" lon="14.5850364"><ele>205.0</ele><time>2026-04-27T06:22:17.889Z</time></trkpt><trkpt lat="42.1506874" lon="14.585062"><ele>205.0</ele><time>2026-04-27T06:22:20.889Z</time></trkpt><trkpt lat="42.1507702" lon="14.585073"><ele>205.0</ele><time>2026-04-27T06:22:23.889Z</time></trkpt><trkpt lat="42.1508585" lon="14.5850643"><ele>205.16666666666666</ele><time>2026-04-27T06:22:26.889Z</time></trkpt><trkpt lat="42.1509218" lon="14.5850699"><ele>205.33333333333331</ele><time>2026-04-27T06:22:28.888Z</time></trkpt><trkpt lat="42.1510037" lon="14.5850723"><ele>205.5</ele><time>2026-04-27T06:22:30.889Z</time></trkpt><trkpt lat="42.1511146" lon="14.5850909"><ele>205.66666666666669</ele><time>2026-04-27T06:22:32.889Z</time></trkpt><trkpt lat="42.1511842" lon="14.5851034"><ele>205.83333333333334</ele><time>2026-04-27T06:22:33.888Z</time></trkpt><trkpt lat="42.1512557" lon="14.5851057"><ele>206.0</ele><time>2026-04-27T06:22:34.889Z</time></trkpt><trkpt lat="42.1513254" lon="14.5850798"><ele>206.0</ele><time>2026-04-27T06:22:35.888Z</time></trkpt><trkpt lat="42.1514429" lon="14.585031"><ele>206.0</ele><time>2026-04-27T06:22:37.889Z</time></trkpt><trkpt lat="42.1515588" lon="14.5849868"><ele>206.0</ele><time>2026-04-27T06:22:39.889Z</time></trkpt><trkpt lat="42.1516292" lon="14.5848917"><ele>206.0</ele><time>2026-04-27T06:22:41.889Z</time></trkpt><trkpt lat="42.1516868" lon="14.5847457"><ele>205.00000000000003</ele><time>2026-04-27T06:22:43.888Z</time></trkpt><trkpt lat="42.1517074" lon="14.5846477"><ele>204.0</ele><time>2026-04-27T06:22:44.888Z</time></trkpt><trkpt lat="42.1517234" lon="14.5845546"><ele>203.0</ele><time>2026-04-27T06:22:45.889Z</time></trkpt><trkpt lat="42.1517373" lon="14.584464"><ele>202.0</ele><time>2026-04-27T06:22:46.889Z</time></trkpt><trkpt lat="42.1517508" lon="14.584357"><ele>201.00000000000003</ele><time>2026-04-27T06:22:47.888Z</time></trkpt><trkpt lat="42.15177" lon="14.58423"><ele>200.0</ele><time>2026-04-27T06:22:48.889Z</time></trkpt><trkpt lat="42.1517867" lon="14.584135"><ele>199.66666666666669</ele><time>2026-04-27T06:22:49.889Z</time></trkpt><trkpt lat="42.1518117" lon="14.5840433"><ele>199.33333333333334</ele><time>2026-04-27T06:22:50.889Z</time></trkpt><trkpt lat="42.1518417" lon="14.58394"><ele>199.0</ele><time>2026-04-27T06:22:51.889Z</time></trkpt><trkpt lat="42.1518683" lon="14.5838467"><ele>198.66666666666669</ele><time>2026-04-27T06:22:52.889Z</time></trkpt><trkpt lat="42.1518867" lon="14.58375"><ele>198.33333333333334</ele><time>2026-04-27T06:22:53.888Z</time></trkpt><trkpt lat="42.1518983" lon="14.5836583"><ele>198.0</ele><time>2026-04-27T06:22:54.889Z</time></trkpt><trkpt lat="42.151895" lon="14.5835067"><ele>196.8</ele><time>2026-04-27T06:22:56.888Z</time></trkpt><trkpt lat="42.151885" lon="14.5833683"><ele>195.60000000000002</ele><time>2026-04-27T06:22:58.889Z</time></trkpt><trkpt lat="42.151925" lon="14.5832333"><ele>194.39999999999998</ele><time>2026-04-27T06:23:00.889Z</time></trkpt><trkpt lat="42.151975" lon="14.5831067"><ele>193.2</ele><time>2026-04-27T06:23:02.888Z</time></trkpt><trkpt lat="42.1520317" lon="14.583025"><ele>192.0</ele><time>2026-04-27T06:23:04.888Z</time></trkpt><trkpt lat="42.1521083" lon="14.5830517"><ele>192.0</ele><time>2026-04-27T06:23:06.889Z</time></trkpt><trkpt lat="42.1521817" lon="14.5831383"><ele>192.0</ele><time>2026-04-27T06:23:08.888Z</time></trkpt><trkpt lat="42.1522617" lon="14.5832583"><ele>192.0</ele><time>2026-04-27T06:23:10.889Z</time></trkpt><trkpt lat="42.1523083" lon="14.5833233"><ele>192.0</ele><time>2026-04-27T06:23:11.889Z</time></trkpt><trkpt lat="42.1523583" lon="14.58339"><ele>192.0</ele><time>2026-04-27T06:23:12.888Z</time></trkpt><trkpt lat="42.15241" lon="14.5834583"><ele>192.0</ele><time>2026-04-27T06:23:13.889Z</time></trkpt><trkpt lat="42.1524667" lon="14.58353"><ele>190.66666666666666</ele><time>2026-04-27T06:23:14.889Z</time></trkpt><trkpt lat="42.1525217" lon="14.5836067"><ele>189.33333333333334</ele><time>2026-04-27T06:23:15.889Z</time></trkpt><trkpt lat="42.1525783" lon="14.5836833"><ele>188.0</ele><time>2026-04-27T06:23:16.889Z</time></trkpt><trkpt lat="42.152635" lon="14.58376"><ele>186.66666666666669</ele><time>2026-04-27T06:23:17.889Z</time></trkpt><trkpt lat="42.1526883" lon="14.5838383"><ele>185.33333333333334</ele><time>2026-04-27T06:23:18.888Z</time></trkpt><trkpt lat="42.15275" lon="14.5839233"><ele>184.0</ele><time>2026-04-27T06:23:19.889Z</time></trkpt><trkpt lat="42.1528117" lon="14.5840067"><ele>184.0</ele><time>2026-04-27T06:23:20.889Z</time></trkpt><trkpt lat="42.1528783" lon="14.5840917"><ele>184.0</ele><time>2026-04-27T06:23:21.889Z</time></trkpt><trkpt lat="42.1529417" lon="14.58418"><ele>184.0</ele><time>2026-04-27T06:23:22.889Z</time></trkpt><trkpt lat="42.15301" lon="14.5842667"><ele>184.0</ele><time>2026-04-27T06:23:23.889Z</time></trkpt><trkpt lat="42.15307" lon="14.58436"><ele>184.0</ele><time>2026-04-27T06:23:24.888Z</time></trkpt><trkpt lat="42.1531283" lon="14.5844517"><ele>184.83333333333334</ele><time>2026-04-27T06:23:25.889Z</time></trkpt><trkpt lat="42.1531767" lon="14.584565"><ele>185.66666666666669</ele><time>2026-04-27T06:23:26.889Z</time></trkpt><trkpt lat="42.153215" lon="14.58467"><ele>186.5</ele><time>2026-04-27T06:23:27.889Z</time></trkpt><trkpt lat="42.1532433" lon="14.5847767"><ele>187.33333333333334</ele><time>2026-04-27T06:23:28.889Z</time></trkpt><trkpt lat="42.1532683" lon="14.5848817"><ele>188.16666666666666</ele><time>2026-04-27T06:23:29.889Z</time></trkpt><trkpt lat="42.1532833" lon="14.5849833"><ele>189.0</ele><time>2026-04-27T06:23:30.889Z</time></trkpt><trkpt lat="42.1533017" lon="14.585065"><ele>187.0</ele><time>2026-04-27T06:23:31.889Z</time></trkpt><trkpt lat="42.15332" lon="14.5851817"><ele>185.0</ele><time>2026-04-27T06:23:33.888Z</time></trkpt><trkpt lat="42.1533583" lon="14.5852783"><ele>183.0</ele><time>2026-04-27T06:23:36.889Z</time></trkpt><trkpt lat="42.153425" lon="14.585305"><ele>181.0</ele><time>2026-04-27T06:23:38.889Z</time></trkpt><trkpt lat="42.1535167" lon="14.5852917"><ele>179.0</ele><time>2026-04-27T06:23:40.889Z</time></trkpt><trkpt lat="42.1536317" lon="14.5852667"><ele>177.0</ele><time>2026-04-27T06:23:42.889Z</time></trkpt><trkpt lat="42.153695" lon="14.5852517"><ele>177.0</ele><time>2026-04-27T06:23:43.889Z</time></trkpt><trkpt lat="42.153765" lon="14.5852417"><ele>177.0</ele><time>2026-04-27T06:23:44.889Z</time></trkpt><trkpt lat="42.1538317" lon="14.5852383"><ele>177.0</ele><time>2026-04-27T06:23:45.889Z</time></trkpt><trkpt lat="42.1539067" lon="14.58524"><ele>177.0</ele><time>2026-04-27T06:23:46.889Z</time></trkpt><trkpt lat="42.1539867" lon="14.5852383"><ele>177.0</ele><time>2026-04-27T06:23:47.888Z</time></trkpt><trkpt lat="42.1540617" lon="14.58524"><ele>177.0</ele><time>2026-04-27T06:23:48.888Z</time></trkpt><trkpt lat="42.154145" lon="14.5852383"><ele>176.16666666666666</ele><time>2026-04-27T06:23:49.888Z</time></trkpt><trkpt lat="42.1542267" lon="14.585245"><ele>175.33333333333334</ele><time>2026-04-27T06:23:50.888Z</time></trkpt><trkpt lat="42.1543083" lon="14.585265"><ele>174.5</ele><time>2026-04-27T06:23:51.889Z</time></trkpt><trkpt lat="42.154385" lon="14.5852983"><ele>173.66666666666669</ele><time>2026-04-27T06:23:52.889Z</time></trkpt><trkpt lat="42.1544483" lon="14.58535"><ele>172.83333333333334</ele><time>2026-04-27T06:23:53.889Z</time></trkpt><trkpt lat="42.1545067" lon="14.5854233"><ele>172.0</ele><time>2026-04-27T06:23:54.888Z</time></trkpt><trkpt lat="42.1545617" lon="14.5855067"><ele>171.66666666666669</ele><time>2026-04-27T06:23:55.888Z</time></trkpt><trkpt lat="42.1546083" lon="14.585595"><ele>171.33333333333334</ele><time>2026-04-27T06:23:56.889Z</time></trkpt><trkpt lat="42.1546567" lon="14.5856767"><ele>171.0</ele><time>2026-04-27T06:23:57.889Z</time></trkpt><trkpt lat="42.1547133" lon="14.585755"><ele>170.66666666666666</ele><time>2026-04-27T06:23:58.888Z</time></trkpt><trkpt lat="42.154775" lon="14.585825"><ele>170.33333333333331</ele><time>2026-04-27T06:23:59.889Z</time></trkpt><trkpt lat="42.1548383" lon="14.58587"><ele>170.0</ele><time>2026-04-27T06:24:00.889Z</time></trkpt><trkpt lat="42.1549033" lon="14.5859067"><ele>170.0</ele><time>2026-04-27T06:24:01.889Z</time></trkpt><trkpt lat="42.1549633" lon="14.585935"><ele>170.0</ele><time>2026-04-27T06:24:02.889Z</time></trkpt><trkpt lat="42.1550733" lon="14.585995"><ele>170.0</ele><time>2026-04-27T06:24:04.888Z</time></trkpt><trkpt lat="42.15517" lon="14.5860417"><ele>170.0</ele><time>2026-04-27T06:24:06.889Z</time></trkpt><trkpt lat="42.1552683" lon="14.58607"><ele>170.0</ele><time>2026-04-27T06:24:08.888Z</time></trkpt><trkpt lat="42.1553583" lon="14.5861"><ele>170.0</ele><time>2026-04-27T06:24:10.888Z</time></trkpt><trkpt lat="42.1554433" lon="14.586135"><ele>170.0</ele><time>2026-04-27T06:24:12.889Z</time></trkpt><trkpt lat="42.1555267" lon="14.586155"><ele>170.0</ele><time>2026-04-27T06:24:14.889Z</time></trkpt><trkpt lat="42.1556033" lon="14.5861717"><ele>170.0</ele><time>2026-04-27T06:24:16.889Z</time></trkpt><trkpt lat="42.1556883" lon="14.58619"><ele>170.0</ele><time>2026-04-27T06:24:18.889Z</time></trkpt><trkpt lat="42.1557783" lon="14.5862133"><ele>170.0</ele><time>2026-04-27T06:24:20.889Z</time></trkpt><trkpt lat="42.1558617" lon="14.586245"><ele>169.2</ele><time>2026-04-27T06:24:22.889Z</time></trkpt><trkpt lat="42.1559483" lon="14.5862817"><ele>168.4</ele><time>2026-04-27T06:24:24.889Z</time></trkpt><trkpt lat="42.1560367" lon="14.586315"><ele>167.60000000000002</ele><time>2026-04-27T06:24:26.889Z</time></trkpt><trkpt lat="42.1561267" lon="14.5863483"><ele>166.8</ele><time>2026-04-27T06:24:28.889Z</time></trkpt><trkpt lat="42.1562117" lon="14.5863783"><ele>166.0</ele><time>2026-04-27T06:24:30.888Z</time></trkpt><trkpt lat="42.1563117" lon="14.5864117"><ele>166.0</ele><time>2026-04-27T06:24:32.888Z</time></trkpt><trkpt lat="42.1564083" lon="14.5864417"><ele>166.0</ele><time>2026-04-27T06:24:34.889Z</time></trkpt><trkpt lat="42.1565067" lon="14.5864783"><ele>166.0</ele><time>2026-04-27T06:24:36.888Z</time></trkpt><trkpt lat="42.1566033" lon="14.5865133"><ele>166.0</ele><time>2026-04-27T06:24:38.889Z</time></trkpt><trkpt lat="42.1566983" lon="14.5865467"><ele>166.0</ele><time>2026-04-27T06:24:40.888Z</time></trkpt><trkpt lat="42.1567967" lon="14.586575"><ele>166.60000000000002</ele><time>2026-04-27T06:24:42.889Z</time></trkpt><trkpt lat="42.1568867" lon="14.58661"><ele>167.2</ele><time>2026-04-27T06:24:44.889Z</time></trkpt><trkpt lat="42.1569717" lon="14.58666"><ele>167.8</ele><time>2026-04-27T06:24:46.889Z</time></trkpt><trkpt lat="42.1570483" lon="14.5867267"><ele>168.39999999999998</ele><time>2026-04-27T06:24:48.889Z</time></trkpt><trkpt lat="42.15712" lon="14.5867983"><ele>169.0</ele><time>2026-04-27T06:24:50.889Z</time></trkpt><trkpt lat="42.157205" lon="14.5868817"><ele>169.0</ele><time>2026-04-27T06:24:52.889Z</time></trkpt><trkpt lat="42.1572917" lon="14.58696"><ele>169.0</ele><time>2026-04-27T06:24:54.889Z</time></trkpt><trkpt lat="42.1573933" lon="14.587025"><ele>169.0</ele><time>2026-04-27T06:24:56.889Z</time></trkpt><trkpt lat="42.15749" lon="14.5870967"><ele>169.0</ele><time>2026-04-27T06:24:58.888Z</time></trkpt><trkpt lat="42.15758" lon="14.5871833"><ele>169.0</ele><time>2026-04-27T06:25:00.889Z</time></trkpt><trkpt lat="42.15767" lon="14.5872667"><ele>168.2</ele><time>2026-04-27T06:25:02.889Z</time></trkpt><trkpt lat="42.1577767" lon="14.5873467"><ele>167.39999999999998</ele><time>2026-04-27T06:25:04.888Z</time></trkpt><trkpt lat="42.1578783" lon="14.58744"><ele>166.6</ele><time>2026-04-27T06:25:06.888Z</time></trkpt><trkpt lat="42.1579833" lon="14.587535"><ele>165.8</ele><time>2026-04-27T06:25:08.889Z</time></trkpt><trkpt lat="42.1580383" lon="14.5875867"><ele>165.0</ele><time>2026-04-27T06:25:09.888Z</time></trkpt><trkpt lat="42.1580933" lon="14.5876383"><ele>165.00000000000003</ele><time>2026-04-27T06:25:10.889Z</time></trkpt><trkpt lat="42.1581467" lon="14.58769"><ele>165.0</ele><time>2026-04-27T06:25:11.888Z</time></trkpt><trkpt lat="42.1582033" lon="14.5877383"><ele>165.0</ele><time>2026-04-27T06:25:12.888Z</time></trkpt><trkpt lat="42.1582583" lon="14.5877933"><ele>165.0</ele><time>2026-04-27T06:25:13.889Z</time></trkpt><trkpt lat="42.158315" lon="14.5878483"><ele>165.0</ele><time>2026-04-27T06:25:14.889Z</time></trkpt><trkpt lat="42.158375" lon="14.5878983"><ele>165.00000000000003</ele><time>2026-04-27T06:25:15.889Z</time></trkpt><trkpt lat="42.1584317" lon="14.587955"><ele>165.0</ele><time>2026-04-27T06:25:16.889Z</time></trkpt><trkpt lat="42.1584917" lon="14.58801"><ele>164.42857142857144</ele><time>2026-04-27T06:25:17.888Z</time></trkpt><trkpt lat="42.1585533" lon="14.5880617"><ele>163.85714285714286</ele><time>2026-04-27T06:25:18.889Z</time></trkpt><trkpt lat="42.1586117" lon="14.5881167"><ele>163.28571428571428</ele><time>2026-04-27T06:25:19.888Z</time></trkpt><trkpt lat="42.1586733" lon="14.588165"><ele>162.71428571428572</ele><time>2026-04-27T06:25:20.889Z</time></trkpt><trkpt lat="42.1587367" lon="14.5882117"><ele>162.14285714285714</ele><time>2026-04-27T06:25:21.888Z</time></trkpt><trkpt lat="42.1588033" lon="14.5882583"><ele>161.57142857142858</ele><time>2026-04-27T06:25:22.889Z</time></trkpt><trkpt lat="42.1588683" lon="14.5883067"><ele>161.0</ele><time>2026-04-27T06:25:23.888Z</time></trkpt><trkpt lat="42.158935" lon="14.5883517"><ele>161.0</ele><time>2026-04-27T06:25:24.889Z</time></trkpt><trkpt lat="42.1590033" lon="14.5883983"><ele>161.0</ele><time>2026-04-27T06:25:25.889Z</time></trkpt><trkpt lat="42.1590767" lon="14.5884317"><ele>161.0</ele><time>2026-04-27T06:25:26.888Z</time></trkpt><trkpt lat="42.159145" lon="14.5884683"><ele>161.0</ele><time>2026-04-27T06:25:27.888Z</time></trkpt><trkpt lat="42.1592167" lon="14.5885067"><ele>161.0</ele><time>2026-04-27T06:25:28.888Z</time></trkpt><trkpt lat="42.1592833" lon="14.5885433"><ele>161.0</ele><time>2026-04-27T06:25:29.889Z</time></trkpt><trkpt lat="42.159355" lon="14.5885817"><ele>160.66666666666666</ele><time>2026-04-27T06:25:30.888Z</time></trkpt><trkpt lat="42.15943" lon="14.58862"><ele>160.33333333333331</ele><time>2026-04-27T06:25:31.888Z</time></trkpt><trkpt lat="42.1595" lon="14.5886567"><ele>160.0</ele><time>2026-04-27T06:25:32.889Z</time></trkpt><trkpt lat="42.1595717" lon="14.588695"><ele>159.66666666666666</ele><time>2026-04-27T06:25:33.888Z</time></trkpt><trkpt lat="42.1596417" lon="14.5887333"><ele>159.33333333333334</ele><time>2026-04-27T06:25:34.889Z</time></trkpt><trkpt lat="42.159715" lon="14.588775"><ele>159.0</ele><time>2026-04-27T06:25:35.889Z</time></trkpt><trkpt lat="42.1597867" lon="14.5888133"><ele>158.33333333333334</ele><time>2026-04-27T06:25:36.889Z</time></trkpt><trkpt lat="42.1598617" lon="14.5888533"><ele>157.66666666666666</ele><time>2026-04-27T06:25:37.888Z</time></trkpt><trkpt lat="42.159935" lon="14.5888917"><ele>157.0</ele><time>2026-04-27T06:25:38.889Z</time></trkpt><trkpt lat="42.1600067" lon="14.58893"><ele>156.33333333333331</ele><time>2026-04-27T06:25:39.888Z</time></trkpt><trkpt lat="42.16008" lon="14.5889683"><ele>155.66666666666666</ele><time>2026-04-27T06:25:40.889Z</time></trkpt><trkpt lat="42.16015" lon="14.5890117"><ele>155.0</ele><time>2026-04-27T06:25:41.889Z</time></trkpt><trkpt lat="42.16022" lon="14.58905"><ele>154.83333333333331</ele><time>2026-04-27T06:25:42.889Z</time></trkpt><trkpt lat="42.1602867" lon="14.5890967"><ele>154.66666666666666</ele><time>2026-04-27T06:25:43.889Z</time></trkpt><trkpt lat="42.16036" lon="14.589135"><ele>154.5</ele><time>2026-04-27T06:25:44.889Z</time></trkpt><trkpt lat="42.160435" lon="14.58918"><ele>154.33333333333334</ele><time>2026-04-27T06:25:45.889Z</time></trkpt><trkpt lat="42.1605017" lon="14.5892217"><ele>154.16666666666669</ele><time>2026-04-27T06:25:46.889Z</time></trkpt><trkpt lat="42.160565" lon="14.58927"><ele>154.0</ele><time>2026-04-27T06:25:47.888Z</time></trkpt><trkpt lat="42.1606333" lon="14.5893233"><ele>153.66666666666669</ele><time>2026-04-27T06:25:48.889Z</time></trkpt><trkpt lat="42.1607" lon="14.58938"><ele>153.33333333333334</ele><time>2026-04-27T06:25:49.889Z</time></trkpt><trkpt lat="42.16077" lon="14.5894317"><ele>153.0</ele><time>2026-04-27T06:25:50.889Z</time></trkpt><trkpt lat="42.1608367" lon="14.5894833"><ele>152.66666666666666</ele><time>2026-04-27T06:25:51.889Z</time></trkpt><trkpt lat="42.1609067" lon="14.5895317"><ele>152.33333333333331</ele><time>2026-04-27T06:25:52.888Z</time></trkpt><trkpt lat="42.1609783" lon="14.5895817"><ele>152.0</ele><time>2026-04-27T06:25:53.888Z</time></trkpt><trkpt lat="42.16105" lon="14.5896333"><ele>152.0</ele><time>2026-04-27T06:25:54.889Z</time></trkpt><trkpt lat="42.1611233" lon="14.5896883"><ele>152.0</ele><time>2026-04-27T06:25:55.889Z</time></trkpt><trkpt lat="42.1611967" lon="14.5897367"><ele>152.0</ele><time>2026-04-27T06:25:56.889Z</time></trkpt><trkpt lat="42.1612733" lon="14.589775"><ele>152.0</ele><time>2026-04-27T06:25:57.889Z</time></trkpt><trkpt lat="42.1613517" lon="14.589805"><ele>152.0</ele><time>2026-04-27T06:25:58.888Z</time></trkpt><trkpt lat="42.1614317" lon="14.5898267"><ele>152.0</ele><time>2026-04-27T06:25:59.889Z</time></trkpt><trkpt lat="42.1615083" lon="14.5898467"><ele>151.5</ele><time>2026-04-27T06:26:00.888Z</time></trkpt><trkpt lat="42.1615817" lon="14.5898633"><ele>151.0</ele><time>2026-04-27T06:26:01.889Z</time></trkpt><trkpt lat="42.1616567" lon="14.5898767"><ele>150.5</ele><time>2026-04-27T06:26:02.888Z</time></trkpt><trkpt lat="42.1617317" lon="14.5898917"><ele>150.0</ele><time>2026-04-27T06:26:03.889Z</time></trkpt><trkpt lat="42.1618067" lon="14.589905"><ele>149.5</ele><time>2026-04-27T06:26:04.889Z</time></trkpt><trkpt lat="42.1618817" lon="14.5899167"><ele>149.0</ele><time>2026-04-27T06:26:05.889Z</time></trkpt><trkpt lat="42.1619567" lon="14.5899267"><ele>149.0</ele><time>2026-04-27T06:26:06.889Z</time></trkpt><trkpt lat="42.162035" lon="14.5899367"><ele>149.0</ele><time>2026-04-27T06:26:07.889Z</time></trkpt><trkpt lat="42.16211" lon="14.5899433"><ele>149.0</ele><time>2026-04-27T06:26:08.888Z</time></trkpt><trkpt lat="42.1621867" lon="14.5899517"><ele>149.0</ele><time>2026-04-27T06:26:09.889Z</time></trkpt><trkpt lat="42.1622633" lon="14.5899617"><ele>149.0</ele><time>2026-04-27T06:26:10.889Z</time></trkpt><trkpt lat="42.16234" lon="14.58997"><ele>149.0</ele><time>2026-04-27T06:26:11.888Z</time></trkpt><trkpt lat="42.1624167" lon="14.58998"><ele>148.5</ele><time>2026-04-27T06:26:12.889Z</time></trkpt><trkpt lat="42.162495" lon="14.5899867"><ele>148.0</ele><time>2026-04-27T06:26:13.889Z</time></trkpt><trkpt lat="42.16257" lon="14.5899917"><ele>147.5</ele><time>2026-04-27T06:26:14.889Z</time></trkpt><trkpt lat="42.1626417" lon="14.59"><ele>147.0</ele><time>2026-04-27T06:26:15.889Z</time></trkpt><trkpt lat="42.162715" lon="14.590015"><ele>146.5</ele><time>2026-04-27T06:26:16.889Z</time></trkpt><trkpt lat="42.16279" lon="14.5900333"><ele>146.0</ele><time>2026-04-27T06:26:17.889Z</time></trkpt><trkpt lat="42.1628667" lon="14.5900567"><ele>146.0</ele><time>2026-04-27T06:26:18.889Z</time></trkpt><trkpt lat="42.1629383" lon="14.590085"><ele>146.0</ele><time>2026-04-27T06:26:19.889Z</time></trkpt><trkpt lat="42.16301" lon="14.59012"><ele>146.0</ele><time>2026-04-27T06:26:20.889Z</time></trkpt><trkpt lat="42.1630833" lon="14.5901567"><ele>146.0</ele><time>2026-04-27T06:26:21.889Z</time></trkpt><trkpt lat="42.1631567" lon="14.5901983"><ele>146.0</ele><time>2026-04-27T06:26:22.888Z</time></trkpt><trkpt lat="42.1632333" lon="14.590235"><ele>146.0</ele><time>2026-04-27T06:26:23.889Z</time></trkpt><trkpt lat="42.1633117" lon="14.5902717"><ele>145.5</ele><time>2026-04-27T06:26:24.889Z</time></trkpt><trkpt lat="42.1633883" lon="14.5903067"><ele>145.0</ele><time>2026-04-27T06:26:25.889Z</time></trkpt><trkpt lat="42.1634683" lon="14.5903467"><ele>144.5</ele><time>2026-04-27T06:26:26.889Z</time></trkpt><trkpt lat="42.1635517" lon="14.5903767"><ele>144.0</ele><time>2026-04-27T06:26:27.889Z</time></trkpt><trkpt lat="42.1636333" lon="14.59041"><ele>143.5</ele><time>2026-04-27T06:26:28.888Z</time></trkpt><trkpt lat="42.1637133" lon="14.5904483"><ele>143.0</ele><time>2026-04-27T06:26:29.889Z</time></trkpt><trkpt lat="42.1637933" lon="14.5904867"><ele>143.0</ele><time>2026-04-27T06:26:30.889Z</time></trkpt><trkpt lat="42.1638683" lon="14.59053"><ele>143.0</ele><time>2026-04-27T06:26:31.888Z</time></trkpt><trkpt lat="42.1639483" lon="14.59057"><ele>143.0</ele><time>2026-04-27T06:26:32.889Z</time></trkpt><trkpt lat="42.1640283" lon="14.5906133"><ele>143.0</ele><time>2026-04-27T06:26:33.888Z</time></trkpt><trkpt lat="42.1641067" lon="14.5906583"><ele>143.0</ele><time>2026-04-27T06:26:34.889Z</time></trkpt><trkpt lat="42.1641867" lon="14.5907067"><ele>143.0</ele><time>2026-04-27T06:26:35.889Z</time></trkpt><trkpt lat="42.1642633" lon="14.5907567"><ele>142.83333333333331</ele><time>2026-04-27T06:26:36.889Z</time></trkpt><trkpt lat="42.164335" lon="14.59081"><ele>142.66666666666666</ele><time>2026-04-27T06:26:37.889Z</time></trkpt><trkpt lat="42.1644083" lon="14.5908667"><ele>142.5</ele><time>2026-04-27T06:26:38.888Z</time></trkpt><trkpt lat="42.1644783" lon="14.5909217"><ele>142.33333333333334</ele><time>2026-04-27T06:26:39.888Z</time></trkpt><trkpt lat="42.1645467" lon="14.5909717"><ele>142.16666666666669</ele><time>2026-04-27T06:26:40.888Z</time></trkpt><trkpt lat="42.1646183" lon="14.5910167"><ele>142.0</ele><time>2026-04-27T06:26:41.889Z</time></trkpt><trkpt lat="42.164685" lon="14.5910683"><ele>142.0</ele><time>2026-04-27T06:26:42.889Z</time></trkpt><trkpt lat="42.164755" lon="14.5911133"><ele>142.0</ele><time>2026-04-27T06:26:43.888Z</time></trkpt><trkpt lat="42.1648217" lon="14.591155"><ele>142.0</ele><time>2026-04-27T06:26:44.889Z</time></trkpt><trkpt lat="42.1648817" lon="14.5911983"><ele>142.0</ele><time>2026-04-27T06:26:45.889Z</time></trkpt><trkpt lat="42.1649417" lon="14.591245"><ele>142.0</ele><time>2026-04-27T06:26:46.889Z</time></trkpt><trkpt lat="42.165" lon="14.5912967"><ele>142.0</ele><time>2026-04-27T06:26:47.888Z</time></trkpt><trkpt lat="42.1650917" lon="14.5913983"><ele>141.4</ele><time>2026-04-27T06:26:49.888Z</time></trkpt><trkpt lat="42.1651667" lon="14.5914967"><ele>140.79999999999998</ele><time>2026-04-27T06:26:51.889Z</time></trkpt><trkpt lat="42.16523" lon="14.5915967"><ele>140.2</ele><time>2026-04-27T06:26:53.889Z</time></trkpt><trkpt lat="42.1652833" lon="14.59169"><ele>139.6</ele><time>2026-04-27T06:26:55.888Z</time></trkpt><trkpt lat="42.1653383" lon="14.59178"><ele>139.0</ele><time>2026-04-27T06:26:57.889Z</time></trkpt><trkpt lat="42.1653917" lon="14.5918833"><ele>139.0</ele><time>2026-04-27T06:26:59.889Z</time></trkpt><trkpt lat="42.1654583" lon="14.591985"><ele>139.0</ele><time>2026-04-27T06:27:01.889Z</time></trkpt><trkpt lat="42.1655217" lon="14.592085"><ele>139.0</ele><time>2026-04-27T06:27:03.889Z</time></trkpt><trkpt lat="42.165575" lon="14.5921967"><ele>139.0</ele><time>2026-04-27T06:27:05.889Z</time></trkpt><trkpt lat="42.1656283" lon="14.5923067"><ele>139.0</ele><time>2026-04-27T06:27:07.888Z</time></trkpt><trkpt lat="42.1656867" lon="14.5924233"><ele>138.8</ele><time>2026-04-27T06:27:09.889Z</time></trkpt><trkpt lat="42.165745" lon="14.5925467"><ele>138.60000000000002</ele><time>2026-04-27T06:27:11.889Z</time></trkpt><trkpt lat="42.1658" lon="14.59267"><ele>138.4</ele><time>2026-04-27T06:27:13.889Z</time></trkpt><trkpt lat="42.16587" lon="14.5927933"><ele>138.20000000000002</ele><time>2026-04-27T06:27:15.888Z</time></trkpt><trkpt lat="42.1659383" lon="14.5929"><ele>138.0</ele><time>2026-04-27T06:27:17.889Z</time></trkpt><trkpt lat="42.16601" lon="14.5930117"><ele>138.0</ele><time>2026-04-27T06:27:19.888Z</time></trkpt><trkpt lat="42.1660767" lon="14.593125"><ele>138.0</ele><time>2026-04-27T06:27:21.889Z</time></trkpt><trkpt lat="42.1661583" lon="14.5932367"><ele>138.0</ele><time>2026-04-27T06:27:23.889Z</time></trkpt><trkpt lat="42.1662433" lon="14.5933417"><ele>138.0</ele><time>2026-04-27T06:27:25.888Z</time></trkpt><trkpt lat="42.166335" lon="14.593435"><ele>138.0</ele><time>2026-04-27T06:27:27.889Z</time></trkpt><trkpt lat="42.1664233" lon="14.5935417"><ele>138.0</ele><time>2026-04-27T06:27:29.888Z</time></trkpt><trkpt lat="42.1665" lon="14.5936433"><ele>138.0</ele><time>2026-04-27T06:27:31.889Z</time></trkpt><trkpt lat="42.1665267" lon="14.5937767"><ele>138.0</ele><time>2026-04-27T06:27:33.889Z</time></trkpt><trkpt lat="42.1664683" lon="14.59386"><ele>138.0</ele><time>2026-04-27T06:27:35.889Z</time></trkpt><trkpt lat="42.1663983" lon="14.59397"><ele>137.4</ele><time>2026-04-27T06:27:37.889Z</time></trkpt><trkpt lat="42.1663333" lon="14.5940883"><ele>136.8</ele><time>2026-04-27T06:27:39.889Z</time></trkpt><trkpt lat="42.16627" lon="14.5942"><ele>136.2</ele><time>2026-04-27T06:27:41.889Z</time></trkpt><trkpt lat="42.1662083" lon="14.5943117"><ele>135.6</ele><time>2026-04-27T06:27:43.888Z</time></trkpt><trkpt lat="42.166145" lon="14.594435"><ele>135.0</ele><time>2026-04-27T06:27:45.889Z</time></trkpt><trkpt lat="42.1660733" lon="14.5945633"><ele>134.66666666666666</ele><time>2026-04-27T06:27:47.888Z</time></trkpt><trkpt lat="42.1660383" lon="14.594635"><ele>134.33333333333334</ele><time>2026-04-27T06:27:48.889Z</time></trkpt><trkpt lat="42.1659617" lon="14.5947733"><ele>134.0</ele><time>2026-04-27T06:27:50.888Z</time></trkpt><trkpt lat="42.165925" lon="14.594845"><ele>133.66666666666669</ele><time>2026-04-27T06:27:51.889Z</time></trkpt><trkpt lat="42.165895" lon="14.59492"><ele>133.33333333333334</ele><time>2026-04-27T06:27:52.888Z</time></trkpt><trkpt lat="42.1658633" lon="14.5950883"><ele>133.0</ele><time>2026-04-27T06:27:54.889Z</time></trkpt><trkpt lat="42.1658583" lon="14.595175"><ele>133.0</ele><time>2026-04-27T06:27:55.889Z</time></trkpt><trkpt lat="42.165855" lon="14.595325"><ele>133.0</ele><time>2026-04-27T06:27:57.889Z</time></trkpt><trkpt lat="42.1658467" lon="14.5954583"><ele>133.0</ele><time>2026-04-27T06:27:59.889Z</time></trkpt><trkpt lat="42.1658267" lon="14.5955783"><ele>133.0</ele><time>2026-04-27T06:28:01.888Z</time></trkpt><trkpt lat="42.1657883" lon="14.59568"><ele>133.0</ele><time>2026-04-27T06:28:03.888Z</time></trkpt><trkpt lat="42.165745" lon="14.5957567"><ele>133.66666666666669</ele><time>2026-04-27T06:28:05.889Z</time></trkpt><trkpt lat="42.165695" lon="14.59583"><ele>134.33333333333334</ele><time>2026-04-27T06:28:07.888Z</time></trkpt><trkpt lat="42.1656433" lon="14.5959033"><ele>135.0</ele><time>2026-04-27T06:28:09.889Z</time></trkpt><trkpt lat="42.165595" lon="14.5959867"><ele>135.66666666666666</ele><time>2026-04-27T06:28:11.888Z</time></trkpt><trkpt lat="42.1655433" lon="14.596055"><ele>136.33333333333331</ele><time>2026-04-27T06:28:13.888Z</time></trkpt><trkpt lat="42.16549" lon="14.5961333"><ele>137.0</ele><time>2026-04-27T06:28:15.889Z</time></trkpt><trkpt lat="42.1654367" lon="14.596205"><ele>137.00000000000003</ele><time>2026-04-27T06:28:17.889Z</time></trkpt><trkpt lat="42.165385" lon="14.5962733"><ele>137.0</ele><time>2026-04-27T06:28:19.888Z</time></trkpt><trkpt lat="42.1653267" lon="14.5963433"><ele>137.0</ele><time>2026-04-27T06:28:21.888Z</time></trkpt><trkpt lat="42.16527" lon="14.5964017"><ele>137.0</ele><time>2026-04-27T06:28:23.889Z</time></trkpt><trkpt lat="42.1652083" lon="14.596445"><ele>137.0</ele><time>2026-04-27T06:28:25.889Z</time></trkpt><trkpt lat="42.16514" lon="14.5964517"><ele>137.00000000000003</ele><time>2026-04-27T06:28:27.889Z</time></trkpt><trkpt lat="42.1650683" lon="14.596445"><ele>137.0</ele><time>2026-04-27T06:28:29.889Z</time></trkpt><trkpt lat="42.1649867" lon="14.5964183"><ele>137.0</ele><time>2026-04-27T06:28:31.889Z</time></trkpt><trkpt lat="42.1649133" lon="14.5963867"><ele>137.0</ele><time>2026-04-27T06:28:33.889Z</time></trkpt><trkpt lat="42.1648433" lon="14.5963567"><ele>137.0</ele><time>2026-04-27T06:28:35.889Z</time></trkpt><trkpt lat="42.1647633" lon="14.596345"><ele>137.0</ele><time>2026-04-27T06:28:37.889Z</time></trkpt><trkpt lat="42.1646867" lon="14.59635"><ele>137.0</ele><time>2026-04-27T06:28:39.888Z</time></trkpt><trkpt lat="42.1646117" lon="14.59639"><ele>137.0</ele><time>2026-04-27T06:28:41.888Z</time></trkpt><trkpt lat="42.1645517" lon="14.5964483"><ele>137.0</ele><time>2026-04-27T06:28:43.888Z</time></trkpt><trkpt lat="42.1644967" lon="14.5965133"><ele>137.0</ele><time>2026-04-27T06:28:45.889Z</time></trkpt><trkpt lat="42.1644517" lon="14.5966033"><ele>137.0</ele><time>2026-04-27T06:28:47.888Z</time></trkpt><trkpt lat="42.1644" lon="14.5967033"><ele>137.0</ele><time>2026-04-27T06:28:49.889Z</time></trkpt><trkpt lat="42.1643517" lon="14.596785"><ele>137.0</ele><time>2026-04-27T06:28:51.889Z</time></trkpt><trkpt lat="42.1642933" lon="14.5968633"><ele>137.0</ele><time>2026-04-27T06:28:53.888Z</time></trkpt><trkpt lat="42.164225" lon="14.5969367"><ele>137.0</ele><time>2026-04-27T06:28:55.889Z</time></trkpt><trkpt lat="42.1641567" lon="14.597005"><ele>137.0</ele><time>2026-04-27T06:28:57.889Z</time></trkpt><trkpt lat="42.1640833" lon="14.597055"><ele>137.0</ele><time>2026-04-27T06:28:59.888Z</time></trkpt><trkpt lat="42.1640083" lon="14.5971067"><ele>137.0</ele><time>2026-04-27T06:29:01.889Z</time></trkpt><trkpt lat="42.1639433" lon="14.59716"><ele>137.0</ele><time>2026-04-27T06:29:03.889Z</time></trkpt><trkpt lat="42.1638683" lon="14.5972133"><ele>137.0</ele><time>2026-04-27T06:29:05.889Z</time></trkpt><trkpt lat="42.1638083" lon="14.5972667"><ele>137.00000000000003</ele><time>2026-04-27T06:29:07.888Z</time></trkpt><trkpt lat="42.16375" lon="14.5973117"><ele>137.0</ele><time>2026-04-27T06:29:09.889Z</time></trkpt><trkpt lat="42.1636867" lon="14.5973617"><ele>137.0</ele><time>2026-04-27T06:29:11.888Z</time></trkpt><trkpt lat="42.1636317" lon="14.5974167"><ele>137.0</ele><time>2026-04-27T06:29:13.888Z</time></trkpt><trkpt lat="42.1635783" lon="14.5974717"><ele>137.0</ele><time>2026-04-27T06:29:15.889Z</time></trkpt><trkpt lat="42.1635533" lon="14.597565"><ele>137.00000000000003</ele><time>2026-04-27T06:29:19.889Z</time></trkpt><trkpt lat="42.163585" lon="14.597645"><ele>137.0</ele><time>2026-04-27T06:29:21.889Z</time></trkpt><trkpt lat="42.1636317" lon="14.597715"><ele>137.0</ele><time>2026-04-27T06:29:23.889Z</time></trkpt><trkpt lat="42.1636967" lon="14.5977883"><ele>137.0</ele><time>2026-04-27T06:29:25.889Z</time></trkpt><trkpt lat="42.1637633" lon="14.5978533"><ele>137.0</ele><time>2026-04-27T06:29:27.889Z</time></trkpt><trkpt lat="42.16384" lon="14.5978817"><ele>137.0</ele><time>2026-04-27T06:29:29.889Z</time></trkpt><trkpt lat="42.1639467" lon="14.597925"><ele>137.0</ele><time>2026-04-27T06:29:31.889Z</time></trkpt><trkpt lat="42.1640467" lon="14.59799"><ele>136.25</ele><time>2026-04-27T06:29:33.888Z</time></trkpt><trkpt lat="42.1641533" lon="14.5980533"><ele>135.5</ele><time>2026-04-27T06:29:35.889Z</time></trkpt><trkpt lat="42.164255" lon="14.5981283"><ele>134.75</ele><time>2026-04-27T06:29:37.888Z</time></trkpt><trkpt lat="42.164355" lon="14.5982183"><ele>134.0</ele><time>2026-04-27T06:29:39.889Z</time></trkpt><trkpt lat="42.1644583" lon="14.5983083"><ele>134.0</ele><time>2026-04-27T06:29:41.889Z</time></trkpt><trkpt lat="42.1645533" lon="14.5984"><ele>134.0</ele><time>2026-04-27T06:29:43.889Z</time></trkpt><trkpt lat="42.164645" lon="14.5985083"><ele>134.0</ele><time>2026-04-27T06:29:45.888Z</time></trkpt><trkpt lat="42.164735" lon="14.5986167"><ele>134.0</ele><time>2026-04-27T06:29:47.889Z</time></trkpt><trkpt lat="42.1648167" lon="14.59874"><ele>133.5</ele><time>2026-04-27T06:29:49.889Z</time></trkpt><trkpt lat="42.1648983" lon="14.598855"><ele>133.0</ele><time>2026-04-27T06:29:51.889Z</time></trkpt><trkpt lat="42.1649767" lon="14.5989733"><ele>132.5</ele><time>2026-04-27T06:29:53.889Z</time></trkpt><trkpt lat="42.165055" lon="14.599085"><ele>132.0</ele><time>2026-04-27T06:29:55.889Z</time></trkpt><trkpt lat="42.1651217" lon="14.5992067"><ele>132.0</ele><time>2026-04-27T06:29:57.888Z</time></trkpt><trkpt lat="42.1651767" lon="14.5993333"><ele>132.0</ele><time>2026-04-27T06:29:59.888Z</time></trkpt><trkpt lat="42.1652183" lon="14.599465"><ele>132.0</ele><time>2026-04-27T06:30:01.888Z</time></trkpt><trkpt lat="42.16525" lon="14.5995883"><ele>132.0</ele><time>2026-04-27T06:30:03.888Z</time></trkpt><trkpt lat="42.1652867" lon="14.5997067"><ele>132.0</ele><time>2026-04-27T06:30:05.888Z</time></trkpt><trkpt lat="42.16532" lon="14.5998167"><ele>132.0</ele><time>2026-04-27T06:30:07.889Z</time></trkpt><trkpt lat="42.16536" lon="14.5999267"><ele>132.0</ele><time>2026-04-27T06:30:09.889Z</time></trkpt><trkpt lat="42.165425" lon="14.600015"><ele>132.0</ele><time>2026-04-27T06:30:11.889Z</time></trkpt><trkpt lat="42.1654967" lon="14.60009"><ele>132.0</ele><time>2026-04-27T06:30:13.889Z</time></trkpt><trkpt lat="42.16556" lon="14.6001783"><ele>132.0</ele><time>2026-04-27T06:30:15.889Z</time></trkpt><trkpt lat="42.1656167" lon="14.60027"><ele>131.79999999999998</ele><time>2026-04-27T06:30:17.889Z</time></trkpt><trkpt lat="42.16569" lon="14.6003583"><ele>131.6</ele><time>2026-04-27T06:30:19.889Z</time></trkpt><trkpt lat="42.165765" lon="14.600435"><ele>131.39999999999998</ele><time>2026-04-27T06:30:21.889Z</time></trkpt><trkpt lat="42.1658417" lon="14.60051"><ele>131.2</ele><time>2026-04-27T06:30:23.889Z</time></trkpt><trkpt lat="42.16592" lon="14.6005883"><ele>131.0</ele><time>2026-04-27T06:30:25.888Z</time></trkpt><trkpt lat="42.165995" lon="14.6006767"><ele>130.8</ele><time>2026-04-27T06:30:27.889Z</time></trkpt><trkpt lat="42.16607" lon="14.6007667"><ele>130.6</ele><time>2026-04-27T06:30:29.889Z</time></trkpt><trkpt lat="42.166135" lon="14.6008433"><ele>130.4</ele><time>2026-04-27T06:30:31.889Z</time></trkpt><trkpt lat="42.1662017" lon="14.600925"><ele>130.2</ele><time>2026-04-27T06:30:33.889Z</time></trkpt><trkpt lat="42.1662767" lon="14.6010167"><ele>130.0</ele><time>2026-04-27T06:30:35.889Z</time></trkpt><trkpt lat="42.1663483" lon="14.6010967"><ele>129.8</ele><time>2026-04-27T06:30:37.889Z</time></trkpt><trkpt lat="42.1664183" lon="14.6011767"><ele>129.6</ele><time>2026-04-27T06:30:39.889Z</time></trkpt><trkpt lat="42.1664917" lon="14.60126"><ele>129.4</ele><time>2026-04-27T06:30:41.889Z</time></trkpt><trkpt lat="42.166575" lon="14.6013483"><ele>129.2</ele><time>2026-04-27T06:30:43.889Z</time></trkpt><trkpt lat="42.1666467" lon="14.6014483"><ele>129.0</ele><time>2026-04-27T06:30:45.888Z</time></trkpt><trkpt lat="42.1667233" lon="14.6015533"><ele>128.6</ele><time>2026-04-27T06:30:47.889Z</time></trkpt><trkpt lat="42.1668017" lon="14.6016433"><ele>128.2</ele><time>2026-04-27T06:30:49.888Z</time></trkpt><trkpt lat="42.1668783" lon="14.6017317"><ele>127.79999999999998</ele><time>2026-04-27T06:30:51.889Z</time></trkpt><trkpt lat="42.1669683" lon="14.601825"><ele>127.39999999999999</ele><time>2026-04-27T06:30:53.889Z</time></trkpt><trkpt lat="42.1670517" lon="14.6019217"><ele>127.0</ele><time>2026-04-27T06:30:55.889Z</time></trkpt><trkpt lat="42.1671283" lon="14.6020267"><ele>126.8</ele><time>2026-04-27T06:30:57.888Z</time></trkpt><trkpt lat="42.1671967" lon="14.6021217"><ele>126.6</ele><time>2026-04-27T06:30:59.888Z</time></trkpt><trkpt lat="42.1672667" lon="14.60221"><ele>126.39999999999999</ele><time>2026-04-27T06:31:01.888Z</time></trkpt><trkpt lat="42.1673333" lon="14.6023083"><ele>126.19999999999999</ele><time>2026-04-27T06:31:03.889Z</time></trkpt><trkpt lat="42.167395" lon="14.602405"><ele>126.0</ele><time>2026-04-27T06:31:05.889Z</time></trkpt><trkpt lat="42.167465" lon="14.602495"><ele>125.8</ele><time>2026-04-27T06:31:07.889Z</time></trkpt><trkpt lat="42.1675367" lon="14.6025817"><ele>125.6</ele><time>2026-04-27T06:31:09.888Z</time></trkpt><trkpt lat="42.167615" lon="14.60267"><ele>125.4</ele><time>2026-04-27T06:31:11.888Z</time></trkpt><trkpt lat="42.1676867" lon="14.6027483"><ele>125.2</ele><time>2026-04-27T06:31:13.889Z</time></trkpt><trkpt lat="42.167755" lon="14.602835"><ele>125.0</ele><time>2026-04-27T06:31:15.888Z</time></trkpt><trkpt lat="42.1678367" lon="14.6029"><ele>125.0</ele><time>2026-04-27T06:31:17.889Z</time></trkpt><trkpt lat="42.1679117" lon="14.602985"><ele>125.0</ele><time>2026-04-27T06:31:19.889Z</time></trkpt><trkpt lat="42.16799" lon="14.6030833"><ele>125.0</ele><time>2026-04-27T06:31:21.889Z</time></trkpt><trkpt lat="42.1680667" lon="14.6031867"><ele>125.0</ele><time>2026-04-27T06:31:23.889Z</time></trkpt><trkpt lat="42.1681383" lon="14.6032917"><ele>125.0</ele><time>2026-04-27T06:31:25.889Z</time></trkpt><trkpt lat="42.1682067" lon="14.603405"><ele>124.4</ele><time>2026-04-27T06:31:27.889Z</time></trkpt><trkpt lat="42.1682717" lon="14.60352"><ele>123.8</ele><time>2026-04-27T06:31:29.888Z</time></trkpt><trkpt lat="42.1683283" lon="14.6036433"><ele>123.19999999999999</ele><time>2026-04-27T06:31:31.889Z</time></trkpt><trkpt lat="42.1683833" lon="14.6037683"><ele>122.6</ele><time>2026-04-27T06:31:33.888Z</time></trkpt><trkpt lat="42.16845" lon="14.6038867"><ele>122.0</ele><time>2026-04-27T06:31:35.889Z</time></trkpt><trkpt lat="42.1685233" lon="14.6039933"><ele>122.0</ele><time>2026-04-27T06:31:37.889Z</time></trkpt><trkpt lat="42.1686017" lon="14.6040883"><ele>121.99999999999999</ele><time>2026-04-27T06:31:39.889Z</time></trkpt><trkpt lat="42.1686833" lon="14.6041833"><ele>121.99999999999999</ele><time>2026-04-27T06:31:41.889Z</time></trkpt><trkpt lat="42.1687567" lon="14.6042883"><ele>122.0</ele><time>2026-04-27T06:31:43.889Z</time></trkpt><trkpt lat="42.1688267" lon="14.60439"><ele>122.0</ele><time>2026-04-27T06:31:45.888Z</time></trkpt><trkpt lat="42.1688933" lon="14.6044883"><ele>121.8</ele><time>2026-04-27T06:31:47.889Z</time></trkpt><trkpt lat="42.1689617" lon="14.6045917"><ele>121.6</ele><time>2026-04-27T06:31:49.889Z</time></trkpt><trkpt lat="42.1690333" lon="14.6046983"><ele>121.39999999999999</ele><time>2026-04-27T06:31:51.889Z</time></trkpt><trkpt lat="42.1691117" lon="14.6048033"><ele>121.19999999999999</ele><time>2026-04-27T06:31:53.889Z</time></trkpt><trkpt lat="42.1691833" lon="14.6048967"><ele>121.0</ele><time>2026-04-27T06:31:55.889Z</time></trkpt><trkpt lat="42.1692533" lon="14.6050017"><ele>120.6</ele><time>2026-04-27T06:31:57.888Z</time></trkpt><trkpt lat="42.1693217" lon="14.6050983"><ele>120.19999999999999</ele><time>2026-04-27T06:31:59.888Z</time></trkpt><trkpt lat="42.1693933" lon="14.6051917"><ele>119.80000000000001</ele><time>2026-04-27T06:32:01.888Z</time></trkpt><trkpt lat="42.1694733" lon="14.6052833"><ele>119.4</ele><time>2026-04-27T06:32:03.889Z</time></trkpt><trkpt lat="42.169555" lon="14.605365"><ele>119.0</ele><time>2026-04-27T06:32:05.889Z</time></trkpt><trkpt lat="42.1696317" lon="14.6054567"><ele>119.0</ele><time>2026-04-27T06:32:07.888Z</time></trkpt><trkpt lat="42.1697117" lon="14.605545"><ele>119.0</ele><time>2026-04-27T06:32:09.889Z</time></trkpt><trkpt lat="42.1697917" lon="14.6056333"><ele>119.0</ele><time>2026-04-27T06:32:11.888Z</time></trkpt><trkpt lat="42.1698617" lon="14.605735"><ele>119.0</ele><time>2026-04-27T06:32:13.889Z</time></trkpt><trkpt lat="42.1699367" lon="14.6058267"><ele>119.0</ele><time>2026-04-27T06:32:15.889Z</time></trkpt><trkpt lat="42.170015" lon="14.6059233"><ele>118.6</ele><time>2026-04-27T06:32:17.889Z</time></trkpt><trkpt lat="42.1700933" lon="14.60601"><ele>118.2</ele><time>2026-04-27T06:32:19.889Z</time></trkpt><trkpt lat="42.1701617" lon="14.6061017"><ele>117.79999999999998</ele><time>2026-04-27T06:32:21.888Z</time></trkpt><trkpt lat="42.17024" lon="14.6061783"><ele>117.39999999999999</ele><time>2026-04-27T06:32:23.889Z</time></trkpt><trkpt lat="42.17032" lon="14.6062633"><ele>117.0</ele><time>2026-04-27T06:32:25.889Z</time></trkpt><trkpt lat="42.1703983" lon="14.6063617"><ele>117.0</ele><time>2026-04-27T06:32:27.888Z</time></trkpt><trkpt lat="42.1704633" lon="14.6064583"><ele>116.99999999999999</ele><time>2026-04-27T06:32:29.889Z</time></trkpt><trkpt lat="42.1705217" lon="14.60657"><ele>116.99999999999999</ele><time>2026-04-27T06:32:31.889Z</time></trkpt><trkpt lat="42.1705867" lon="14.6066733"><ele>117.0</ele><time>2026-04-27T06:32:33.889Z</time></trkpt><trkpt lat="42.1706583" lon="14.606775"><ele>117.0</ele><time>2026-04-27T06:32:35.889Z</time></trkpt><trkpt lat="42.1707317" lon="14.6068567"><ele>116.8</ele><time>2026-04-27T06:32:37.888Z</time></trkpt><trkpt lat="42.170805" lon="14.6069383"><ele>116.6</ele><time>2026-04-27T06:32:39.889Z</time></trkpt><trkpt lat="42.170875" lon="14.607025"><ele>116.39999999999999</ele><time>2026-04-27T06:32:41.889Z</time></trkpt><trkpt lat="42.17094" lon="14.6071217"><ele>116.19999999999999</ele><time>2026-04-27T06:32:43.889Z</time></trkpt><trkpt lat="42.171005" lon="14.6072067"><ele>116.0</ele><time>2026-04-27T06:32:45.889Z</time></trkpt><trkpt lat="42.1710683" lon="14.607295"><ele>115.8</ele><time>2026-04-27T06:32:47.888Z</time></trkpt><trkpt lat="42.1711367" lon="14.607385"><ele>115.6</ele><time>2026-04-27T06:32:49.888Z</time></trkpt><trkpt lat="42.1712033" lon="14.60748"><ele>115.4</ele><time>2026-04-27T06:32:51.888Z</time></trkpt><trkpt lat="42.1712683" lon="14.6075717"><ele>115.2</ele><time>2026-04-27T06:32:53.888Z</time></trkpt><trkpt lat="42.1713333" lon="14.6076633"><ele>115.0</ele><time>2026-04-27T06:32:55.889Z</time></trkpt><trkpt lat="42.1713967" lon="14.6077617"><ele>114.4</ele><time>2026-04-27T06:32:57.889Z</time></trkpt><trkpt lat="42.1714683" lon="14.60785"><ele>113.8</ele><time>2026-04-27T06:32:59.888Z</time></trkpt><trkpt lat="42.1715317" lon="14.6079533"><ele>113.19999999999999</ele><time>2026-04-27T06:33:01.889Z</time></trkpt><trkpt lat="42.17158" lon="14.6080667"><ele>112.6</ele><time>2026-04-27T06:33:03.889Z</time></trkpt><trkpt lat="42.1716467" lon="14.6081733"><ele>112.0</ele><time>2026-04-27T06:33:05.888Z</time></trkpt><trkpt lat="42.1717233" lon="14.608255"><ele>112.0</ele><time>2026-04-27T06:33:07.889Z</time></trkpt><trkpt lat="42.1718" lon="14.6083483"><ele>111.99999999999999</ele><time>2026-04-27T06:33:09.889Z</time></trkpt><trkpt lat="42.1718767" lon="14.6084417"><ele>111.99999999999999</ele><time>2026-04-27T06:33:11.889Z</time></trkpt><trkpt lat="42.1719667" lon="14.6085333"><ele>112.0</ele><time>2026-04-27T06:33:13.889Z</time></trkpt><trkpt lat="42.1720583" lon="14.6086217"><ele>112.0</ele><time>2026-04-27T06:33:15.888Z</time></trkpt><trkpt lat="42.1721417" lon="14.6087117"><ele>111.0</ele><time>2026-04-27T06:33:17.888Z</time></trkpt><trkpt lat="42.17223" lon="14.6088133"><ele>110.0</ele><time>2026-04-27T06:33:19.889Z</time></trkpt><trkpt lat="42.1723133" lon="14.608915"><ele>109.0</ele><time>2026-04-27T06:33:21.889Z</time></trkpt><trkpt lat="42.1724" lon="14.60903"><ele>108.0</ele><time>2026-04-27T06:33:23.888Z</time></trkpt><trkpt lat="42.1724767" lon="14.6091467"><ele>108.0</ele><time>2026-04-27T06:33:25.888Z</time></trkpt><trkpt lat="42.1725467" lon="14.6092433"><ele>108.00000000000001</ele><time>2026-04-27T06:33:27.888Z</time></trkpt><trkpt lat="42.172605" lon="14.6093383"><ele>108.00000000000001</ele><time>2026-04-27T06:33:29.889Z</time></trkpt><trkpt lat="42.1726733" lon="14.6094283"><ele>108.0</ele><time>2026-04-27T06:33:31.889Z</time></trkpt><trkpt lat="42.172765" lon="14.6095067"><ele>108.0</ele><time>2026-04-27T06:33:33.889Z</time></trkpt><trkpt lat="42.1728583" lon="14.609565"><ele>106.0</ele><time>2026-04-27T06:33:35.889Z</time></trkpt><trkpt lat="42.17297" lon="14.6096217"><ele>104.0</ele><time>2026-04-27T06:33:37.889Z</time></trkpt><trkpt lat="42.1730833" lon="14.6096933"><ele>102.0</ele><time>2026-04-27T06:33:39.889Z</time></trkpt><trkpt lat="42.1731767" lon="14.60979"><ele>100.0</ele><time>2026-04-27T06:33:41.889Z</time></trkpt><trkpt lat="42.1732617" lon="14.6098833"><ele>99.83333333333334</ele><time>2026-04-27T06:33:43.889Z</time></trkpt><trkpt lat="42.1733317" lon="14.6099683"><ele>99.66666666666667</ele><time>2026-04-27T06:33:45.888Z</time></trkpt><trkpt lat="42.173385" lon="14.6100233"><ele>99.5</ele><time>2026-04-27T06:33:47.889Z</time></trkpt><trkpt lat="42.173445" lon="14.6100733"><ele>99.33333333333334</ele><time>2026-04-27T06:33:49.888Z</time></trkpt><trkpt lat="42.1735467" lon="14.610085"><ele>99.16666666666667</ele><time>2026-04-27T06:33:51.889Z</time></trkpt><trkpt lat="42.1736467" lon="14.6100567"><ele>99.0</ele><time>2026-04-27T06:33:53.889Z</time></trkpt><trkpt lat="42.1737467" lon="14.6100383"><ele>99.0</ele><time>2026-04-27T06:33:55.888Z</time></trkpt><trkpt lat="42.1738367" lon="14.6100333"><ele>99.0</ele><time>2026-04-27T06:33:57.889Z</time></trkpt><trkpt lat="42.173925" lon="14.6100233"><ele>99.0</ele><time>2026-04-27T06:33:59.889Z</time></trkpt><trkpt lat="42.1740317" lon="14.61002"><ele>99.0</ele><time>2026-04-27T06:34:01.889Z</time></trkpt><trkpt lat="42.174095" lon="14.6100317"><ele>99.0</ele><time>2026-04-27T06:34:02.888Z</time></trkpt><trkpt lat="42.1742217" lon="14.6100567"><ele>98.14285714285715</ele><time>2026-04-27T06:34:04.889Z</time></trkpt><trkpt lat="42.17429" lon="14.6100717"><ele>97.28571428571428</ele><time>2026-04-27T06:34:05.889Z</time></trkpt><trkpt lat="42.1743583" lon="14.610095"><ele>96.42857142857143</ele><time>2026-04-27T06:34:06.888Z</time></trkpt><trkpt lat="42.1744333" lon="14.610125"><ele>95.57142857142858</ele><time>2026-04-27T06:34:07.889Z</time></trkpt><trkpt lat="42.17451" lon="14.6101433"><ele>94.71428571428572</ele><time>2026-04-27T06:34:08.888Z</time></trkpt><trkpt lat="42.1745883" lon="14.610155"><ele>93.85714285714286</ele><time>2026-04-27T06:34:09.889Z</time></trkpt><trkpt lat="42.17466" lon="14.6101717"><ele>93.0</ele><time>2026-04-27T06:34:10.888Z</time></trkpt><trkpt lat="42.174735" lon="14.6101867"><ele>93.0</ele><time>2026-04-27T06:34:11.889Z</time></trkpt><trkpt lat="42.1748067" lon="14.6102067"><ele>93.0</ele><time>2026-04-27T06:34:12.889Z</time></trkpt><trkpt lat="42.1748783" lon="14.61023"><ele>93.0</ele><time>2026-04-27T06:34:13.888Z</time></trkpt><trkpt lat="42.1749567" lon="14.6102483"><ele>93.0</ele><time>2026-04-27T06:34:14.889Z</time></trkpt><trkpt lat="42.1750367" lon="14.6102633"><ele>93.0</ele><time>2026-04-27T06:34:15.889Z</time></trkpt><trkpt lat="42.175115" lon="14.6102817"><ele>93.0</ele><time>2026-04-27T06:34:16.888Z</time></trkpt><trkpt lat="42.1751883" lon="14.6103017"><ele>91.57142857142858</ele><time>2026-04-27T06:34:17.889Z</time></trkpt><trkpt lat="42.1752567" lon="14.6103167"><ele>90.14285714285714</ele><time>2026-04-27T06:34:18.889Z</time></trkpt><trkpt lat="42.175325" lon="14.6103267"><ele>88.71428571428572</ele><time>2026-04-27T06:34:19.888Z</time></trkpt><trkpt lat="42.1753933" lon="14.6103467"><ele>87.28571428571429</ele><time>2026-04-27T06:34:20.889Z</time></trkpt><trkpt lat="42.1754583" lon="14.6103617"><ele>85.85714285714286</ele><time>2026-04-27T06:34:21.888Z</time></trkpt><trkpt lat="42.175525" lon="14.6103667"><ele>84.42857142857143</ele><time>2026-04-27T06:34:22.888Z</time></trkpt><trkpt lat="42.1755917" lon="14.6103767"><ele>83.0</ele><time>2026-04-27T06:34:23.889Z</time></trkpt><trkpt lat="42.175655" lon="14.6103933"><ele>79.60000000000001</ele><time>2026-04-27T06:34:24.889Z</time></trkpt><trkpt lat="42.17577" lon="14.61044"><ele>76.2</ele><time>2026-04-27T06:34:26.889Z</time></trkpt><trkpt lat="42.175865" lon="14.6105117"><ele>72.8</ele><time>2026-04-27T06:34:28.888Z</time></trkpt><trkpt lat="42.17594" lon="14.610585"><ele>69.4</ele><time>2026-04-27T06:34:30.888Z</time></trkpt><trkpt lat="42.1760067" lon="14.6106733"><ele>66.0</ele><time>2026-04-27T06:34:32.889Z</time></trkpt><trkpt lat="42.17608" lon="14.610775"><ele>66.0</ele><time>2026-04-27T06:34:34.889Z</time></trkpt><trkpt lat="42.1761517" lon="14.6108567"><ele>66.0</ele><time>2026-04-27T06:34:36.89Z</time></trkpt><trkpt lat="42.1762167" lon="14.6109383"><ele>66.0</ele><time>2026-04-27T06:34:38.89Z</time></trkpt><trkpt lat="42.176285" lon="14.61102"><ele>66.0</ele><time>2026-04-27T06:34:40.89Z</time></trkpt><trkpt lat="42.1763433" lon="14.6111017"><ele>66.0</ele><time>2026-04-27T06:34:42.889Z</time></trkpt><trkpt lat="42.1764117" lon="14.6111817"><ele>66.0</ele><time>2026-04-27T06:34:44.889Z</time></trkpt><trkpt lat="42.17647" lon="14.6112667"><ele>64.83333333333333</ele><time>2026-04-27T06:34:46.89Z</time></trkpt><trkpt lat="42.176535" lon="14.6113417"><ele>63.66666666666667</ele><time>2026-04-27T06:34:48.89Z</time></trkpt><trkpt lat="42.1766033" lon="14.6113883"><ele>62.5</ele><time>2026-04-27T06:34:50.89Z</time></trkpt><trkpt lat="42.1766833" lon="14.6114267"><ele>61.333333333333336</ele><time>2026-04-27T06:34:52.89Z</time></trkpt><trkpt lat="42.1767567" lon="14.6114433"><ele>60.16666666666667</ele><time>2026-04-27T06:34:54.89Z</time></trkpt><trkpt lat="42.1768417" lon="14.6114267"><ele>59.0</ele><time>2026-04-27T06:34:56.89Z</time></trkpt><trkpt lat="42.17693" lon="14.6114033"><ele>59.00000000000001</ele><time>2026-04-27T06:34:58.889Z</time></trkpt><trkpt lat="42.177025" lon="14.6113717"><ele>59.0</ele><time>2026-04-27T06:35:00.89Z</time></trkpt><trkpt lat="42.17711" lon="14.61135"><ele>59.0</ele><time>2026-04-27T06:35:02.89Z</time></trkpt><trkpt lat="42.1771967" lon="14.6113483"><ele>59.0</ele><time>2026-04-27T06:35:04.889Z</time></trkpt><trkpt lat="42.1772783" lon="14.61134"><ele>59.00000000000001</ele><time>2026-04-27T06:35:06.889Z</time></trkpt><trkpt lat="42.17736" lon="14.6113333"><ele>59.0</ele><time>2026-04-27T06:35:08.889Z</time></trkpt><trkpt lat="42.1774533" lon="14.6113217"><ele>58.50000000000001</ele><time>2026-04-27T06:35:10.89Z</time></trkpt><trkpt lat="42.177545" lon="14.611305"><ele>58.0</ele><time>2026-04-27T06:35:12.89Z</time></trkpt><trkpt lat="42.177635" lon="14.611295"><ele>57.5</ele><time>2026-04-27T06:35:14.889Z</time></trkpt><trkpt lat="42.1777167" lon="14.6112883"><ele>57.0</ele><time>2026-04-27T06:35:16.89Z</time></trkpt><trkpt lat="42.1777967" lon="14.6112783"><ele>56.50000000000001</ele><time>2026-04-27T06:35:18.89Z</time></trkpt><trkpt lat="42.1778717" lon="14.6112617"><ele>56.0</ele><time>2026-04-27T06:35:20.89Z</time></trkpt><trkpt lat="42.17794" lon="14.6112517"><ele>56.00000000000001</ele><time>2026-04-27T06:35:22.889Z</time></trkpt><trkpt lat="42.1780333" lon="14.6112883"><ele>56.0</ele><time>2026-04-27T06:35:25.889Z</time></trkpt><trkpt lat="42.178105" lon="14.6113383"><ele>56.0</ele><time>2026-04-27T06:35:27.889Z</time></trkpt><trkpt lat="42.1781783" lon="14.6113967"><ele>56.0</ele><time>2026-04-27T06:35:29.89Z</time></trkpt><trkpt lat="42.1782467" lon="14.6114483"><ele>56.00000000000001</ele><time>2026-04-27T06:35:31.89Z</time></trkpt><trkpt lat="42.1783083" lon="14.6114833"><ele>56.0</ele><time>2026-04-27T06:35:33.89Z</time></trkpt><trkpt lat="42.1783783" lon="14.611525"><ele>55.833333333333336</ele><time>2026-04-27T06:35:35.889Z</time></trkpt><trkpt lat="42.1784517" lon="14.61156"><ele>55.66666666666667</ele><time>2026-04-27T06:35:37.89Z</time></trkpt><trkpt lat="42.1785267" lon="14.6115833"><ele>55.5</ele><time>2026-04-27T06:35:39.89Z</time></trkpt><trkpt lat="42.1785967" lon="14.6115917"><ele>55.33333333333333</ele><time>2026-04-27T06:35:41.889Z</time></trkpt><trkpt lat="42.1786683" lon="14.6116067"><ele>55.166666666666664</ele><time>2026-04-27T06:35:43.889Z</time></trkpt><trkpt lat="42.17875" lon="14.6116317"><ele>55.0</ele><time>2026-04-27T06:35:45.89Z</time></trkpt><trkpt lat="42.1788333" lon="14.6116333"><ele>54.99999999999999</ele><time>2026-04-27T06:35:47.89Z</time></trkpt><trkpt lat="42.178915" lon="14.6116383"><ele>55.0</ele><time>2026-04-27T06:35:49.889Z</time></trkpt><trkpt lat="42.17899" lon="14.6116517"><ele>55.0</ele><time>2026-04-27T06:35:51.89Z</time></trkpt><trkpt lat="42.17907" lon="14.611665"><ele>55.0</ele><time>2026-04-27T06:35:53.89Z</time></trkpt><trkpt lat="42.1791483" lon="14.6116717"><ele>54.99999999999999</ele><time>2026-04-27T06:35:55.89Z</time></trkpt><trkpt lat="42.1792217" lon="14.61167"><ele>55.0</ele><time>2026-04-27T06:35:57.89Z</time></trkpt><trkpt lat="42.1792917" lon="14.6116633"><ele>54.83333333333333</ele><time>2026-04-27T06:35:59.89Z</time></trkpt><trkpt lat="42.1793633" lon="14.6116433"><ele>54.666666666666664</ele><time>2026-04-27T06:36:01.89Z</time></trkpt><trkpt lat="42.17944" lon="14.61162"><ele>54.5</ele><time>2026-04-27T06:36:03.89Z</time></trkpt><trkpt lat="42.1795083" lon="14.6116167"><ele>54.33333333333333</ele><time>2026-04-27T06:36:05.89Z</time></trkpt><trkpt lat="42.1796033" lon="14.61162"><ele>54.166666666666664</ele><time>2026-04-27T06:36:08.889Z</time></trkpt><trkpt lat="42.1796783" lon="14.61163"><ele>54.0</ele><time>2026-04-27T06:36:10.889Z</time></trkpt><trkpt lat="42.179755" lon="14.6116417"><ele>54.0</ele><time>2026-04-27T06:36:12.89Z</time></trkpt><trkpt lat="42.1798383" lon="14.6116683"><ele>54.00000000000001</ele><time>2026-04-27T06:36:14.889Z</time></trkpt><trkpt lat="42.1799333" lon="14.6116683"><ele>54.00000000000001</ele><time>2026-04-27T06:36:16.89Z</time></trkpt><trkpt lat="42.1800233" lon="14.6116617"><ele>54.0</ele><time>2026-04-27T06:36:18.889Z</time></trkpt><trkpt lat="42.1801167" lon="14.6116233"><ele>54.0</ele><time>2026-04-27T06:36:20.89Z</time></trkpt><trkpt lat="42.1802033" lon="14.6115833"><ele>53.400000000000006</ele><time>2026-04-27T06:36:22.89Z</time></trkpt><trkpt lat="42.1802967" lon="14.6115317"><ele>52.800000000000004</ele><time>2026-04-27T06:36:24.89Z</time></trkpt><trkpt lat="42.1803933" lon="14.6114733"><ele>52.2</ele><time>2026-04-27T06:36:26.89Z</time></trkpt><trkpt lat="42.1804817" lon="14.6114033"><ele>51.599999999999994</ele><time>2026-04-27T06:36:28.89Z</time></trkpt><trkpt lat="42.1805683" lon="14.6113383"><ele>51.0</ele><time>2026-04-27T06:36:30.889Z</time></trkpt><trkpt lat="42.1806533" lon="14.6112783"><ele>50.5</ele><time>2026-04-27T06:36:32.889Z</time></trkpt><trkpt lat="42.18073" lon="14.611225"><ele>50.0</ele><time>2026-04-27T06:36:34.89Z</time></trkpt><trkpt lat="42.1808017" lon="14.61118"><ele>49.5</ele><time>2026-04-27T06:36:36.889Z</time></trkpt><trkpt lat="42.18087" lon="14.61115"><ele>49.0</ele><time>2026-04-27T06:36:38.889Z</time></trkpt><trkpt lat="42.18094" lon="14.6111"><ele>48.5</ele><time>2026-04-27T06:36:40.89Z</time></trkpt><trkpt lat="42.1810217" lon="14.6110483"><ele>48.0</ele><time>2026-04-27T06:36:42.889Z</time></trkpt><trkpt lat="42.1810933" lon="14.610995"><ele>48.5</ele><time>2026-04-27T06:36:44.889Z</time></trkpt><trkpt lat="42.1811767" lon="14.610945"><ele>49.0</ele><time>2026-04-27T06:36:46.889Z</time></trkpt><trkpt lat="42.1812617" lon="14.6109133"><ele>49.5</ele><time>2026-04-27T06:36:48.89Z</time></trkpt><trkpt lat="42.1813333" lon="14.610895"><ele>50.0</ele><time>2026-04-27T06:36:50.889Z</time></trkpt><trkpt lat="42.1814083" lon="14.610875"><ele>50.5</ele><time>2026-04-27T06:36:52.89Z</time></trkpt><trkpt lat="42.18148" lon="14.610855"><ele>51.0</ele><time>2026-04-27T06:36:54.89Z</time></trkpt><trkpt lat="42.1815683" lon="14.61081"><ele>51.0</ele><time>2026-04-27T06:36:57.889Z</time></trkpt><trkpt lat="42.1816367" lon="14.6107817"><ele>51.0</ele><time>2026-04-27T06:36:59.889Z</time></trkpt><trkpt lat="42.181725" lon="14.610765"><ele>51.0</ele><time>2026-04-27T06:37:01.89Z</time></trkpt><trkpt lat="42.181835" lon="14.6107417"><ele>51.0</ele><time>2026-04-27T06:37:03.889Z</time></trkpt><trkpt lat="42.1819367" lon="14.61072"><ele>51.0</ele><time>2026-04-27T06:37:05.89Z</time></trkpt><trkpt lat="42.18204" lon="14.6107167"><ele>51.0</ele><time>2026-04-27T06:37:07.89Z</time></trkpt><trkpt lat="42.1821433" lon="14.610705"><ele>51.0</ele><time>2026-04-27T06:37:09.89Z</time></trkpt><trkpt lat="42.182255" lon="14.6107083"><ele>51.0</ele><time>2026-04-27T06:37:11.889Z</time></trkpt><trkpt lat="42.1823617" lon="14.6107117"><ele>51.0</ele><time>2026-04-27T06:37:13.89Z</time></trkpt><trkpt lat="42.1824717" lon="14.6107067"><ele>51.0</ele><time>2026-04-27T06:37:15.89Z</time></trkpt><trkpt lat="42.182575" lon="14.6106983"><ele>50.599999999999994</ele><time>2026-04-27T06:37:17.89Z</time></trkpt><trkpt lat="42.182685" lon="14.6107167"><ele>50.2</ele><time>2026-04-27T06:37:19.889Z</time></trkpt><trkpt lat="42.18279" lon="14.6107283"><ele>49.8</ele><time>2026-04-27T06:37:21.89Z</time></trkpt><trkpt lat="42.182885" lon="14.6107317"><ele>49.400000000000006</ele><time>2026-04-27T06:37:23.89Z</time></trkpt><trkpt lat="42.1829783" lon="14.6107317"><ele>49.0</ele><time>2026-04-27T06:37:25.889Z</time></trkpt><trkpt lat="42.1830833" lon="14.6107483"><ele>49.0</ele><time>2026-04-27T06:37:27.89Z</time></trkpt><trkpt lat="42.183175" lon="14.6107833"><ele>49.0</ele><time>2026-04-27T06:37:29.889Z</time></trkpt><trkpt lat="42.183275" lon="14.6108333"><ele>49.0</ele><time>2026-04-27T06:37:31.889Z</time></trkpt><trkpt lat="42.1833717" lon="14.610865"><ele>49.0</ele><time>2026-04-27T06:37:33.889Z</time></trkpt><trkpt lat="42.1834567" lon="14.6108633"><ele>49.0</ele><time>2026-04-27T06:37:35.89Z</time></trkpt><trkpt lat="42.1835333" lon="14.6108517"><ele>48.33333333333333</ele><time>2026-04-27T06:37:37.889Z</time></trkpt><trkpt lat="42.1836033" lon="14.610825"><ele>47.666666666666664</ele><time>2026-04-27T06:37:39.89Z</time></trkpt><trkpt lat="42.18368" lon="14.61081"><ele>47.0</ele><time>2026-04-27T06:37:42.89Z</time></trkpt><trkpt lat="42.183745" lon="14.6107867"><ele>46.33333333333333</ele><time>2026-04-27T06:37:44.89Z</time></trkpt><trkpt lat="42.1838383" lon="14.61077"><ele>45.666666666666664</ele><time>2026-04-27T06:37:46.89Z</time></trkpt><trkpt lat="42.1839583" lon="14.6107383"><ele>45.0</ele><time>2026-04-27T06:37:48.89Z</time></trkpt><trkpt lat="42.18406" lon="14.610705"><ele>44.666666666666664</ele><time>2026-04-27T06:37:50.889Z</time></trkpt><trkpt lat="42.184145" lon="14.6106733"><ele>44.333333333333336</ele><time>2026-04-27T06:37:52.889Z</time></trkpt><trkpt lat="42.1842183" lon="14.61065"><ele>44.0</ele><time>2026-04-27T06:37:54.889Z</time></trkpt><trkpt lat="42.1842833" lon="14.6106467"><ele>43.66666666666667</ele><time>2026-04-27T06:37:56.889Z</time></trkpt><trkpt lat="42.1843617" lon="14.6106683"><ele>43.333333333333336</ele><time>2026-04-27T06:37:59.89Z</time></trkpt><trkpt lat="42.1844383" lon="14.6107283"><ele>43.0</ele><time>2026-04-27T06:38:02.89Z</time></trkpt><trkpt lat="42.1844783" lon="14.6108"><ele>43.0</ele><time>2026-04-27T06:38:05.889Z</time></trkpt><trkpt lat="42.18452" lon="14.6108783"><ele>43.0</ele><time>2026-04-27T06:38:08.89Z</time></trkpt><trkpt lat="42.1845883" lon="14.61095"><ele>43.0</ele><time>2026-04-27T06:38:11.89Z</time></trkpt><trkpt lat="42.184645" lon="14.611015"><ele>43.0</ele><time>2026-04-27T06:38:13.889Z</time></trkpt><trkpt lat="42.1846817" lon="14.6110967"><ele>43.0</ele><time>2026-04-27T06:38:15.89Z</time></trkpt><trkpt lat="42.1846767" lon="14.61121"><ele>43.0</ele><time>2026-04-27T06:38:18.889Z</time></trkpt><trkpt lat="42.18464" lon="14.611305"><ele>43.42857142857143</ele><time>2026-04-27T06:38:21.89Z</time></trkpt><trkpt lat="42.1846017" lon="14.611385"><ele>43.85714285714286</ele><time>2026-04-27T06:38:23.89Z</time></trkpt><trkpt lat="42.1845817" lon="14.611485"><ele>44.28571428571429</ele><time>2026-04-27T06:38:27.889Z</time></trkpt><trkpt lat="42.1845433" lon="14.6115667"><ele>44.714285714285715</ele><time>2026-04-27T06:38:32.89Z</time></trkpt><trkpt lat="42.1845217" lon="14.6116667"><ele>45.14285714285714</ele><time>2026-04-27T06:38:36.889Z</time></trkpt><trkpt lat="42.1845367" lon="14.6117567"><ele>45.57142857142858</ele><time>2026-04-27T06:38:39.889Z</time></trkpt><trkpt lat="42.1845717" lon="14.6118583"><ele>46.0</ele><time>2026-04-27T06:38:42.89Z</time></trkpt><trkpt lat="42.1846117" lon="14.6119267"><ele>46.85714285714286</ele><time>2026-04-27T06:38:44.89Z</time></trkpt><trkpt lat="42.1846733" lon="14.6119917"><ele>47.71428571428571</ele><time>2026-04-27T06:38:46.889Z</time></trkpt><trkpt lat="42.18473" lon="14.61205"><ele>48.57142857142857</ele><time>2026-04-27T06:38:48.889Z</time></trkpt><trkpt lat="42.1847917" lon="14.6120883"><ele>49.42857142857143</ele><time>2026-04-27T06:38:50.89Z</time></trkpt><trkpt lat="42.18485" lon="14.61214"><ele>50.28571428571429</ele><time>2026-04-27T06:38:52.889Z</time></trkpt><trkpt lat="42.184905" lon="14.6121867"><ele>51.14285714285714</ele><time>2026-04-27T06:38:54.89Z</time></trkpt><trkpt lat="42.1849617" lon="14.61223"><ele>52.0</ele><time>2026-04-27T06:38:56.89Z</time></trkpt><trkpt lat="42.185025" lon="14.6122567"><ele>52.0</ele><time>2026-04-27T06:38:58.89Z</time></trkpt><trkpt lat="42.185105" lon="14.6123033"><ele>52.0</ele><time>2026-04-27T06:39:00.89Z</time></trkpt><trkpt lat="42.1851933" lon="14.6123733"><ele>52.0</ele><time>2026-04-27T06:39:02.89Z</time></trkpt><trkpt lat="42.1852867" lon="14.6124367"><ele>52.0</ele><time>2026-04-27T06:39:04.89Z</time></trkpt><trkpt lat="42.1853783" lon="14.6124933"><ele>52.0</ele><time>2026-04-27T06:39:06.89Z</time></trkpt><trkpt lat="42.1854717" lon="14.61255"><ele>52.0</ele><time>2026-04-27T06:39:08.889Z</time></trkpt><trkpt lat="42.18557" lon="14.6126133"><ele>52.0</ele><time>2026-04-27T06:39:10.89Z</time></trkpt><trkpt lat="42.1856617" lon="14.6126833"><ele>52.0</ele><time>2026-04-27T06:39:12.889Z</time></trkpt><trkpt lat="42.1857533" lon="14.6127567"><ele>52.0</ele><time>2026-04-27T06:39:14.889Z</time></trkpt><trkpt lat="42.1858317" lon="14.61283"><ele>52.0</ele><time>2026-04-27T06:39:16.889Z</time></trkpt><trkpt lat="42.1859133" lon="14.6128933"><ele>53.2</ele><time>2026-04-27T06:39:18.89Z</time></trkpt><trkpt lat="42.1860033" lon="14.6129633"><ele>54.400000000000006</ele><time>2026-04-27T06:39:20.89Z</time></trkpt><trkpt lat="42.1860883" lon="14.6130133"><ele>55.599999999999994</ele><time>2026-04-27T06:39:22.889Z</time></trkpt><trkpt lat="42.1861683" lon="14.6130567"><ele>56.8</ele><time>2026-04-27T06:39:24.89Z</time></trkpt><trkpt lat="42.1862417" lon="14.6131183"><ele>58.0</ele><time>2026-04-27T06:39:26.889Z</time></trkpt><trkpt lat="42.18631" lon="14.613205"><ele>58.0</ele><time>2026-04-27T06:39:28.889Z</time></trkpt><trkpt lat="42.1864033" lon="14.6133017"><ele>58.0</ele><time>2026-04-27T06:39:30.889Z</time></trkpt><trkpt lat="42.1864883" lon="14.6134183"><ele>58.0</ele><time>2026-04-27T06:39:32.889Z</time></trkpt><trkpt lat="42.1865733" lon="14.613515"><ele>58.0</ele><time>2026-04-27T06:39:34.89Z</time></trkpt><trkpt lat="42.1866233" lon="14.6135667"><ele>58.0</ele><time>2026-04-27T06:39:35.89Z</time></trkpt><trkpt lat="42.1867167" lon="14.6136517"><ele>57.8</ele><time>2026-04-27T06:39:37.89Z</time></trkpt><trkpt lat="42.1868017" lon="14.6137167"><ele>57.599999999999994</ele><time>2026-04-27T06:39:39.889Z</time></trkpt><trkpt lat="42.1868817" lon="14.6137817"><ele>57.400000000000006</ele><time>2026-04-27T06:39:41.89Z</time></trkpt><trkpt lat="42.1869633" lon="14.6138433"><ele>57.2</ele><time>2026-04-27T06:39:43.89Z</time></trkpt><trkpt lat="42.1870417" lon="14.6139117"><ele>57.0</ele><time>2026-04-27T06:39:45.889Z</time></trkpt><trkpt lat="42.1871217" lon="14.61394"><ele>57.0</ele><time>2026-04-27T06:39:47.889Z</time></trkpt><trkpt lat="42.1872017" lon="14.61398"><ele>57.0</ele><time>2026-04-27T06:39:49.889Z</time></trkpt><trkpt lat="42.1872867" lon="14.6140717"><ele>57.0</ele><time>2026-04-27T06:39:51.89Z</time></trkpt><trkpt lat="42.18737" lon="14.6141517"><ele>57.0</ele><time>2026-04-27T06:39:53.889Z</time></trkpt><trkpt lat="42.1874633" lon="14.6142133"><ele>57.0</ele><time>2026-04-27T06:39:55.889Z</time></trkpt><trkpt lat="42.1875617" lon="14.6142667"><ele>57.2</ele><time>2026-04-27T06:39:57.89Z</time></trkpt><trkpt lat="42.1876633" lon="14.6143317"><ele>57.400000000000006</ele><time>2026-04-27T06:39:59.89Z</time></trkpt><trkpt lat="42.1877617" lon="14.6144017"><ele>57.599999999999994</ele><time>2026-04-27T06:40:01.889Z</time></trkpt><trkpt lat="42.1878517" lon="14.6144833"><ele>57.8</ele><time>2026-04-27T06:40:03.89Z</time></trkpt><trkpt lat="42.187895" lon="14.6145467"><ele>58.0</ele><time>2026-04-27T06:40:04.889Z</time></trkpt><trkpt lat="42.18794" lon="14.6146117"><ele>58.0</ele><time>2026-04-27T06:40:05.89Z</time></trkpt><trkpt lat="42.18803" lon="14.61473"><ele>58.0</ele><time>2026-04-27T06:40:07.89Z</time></trkpt><trkpt lat="42.1881133" lon="14.6148283"><ele>58.0</ele><time>2026-04-27T06:40:09.89Z</time></trkpt><trkpt lat="42.18819" lon="14.6149017"><ele>58.0</ele><time>2026-04-27T06:40:11.89Z</time></trkpt><trkpt lat="42.1882667" lon="14.6149617"><ele>58.0</ele><time>2026-04-27T06:40:13.89Z</time></trkpt><trkpt lat="42.1883433" lon="14.61503"><ele>57.2</ele><time>2026-04-27T06:40:15.89Z</time></trkpt><trkpt lat="42.1884167" lon="14.6151"><ele>56.4</ele><time>2026-04-27T06:40:17.89Z</time></trkpt><trkpt lat="42.1885" lon="14.6151667"><ele>55.60000000000001</ele><time>2026-04-27T06:40:19.889Z</time></trkpt><trkpt lat="42.1885867" lon="14.615255"><ele>54.800000000000004</ele><time>2026-04-27T06:40:21.889Z</time></trkpt><trkpt lat="42.1886733" lon="14.6153333"><ele>54.0</ele><time>2026-04-27T06:40:23.89Z</time></trkpt><trkpt lat="42.1887617" lon="14.6154"><ele>54.0</ele><time>2026-04-27T06:40:25.89Z</time></trkpt><trkpt lat="42.1888483" lon="14.6154617"><ele>54.0</ele><time>2026-04-27T06:40:27.89Z</time></trkpt><trkpt lat="42.1889233" lon="14.6155083"><ele>54.0</ele><time>2026-04-27T06:40:29.889Z</time></trkpt><trkpt lat="42.18899" lon="14.6155567"><ele>54.0</ele><time>2026-04-27T06:40:31.89Z</time></trkpt><trkpt lat="42.1890667" lon="14.6156"><ele>54.0</ele><time>2026-04-27T06:40:33.89Z</time></trkpt><trkpt lat="42.18914" lon="14.615645"><ele>54.0</ele><time>2026-04-27T06:40:35.89Z</time></trkpt><trkpt lat="42.1891967" lon="14.6156833"><ele>50.2</ele><time>2026-04-27T06:40:37.889Z</time></trkpt><trkpt lat="42.1892833" lon="14.6157233"><ele>46.400000000000006</ele><time>2026-04-27T06:40:40.89Z</time></trkpt><trkpt lat="42.189365" lon="14.6157433"><ele>42.6</ele><time>2026-04-27T06:40:42.889Z</time></trkpt><trkpt lat="42.1894517" lon="14.615795"><ele>38.8</ele><time>2026-04-27T06:40:44.89Z</time></trkpt><trkpt lat="42.189535" lon="14.61582"><ele>35.0</ele><time>2026-04-27T06:40:46.889Z</time></trkpt><trkpt lat="42.18963" lon="14.6158483"><ele>35.0</ele><time>2026-04-27T06:40:48.89Z</time></trkpt><trkpt lat="42.189745" lon="14.6158517"><ele>35.0</ele><time>2026-04-27T06:40:50.889Z</time></trkpt><trkpt lat="42.1898683" lon="14.6158333"><ele>35.0</ele><time>2026-04-27T06:40:52.89Z</time></trkpt><trkpt lat="42.1899317" lon="14.6158167"><ele>35.0</ele><time>2026-04-27T06:40:53.889Z</time></trkpt><trkpt lat="42.1899933" lon="14.6157983"><ele>35.0</ele><time>2026-04-27T06:40:54.889Z</time></trkpt><trkpt lat="42.1900567" lon="14.61578"><ele>35.0</ele><time>2026-04-27T06:40:55.89Z</time></trkpt><trkpt lat="42.1901767" lon="14.6157517"><ele>34.0</ele><time>2026-04-27T06:40:57.89Z</time></trkpt><trkpt lat="42.1902917" lon="14.615745"><ele>33.0</ele><time>2026-04-27T06:40:59.889Z</time></trkpt><trkpt lat="42.1904017" lon="14.615745"><ele>32.0</ele><time>2026-04-27T06:41:01.89Z</time></trkpt><trkpt lat="42.1905133" lon="14.615765"><ele>31.0</ele><time>2026-04-27T06:41:03.89Z</time></trkpt><trkpt lat="42.190575" lon="14.6157917"><ele>30.0</ele><time>2026-04-27T06:41:04.89Z</time></trkpt><trkpt lat="42.19069" lon="14.61585"><ele>28.6</ele><time>2026-04-27T06:41:06.89Z</time></trkpt><trkpt lat="42.1908" lon="14.6158817"><ele>27.2</ele><time>2026-04-27T06:41:08.89Z</time></trkpt><trkpt lat="42.1909017" lon="14.6158983"><ele>25.799999999999997</ele><time>2026-04-27T06:41:10.89Z</time></trkpt><trkpt lat="42.190995" lon="14.6158917"><ele>24.4</ele><time>2026-04-27T06:41:12.889Z</time></trkpt><trkpt lat="42.1910767" lon="14.6158933"><ele>23.0</ele><time>2026-04-27T06:41:14.89Z</time></trkpt><trkpt lat="42.191175" lon="14.6159333"><ele>23.0</ele><time>2026-04-27T06:41:16.89Z</time></trkpt><trkpt lat="42.1912567" lon="14.6160183"><ele>23.0</ele><time>2026-04-27T06:41:18.889Z</time></trkpt><trkpt lat="42.1913317" lon="14.616145"><ele>23.0</ele><time>2026-04-27T06:41:20.89Z</time></trkpt><trkpt lat="42.1913883" lon="14.616275"><ele>23.0</ele><time>2026-04-27T06:41:22.89Z</time></trkpt><trkpt lat="42.1914483" lon="14.6164067"><ele>22.4</ele><time>2026-04-27T06:41:24.89Z</time></trkpt><trkpt lat="42.1915183" lon="14.6165317"><ele>21.799999999999997</ele><time>2026-04-27T06:41:26.89Z</time></trkpt><trkpt lat="42.191575" lon="14.6166467"><ele>21.2</ele><time>2026-04-27T06:41:28.889Z</time></trkpt><trkpt lat="42.1916417" lon="14.61677"><ele>20.6</ele><time>2026-04-27T06:41:30.89Z</time></trkpt><trkpt lat="42.1917267" lon="14.6168733"><ele>20.0</ele><time>2026-04-27T06:41:32.889Z</time></trkpt><trkpt lat="42.1918067" lon="14.616965"><ele>23.6</ele><time>2026-04-27T06:41:34.89Z</time></trkpt><trkpt lat="42.19189" lon="14.6170567"><ele>27.2</ele><time>2026-04-27T06:41:36.89Z</time></trkpt><trkpt lat="42.1919667" lon="14.6171633"><ele>30.799999999999997</ele><time>2026-04-27T06:41:38.89Z</time></trkpt><trkpt lat="42.1920417" lon="14.6172717"><ele>34.4</ele><time>2026-04-27T06:41:40.89Z</time></trkpt><trkpt lat="42.1921183" lon="14.6173733"><ele>38.0</ele><time>2026-04-27T06:41:42.89Z</time></trkpt><trkpt lat="42.1921867" lon="14.61746"><ele>38.0</ele><time>2026-04-27T06:41:44.89Z</time></trkpt><trkpt lat="42.1922717" lon="14.61752"><ele>38.0</ele><time>2026-04-27T06:41:46.89Z</time></trkpt><trkpt lat="42.19236" lon="14.6175683"><ele>38.0</ele><time>2026-04-27T06:41:48.89Z</time></trkpt><trkpt lat="42.1924567" lon="14.617575"><ele>38.0</ele><time>2026-04-27T06:41:50.89Z</time></trkpt><trkpt lat="42.192555" lon="14.6175617"><ele>38.0</ele><time>2026-04-27T06:41:52.89Z</time></trkpt><trkpt lat="42.1926533" lon="14.61752"><ele>34.8</ele><time>2026-04-27T06:41:54.889Z</time></trkpt><trkpt lat="42.1927433" lon="14.6174633"><ele>31.599999999999998</ele><time>2026-04-27T06:41:56.889Z</time></trkpt><trkpt lat="42.19282" lon="14.6174083"><ele>28.4</ele><time>2026-04-27T06:41:58.89Z</time></trkpt><trkpt lat="42.1929117" lon="14.6173683"><ele>25.200000000000003</ele><time>2026-04-27T06:42:00.889Z</time></trkpt><trkpt lat="42.193015" lon="14.6173383"><ele>22.0</ele><time>2026-04-27T06:42:02.89Z</time></trkpt><trkpt lat="42.193135" lon="14.61731"><ele>21.200000000000003</ele><time>2026-04-27T06:42:04.89Z</time></trkpt><trkpt lat="42.193205" lon="14.6172817"><ele>20.400000000000002</ele><time>2026-04-27T06:42:05.89Z</time></trkpt><trkpt lat="42.193315" lon="14.6172217"><ele>19.6</ele><time>2026-04-27T06:42:07.89Z</time></trkpt><trkpt lat="42.1934267" lon="14.617195"><ele>18.8</ele><time>2026-04-27T06:42:09.89Z</time></trkpt><trkpt lat="42.1935183" lon="14.6172267"><ele>18.0</ele><time>2026-04-27T06:42:11.89Z</time></trkpt><trkpt lat="42.1935933" lon="14.617305"><ele>18.0</ele><time>2026-04-27T06:42:13.889Z</time></trkpt><trkpt lat="42.1936283" lon="14.61742"><ele>18.0</ele><time>2026-04-27T06:42:15.89Z</time></trkpt><trkpt lat="42.1936367" lon="14.6175417"><ele>18.0</ele><time>2026-04-27T06:42:17.889Z</time></trkpt><trkpt lat="42.19365" lon="14.6176817"><ele>18.0</ele><time>2026-04-27T06:42:19.89Z</time></trkpt><trkpt lat="42.19366" lon="14.6178183"><ele>18.0</ele><time>2026-04-27T06:42:21.89Z</time></trkpt><trkpt lat="42.19367" lon="14.6179633"><ele>19.8</ele><time>2026-04-27T06:42:23.89Z</time></trkpt><trkpt lat="42.1936933" lon="14.6181067"><ele>21.6</ele><time>2026-04-27T06:42:25.889Z</time></trkpt><trkpt lat="42.1937083" lon="14.6182483"><ele>23.400000000000002</ele><time>2026-04-27T06:42:27.89Z</time></trkpt><trkpt lat="42.1937183" lon="14.618375"><ele>25.200000000000003</ele><time>2026-04-27T06:42:29.89Z</time></trkpt><trkpt lat="42.1937267" lon="14.6185017"><ele>27.0</ele><time>2026-04-27T06:42:31.889Z</time></trkpt><trkpt lat="42.1937433" lon="14.6186233"><ele>28.400000000000002</ele><time>2026-04-27T06:42:33.889Z</time></trkpt><trkpt lat="42.193765" lon="14.6187583"><ele>29.800000000000004</ele><time>2026-04-27T06:42:35.889Z</time></trkpt><trkpt lat="42.19379" lon="14.6189017"><ele>31.2</ele><time>2026-04-27T06:42:37.89Z</time></trkpt><trkpt lat="42.1938217" lon="14.6190367"><ele>32.6</ele><time>2026-04-27T06:42:39.889Z</time></trkpt><trkpt lat="42.193855" lon="14.6191617"><ele>34.0</ele><time>2026-04-27T06:42:41.89Z</time></trkpt><trkpt lat="42.193895" lon="14.6192833"><ele>34.0</ele><time>2026-04-27T06:42:43.89Z</time></trkpt><trkpt lat="42.1939333" lon="14.6194"><ele>34.0</ele><time>2026-04-27T06:42:45.89Z</time></trkpt><trkpt lat="42.193965" lon="14.619515"><ele>34.0</ele><time>2026-04-27T06:42:47.889Z</time></trkpt><trkpt lat="42.1939967" lon="14.619635"><ele>34.0</ele><time>2026-04-27T06:42:49.889Z</time></trkpt><trkpt lat="42.1940267" lon="14.6197583"><ele>34.0</ele><time>2026-04-27T06:42:51.889Z</time></trkpt><trkpt lat="42.1940533" lon="14.61988"><ele>29.8</ele><time>2026-04-27T06:42:53.89Z</time></trkpt><trkpt lat="42.1940867" lon="14.620005"><ele>25.599999999999998</ele><time>2026-04-27T06:42:55.889Z</time></trkpt><trkpt lat="42.1941217" lon="14.6201283"><ele>21.4</ele><time>2026-04-27T06:42:57.889Z</time></trkpt><trkpt lat="42.1941583" lon="14.6202517"><ele>17.2</ele><time>2026-04-27T06:42:59.89Z</time></trkpt><trkpt lat="42.1941967" lon="14.620375"><ele>13.0</ele><time>2026-04-27T06:43:01.89Z</time></trkpt><trkpt lat="42.1942217" lon="14.6205033"><ele>13.0</ele><time>2026-04-27T06:43:03.89Z</time></trkpt><trkpt lat="42.19426" lon="14.620635"><ele>13.0</ele><time>2026-04-27T06:43:05.89Z</time></trkpt><trkpt lat="42.1942983" lon="14.620765"><ele>13.0</ele><time>2026-04-27T06:43:07.889Z</time></trkpt><trkpt lat="42.1943433" lon="14.6208933"><ele>13.0</ele><time>2026-04-27T06:43:09.89Z</time></trkpt><trkpt lat="42.1943783" lon="14.62102"><ele>13.0</ele><time>2026-04-27T06:43:11.89Z</time></trkpt><trkpt lat="42.1944183" lon="14.6211433"><ele>13.2</ele><time>2026-04-27T06:43:13.89Z</time></trkpt><trkpt lat="42.1944567" lon="14.6212717"><ele>13.4</ele><time>2026-04-27T06:43:15.89Z</time></trkpt><trkpt lat="42.1945033" lon="14.6213933"><ele>13.599999999999998</ele><time>2026-04-27T06:43:17.89Z</time></trkpt><trkpt lat="42.194555" lon="14.6214983"><ele>13.799999999999999</ele><time>2026-04-27T06:43:19.889Z</time></trkpt><trkpt lat="42.19461" lon="14.621595"><ele>14.0</ele><time>2026-04-27T06:43:21.89Z</time></trkpt><trkpt lat="42.194665" lon="14.621705"><ele>14.0</ele><time>2026-04-27T06:43:23.889Z</time></trkpt><trkpt lat="42.1947283" lon="14.6218033"><ele>13.999999999999998</ele><time>2026-04-27T06:43:25.89Z</time></trkpt><trkpt lat="42.194795" lon="14.621905"><ele>13.999999999999998</ele><time>2026-04-27T06:43:27.89Z</time></trkpt><trkpt lat="42.1948617" lon="14.62201"><ele>14.0</ele><time>2026-04-27T06:43:29.889Z</time></trkpt><trkpt lat="42.1949333" lon="14.6221117"><ele>14.0</ele><time>2026-04-27T06:43:31.889Z</time></trkpt><trkpt lat="42.195" lon="14.62223"><ele>13.2</ele><time>2026-04-27T06:43:33.889Z</time></trkpt><trkpt lat="42.1950583" lon="14.6223283"><ele>12.399999999999999</ele><time>2026-04-27T06:43:35.89Z</time></trkpt><trkpt lat="42.1951417" lon="14.6224067"><ele>11.6</ele><time>2026-04-27T06:43:37.89Z</time></trkpt><trkpt lat="42.1951983" lon="14.6225367"><ele>10.8</ele><time>2026-04-27T06:43:39.89Z</time></trkpt><trkpt lat="42.19524" lon="14.6226733"><ele>10.0</ele><time>2026-04-27T06:43:41.89Z</time></trkpt><trkpt lat="42.1952883" lon="14.6227883"><ele>10.5</ele><time>2026-04-27T06:43:43.89Z</time></trkpt><trkpt lat="42.1953317" lon="14.6229067"><ele>11.0</ele><time>2026-04-27T06:43:45.889Z</time></trkpt><trkpt lat="42.1953583" lon="14.6230233"><ele>11.5</ele><time>2026-04-27T06:43:47.89Z</time></trkpt><trkpt lat="42.1953767" lon="14.62313"><ele>12.0</ele><time>2026-04-27T06:43:49.89Z</time></trkpt><trkpt lat="42.1953933" lon="14.6232267"><ele>12.499999999999998</ele><time>2026-04-27T06:43:51.89Z</time></trkpt><trkpt lat="42.1954167" lon="14.623345"><ele>13.0</ele><time>2026-04-27T06:43:53.89Z</time></trkpt><trkpt lat="42.1954317" lon="14.6234617"><ele>13.0</ele><time>2026-04-27T06:43:55.889Z</time></trkpt><trkpt lat="42.1954433" lon="14.623605"><ele>13.0</ele><time>2026-04-27T06:43:57.89Z</time></trkpt><trkpt lat="42.1954783" lon="14.6237583"><ele>13.0</ele><time>2026-04-27T06:43:59.889Z</time></trkpt><trkpt lat="42.1955067" lon="14.6239067"><ele>13.0</ele><time>2026-04-27T06:44:01.89Z</time></trkpt><trkpt lat="42.1955467" lon="14.6240583"><ele>12.833333333333332</ele><time>2026-04-27T06:44:03.889Z</time></trkpt><trkpt lat="42.1955867" lon="14.6241867"><ele>12.666666666666666</ele><time>2026-04-27T06:44:05.89Z</time></trkpt><trkpt lat="42.1956167" lon="14.624265"><ele>12.5</ele><time>2026-04-27T06:44:06.889Z</time></trkpt><trkpt lat="42.1956417" lon="14.6243467"><ele>12.333333333333332</ele><time>2026-04-27T06:44:07.889Z</time></trkpt><trkpt lat="42.1956667" lon="14.62444"><ele>12.166666666666666</ele><time>2026-04-27T06:44:08.89Z</time></trkpt><trkpt lat="42.195685" lon="14.6245933"><ele>12.0</ele><time>2026-04-27T06:44:10.889Z</time></trkpt><trkpt lat="42.1956967" lon="14.6247383"><ele>11.4</ele><time>2026-04-27T06:44:12.89Z</time></trkpt><trkpt lat="42.1957" lon="14.6248917"><ele>10.799999999999999</ele><time>2026-04-27T06:44:14.89Z</time></trkpt><trkpt lat="42.1957067" lon="14.6250317"><ele>10.2</ele><time>2026-04-27T06:44:16.889Z</time></trkpt><trkpt lat="42.195705" lon="14.6251683"><ele>9.6</ele><time>2026-04-27T06:44:18.89Z</time></trkpt><trkpt lat="42.1957033" lon="14.62531"><ele>9.0</ele><time>2026-04-27T06:44:20.89Z</time></trkpt><trkpt lat="42.195705" lon="14.6254433"><ele>8.8</ele><time>2026-04-27T06:44:22.889Z</time></trkpt><trkpt lat="42.1957083" lon="14.6255817"><ele>8.600000000000001</ele><time>2026-04-27T06:44:24.889Z</time></trkpt><trkpt lat="42.1956967" lon="14.62571"><ele>8.4</ele><time>2026-04-27T06:44:26.89Z</time></trkpt><trkpt lat="42.1956867" lon="14.6258333"><ele>8.200000000000001</ele><time>2026-04-27T06:44:28.889Z</time></trkpt><trkpt lat="42.1956683" lon="14.6259433"><ele>8.0</ele><time>2026-04-27T06:44:30.89Z</time></trkpt><trkpt lat="42.19563" lon="14.6260517"><ele>8.166666666666666</ele><time>2026-04-27T06:44:32.89Z</time></trkpt><trkpt lat="42.1955683" lon="14.6261417"><ele>8.333333333333332</ele><time>2026-04-27T06:44:34.89Z</time></trkpt><trkpt lat="42.1955033" lon="14.6262267"><ele>8.5</ele><time>2026-04-27T06:44:36.889Z</time></trkpt><trkpt lat="42.1954433" lon="14.62632"><ele>8.666666666666666</ele><time>2026-04-27T06:44:38.889Z</time></trkpt><trkpt lat="42.19539" lon="14.6264067"><ele>8.833333333333334</ele><time>2026-04-27T06:44:40.89Z</time></trkpt><trkpt lat="42.1953467" lon="14.6264933"><ele>9.0</ele><time>2026-04-27T06:44:42.89Z</time></trkpt><trkpt lat="42.1953" lon="14.6265833"><ele>9.0</ele><time>2026-04-27T06:44:44.89Z</time></trkpt><trkpt lat="42.1952667" lon="14.62669"><ele>9.0</ele><time>2026-04-27T06:44:46.889Z</time></trkpt><trkpt lat="42.1952367" lon="14.6268033"><ele>9.0</ele><time>2026-04-27T06:44:48.889Z</time></trkpt><trkpt lat="42.1952133" lon="14.6269133"><ele>9.0</ele><time>2026-04-27T06:44:50.889Z</time></trkpt><trkpt lat="42.19522" lon="14.627035"><ele>9.0</ele><time>2026-04-27T06:44:52.89Z</time></trkpt><trkpt lat="42.1952383" lon="14.6271533"><ele>9.0</ele><time>2026-04-27T06:44:54.89Z</time></trkpt><trkpt lat="42.1952317" lon="14.6272567"><ele>9.0</ele><time>2026-04-27T06:44:56.889Z</time></trkpt><trkpt lat="42.195235" lon="14.6273833"><ele>9.0</ele><time>2026-04-27T06:44:59.889Z</time></trkpt><trkpt lat="42.195275" lon="14.627495"><ele>9.0</ele><time>2026-04-27T06:45:01.89Z</time></trkpt><trkpt lat="42.1953383" lon="14.6276283"><ele>9.0</ele><time>2026-04-27T06:45:03.89Z</time></trkpt><trkpt lat="42.19541" lon="14.6277517"><ele>9.0</ele><time>2026-04-27T06:45:05.889Z</time></trkpt><trkpt lat="42.19547" lon="14.6278583"><ele>8.8</ele><time>2026-04-27T06:45:07.89Z</time></trkpt><trkpt lat="42.1955117" lon="14.6279383"><ele>8.600000000000001</ele><time>2026-04-27T06:45:08.89Z</time></trkpt><trkpt lat="42.19556" lon="14.62807"><ele>8.4</ele><time>2026-04-27T06:45:10.89Z</time></trkpt><trkpt lat="42.1956033" lon="14.62819"><ele>8.200000000000001</ele><time>2026-04-27T06:45:12.89Z</time></trkpt><trkpt lat="42.1956717" lon="14.6283167"><ele>8.0</ele><time>2026-04-27T06:45:14.89Z</time></trkpt><trkpt lat="42.1957333" lon="14.6284583"><ele>7.2</ele><time>2026-04-27T06:45:16.889Z</time></trkpt><trkpt lat="42.1957883" lon="14.6285867"><ele>6.4</ele><time>2026-04-27T06:45:18.89Z</time></trkpt><trkpt lat="42.1958367" lon="14.6287133"><ele>5.6000000000000005</ele><time>2026-04-27T06:45:20.89Z</time></trkpt><trkpt lat="42.195885" lon="14.6288133"><ele>4.800000000000001</ele><time>2026-04-27T06:45:22.889Z</time></trkpt><trkpt lat="42.19594" lon="14.6288717"><ele>4.0</ele><time>2026-04-27T06:45:24.89Z</time></trkpt><trkpt lat="42.1960317" lon="14.6288417"><ele>3.9999999999999996</ele><time>2026-04-27T06:45:27.89Z</time></trkpt><trkpt lat="42.1960817" lon="14.62875"><ele>4.0</ele><time>2026-04-27T06:45:29.89Z</time></trkpt><trkpt lat="42.1961133" lon="14.6286517"><ele>4.0</ele><time>2026-04-27T06:45:31.889Z</time></trkpt><trkpt lat="42.196145" lon="14.6285483"><ele>4.0</ele><time>2026-04-27T06:45:33.889Z</time></trkpt><trkpt lat="42.19618" lon="14.6284383"><ele>3.9999999999999996</ele><time>2026-04-27T06:45:35.89Z</time></trkpt><trkpt lat="42.1962183" lon="14.6283283"><ele>4.0</ele><time>2026-04-27T06:45:37.89Z</time></trkpt><trkpt lat="42.1962533" lon="14.62822"><ele>4.0</ele><time>2026-04-27T06:45:39.889Z</time></trkpt><trkpt lat="42.1962883" lon="14.6281083"><ele>4.0</ele><time>2026-04-27T06:45:41.89Z</time></trkpt><trkpt lat="42.196335" lon="14.6280033"><ele>4.0</ele><time>2026-04-27T06:45:43.89Z</time></trkpt><trkpt lat="42.1963683" lon="14.62789"><ele>4.0</ele><time>2026-04-27T06:45:45.889Z</time></trkpt><trkpt lat="42.1964117" lon="14.62778"><ele>4.0</ele><time>2026-04-27T06:45:47.889Z</time></trkpt><trkpt lat="42.196455" lon="14.62767"><ele>4.0</ele><time>2026-04-27T06:45:49.89Z</time></trkpt><trkpt lat="42.196495" lon="14.627555"><ele>4.0</ele><time>2026-04-27T06:45:51.889Z</time></trkpt><trkpt lat="42.1965333" lon="14.6274333"><ele>4.0</ele><time>2026-04-27T06:45:53.89Z</time></trkpt><trkpt lat="42.1965667" lon="14.6273167"><ele>4.0</ele><time>2026-04-27T06:45:55.89Z</time></trkpt><trkpt lat="42.1966067" lon="14.6271933"><ele>4.0</ele><time>2026-04-27T06:45:57.89Z</time></trkpt><trkpt lat="42.1966617" lon="14.6270867"><ele>3.2</ele><time>2026-04-27T06:45:59.889Z</time></trkpt><trkpt lat="42.1967117" lon="14.6269733"><ele>2.4000000000000004</ele><time>2026-04-27T06:46:01.889Z</time></trkpt><trkpt lat="42.19675" lon="14.6268567"><ele>1.6</ele><time>2026-04-27T06:46:03.89Z</time></trkpt><trkpt lat="42.1967917" lon="14.6267433"><ele>0.8</ele><time>2026-04-27T06:46:05.89Z</time></trkpt><trkpt lat="42.1968267" lon="14.6266383"><ele>0.0</ele><time>2026-04-27T06:46:07.889Z</time></trkpt><trkpt lat="42.1968617" lon="14.62652"><ele>0.0</ele><time>2026-04-27T06:46:09.889Z</time></trkpt><trkpt lat="42.1968983" lon="14.62641"><ele>0.0</ele><time>2026-04-27T06:46:11.889Z</time></trkpt><trkpt lat="42.1969433" lon="14.6262917"><ele>0.0</ele><time>2026-04-27T06:46:13.89Z</time></trkpt><trkpt lat="42.1969917" lon="14.6261733"><ele>0.0</ele><time>2026-04-27T06:46:15.889Z</time></trkpt><trkpt lat="42.1970367" lon="14.6260533"><ele>0.0</ele><time>2026-04-27T06:46:17.889Z</time></trkpt><trkpt lat="42.197075" lon="14.6259433"><ele>1.4</ele><time>2026-04-27T06:46:19.89Z</time></trkpt><trkpt lat="42.1971083" lon="14.6258217"><ele>2.8</ele><time>2026-04-27T06:46:21.89Z</time></trkpt><trkpt lat="42.1971483" lon="14.6257167"><ele>4.199999999999999</ele><time>2026-04-27T06:46:23.89Z</time></trkpt><trkpt lat="42.197195" lon="14.6256017"><ele>5.6</ele><time>2026-04-27T06:46:25.89Z</time></trkpt><trkpt lat="42.19723" lon="14.6254817"><ele>7.0</ele><time>2026-04-27T06:46:27.89Z</time></trkpt><trkpt lat="42.1972717" lon="14.625375"><ele>6.6</ele><time>2026-04-27T06:46:29.89Z</time></trkpt><trkpt lat="42.197315" lon="14.625265"><ele>6.199999999999999</ele><time>2026-04-27T06:46:31.89Z</time></trkpt><trkpt lat="42.1973517" lon="14.6251517"><ele>5.8</ele><time>2026-04-27T06:46:33.89Z</time></trkpt><trkpt lat="42.197385" lon="14.6250367"><ele>5.4</ele><time>2026-04-27T06:46:35.89Z</time></trkpt><trkpt lat="42.1974233" lon="14.6249283"><ele>5.0</ele><time>2026-04-27T06:46:37.89Z</time></trkpt><trkpt lat="42.1974567" lon="14.6248117"><ele>5.0</ele><time>2026-04-27T06:46:39.89Z</time></trkpt><trkpt lat="42.1974917" lon="14.624685"><ele>5.0</ele><time>2026-04-27T06:46:41.89Z</time></trkpt><trkpt lat="42.1975333" lon="14.6245817"><ele>5.0</ele><time>2026-04-27T06:46:43.89Z</time></trkpt><trkpt lat="42.197575" lon="14.624465"><ele>5.0</ele><time>2026-04-27T06:46:45.889Z</time></trkpt><trkpt lat="42.19763" lon="14.6243567"><ele>5.0</ele><time>2026-04-27T06:46:47.89Z</time></trkpt><trkpt lat="42.197665" lon="14.6242383"><ele>5.8</ele><time>2026-04-27T06:46:49.889Z</time></trkpt><trkpt lat="42.1976983" lon="14.6241233"><ele>6.6</ele><time>2026-04-27T06:46:51.89Z</time></trkpt><trkpt lat="42.1977283" lon="14.6240033"><ele>7.4</ele><time>2026-04-27T06:46:53.89Z</time></trkpt><trkpt lat="42.1977617" lon="14.623885"><ele>8.2</ele><time>2026-04-27T06:46:55.89Z</time></trkpt><trkpt lat="42.1978017" lon="14.62377"><ele>9.0</ele><time>2026-04-27T06:46:57.889Z</time></trkpt><trkpt lat="42.197835" lon="14.6236583"><ele>9.333333333333334</ele><time>2026-04-27T06:46:59.89Z</time></trkpt><trkpt lat="42.1978583" lon="14.6235367"><ele>9.666666666666666</ele><time>2026-04-27T06:47:01.889Z</time></trkpt><trkpt lat="42.1978933" lon="14.62342"><ele>10.0</ele><time>2026-04-27T06:47:03.889Z</time></trkpt><trkpt lat="42.1979167" lon="14.62331"><ele>10.333333333333332</ele><time>2026-04-27T06:47:05.89Z</time></trkpt><trkpt lat="42.1979217" lon="14.623205"><ele>10.666666666666666</ele><time>2026-04-27T06:47:07.89Z</time></trkpt><trkpt lat="42.1979517" lon="14.6231017"><ele>11.0</ele><time>2026-04-27T06:47:09.89Z</time></trkpt><trkpt lat="42.1979933" lon="14.6230033"><ele>11.0</ele><time>2026-04-27T06:47:11.889Z</time></trkpt><trkpt lat="42.198035" lon="14.6228983"><ele>11.0</ele><time>2026-04-27T06:47:13.89Z</time></trkpt><trkpt lat="42.1980633" lon="14.6227933"><ele>11.0</ele><time>2026-04-27T06:47:15.89Z</time></trkpt><trkpt lat="42.1980933" lon="14.6226883"><ele>11.0</ele><time>2026-04-27T06:47:17.889Z</time></trkpt><trkpt lat="42.198125" lon="14.62258"><ele>11.0</ele><time>2026-04-27T06:47:19.89Z</time></trkpt><trkpt lat="42.1981583" lon="14.6224717"><ele>11.0</ele><time>2026-04-27T06:47:21.89Z</time></trkpt><trkpt lat="42.1981833" lon="14.6223533"><ele>10.4</ele><time>2026-04-27T06:47:23.889Z</time></trkpt><trkpt lat="42.1981967" lon="14.622235"><ele>9.8</ele><time>2026-04-27T06:47:25.889Z</time></trkpt><trkpt lat="42.19821" lon="14.6221167"><ele>9.200000000000001</ele><time>2026-04-27T06:47:27.89Z</time></trkpt><trkpt lat="42.1982467" lon="14.6220017"><ele>8.600000000000001</ele><time>2026-04-27T06:47:29.89Z</time></trkpt><trkpt lat="42.1982983" lon="14.62189"><ele>8.0</ele><time>2026-04-27T06:47:31.889Z</time></trkpt><trkpt lat="42.1983467" lon="14.6217867"><ele>7.999999999999999</ele><time>2026-04-27T06:47:33.89Z</time></trkpt><trkpt lat="42.198395" lon="14.6216933"><ele>8.0</ele><time>2026-04-27T06:47:35.89Z</time></trkpt><trkpt lat="42.1984367" lon="14.62159"><ele>8.0</ele><time>2026-04-27T06:47:37.89Z</time></trkpt><trkpt lat="42.1984717" lon="14.6214783"><ele>8.0</ele><time>2026-04-27T06:47:39.89Z</time></trkpt><trkpt lat="42.1985067" lon="14.6213667"><ele>7.999999999999999</ele><time>2026-04-27T06:47:41.889Z</time></trkpt><trkpt lat="42.19854" lon="14.6212533"><ele>8.0</ele><time>2026-04-27T06:47:43.89Z</time></trkpt><trkpt lat="42.198575" lon="14.6211383"><ele>8.166666666666666</ele><time>2026-04-27T06:47:45.889Z</time></trkpt><trkpt lat="42.1986067" lon="14.621025"><ele>8.333333333333332</ele><time>2026-04-27T06:47:47.89Z</time></trkpt><trkpt lat="42.1986433" lon="14.62091"><ele>8.5</ele><time>2026-04-27T06:47:49.89Z</time></trkpt><trkpt lat="42.1986767" lon="14.6208"><ele>8.666666666666666</ele><time>2026-04-27T06:47:51.889Z</time></trkpt><trkpt lat="42.1987033" lon="14.620685"><ele>8.833333333333334</ele><time>2026-04-27T06:47:53.889Z</time></trkpt><trkpt lat="42.1987367" lon="14.6205733"><ele>9.0</ele><time>2026-04-27T06:47:55.89Z</time></trkpt><trkpt lat="42.1987733" lon="14.6204583"><ele>9.0</ele><time>2026-04-27T06:47:57.89Z</time></trkpt><trkpt lat="42.1988017" lon="14.62035"><ele>9.0</ele><time>2026-04-27T06:47:59.889Z</time></trkpt><trkpt lat="42.198835" lon="14.620235"><ele>9.0</ele><time>2026-04-27T06:48:01.89Z</time></trkpt><trkpt lat="42.1988667" lon="14.6201217"><ele>9.0</ele><time>2026-04-27T06:48:03.89Z</time></trkpt><trkpt lat="42.1989033" lon="14.620005"><ele>9.0</ele><time>2026-04-27T06:48:05.889Z</time></trkpt><trkpt lat="42.198935" lon="14.6198867"><ele>9.0</ele><time>2026-04-27T06:48:07.89Z</time></trkpt><trkpt lat="42.1989667" lon="14.6197767"><ele>9.0</ele><time>2026-04-27T06:48:09.889Z</time></trkpt><trkpt lat="42.1990033" lon="14.6196633"><ele>9.0</ele><time>2026-04-27T06:48:11.89Z</time></trkpt><trkpt lat="42.1990333" lon="14.619555"><ele>9.0</ele><time>2026-04-27T06:48:13.889Z</time></trkpt><trkpt lat="42.1990617" lon="14.6194383"><ele>9.0</ele><time>2026-04-27T06:48:15.889Z</time></trkpt><trkpt lat="42.1990933" lon="14.6193283"><ele>9.0</ele><time>2026-04-27T06:48:17.889Z</time></trkpt><trkpt lat="42.199125" lon="14.6192167"><ele>7.6000000000000005</ele><time>2026-04-27T06:48:19.89Z</time></trkpt><trkpt lat="42.1991617" lon="14.6191067"><ele>6.2</ele><time>2026-04-27T06:48:21.89Z</time></trkpt><trkpt lat="42.1991917" lon="14.6189983"><ele>4.800000000000001</ele><time>2026-04-27T06:48:23.889Z</time></trkpt><trkpt lat="42.1992233" lon="14.6188833"><ele>3.4000000000000004</ele><time>2026-04-27T06:48:25.89Z</time></trkpt><trkpt lat="42.199255" lon="14.6187633"><ele>2.0</ele><time>2026-04-27T06:48:27.889Z</time></trkpt><trkpt lat="42.1993017" lon="14.61866"><ele>2.2</ele><time>2026-04-27T06:48:29.89Z</time></trkpt><trkpt lat="42.19935" lon="14.6185617"><ele>2.4000000000000004</ele><time>2026-04-27T06:48:31.89Z</time></trkpt><trkpt lat="42.1993917" lon="14.6184567"><ele>2.5999999999999996</ele><time>2026-04-27T06:48:33.89Z</time></trkpt><trkpt lat="42.199435" lon="14.6183483"><ele>2.8</ele><time>2026-04-27T06:48:35.89Z</time></trkpt><trkpt lat="42.1994717" lon="14.618235"><ele>3.0</ele><time>2026-04-27T06:48:37.89Z</time></trkpt><trkpt lat="42.19951" lon="14.6181167"><ele>3.0</ele><time>2026-04-27T06:48:39.89Z</time></trkpt><trkpt lat="42.199545" lon="14.618005"><ele>3.0</ele><time>2026-04-27T06:48:41.89Z</time></trkpt><trkpt lat="42.19958" lon="14.6179067"><ele>3.0</ele><time>2026-04-27T06:48:43.889Z</time></trkpt><trkpt lat="42.1996117" lon="14.6178133"><ele>3.0</ele><time>2026-04-27T06:48:45.889Z</time></trkpt><trkpt lat="42.1996483" lon="14.617715"><ele>3.0</ele><time>2026-04-27T06:48:47.89Z</time></trkpt><trkpt lat="42.19969" lon="14.6176083"><ele>3.0</ele><time>2026-04-27T06:48:49.89Z</time></trkpt><trkpt lat="42.1997267" lon="14.6174983"><ele>2.6666666666666665</ele><time>2026-04-27T06:48:51.89Z</time></trkpt><trkpt lat="42.19976" lon="14.617395"><ele>2.3333333333333335</ele><time>2026-04-27T06:48:53.889Z</time></trkpt><trkpt lat="42.1997983" lon="14.617295"><ele>2.0</ele><time>2026-04-27T06:48:55.89Z</time></trkpt><trkpt lat="42.1998367" lon="14.6171833"><ele>1.6666666666666665</ele><time>2026-04-27T06:48:57.89Z</time></trkpt><trkpt lat="42.199875" lon="14.6170667"><ele>1.3333333333333333</ele><time>2026-04-27T06:48:59.89Z</time></trkpt><trkpt lat="42.1999083" lon="14.6169617"><ele>1.0</ele><time>2026-04-27T06:49:01.89Z</time></trkpt><trkpt lat="42.199935" lon="14.616855"><ele>0.9999999999999999</ele><time>2026-04-27T06:49:03.89Z</time></trkpt><trkpt lat="42.1999683" lon="14.616745"><ele>1.0</ele><time>2026-04-27T06:49:05.89Z</time></trkpt><trkpt lat="42.2000083" lon="14.61664"><ele>1.0</ele><time>2026-04-27T06:49:07.89Z</time></trkpt><trkpt lat="42.2000367" lon="14.6165283"><ele>1.0</ele><time>2026-04-27T06:49:09.89Z</time></trkpt><trkpt lat="42.2000783" lon="14.6164233"><ele>0.9999999999999999</ele><time>2026-04-27T06:49:11.889Z</time></trkpt><trkpt lat="42.20012" lon="14.61632"><ele>1.0</ele><time>2026-04-27T06:49:13.889Z</time></trkpt><trkpt lat="42.2001583" lon="14.616215"><ele>1.5</ele><time>2026-04-27T06:49:15.89Z</time></trkpt><trkpt lat="42.2001917" lon="14.61612"><ele>2.0</ele><time>2026-04-27T06:49:17.89Z</time></trkpt><trkpt lat="42.2002183" lon="14.6160333"><ele>2.5</ele><time>2026-04-27T06:49:19.89Z</time></trkpt><trkpt lat="42.2002483" lon="14.6159417"><ele>3.0</ele><time>2026-04-27T06:49:21.89Z</time></trkpt><trkpt lat="42.200285" lon="14.615845"><ele>3.4999999999999996</ele><time>2026-04-27T06:49:23.889Z</time></trkpt><trkpt lat="42.2003167" lon="14.615735"><ele>4.0</ele><time>2026-04-27T06:49:25.89Z</time></trkpt><trkpt lat="42.2003583" lon="14.6156383"><ele>4.0</ele><time>2026-04-27T06:49:27.89Z</time></trkpt><trkpt lat="42.2003933" lon="14.615545"><ele>3.9999999999999996</ele><time>2026-04-27T06:49:29.889Z</time></trkpt><trkpt lat="42.20043" lon="14.61546"><ele>4.0</ele><time>2026-04-27T06:49:31.89Z</time></trkpt><trkpt lat="42.200465" lon="14.6153817"><ele>4.0</ele><time>2026-04-27T06:49:33.89Z</time></trkpt><trkpt lat="42.2005067" lon="14.61531"><ele>3.9999999999999996</ele><time>2026-04-27T06:49:35.889Z</time></trkpt><trkpt lat="42.20056" lon="14.6152433"><ele>4.0</ele><time>2026-04-27T06:49:37.889Z</time></trkpt><trkpt lat="42.2006133" lon="14.6151717"><ele>4.0</ele><time>2026-04-27T06:49:39.89Z</time></trkpt><trkpt lat="42.2006733" lon="14.615105"><ele>3.8000000000000003</ele><time>2026-04-27T06:49:41.89Z</time></trkpt><trkpt lat="42.2007617" lon="14.6150633"><ele>3.6000000000000005</ele><time>2026-04-27T06:49:43.89Z</time></trkpt><trkpt lat="42.2008567" lon="14.6150417"><ele>3.4</ele><time>2026-04-27T06:49:45.89Z</time></trkpt><trkpt lat="42.2009517" lon="14.6150167"><ele>3.2</ele><time>2026-04-27T06:49:47.89Z</time></trkpt><trkpt lat="42.20104" lon="14.6150017"><ele>3.0</ele><time>2026-04-27T06:49:49.89Z</time></trkpt><trkpt lat="42.2011167" lon="14.6149883"><ele>3.0</ele><time>2026-04-27T06:49:51.889Z</time></trkpt><trkpt lat="42.2011833" lon="14.614955"><ele>3.0</ele><time>2026-04-27T06:49:53.89Z</time></trkpt><trkpt lat="42.2012433" lon="14.6149033"><ele>3.0</ele><time>2026-04-27T06:49:55.89Z</time></trkpt><trkpt lat="42.2013017" lon="14.6148333"><ele>3.0</ele><time>2026-04-27T06:49:57.89Z</time></trkpt><trkpt lat="42.2013567" lon="14.6147767"><ele>3.0</ele><time>2026-04-27T06:49:59.89Z</time></trkpt><trkpt lat="42.2014167" lon="14.6146867"><ele>3.0</ele><time>2026-04-27T06:50:02.89Z</time></trkpt><trkpt lat="42.2014633" lon="14.6145983"><ele>2.5</ele><time>2026-04-27T06:50:05.89Z</time></trkpt><trkpt lat="42.2015067" lon="14.6145233"><ele>2.0</ele><time>2026-04-27T06:50:08.89Z</time></trkpt><trkpt lat="42.2015417" lon="14.6144517"><ele>1.5</ele><time>2026-04-27T06:50:11.89Z</time></trkpt><trkpt lat="42.2016817" lon="14.61414"><ele>1.0</ele><time>2026-04-27T06:51:15.664Z</time></trkpt><trkpt lat="42.20164" lon="14.6143233"><ele>1.0</ele><time>2026-04-27T06:51:16.892Z</time></trkpt><trkpt lat="42.20159" lon="14.614375"><ele>1.0</ele><time>2026-04-27T06:51:25.891Z</time></trkpt><trkpt lat="42.2010367" lon="14.6155033"><ele>1.0</ele><time>2026-04-27T06:58:05.899Z</time></trkpt><trkpt lat="42.2015483" lon="14.6144317"><ele>0.0</ele><time>2026-04-27T06:58:09.391Z</time></trkpt><trkpt lat="42.2010367" lon="14.6155083"><ele>1.0</ele><time>2026-04-27T06:59:33.166Z</time></trkpt><trkpt lat="42.2015467" lon="14.6144333"><ele>1.3333333333333333</ele><time>2026-04-27T06:59:35.391Z</time></trkpt><trkpt lat="42.20149" lon="14.61451"><ele>1.6666666666666665</ele><time>2026-04-27T07:01:22.89Z</time></trkpt><trkpt lat="42.20143" lon="14.6146183"><ele>2.0</ele><time>2026-04-27T07:01:25.891Z</time></trkpt><trkpt lat="42.2013833" lon="14.6146933"><ele>2.3333333333333335</ele><time>2026-04-27T07:01:27.891Z</time></trkpt><trkpt lat="42.2013283" lon="14.61477"><ele>2.6666666666666665</ele><time>2026-04-27T07:01:29.89Z</time></trkpt><trkpt lat="42.2012667" lon="14.6148417"><ele>3.0</ele><time>2026-04-27T07:01:31.891Z</time></trkpt><trkpt lat="42.201205" lon="14.6149117"><ele>3.0</ele><time>2026-04-27T07:01:33.89Z</time></trkpt><trkpt lat="42.20114" lon="14.6149667"><ele>3.0</ele><time>2026-04-27T07:01:35.89Z</time></trkpt><trkpt lat="42.2010683" lon="14.6149733"><ele>3.0</ele><time>2026-04-27T07:01:37.891Z</time></trkpt><trkpt lat="42.2010033" lon="14.6149383"><ele>3.0</ele><time>2026-04-27T07:01:39.891Z</time></trkpt><trkpt lat="42.2009383" lon="14.614905"><ele>3.0</ele><time>2026-04-27T07:01:41.89Z</time></trkpt><trkpt lat="42.2008517" lon="14.61487"><ele>3.0</ele><time>2026-04-27T07:01:44.891Z</time></trkpt><trkpt lat="42.20078" lon="14.6148567"><ele>2.9999999999999996</ele><time>2026-04-27T07:01:47.891Z</time></trkpt><trkpt lat="42.2007133" lon="14.6148967"><ele>3.0</ele><time>2026-04-27T07:01:50.891Z</time></trkpt><trkpt lat="42.2006783" lon="14.6149783"><ele>3.0</ele><time>2026-04-27T07:15:11.893Z</time></trkpt><trkpt lat="42.20069" lon="14.6148817"><ele>3.0</ele><time>2026-04-27T07:15:30.893Z</time></trkpt><trkpt lat="42.200685" lon="14.614775"><ele>3.0</ele><time>2026-04-27T07:15:34.892Z</time></trkpt><trkpt lat="42.2006867" lon="14.6146717"><ele>2.9999999999999996</ele><time>2026-04-27T07:15:37.893Z</time></trkpt><trkpt lat="42.200695" lon="14.6145683"><ele>3.0</ele><time>2026-04-27T07:15:40.893Z</time></trkpt><trkpt lat="42.2007183" lon="14.6144667"><ele>3.3333333333333335</ele><time>2026-04-27T07:15:43.892Z</time></trkpt><trkpt lat="42.20074" lon="14.6143867"><ele>3.666666666666667</ele><time>2026-04-27T07:15:45.893Z</time></trkpt><trkpt lat="42.2007783" lon="14.6142767"><ele>4.0</ele><time>2026-04-27T07:15:48.893Z</time></trkpt><trkpt lat="42.200815" lon="14.614155"><ele>4.333333333333334</ele><time>2026-04-27T07:15:51.892Z</time></trkpt><trkpt lat="42.200845" lon="14.614075"><ele>4.666666666666667</ele><time>2026-04-27T07:15:53.892Z</time></trkpt><trkpt lat="42.200875" lon="14.61399"><ele>5.0</ele><time>2026-04-27T07:15:55.893Z</time></trkpt><trkpt lat="42.20089" lon="14.61389"><ele>5.0</ele><time>2026-04-27T07:15:57.893Z</time></trkpt><trkpt lat="42.2009183" lon="14.6138017"><ele>5.0</ele><time>2026-04-27T07:15:59.892Z</time></trkpt><trkpt lat="42.20095" lon="14.613705"><ele>5.0</ele><time>2026-04-27T07:16:01.893Z</time></trkpt><trkpt lat="42.2009833" lon="14.613605"><ele>5.0</ele><time>2026-04-27T07:16:03.893Z</time></trkpt><trkpt lat="42.201015" lon="14.6135"><ele>5.0</ele><time>2026-04-27T07:16:05.892Z</time></trkpt><trkpt lat="42.2010417" lon="14.6133883"><ele>5.0</ele><time>2026-04-27T07:16:07.893Z</time></trkpt><trkpt lat="42.2010817" lon="14.6132733"><ele>5.2</ele><time>2026-04-27T07:16:09.893Z</time></trkpt><trkpt lat="42.2011217" lon="14.6131533"><ele>5.4</ele><time>2026-04-27T07:16:11.893Z</time></trkpt><trkpt lat="42.2011583" lon="14.6130233"><ele>5.6</ele><time>2026-04-27T07:16:13.893Z</time></trkpt><trkpt lat="42.201195" lon="14.6129017"><ele>5.8</ele><time>2026-04-27T07:16:15.892Z</time></trkpt><trkpt lat="42.201235" lon="14.6127767"><ele>6.0</ele><time>2026-04-27T07:16:17.893Z</time></trkpt><trkpt lat="42.2012733" lon="14.6126367"><ele>6.0</ele><time>2026-04-27T07:16:19.893Z</time></trkpt><trkpt lat="42.20131" lon="14.6124917"><ele>6.0</ele><time>2026-04-27T07:16:21.893Z</time></trkpt><trkpt lat="42.2013483" lon="14.6123533"><ele>6.0</ele><time>2026-04-27T07:16:23.893Z</time></trkpt><trkpt lat="42.2013867" lon="14.6122183"><ele>6.0</ele><time>2026-04-27T07:16:25.893Z</time></trkpt><trkpt lat="42.20143" lon="14.612085"><ele>6.0</ele><time>2026-04-27T07:16:27.892Z</time></trkpt><trkpt lat="42.2014633" lon="14.6119567"><ele>5.8</ele><time>2026-04-27T07:16:29.892Z</time></trkpt><trkpt lat="42.2015033" lon="14.6118367"><ele>5.6</ele><time>2026-04-27T07:16:31.893Z</time></trkpt><trkpt lat="42.2015483" lon="14.6117017"><ele>5.4</ele><time>2026-04-27T07:16:33.893Z</time></trkpt><trkpt lat="42.201595" lon="14.6115617"><ele>5.2</ele><time>2026-04-27T07:16:35.893Z</time></trkpt><trkpt lat="42.2016333" lon="14.6114267"><ele>5.0</ele><time>2026-04-27T07:16:37.892Z</time></trkpt><trkpt lat="42.20168" lon="14.6113"><ele>5.0</ele><time>2026-04-27T07:16:39.893Z</time></trkpt><trkpt lat="42.2017233" lon="14.6111717"><ele>5.0</ele><time>2026-04-27T07:16:41.892Z</time></trkpt><trkpt lat="42.20177" lon="14.611045"><ele>5.0</ele><time>2026-04-27T07:16:43.892Z</time></trkpt><trkpt lat="42.2018183" lon="14.6109217"><ele>5.0</ele><time>2026-04-27T07:16:45.893Z</time></trkpt><trkpt lat="42.2018633" lon="14.610805"><ele>5.0</ele><time>2026-04-27T07:16:47.893Z</time></trkpt><trkpt lat="42.201905" lon="14.6106833"><ele>5.0</ele><time>2026-04-27T07:16:49.893Z</time></trkpt><trkpt lat="42.2019467" lon="14.6105617"><ele>5.0</ele><time>2026-04-27T07:16:51.892Z</time></trkpt><trkpt lat="42.2019717" lon="14.61043"><ele>5.0</ele><time>2026-04-27T07:16:53.893Z</time></trkpt><trkpt lat="42.201965" lon="14.6102967"><ele>5.0</ele><time>2026-04-27T07:16:55.893Z</time></trkpt><trkpt lat="42.2019717" lon="14.6101867"><ele>5.0</ele><time>2026-04-27T07:16:57.893Z</time></trkpt><trkpt lat="42.2019767" lon="14.6100867"><ele>4.666666666666667</ele><time>2026-04-27T07:16:59.893Z</time></trkpt><trkpt lat="42.2019933" lon="14.6099633"><ele>4.333333333333334</ele><time>2026-04-27T07:17:02.893Z</time></trkpt><trkpt lat="42.2020117" lon="14.609855"><ele>4.0</ele><time>2026-04-27T07:17:05.893Z</time></trkpt><trkpt lat="42.202035" lon="14.6097417"><ele>3.666666666666667</ele><time>2026-04-27T07:17:08.892Z</time></trkpt><trkpt lat="42.2020633" lon="14.6096583"><ele>3.3333333333333335</ele><time>2026-04-27T07:17:10.893Z</time></trkpt><trkpt lat="42.2020967" lon="14.6095717"><ele>3.0</ele><time>2026-04-27T07:17:12.892Z</time></trkpt><trkpt lat="42.2021333" lon="14.6094767"><ele>3.0</ele><time>2026-04-27T07:17:14.893Z</time></trkpt><trkpt lat="42.2021733" lon="14.6093767"><ele>3.0</ele><time>2026-04-27T07:17:16.892Z</time></trkpt><trkpt lat="42.2022167" lon="14.6092717"><ele>3.0</ele><time>2026-04-27T07:17:18.892Z</time></trkpt><trkpt lat="42.2022583" lon="14.6091667"><ele>3.0</ele><time>2026-04-27T07:17:20.893Z</time></trkpt><trkpt lat="42.2023033" lon="14.609055"><ele>3.0</ele><time>2026-04-27T07:17:22.892Z</time></trkpt><trkpt lat="42.2023533" lon="14.608945"><ele>3.2</ele><time>2026-04-27T07:17:24.893Z</time></trkpt><trkpt lat="42.2023967" lon="14.6088317"><ele>3.4</ele><time>2026-04-27T07:17:26.892Z</time></trkpt><trkpt lat="42.2024433" lon="14.6087183"><ele>3.6000000000000005</ele><time>2026-04-27T07:17:28.893Z</time></trkpt><trkpt lat="42.2024933" lon="14.6086"><ele>3.8000000000000003</ele><time>2026-04-27T07:17:30.893Z</time></trkpt><trkpt lat="42.2025383" lon="14.60847"><ele>4.0</ele><time>2026-04-27T07:17:32.893Z</time></trkpt><trkpt lat="42.2025883" lon="14.608355"><ele>4.0</ele><time>2026-04-27T07:17:34.893Z</time></trkpt><trkpt lat="42.2026333" lon="14.6082383"><ele>4.0</ele><time>2026-04-27T07:17:36.893Z</time></trkpt><trkpt lat="42.2026883" lon="14.6081183"><ele>4.0</ele><time>2026-04-27T07:17:38.892Z</time></trkpt><trkpt lat="42.202745" lon="14.6079983"><ele>4.0</ele><time>2026-04-27T07:17:40.892Z</time></trkpt><trkpt lat="42.2027967" lon="14.6078783"><ele>4.0</ele><time>2026-04-27T07:17:42.893Z</time></trkpt><trkpt lat="42.2028517" lon="14.60776"><ele>3.8000000000000003</ele><time>2026-04-27T07:17:44.892Z</time></trkpt><trkpt lat="42.202905" lon="14.6076433"><ele>3.6000000000000005</ele><time>2026-04-27T07:17:46.892Z</time></trkpt><trkpt lat="42.2029583" lon="14.6075267"><ele>3.4</ele><time>2026-04-27T07:17:48.892Z</time></trkpt><trkpt lat="42.2029983" lon="14.6073983"><ele>3.2</ele><time>2026-04-27T07:17:50.893Z</time></trkpt><trkpt lat="42.2030533" lon="14.6072733"><ele>3.0</ele><time>2026-04-27T07:17:52.893Z</time></trkpt><trkpt lat="42.2031" lon="14.6071483"><ele>3.0</ele><time>2026-04-27T07:17:54.893Z</time></trkpt><trkpt lat="42.2031583" lon="14.60702"><ele>3.0</ele><time>2026-04-27T07:17:56.893Z</time></trkpt><trkpt lat="42.2032167" lon="14.6068933"><ele>3.0</ele><time>2026-04-27T07:17:58.893Z</time></trkpt><trkpt lat="42.20328" lon="14.606775"><ele>3.0</ele><time>2026-04-27T07:18:00.893Z</time></trkpt><trkpt lat="42.2033367" lon="14.6066517"><ele>3.0</ele><time>2026-04-27T07:18:02.893Z</time></trkpt><trkpt lat="42.2033883" lon="14.606525"><ele>2.6</ele><time>2026-04-27T07:18:04.892Z</time></trkpt><trkpt lat="42.20344" lon="14.6063983"><ele>2.1999999999999997</ele><time>2026-04-27T07:18:06.893Z</time></trkpt><trkpt lat="42.2034983" lon="14.6062733"><ele>1.8</ele><time>2026-04-27T07:18:08.893Z</time></trkpt><trkpt lat="42.203555" lon="14.6061517"><ele>1.4</ele><time>2026-04-27T07:18:10.893Z</time></trkpt><trkpt lat="42.2036083" lon="14.6060233"><ele>1.0</ele><time>2026-04-27T07:18:12.893Z</time></trkpt><trkpt lat="42.203655" lon="14.6058883"><ele>1.0</ele><time>2026-04-27T07:18:14.893Z</time></trkpt><trkpt lat="42.20371" lon="14.6057617"><ele>1.0</ele><time>2026-04-27T07:18:16.892Z</time></trkpt><trkpt lat="42.2037667" lon="14.6056417"><ele>1.0</ele><time>2026-04-27T07:18:18.892Z</time></trkpt><trkpt lat="42.20382" lon="14.6055017"><ele>1.0</ele><time>2026-04-27T07:18:20.892Z</time></trkpt><trkpt lat="42.2038783" lon="14.6053767"><ele>1.0</ele><time>2026-04-27T07:18:22.893Z</time></trkpt><trkpt lat="42.2039367" lon="14.6052483"><ele>1.0</ele><time>2026-04-27T07:18:24.893Z</time></trkpt><trkpt lat="42.2039933" lon="14.6051167"><ele>1.0</ele><time>2026-04-27T07:18:26.893Z</time></trkpt><trkpt lat="42.2040483" lon="14.6049867"><ele>1.0</ele><time>2026-04-27T07:18:28.892Z</time></trkpt><trkpt lat="42.2041033" lon="14.60486"><ele>1.0</ele><time>2026-04-27T07:18:30.893Z</time></trkpt><trkpt lat="42.20416" lon="14.604735"><ele>1.0</ele><time>2026-04-27T07:18:32.892Z</time></trkpt><trkpt lat="42.204215" lon="14.604605"><ele>0.8</ele><time>2026-04-27T07:18:34.893Z</time></trkpt><trkpt lat="42.20427" lon="14.6044817"><ele>0.6000000000000001</ele><time>2026-04-27T07:18:36.893Z</time></trkpt><trkpt lat="42.2043283" lon="14.60436"><ele>0.4</ele><time>2026-04-27T07:18:38.893Z</time></trkpt><trkpt lat="42.2043833" lon="14.6042367"><ele>0.2</ele><time>2026-04-27T07:18:40.893Z</time></trkpt><trkpt lat="42.2044367" lon="14.60411"><ele>0.0</ele><time>2026-04-27T07:18:42.893Z</time></trkpt><trkpt lat="42.2044933" lon="14.6039883"><ele>0.0</ele><time>2026-04-27T07:18:44.892Z</time></trkpt><trkpt lat="42.20455" lon="14.60386"><ele>0.0</ele><time>2026-04-27T07:18:46.892Z</time></trkpt><trkpt lat="42.20461" lon="14.6037367"><ele>0.0</ele><time>2026-04-27T07:18:48.893Z</time></trkpt><trkpt lat="42.2046767" lon="14.6036167"><ele>0.0</ele><time>2026-04-27T07:18:50.893Z</time></trkpt><trkpt lat="42.2047417" lon="14.603495"><ele>0.0</ele><time>2026-04-27T07:18:52.893Z</time></trkpt><trkpt lat="42.2048" lon="14.60337"><ele>0.8</ele><time>2026-04-27T07:18:54.892Z</time></trkpt><trkpt lat="42.204855" lon="14.603235"><ele>1.6</ele><time>2026-04-27T07:18:56.893Z</time></trkpt><trkpt lat="42.2049133" lon="14.6031083"><ele>2.4000000000000004</ele><time>2026-04-27T07:18:58.893Z</time></trkpt><trkpt lat="42.204975" lon="14.6029833"><ele>3.2</ele><time>2026-04-27T07:19:00.893Z</time></trkpt><trkpt lat="42.2050383" lon="14.6028567"><ele>4.0</ele><time>2026-04-27T07:19:02.893Z</time></trkpt><trkpt lat="42.2051033" lon="14.602725"><ele>4.6</ele><time>2026-04-27T07:19:04.892Z</time></trkpt><trkpt lat="42.2051633" lon="14.6026"><ele>5.2</ele><time>2026-04-27T07:19:06.893Z</time></trkpt><trkpt lat="42.2052217" lon="14.6024683"><ele>5.799999999999999</ele><time>2026-04-27T07:19:08.893Z</time></trkpt><trkpt lat="42.2052767" lon="14.6023417"><ele>6.3999999999999995</ele><time>2026-04-27T07:19:10.893Z</time></trkpt><trkpt lat="42.2053333" lon="14.6022117"><ele>7.0</ele><time>2026-04-27T07:19:12.893Z</time></trkpt><trkpt lat="42.2053883" lon="14.6020783"><ele>7.8</ele><time>2026-04-27T07:19:14.893Z</time></trkpt><trkpt lat="42.2054367" lon="14.6019483"><ele>8.6</ele><time>2026-04-27T07:19:16.893Z</time></trkpt><trkpt lat="42.2054917" lon="14.601815"><ele>9.4</ele><time>2026-04-27T07:19:18.893Z</time></trkpt><trkpt lat="42.20555" lon="14.60169"><ele>10.200000000000001</ele><time>2026-04-27T07:19:20.893Z</time></trkpt><trkpt lat="42.2056033" lon="14.60156"><ele>11.0</ele><time>2026-04-27T07:19:22.892Z</time></trkpt><trkpt lat="42.2056583" lon="14.601425"><ele>10.4</ele><time>2026-04-27T07:19:24.893Z</time></trkpt><trkpt lat="42.205715" lon="14.6012933"><ele>9.8</ele><time>2026-04-27T07:19:26.893Z</time></trkpt><trkpt lat="42.2057717" lon="14.601165"><ele>9.200000000000001</ele><time>2026-04-27T07:19:28.893Z</time></trkpt><trkpt lat="42.2058283" lon="14.6010333"><ele>8.600000000000001</ele><time>2026-04-27T07:19:30.893Z</time></trkpt><trkpt lat="42.2058817" lon="14.6009033"><ele>8.0</ele><time>2026-04-27T07:19:32.892Z</time></trkpt><trkpt lat="42.2059417" lon="14.600775"><ele>8.0</ele><time>2026-04-27T07:19:34.893Z</time></trkpt><trkpt lat="42.2059983" lon="14.600645"><ele>8.0</ele><time>2026-04-27T07:19:36.893Z</time></trkpt><trkpt lat="42.20606" lon="14.6005183"><ele>8.0</ele><time>2026-04-27T07:19:38.893Z</time></trkpt><trkpt lat="42.20612" lon="14.600395"><ele>8.0</ele><time>2026-04-27T07:19:40.892Z</time></trkpt><trkpt lat="42.206175" lon="14.6002667"><ele>8.0</ele><time>2026-04-27T07:19:42.892Z</time></trkpt><trkpt lat="42.206225" lon="14.600135"><ele>8.0</ele><time>2026-04-27T07:19:44.892Z</time></trkpt><trkpt lat="42.2062817" lon="14.6000083"><ele>8.0</ele><time>2026-04-27T07:19:46.893Z</time></trkpt><trkpt lat="42.2063367" lon="14.5998867"><ele>8.0</ele><time>2026-04-27T07:19:48.893Z</time></trkpt><trkpt lat="42.2063917" lon="14.5997583"><ele>8.0</ele><time>2026-04-27T07:19:50.893Z</time></trkpt><trkpt lat="42.20645" lon="14.5996283"><ele>8.0</ele><time>2026-04-27T07:19:52.892Z</time></trkpt><trkpt lat="42.2065083" lon="14.599495"><ele>8.0</ele><time>2026-04-27T07:19:54.893Z</time></trkpt><trkpt lat="42.206565" lon="14.5993633"><ele>8.0</ele><time>2026-04-27T07:19:56.892Z</time></trkpt><trkpt lat="42.2066233" lon="14.5992333"><ele>8.0</ele><time>2026-04-27T07:19:58.892Z</time></trkpt><trkpt lat="42.2066817" lon="14.5991067"><ele>8.0</ele><time>2026-04-27T07:20:00.892Z</time></trkpt><trkpt lat="42.2067383" lon="14.598975"><ele>8.0</ele><time>2026-04-27T07:20:02.892Z</time></trkpt><trkpt lat="42.2067983" lon="14.5988467"><ele>8.0</ele><time>2026-04-27T07:20:04.893Z</time></trkpt><trkpt lat="42.206855" lon="14.5987167"><ele>8.0</ele><time>2026-04-27T07:20:06.892Z</time></trkpt><trkpt lat="42.2069083" lon="14.59859"><ele>8.0</ele><time>2026-04-27T07:20:08.892Z</time></trkpt><trkpt lat="42.206965" lon="14.5984617"><ele>8.0</ele><time>2026-04-27T07:20:10.893Z</time></trkpt><trkpt lat="42.20702" lon="14.5983333"><ele>8.0</ele><time>2026-04-27T07:20:12.893Z</time></trkpt><trkpt lat="42.20708" lon="14.5982083"><ele>7.800000000000001</ele><time>2026-04-27T07:20:14.893Z</time></trkpt><trkpt lat="42.2071367" lon="14.598085"><ele>7.6000000000000005</ele><time>2026-04-27T07:20:16.892Z</time></trkpt><trkpt lat="42.20719" lon="14.5979667"><ele>7.3999999999999995</ele><time>2026-04-27T07:20:18.893Z</time></trkpt><trkpt lat="42.2072483" lon="14.59784"><ele>7.199999999999999</ele><time>2026-04-27T07:20:20.893Z</time></trkpt><trkpt lat="42.2073033" lon="14.597715"><ele>7.0</ele><time>2026-04-27T07:20:22.893Z</time></trkpt><trkpt lat="42.2073633" lon="14.597585"><ele>7.0</ele><time>2026-04-27T07:20:24.893Z</time></trkpt><trkpt lat="42.2074183" lon="14.5974567"><ele>7.0</ele><time>2026-04-27T07:20:26.893Z</time></trkpt><trkpt lat="42.207475" lon="14.5973233"><ele>7.0</ele><time>2026-04-27T07:20:28.893Z</time></trkpt><trkpt lat="42.207535" lon="14.5971883"><ele>7.0</ele><time>2026-04-27T07:20:30.893Z</time></trkpt><trkpt lat="42.2075833" lon="14.5970483"><ele>8.75</ele><time>2026-04-27T07:20:32.893Z</time></trkpt><trkpt lat="42.20762" lon="14.5969067"><ele>10.5</ele><time>2026-04-27T07:20:34.893Z</time></trkpt><trkpt lat="42.207665" lon="14.596765"><ele>12.25</ele><time>2026-04-27T07:20:36.892Z</time></trkpt><trkpt lat="42.207725" lon="14.59663"><ele>14.0</ele><time>2026-04-27T07:20:38.893Z</time></trkpt><trkpt lat="42.2077867" lon="14.596495"><ele>14.0</ele><time>2026-04-27T07:20:40.893Z</time></trkpt><trkpt lat="42.2078467" lon="14.5963617"><ele>14.0</ele><time>2026-04-27T07:20:42.893Z</time></trkpt><trkpt lat="42.207905" lon="14.5962283"><ele>14.0</ele><time>2026-04-27T07:20:44.893Z</time></trkpt><trkpt lat="42.2079683" lon="14.596095"><ele>14.0</ele><time>2026-04-27T07:20:46.893Z</time></trkpt><trkpt lat="42.208025" lon="14.5959617"><ele>14.799999999999999</ele><time>2026-04-27T07:20:48.893Z</time></trkpt><trkpt lat="42.2080883" lon="14.595835"><ele>15.599999999999998</ele><time>2026-04-27T07:20:50.892Z</time></trkpt><trkpt lat="42.2081517" lon="14.5957133"><ele>16.4</ele><time>2026-04-27T07:20:52.893Z</time></trkpt><trkpt lat="42.2082167" lon="14.5955883"><ele>17.2</ele><time>2026-04-27T07:20:54.893Z</time></trkpt><trkpt lat="42.2082833" lon="14.5954683"><ele>18.0</ele><time>2026-04-27T07:20:56.893Z</time></trkpt><trkpt lat="42.20835" lon="14.5953483"><ele>17.0</ele><time>2026-04-27T07:20:58.893Z</time></trkpt><trkpt lat="42.2084117" lon="14.59522"><ele>16.0</ele><time>2026-04-27T07:21:00.893Z</time></trkpt><trkpt lat="42.2084783" lon="14.5950933"><ele>15.0</ele><time>2026-04-27T07:21:02.893Z</time></trkpt><trkpt lat="42.2085467" lon="14.5949717"><ele>14.0</ele><time>2026-04-27T07:21:04.893Z</time></trkpt><trkpt lat="42.208615" lon="14.5948517"><ele>14.0</ele><time>2026-04-27T07:21:06.893Z</time></trkpt><trkpt lat="42.2086833" lon="14.59473"><ele>14.0</ele><time>2026-04-27T07:21:08.892Z</time></trkpt><trkpt lat="42.2087517" lon="14.5946117"><ele>14.0</ele><time>2026-04-27T07:21:10.893Z</time></trkpt><trkpt lat="42.2088217" lon="14.5944917"><ele>14.0</ele><time>2026-04-27T07:21:12.892Z</time></trkpt><trkpt lat="42.2088917" lon="14.594365"><ele>14.799999999999999</ele><time>2026-04-27T07:21:14.893Z</time></trkpt><trkpt lat="42.2089667" lon="14.5942483"><ele>15.599999999999998</ele><time>2026-04-27T07:21:16.893Z</time></trkpt><trkpt lat="42.20904" lon="14.5941333"><ele>16.4</ele><time>2026-04-27T07:21:18.893Z</time></trkpt><trkpt lat="42.2091083" lon="14.5940167"><ele>17.2</ele><time>2026-04-27T07:21:20.892Z</time></trkpt><trkpt lat="42.2091783" lon="14.5939033"><ele>18.0</ele><time>2026-04-27T07:21:22.893Z</time></trkpt><trkpt lat="42.20925" lon="14.593785"><ele>17.0</ele><time>2026-04-27T07:21:24.893Z</time></trkpt><trkpt lat="42.2093217" lon="14.5936667"><ele>16.0</ele><time>2026-04-27T07:21:26.892Z</time></trkpt><trkpt lat="42.2093883" lon="14.5935517"><ele>15.0</ele><time>2026-04-27T07:21:28.893Z</time></trkpt><trkpt lat="42.209455" lon="14.5934367"><ele>14.0</ele><time>2026-04-27T07:21:30.893Z</time></trkpt><trkpt lat="42.2095183" lon="14.593325"><ele>13.0</ele><time>2026-04-27T07:21:32.893Z</time></trkpt><trkpt lat="42.209585" lon="14.5932133"><ele>13.0</ele><time>2026-04-27T07:21:34.892Z</time></trkpt><trkpt lat="42.2096483" lon="14.5930933"><ele>13.0</ele><time>2026-04-27T07:21:36.893Z</time></trkpt><trkpt lat="42.2097183" lon="14.592975"><ele>13.0</ele><time>2026-04-27T07:21:38.893Z</time></trkpt><trkpt lat="42.209785" lon="14.592855"><ele>13.0</ele><time>2026-04-27T07:21:40.892Z</time></trkpt><trkpt lat="42.2098517" lon="14.5927333"><ele>13.0</ele><time>2026-04-27T07:21:42.892Z</time></trkpt><trkpt lat="42.2099217" lon="14.5926117"><ele>11.8</ele><time>2026-04-27T07:21:44.893Z</time></trkpt><trkpt lat="42.2099583" lon="14.5925417"><ele>10.600000000000001</ele><time>2026-04-27T07:21:45.892Z</time></trkpt><trkpt lat="42.2100283" lon="14.592415"><ele>9.399999999999999</ele><time>2026-04-27T07:21:47.892Z</time></trkpt><trkpt lat="42.2100933" lon="14.5922883"><ele>8.2</ele><time>2026-04-27T07:21:49.893Z</time></trkpt><trkpt lat="42.210155" lon="14.5921567"><ele>7.0</ele><time>2026-04-27T07:21:51.893Z</time></trkpt><trkpt lat="42.2102117" lon="14.5920283"><ele>9.0</ele><time>2026-04-27T07:21:53.893Z</time></trkpt><trkpt lat="42.2102717" lon="14.5918983"><ele>11.0</ele><time>2026-04-27T07:21:55.893Z</time></trkpt><trkpt lat="42.210335" lon="14.5917683"><ele>13.0</ele><time>2026-04-27T07:21:57.893Z</time></trkpt><trkpt lat="42.2103933" lon="14.5916383"><ele>15.0</ele><time>2026-04-27T07:21:59.893Z</time></trkpt><trkpt lat="42.21045" lon="14.5915083"><ele>15.0</ele><time>2026-04-27T07:22:01.892Z</time></trkpt><trkpt lat="42.2105017" lon="14.5913767"><ele>15.0</ele><time>2026-04-27T07:22:03.893Z</time></trkpt><trkpt lat="42.2105567" lon="14.5912417"><ele>15.0</ele><time>2026-04-27T07:22:05.892Z</time></trkpt><trkpt lat="42.2106117" lon="14.591105"><ele>15.0</ele><time>2026-04-27T07:22:07.892Z</time></trkpt><trkpt lat="42.2106667" lon="14.5909667"><ele>12.5</ele><time>2026-04-27T07:22:09.893Z</time></trkpt><trkpt lat="42.21072" lon="14.59083"><ele>10.0</ele><time>2026-04-27T07:22:11.892Z</time></trkpt><trkpt lat="42.2107683" lon="14.59069"><ele>7.5</ele><time>2026-04-27T07:22:13.893Z</time></trkpt><trkpt lat="42.2108217" lon="14.5905533"><ele>5.0</ele><time>2026-04-27T07:22:15.893Z</time></trkpt><trkpt lat="42.2108717" lon="14.5904217"><ele>6.8</ele><time>2026-04-27T07:22:17.892Z</time></trkpt><trkpt lat="42.2109217" lon="14.5902917"><ele>8.6</ele><time>2026-04-27T07:22:19.893Z</time></trkpt><trkpt lat="42.2109767" lon="14.59016"><ele>10.399999999999999</ele><time>2026-04-27T07:22:21.892Z</time></trkpt><trkpt lat="42.2110333" lon="14.5900267"><ele>12.2</ele><time>2026-04-27T07:22:23.892Z</time></trkpt><trkpt lat="42.211085" lon="14.5898917"><ele>14.0</ele><time>2026-04-27T07:22:25.893Z</time></trkpt><trkpt lat="42.2111333" lon="14.5897533"><ele>14.0</ele><time>2026-04-27T07:22:27.893Z</time></trkpt><trkpt lat="42.2111883" lon="14.5896233"><ele>13.999999999999998</ele><time>2026-04-27T07:22:29.893Z</time></trkpt><trkpt lat="42.2112433" lon="14.5894883"><ele>13.999999999999998</ele><time>2026-04-27T07:22:31.893Z</time></trkpt><trkpt lat="42.2112983" lon="14.589365"><ele>14.0</ele><time>2026-04-27T07:22:33.892Z</time></trkpt><trkpt lat="42.211355" lon="14.5892367"><ele>14.0</ele><time>2026-04-27T07:22:35.893Z</time></trkpt><trkpt lat="42.2114133" lon="14.5891083"><ele>14.2</ele><time>2026-04-27T07:22:37.893Z</time></trkpt><trkpt lat="42.2114683" lon="14.5889783"><ele>14.399999999999999</ele><time>2026-04-27T07:22:39.893Z</time></trkpt><trkpt lat="42.2115283" lon="14.58885"><ele>14.6</ele><time>2026-04-27T07:22:41.893Z</time></trkpt><trkpt lat="42.211585" lon="14.5887217"><ele>14.8</ele><time>2026-04-27T07:22:43.893Z</time></trkpt><trkpt lat="42.2116467" lon="14.5885967"><ele>15.0</ele><time>2026-04-27T07:22:45.893Z</time></trkpt><trkpt lat="42.2117067" lon="14.588475"><ele>15.0</ele><time>2026-04-27T07:22:47.893Z</time></trkpt><trkpt lat="42.211765" lon="14.5883583"><ele>15.0</ele><time>2026-04-27T07:22:49.893Z</time></trkpt><trkpt lat="42.2118233" lon="14.5882383"><ele>15.0</ele><time>2026-04-27T07:22:51.893Z</time></trkpt><trkpt lat="42.211885" lon="14.5881233"><ele>15.0</ele><time>2026-04-27T07:22:53.892Z</time></trkpt><trkpt lat="42.21195" lon="14.5880117"><ele>15.0</ele><time>2026-04-27T07:22:55.893Z</time></trkpt><trkpt lat="42.2120033" lon="14.58789"><ele>16.0</ele><time>2026-04-27T07:22:57.892Z</time></trkpt><trkpt lat="42.21206" lon="14.58777"><ele>17.0</ele><time>2026-04-27T07:22:59.892Z</time></trkpt><trkpt lat="42.21212" lon="14.5876467"><ele>18.0</ele><time>2026-04-27T07:23:01.893Z</time></trkpt><trkpt lat="42.212185" lon="14.587515"><ele>19.0</ele><time>2026-04-27T07:23:03.893Z</time></trkpt><trkpt lat="42.2122167" lon="14.5874333"><ele>20.0</ele><time>2026-04-27T07:23:04.892Z</time></trkpt><trkpt lat="42.2122467" lon="14.5873583"><ele>20.0</ele><time>2026-04-27T07:23:05.893Z</time></trkpt><trkpt lat="42.2123067" lon="14.5872267"><ele>20.0</ele><time>2026-04-27T07:23:07.892Z</time></trkpt><trkpt lat="42.21237" lon="14.5871033"><ele>20.0</ele><time>2026-04-27T07:23:09.892Z</time></trkpt><trkpt lat="42.2124033" lon="14.58703"><ele>20.0</ele><time>2026-04-27T07:23:10.893Z</time></trkpt><trkpt lat="42.212465" lon="14.5869033"><ele>20.0</ele><time>2026-04-27T07:23:12.893Z</time></trkpt><trkpt lat="42.2125283" lon="14.5867867"><ele>17.25</ele><time>2026-04-27T07:23:14.892Z</time></trkpt><trkpt lat="42.2125917" lon="14.586665"><ele>14.5</ele><time>2026-04-27T07:23:16.893Z</time></trkpt><trkpt lat="42.2126517" lon="14.58654"><ele>11.75</ele><time>2026-04-27T07:23:18.893Z</time></trkpt><trkpt lat="42.212715" lon="14.586415"><ele>9.0</ele><time>2026-04-27T07:23:20.893Z</time></trkpt><trkpt lat="42.21278" lon="14.58627"><ele>10.75</ele><time>2026-04-27T07:23:22.893Z</time></trkpt><trkpt lat="42.2128433" lon="14.586135"><ele>12.5</ele><time>2026-04-27T07:23:24.893Z</time></trkpt><trkpt lat="42.2129033" lon="14.58601"><ele>14.25</ele><time>2026-04-27T07:23:26.892Z</time></trkpt><trkpt lat="42.212965" lon="14.585885"><ele>16.0</ele><time>2026-04-27T07:23:28.892Z</time></trkpt><trkpt lat="42.21303" lon="14.5857633"><ele>16.0</ele><time>2026-04-27T07:23:30.891Z</time></trkpt><trkpt lat="42.2130883" lon="14.585635"><ele>16.0</ele><time>2026-04-27T07:23:32.891Z</time></trkpt><trkpt lat="42.2131517" lon="14.5855017"><ele>16.0</ele><time>2026-04-27T07:23:34.892Z</time></trkpt><trkpt lat="42.213215" lon="14.5853633"><ele>16.0</ele><time>2026-04-27T07:23:36.892Z</time></trkpt><trkpt lat="42.2132767" lon="14.5852283"><ele>15.0</ele><time>2026-04-27T07:23:38.891Z</time></trkpt><trkpt lat="42.21334" lon="14.5851017"><ele>14.0</ele><time>2026-04-27T07:23:40.891Z</time></trkpt><trkpt lat="42.2134133" lon="14.5849833"><ele>13.0</ele><time>2026-04-27T07:23:42.892Z</time></trkpt><trkpt lat="42.21348" lon="14.5848667"><ele>12.0</ele><time>2026-04-27T07:23:44.892Z</time></trkpt><trkpt lat="42.2135517" lon="14.5847433"><ele>12.0</ele><time>2026-04-27T07:23:46.892Z</time></trkpt><trkpt lat="42.2136233" lon="14.5846167"><ele>12.0</ele><time>2026-04-27T07:23:48.892Z</time></trkpt><trkpt lat="42.2136967" lon="14.5844917"><ele>12.0</ele><time>2026-04-27T07:23:50.892Z</time></trkpt><trkpt lat="42.2137633" lon="14.5843733"><ele>12.0</ele><time>2026-04-27T07:23:52.892Z</time></trkpt><trkpt lat="42.2138317" lon="14.5842617"><ele>11.0</ele><time>2026-04-27T07:23:54.891Z</time></trkpt><trkpt lat="42.2139067" lon="14.58415"><ele>10.0</ele><time>2026-04-27T07:23:56.891Z</time></trkpt><trkpt lat="42.21398" lon="14.5840417"><ele>9.0</ele><time>2026-04-27T07:23:58.892Z</time></trkpt><trkpt lat="42.214055" lon="14.5839333"><ele>8.0</ele><time>2026-04-27T07:24:00.891Z</time></trkpt><trkpt lat="42.21413" lon="14.5838217"><ele>7.0</ele><time>2026-04-27T07:24:02.892Z</time></trkpt><trkpt lat="42.2142033" lon="14.5837083"><ele>8.6</ele><time>2026-04-27T07:24:04.892Z</time></trkpt><trkpt lat="42.214275" lon="14.5836017"><ele>10.2</ele><time>2026-04-27T07:24:06.892Z</time></trkpt><trkpt lat="42.2143483" lon="14.5834933"><ele>11.8</ele><time>2026-04-27T07:24:08.892Z</time></trkpt><trkpt lat="42.21442" lon="14.5833667"><ele>13.4</ele><time>2026-04-27T07:24:10.892Z</time></trkpt><trkpt lat="42.2144917" lon="14.5832567"><ele>15.0</ele><time>2026-04-27T07:24:12.891Z</time></trkpt><trkpt lat="42.2145633" lon="14.58314"><ele>15.0</ele><time>2026-04-27T07:24:14.892Z</time></trkpt><trkpt lat="42.21462" lon="14.5830267"><ele>15.0</ele><time>2026-04-27T07:24:16.892Z</time></trkpt><trkpt lat="42.2146767" lon="14.5828917"><ele>15.0</ele><time>2026-04-27T07:24:18.892Z</time></trkpt><trkpt lat="42.2147467" lon="14.5827717"><ele>15.0</ele><time>2026-04-27T07:24:20.892Z</time></trkpt><trkpt lat="42.21481" lon="14.5826667"><ele>15.0</ele><time>2026-04-27T07:24:22.892Z</time></trkpt><trkpt lat="42.214865" lon="14.5825733"><ele>14.857142857142858</ele><time>2026-04-27T07:24:24.892Z</time></trkpt><trkpt lat="42.214905" lon="14.5824933"><ele>14.714285714285714</ele><time>2026-04-27T07:24:26.891Z</time></trkpt><trkpt lat="42.214935" lon="14.5823933"><ele>14.571428571428571</ele><time>2026-04-27T07:24:28.892Z</time></trkpt><trkpt lat="42.2149717" lon="14.582305"><ele>14.428571428571429</ele><time>2026-04-27T07:24:30.891Z</time></trkpt><trkpt lat="42.215025" lon="14.582245"><ele>14.285714285714285</ele><time>2026-04-27T07:24:32.892Z</time></trkpt><trkpt lat="42.2150733" lon="14.58217"><ele>14.142857142857142</ele><time>2026-04-27T07:24:34.891Z</time></trkpt><trkpt lat="42.2151133" lon="14.5820817"><ele>14.0</ele><time>2026-04-27T07:24:36.891Z</time></trkpt><trkpt lat="42.2151533" lon="14.5819833"><ele>14.000000000000002</ele><time>2026-04-27T07:24:38.892Z</time></trkpt><trkpt lat="42.2151917" lon="14.5818933"><ele>14.0</ele><time>2026-04-27T07:24:40.892Z</time></trkpt><trkpt lat="42.2152333" lon="14.5818067"><ele>14.0</ele><time>2026-04-27T07:24:42.891Z</time></trkpt><trkpt lat="42.21527" lon="14.5817233"><ele>14.0</ele><time>2026-04-27T07:24:44.892Z</time></trkpt><trkpt lat="42.215315" lon="14.581645"><ele>14.000000000000002</ele><time>2026-04-27T07:24:46.892Z</time></trkpt><trkpt lat="42.215365" lon="14.581565"><ele>14.0</ele><time>2026-04-27T07:24:48.892Z</time></trkpt><trkpt lat="42.2154133" lon="14.5814783"><ele>14.000000000000002</ele><time>2026-04-27T07:24:50.892Z</time></trkpt><trkpt lat="42.21546" lon="14.58139"><ele>14.0</ele><time>2026-04-27T07:24:52.892Z</time></trkpt><trkpt lat="42.2155017" lon="14.5812933"><ele>14.0</ele><time>2026-04-27T07:24:54.892Z</time></trkpt><trkpt lat="42.2155467" lon="14.581185"><ele>14.0</ele><time>2026-04-27T07:24:56.891Z</time></trkpt><trkpt lat="42.2155967" lon="14.58108"><ele>14.000000000000002</ele><time>2026-04-27T07:24:58.891Z</time></trkpt><trkpt lat="42.2156367" lon="14.5809867"><ele>14.0</ele><time>2026-04-27T07:25:00.892Z</time></trkpt><trkpt lat="42.2156717" lon="14.5808867"><ele>14.000000000000002</ele><time>2026-04-27T07:25:02.892Z</time></trkpt><trkpt lat="42.21571" lon="14.5807883"><ele>14.0</ele><time>2026-04-27T07:25:04.892Z</time></trkpt><trkpt lat="42.2157583" lon="14.580675"><ele>14.0</ele><time>2026-04-27T07:25:06.892Z</time></trkpt><trkpt lat="42.2157933" lon="14.58058"><ele>14.0</ele><time>2026-04-27T07:25:08.891Z</time></trkpt><trkpt lat="42.2158417" lon="14.5804717"><ele>14.000000000000002</ele><time>2026-04-27T07:25:10.892Z</time></trkpt><trkpt lat="42.215885" lon="14.580385"><ele>14.0</ele><time>2026-04-27T07:25:12.891Z</time></trkpt><trkpt lat="42.2159283" lon="14.5802983"><ele>14.000000000000002</ele><time>2026-04-27T07:25:14.892Z</time></trkpt><trkpt lat="42.2159767" lon="14.5802167"><ele>14.0</ele><time>2026-04-27T07:25:16.891Z</time></trkpt><trkpt lat="42.2160167" lon="14.5801317"><ele>14.0</ele><time>2026-04-27T07:25:18.891Z</time></trkpt><trkpt lat="42.216055" lon="14.5800433"><ele>14.0</ele><time>2026-04-27T07:25:20.891Z</time></trkpt><trkpt lat="42.2160933" lon="14.5799467"><ele>14.000000000000002</ele><time>2026-04-27T07:25:22.892Z</time></trkpt><trkpt lat="42.216135" lon="14.5798483"><ele>14.0</ele><time>2026-04-27T07:25:24.892Z</time></trkpt><trkpt lat="42.2161767" lon="14.57975"><ele>14.000000000000002</ele><time>2026-04-27T07:25:26.892Z</time></trkpt><trkpt lat="42.21622" lon="14.5796467"><ele>14.0</ele><time>2026-04-27T07:25:28.892Z</time></trkpt><trkpt lat="42.2162683" lon="14.5795267"><ele>14.0</ele><time>2026-04-27T07:25:30.892Z</time></trkpt><trkpt lat="42.2163133" lon="14.5794267"><ele>14.0</ele><time>2026-04-27T07:25:32.891Z</time></trkpt><trkpt lat="42.2163533" lon="14.5793333"><ele>14.000000000000002</ele><time>2026-04-27T07:25:34.892Z</time></trkpt><trkpt lat="42.21639" lon="14.5792317"><ele>14.0</ele><time>2026-04-27T07:25:36.892Z</time></trkpt><trkpt lat="42.2164317" lon="14.5791317"><ele>13.833333333333334</ele><time>2026-04-27T07:25:38.891Z</time></trkpt><trkpt lat="42.2164733" lon="14.5790333"><ele>13.666666666666668</ele><time>2026-04-27T07:25:40.891Z</time></trkpt><trkpt lat="42.2165167" lon="14.5789433"><ele>13.5</ele><time>2026-04-27T07:25:42.892Z</time></trkpt><trkpt lat="42.216565" lon="14.5788517"><ele>13.333333333333332</ele><time>2026-04-27T07:25:44.892Z</time></trkpt><trkpt lat="42.2166067" lon="14.578765"><ele>13.166666666666666</ele><time>2026-04-27T07:25:46.891Z</time></trkpt><trkpt lat="42.21665" lon="14.5786817"><ele>13.0</ele><time>2026-04-27T07:25:48.892Z</time></trkpt><trkpt lat="42.2166933" lon="14.5785983"><ele>12.999999999999998</ele><time>2026-04-27T07:25:50.891Z</time></trkpt><trkpt lat="42.2167383" lon="14.5784967"><ele>13.0</ele><time>2026-04-27T07:25:52.892Z</time></trkpt><trkpt lat="42.2167733" lon="14.5784033"><ele>13.0</ele><time>2026-04-27T07:25:54.891Z</time></trkpt><trkpt lat="42.2168117" lon="14.578315"><ele>13.0</ele><time>2026-04-27T07:25:56.892Z</time></trkpt><trkpt lat="42.2168533" lon="14.5782267"><ele>12.999999999999998</ele><time>2026-04-27T07:25:58.892Z</time></trkpt><trkpt lat="42.2168933" lon="14.5781417"><ele>13.0</ele><time>2026-04-27T07:26:00.892Z</time></trkpt><trkpt lat="42.216935" lon="14.5780567"><ele>12.999999999999998</ele><time>2026-04-27T07:26:02.892Z</time></trkpt><trkpt lat="42.21697" lon="14.5779583"><ele>13.0</ele><time>2026-04-27T07:26:04.892Z</time></trkpt><trkpt lat="42.217005" lon="14.5778683"><ele>13.0</ele><time>2026-04-27T07:26:06.892Z</time></trkpt><trkpt lat="42.2170333" lon="14.577785"><ele>13.0</ele><time>2026-04-27T07:26:08.892Z</time></trkpt><trkpt lat="42.2170617" lon="14.5776883"><ele>12.999999999999998</ele><time>2026-04-27T07:26:10.892Z</time></trkpt><trkpt lat="42.2171133" lon="14.577595"><ele>13.0</ele><time>2026-04-27T07:26:12.892Z</time></trkpt><trkpt lat="42.2171667" lon="14.5775033"><ele>12.833333333333332</ele><time>2026-04-27T07:26:14.891Z</time></trkpt><trkpt lat="42.2172133" lon="14.5773967"><ele>12.666666666666666</ele><time>2026-04-27T07:26:16.891Z</time></trkpt><trkpt lat="42.2172617" lon="14.5773017"><ele>12.5</ele><time>2026-04-27T07:26:18.892Z</time></trkpt><trkpt lat="42.2172983" lon="14.5772133"><ele>12.333333333333332</ele><time>2026-04-27T07:26:20.891Z</time></trkpt><trkpt lat="42.217335" lon="14.5771267"><ele>12.166666666666666</ele><time>2026-04-27T07:26:22.891Z</time></trkpt><trkpt lat="42.2173717" lon="14.577045"><ele>12.0</ele><time>2026-04-27T07:26:24.891Z</time></trkpt><trkpt lat="42.2174183" lon="14.5769383"><ele>12.0</ele><time>2026-04-27T07:26:27.892Z</time></trkpt><trkpt lat="42.21747" lon="14.5768267"><ele>12.0</ele><time>2026-04-27T07:26:30.892Z</time></trkpt><trkpt lat="42.2175133" lon="14.5767467"><ele>12.0</ele><time>2026-04-27T07:26:32.892Z</time></trkpt><trkpt lat="42.21755" lon="14.5766683"><ele>12.0</ele><time>2026-04-27T07:26:34.892Z</time></trkpt><trkpt lat="42.2175817" lon="14.5765917"><ele>12.0</ele><time>2026-04-27T07:26:36.892Z</time></trkpt><trkpt lat="42.2176267" lon="14.5764917"><ele>12.0</ele><time>2026-04-27T07:26:39.892Z</time></trkpt><trkpt lat="42.2176567" lon="14.576415"><ele>11.999999999999998</ele><time>2026-04-27T07:26:41.892Z</time></trkpt><trkpt lat="42.21769" lon="14.5763417"><ele>12.0</ele><time>2026-04-27T07:26:43.891Z</time></trkpt><trkpt lat="42.2177267" lon="14.5762717"><ele>12.0</ele><time>2026-04-27T07:26:45.891Z</time></trkpt><trkpt lat="42.2177683" lon="14.5761983"><ele>12.0</ele><time>2026-04-27T07:26:47.892Z</time></trkpt><trkpt lat="42.21781" lon="14.576125"><ele>12.0</ele><time>2026-04-27T07:26:49.891Z</time></trkpt><trkpt lat="42.2178467" lon="14.576055"><ele>11.999999999999998</ele><time>2026-04-27T07:26:51.892Z</time></trkpt><trkpt lat="42.2178933" lon="14.57596"><ele>12.0</ele><time>2026-04-27T07:26:54.891Z</time></trkpt><trkpt lat="42.2179417" lon="14.5758683"><ele>11.714285714285714</ele><time>2026-04-27T07:26:57.892Z</time></trkpt><trkpt lat="42.217995" lon="14.57578"><ele>11.428571428571429</ele><time>2026-04-27T07:27:00.892Z</time></trkpt><trkpt lat="42.2180333" lon="14.5757083"><ele>11.142857142857142</ele><time>2026-04-27T07:27:02.892Z</time></trkpt><trkpt lat="42.2180733" lon="14.5756333"><ele>10.857142857142858</ele><time>2026-04-27T07:27:04.892Z</time></trkpt><trkpt lat="42.2181233" lon="14.5755417"><ele>10.571428571428571</ele><time>2026-04-27T07:27:07.891Z</time></trkpt><trkpt lat="42.2181517" lon="14.5754633"><ele>10.285714285714285</ele><time>2026-04-27T07:27:09.892Z</time></trkpt><trkpt lat="42.2181833" lon="14.575375"><ele>10.0</ele><time>2026-04-27T07:27:11.892Z</time></trkpt><trkpt lat="42.2182133" lon="14.5752933"><ele>10.0</ele><time>2026-04-27T07:27:13.892Z</time></trkpt><trkpt lat="42.2182617" lon="14.57519"><ele>10.0</ele><time>2026-04-27T07:27:16.891Z</time></trkpt><trkpt lat="42.2182667" lon="14.5750783"><ele>10.0</ele><time>2026-04-27T07:27:19.892Z</time></trkpt><trkpt lat="42.2182533" lon="14.574985"><ele>10.0</ele><time>2026-04-27T07:27:22.892Z</time></trkpt><trkpt lat="42.21825" lon="14.5748817"><ele>10.0</ele><time>2026-04-27T07:27:25.891Z</time></trkpt><trkpt lat="42.2182567" lon="14.574795"><ele>10.0</ele><time>2026-04-27T07:27:28.892Z</time></trkpt><trkpt lat="42.2182867" lon="14.5746983"><ele>10.0</ele><time>2026-04-27T07:27:32.891Z</time></trkpt><trkpt lat="42.218325" lon="14.57462"><ele>10.0</ele><time>2026-04-27T07:27:35.891Z</time></trkpt><trkpt lat="42.2183683" lon="14.57455"><ele>10.0</ele><time>2026-04-27T07:27:38.891Z</time></trkpt><trkpt lat="42.2184217" lon="14.5744617"><ele>10.0</ele><time>2026-04-27T07:27:42.892Z</time></trkpt><trkpt lat="42.2184633" lon="14.574375"><ele>10.0</ele><time>2026-04-27T07:27:46.892Z</time></trkpt><trkpt lat="42.2185" lon="14.5743017"><ele>10.0</ele><time>2026-04-27T07:27:49.891Z</time></trkpt><trkpt lat="42.2185433" lon="14.5742183"><ele>10.0</ele><time>2026-04-27T07:27:52.891Z</time></trkpt><trkpt lat="42.218585" lon="14.5741467"><ele>11.0</ele><time>2026-04-27T07:27:55.891Z</time></trkpt><trkpt lat="42.2186317" lon="14.57407"><ele>12.0</ele><time>2026-04-27T07:27:58.892Z</time></trkpt><trkpt lat="42.2186917" lon="14.5739817"><ele>13.0</ele><time>2026-04-27T07:28:01.892Z</time></trkpt><trkpt lat="42.2187217" lon="14.5738833"><ele>14.0</ele><time>2026-04-27T07:28:04.892Z</time></trkpt><trkpt lat="42.2187483" lon="14.5737883"><ele>14.999999999999998</ele><time>2026-04-27T07:28:07.892Z</time></trkpt><trkpt lat="42.2187683" lon="14.5736917"><ele>16.0</ele><time>2026-04-27T07:28:11.892Z</time></trkpt><trkpt lat="42.2188117" lon="14.5735983"><ele>16.428571428571427</ele><time>2026-04-27T07:28:15.892Z</time></trkpt><trkpt lat="42.218855" lon="14.5735117"><ele>16.857142857142854</ele><time>2026-04-27T07:28:18.891Z</time></trkpt><trkpt lat="42.2189017" lon="14.5734417"><ele>17.285714285714285</ele><time>2026-04-27T07:28:21.891Z</time></trkpt><trkpt lat="42.2189333" lon="14.5733533"><ele>17.714285714285715</ele><time>2026-04-27T07:28:24.892Z</time></trkpt><trkpt lat="42.2189767" lon="14.5732767"><ele>18.142857142857146</ele><time>2026-04-27T07:28:27.891Z</time></trkpt><trkpt lat="42.21902" lon="14.57321"><ele>18.57142857142857</ele><time>2026-04-27T07:28:30.891Z</time></trkpt><trkpt lat="42.21906" lon="14.5731183"><ele>19.0</ele><time>2026-04-27T07:28:33.891Z</time></trkpt><trkpt lat="42.2190967" lon="14.57303"><ele>18.0</ele><time>2026-04-27T07:28:36.891Z</time></trkpt><trkpt lat="42.219135" lon="14.57294"><ele>17.0</ele><time>2026-04-27T07:28:39.892Z</time></trkpt><trkpt lat="42.219185" lon="14.5728467"><ele>16.0</ele><time>2026-04-27T07:28:42.891Z</time></trkpt><trkpt lat="42.2192283" lon="14.5727533"><ele>15.0</ele><time>2026-04-27T07:28:45.892Z</time></trkpt><trkpt lat="42.2192583" lon="14.5726633"><ele>13.999999999999998</ele><time>2026-04-27T07:28:48.892Z</time></trkpt><trkpt lat="42.2192633" lon="14.5725683"><ele>13.0</ele><time>2026-04-27T07:28:51.892Z</time></trkpt><trkpt lat="42.2192767" lon="14.5724817"><ele>12.999999999999998</ele><time>2026-04-27T07:28:54.892Z</time></trkpt><trkpt lat="42.21935" lon="14.57242"><ele>13.0</ele><time>2026-04-27T07:28:57.891Z</time></trkpt><trkpt lat="42.2194183" lon="14.572385"><ele>13.0</ele><time>2026-04-27T07:28:59.892Z</time></trkpt><trkpt lat="42.2194817" lon="14.5723117"><ele>13.0</ele><time>2026-04-27T07:29:02.892Z</time></trkpt><trkpt lat="42.2195233" lon="14.5722233"><ele>12.999999999999998</ele><time>2026-04-27T07:29:05.891Z</time></trkpt><trkpt lat="42.2195917" lon="14.5721917"><ele>13.0</ele><time>2026-04-27T07:29:11.891Z</time></trkpt><trkpt lat="42.2196683" lon="14.5722183"><ele>12.999999999999998</ele><time>2026-04-27T07:29:15.892Z</time></trkpt><trkpt lat="42.2197167" lon="14.5721583"><ele>13.0</ele><time>2026-04-27T07:29:18.891Z</time></trkpt><trkpt lat="42.2197617" lon="14.5720667"><ele>13.0</ele><time>2026-04-27T07:29:21.892Z</time></trkpt><trkpt lat="42.2198083" lon="14.5719617"><ele>13.0</ele><time>2026-04-27T07:29:24.891Z</time></trkpt><trkpt lat="42.2198433" lon="14.571885"><ele>12.999999999999998</ele><time>2026-04-27T07:29:26.892Z</time></trkpt><trkpt lat="42.219875" lon="14.571805"><ele>13.0</ele><time>2026-04-27T07:29:28.891Z</time></trkpt><trkpt lat="42.2199217" lon="14.5717017"><ele>12.999999999999998</ele><time>2026-04-27T07:29:31.892Z</time></trkpt><trkpt lat="42.21997" lon="14.5715917"><ele>13.0</ele><time>2026-04-27T07:29:34.892Z</time></trkpt><trkpt lat="42.2200067" lon="14.5715067"><ele>13.0</ele><time>2026-04-27T07:29:36.892Z</time></trkpt><trkpt lat="42.22005" lon="14.5713933"><ele>13.0</ele><time>2026-04-27T07:29:39.892Z</time></trkpt><trkpt lat="42.2200767" lon="14.5713117"><ele>12.999999999999998</ele><time>2026-04-27T07:29:41.892Z</time></trkpt><trkpt lat="42.220105" lon="14.5712317"><ele>13.0</ele><time>2026-04-27T07:29:43.891Z</time></trkpt><trkpt lat="42.2201333" lon="14.571155"><ele>13.0</ele><time>2026-04-27T07:29:45.891Z</time></trkpt><trkpt lat="42.2201633" lon="14.5710733"><ele>13.0</ele><time>2026-04-27T07:29:47.891Z</time></trkpt><trkpt lat="42.2201933" lon="14.5709767"><ele>13.0</ele><time>2026-04-27T07:29:49.892Z</time></trkpt><trkpt lat="42.2202217" lon="14.570885"><ele>13.0</ele><time>2026-04-27T07:29:51.891Z</time></trkpt><trkpt lat="42.220255" lon="14.5707983"><ele>13.0</ele><time>2026-04-27T07:29:53.891Z</time></trkpt><trkpt lat="42.2202883" lon="14.5707167"><ele>13.0</ele><time>2026-04-27T07:29:55.892Z</time></trkpt><trkpt lat="42.22032" lon="14.5706317"><ele>13.0</ele><time>2026-04-27T07:29:57.892Z</time></trkpt><trkpt lat="42.2203517" lon="14.570555"><ele>12.999999999999998</ele><time>2026-04-27T07:29:59.892Z</time></trkpt><trkpt lat="42.220395" lon="14.570445"><ele>13.0</ele><time>2026-04-27T07:30:02.891Z</time></trkpt><trkpt lat="42.2204333" lon="14.5703367"><ele>13.0</ele><time>2026-04-27T07:30:05.892Z</time></trkpt><trkpt lat="42.2204717" lon="14.57023"><ele>13.0</ele><time>2026-04-27T07:30:08.891Z</time></trkpt><trkpt lat="42.2204983" lon="14.570145"><ele>12.999999999999998</ele><time>2026-04-27T07:30:10.892Z</time></trkpt><trkpt lat="42.2205233" lon="14.5700617"><ele>13.0</ele><time>2026-04-27T07:30:12.891Z</time></trkpt><trkpt lat="42.2205417" lon="14.5699783"><ele>12.499999999999998</ele><time>2026-04-27T07:30:14.891Z</time></trkpt><trkpt lat="42.2205733" lon="14.5699033"><ele>12.0</ele><time>2026-04-27T07:30:16.892Z</time></trkpt><trkpt lat="42.2206033" lon="14.56981"><ele>11.5</ele><time>2026-04-27T07:30:18.892Z</time></trkpt><trkpt lat="42.2206367" lon="14.5697067"><ele>11.0</ele><time>2026-04-27T07:30:20.891Z</time></trkpt><trkpt lat="42.22067" lon="14.5695983"><ele>10.5</ele><time>2026-04-27T07:30:22.892Z</time></trkpt><trkpt lat="42.2207033" lon="14.5694933"><ele>10.0</ele><time>2026-04-27T07:30:24.892Z</time></trkpt><trkpt lat="42.220735" lon="14.5693917"><ele>10.0</ele><time>2026-04-27T07:30:26.892Z</time></trkpt><trkpt lat="42.2207683" lon="14.5692917"><ele>10.0</ele><time>2026-04-27T07:30:28.892Z</time></trkpt><trkpt lat="42.220805" lon="14.5691833"><ele>10.0</ele><time>2026-04-27T07:30:30.891Z</time></trkpt><trkpt lat="42.2208417" lon="14.569085"><ele>10.0</ele><time>2026-04-27T07:30:32.892Z</time></trkpt><trkpt lat="42.2208783" lon="14.56897"><ele>10.0</ele><time>2026-04-27T07:30:34.892Z</time></trkpt><trkpt lat="42.2209183" lon="14.56887"><ele>10.0</ele><time>2026-04-27T07:30:36.892Z</time></trkpt><trkpt lat="42.2209567" lon="14.56876"><ele>10.5</ele><time>2026-04-27T07:30:38.892Z</time></trkpt><trkpt lat="42.221" lon="14.5686617"><ele>11.0</ele><time>2026-04-27T07:30:40.891Z</time></trkpt><trkpt lat="42.2210333" lon="14.5685583"><ele>11.5</ele><time>2026-04-27T07:30:42.892Z</time></trkpt><trkpt lat="42.2210683" lon="14.56846"><ele>12.0</ele><time>2026-04-27T07:30:44.892Z</time></trkpt><trkpt lat="42.2211133" lon="14.56836"><ele>12.499999999999998</ele><time>2026-04-27T07:30:46.891Z</time></trkpt><trkpt lat="42.2211667" lon="14.5682633"><ele>13.0</ele><time>2026-04-27T07:30:48.892Z</time></trkpt><trkpt lat="42.2212117" lon="14.5681617"><ele>12.999999999999998</ele><time>2026-04-27T07:30:50.892Z</time></trkpt><trkpt lat="42.2212583" lon="14.56806"><ele>13.0</ele><time>2026-04-27T07:30:52.892Z</time></trkpt><trkpt lat="42.221305" lon="14.567965"><ele>13.0</ele><time>2026-04-27T07:30:54.892Z</time></trkpt><trkpt lat="42.22135" lon="14.567865"><ele>13.0</ele><time>2026-04-27T07:30:56.891Z</time></trkpt><trkpt lat="42.2213967" lon="14.5677767"><ele>12.999999999999998</ele><time>2026-04-27T07:30:58.892Z</time></trkpt><trkpt lat="42.221445" lon="14.56768"><ele>13.0</ele><time>2026-04-27T07:31:00.892Z</time></trkpt><trkpt lat="42.221475" lon="14.56756"><ele>12.166666666666666</ele><time>2026-04-27T07:31:02.892Z</time></trkpt><trkpt lat="42.2215083" lon="14.567465"><ele>11.333333333333332</ele><time>2026-04-27T07:31:04.892Z</time></trkpt><trkpt lat="42.2215517" lon="14.56736"><ele>10.5</ele><time>2026-04-27T07:31:06.892Z</time></trkpt><trkpt lat="42.2215967" lon="14.5672667"><ele>9.666666666666666</ele><time>2026-04-27T07:31:08.891Z</time></trkpt><trkpt lat="42.2216483" lon="14.5671767"><ele>8.833333333333332</ele><time>2026-04-27T07:31:10.891Z</time></trkpt><trkpt lat="42.2216967" lon="14.56709"><ele>8.0</ele><time>2026-04-27T07:31:12.892Z</time></trkpt><trkpt lat="42.2217417" lon="14.5669983"><ele>7.999999999999999</ele><time>2026-04-27T07:31:14.892Z</time></trkpt><trkpt lat="42.221785" lon="14.566905"><ele>8.0</ele><time>2026-04-27T07:31:16.891Z</time></trkpt><trkpt lat="42.2218267" lon="14.5668117"><ele>8.0</ele><time>2026-04-27T07:31:18.892Z</time></trkpt><trkpt lat="42.22187" lon="14.566715"><ele>8.0</ele><time>2026-04-27T07:31:20.892Z</time></trkpt><trkpt lat="42.2219133" lon="14.5666167"><ele>7.999999999999999</ele><time>2026-04-27T07:31:22.891Z</time></trkpt><trkpt lat="42.2219617" lon="14.5665117"><ele>8.0</ele><time>2026-04-27T07:31:24.892Z</time></trkpt><trkpt lat="42.222005" lon="14.5664083"><ele>7.999999999999999</ele><time>2026-04-27T07:31:26.892Z</time></trkpt><trkpt lat="42.2220517" lon="14.5662983"><ele>8.0</ele><time>2026-04-27T07:31:28.891Z</time></trkpt><trkpt lat="42.222095" lon="14.5662033"><ele>8.0</ele><time>2026-04-27T07:31:30.892Z</time></trkpt><trkpt lat="42.2221383" lon="14.5661117"><ele>8.0</ele><time>2026-04-27T07:31:32.892Z</time></trkpt><trkpt lat="42.2221817" lon="14.5660233"><ele>7.999999999999999</ele><time>2026-04-27T07:31:34.892Z</time></trkpt><trkpt lat="42.2222233" lon="14.5659383"><ele>8.0</ele><time>2026-04-27T07:31:36.892Z</time></trkpt><trkpt lat="42.2222633" lon="14.56585"><ele>7.499999999999999</ele><time>2026-04-27T07:31:38.892Z</time></trkpt><trkpt lat="42.2223117" lon="14.5657567"><ele>7.0</ele><time>2026-04-27T07:31:40.892Z</time></trkpt><trkpt lat="42.2223583" lon="14.5656617"><ele>6.5</ele><time>2026-04-27T07:31:42.892Z</time></trkpt><trkpt lat="42.222405" lon="14.5655667"><ele>6.0</ele><time>2026-04-27T07:31:44.892Z</time></trkpt><trkpt lat="42.2224517" lon="14.5654717"><ele>5.5</ele><time>2026-04-27T07:31:46.892Z</time></trkpt><trkpt lat="42.2224967" lon="14.56538"><ele>5.0</ele><time>2026-04-27T07:31:48.891Z</time></trkpt><trkpt lat="42.2225417" lon="14.56529"><ele>6.5</ele><time>2026-04-27T07:31:50.891Z</time></trkpt><trkpt lat="42.2225883" lon="14.5651967"><ele>8.0</ele><time>2026-04-27T07:31:52.892Z</time></trkpt><trkpt lat="42.2226317" lon="14.5651033"><ele>9.5</ele><time>2026-04-27T07:31:54.892Z</time></trkpt><trkpt lat="42.2226733" lon="14.5650067"><ele>11.0</ele><time>2026-04-27T07:31:56.891Z</time></trkpt><trkpt lat="42.2227167" lon="14.5649067"><ele>12.500000000000002</ele><time>2026-04-27T07:31:58.891Z</time></trkpt><trkpt lat="42.2227617" lon="14.5648133"><ele>14.0</ele><time>2026-04-27T07:32:00.892Z</time></trkpt><trkpt lat="42.222805" lon="14.564715"><ele>14.000000000000002</ele><time>2026-04-27T07:32:02.892Z</time></trkpt><trkpt lat="42.2228533" lon="14.5646233"><ele>14.0</ele><time>2026-04-27T07:32:04.891Z</time></trkpt><trkpt lat="42.2229" lon="14.5645267"><ele>14.0</ele><time>2026-04-27T07:32:06.892Z</time></trkpt><trkpt lat="42.2229467" lon="14.5644283"><ele>14.0</ele><time>2026-04-27T07:32:08.892Z</time></trkpt><trkpt lat="42.222995" lon="14.564335"><ele>14.000000000000002</ele><time>2026-04-27T07:32:10.892Z</time></trkpt><trkpt lat="42.2230417" lon="14.5642367"><ele>14.0</ele><time>2026-04-27T07:32:12.892Z</time></trkpt><trkpt lat="42.2230867" lon="14.56414"><ele>14.666666666666668</ele><time>2026-04-27T07:32:14.892Z</time></trkpt><trkpt lat="42.223135" lon="14.5640433"><ele>15.333333333333334</ele><time>2026-04-27T07:32:16.891Z</time></trkpt><trkpt lat="42.2231817" lon="14.56395"><ele>16.0</ele><time>2026-04-27T07:32:18.892Z</time></trkpt><trkpt lat="42.2232267" lon="14.5638517"><ele>16.666666666666668</ele><time>2026-04-27T07:32:20.892Z</time></trkpt><trkpt lat="42.223275" lon="14.5637567"><ele>17.333333333333332</ele><time>2026-04-27T07:32:22.892Z</time></trkpt><trkpt lat="42.223325" lon="14.5636617"><ele>18.0</ele><time>2026-04-27T07:32:24.892Z</time></trkpt><trkpt lat="42.223375" lon="14.563565"><ele>16.5</ele><time>2026-04-27T07:32:26.892Z</time></trkpt><trkpt lat="42.22342" lon="14.5634683"><ele>15.0</ele><time>2026-04-27T07:32:28.892Z</time></trkpt><trkpt lat="42.2234683" lon="14.563365"><ele>13.5</ele><time>2026-04-27T07:32:30.891Z</time></trkpt><trkpt lat="42.223515" lon="14.5632633"><ele>12.0</ele><time>2026-04-27T07:32:32.891Z</time></trkpt><trkpt lat="42.2235617" lon="14.56316"><ele>10.5</ele><time>2026-04-27T07:32:34.892Z</time></trkpt><trkpt lat="42.22361" lon="14.56306"><ele>9.0</ele><time>2026-04-27T07:32:36.892Z</time></trkpt><trkpt lat="42.2236567" lon="14.56296"><ele>9.0</ele><time>2026-04-27T07:32:38.892Z</time></trkpt><trkpt lat="42.2237" lon="14.562865"><ele>9.0</ele><time>2026-04-27T07:32:40.891Z</time></trkpt><trkpt lat="42.2237467" lon="14.562765"><ele>9.0</ele><time>2026-04-27T07:32:42.892Z</time></trkpt><trkpt lat="42.2237917" lon="14.5626667"><ele>9.0</ele><time>2026-04-27T07:32:44.892Z</time></trkpt><trkpt lat="42.2238383" lon="14.5625683"><ele>9.0</ele><time>2026-04-27T07:32:46.892Z</time></trkpt><trkpt lat="42.2238833" lon="14.56247"><ele>9.0</ele><time>2026-04-27T07:32:48.891Z</time></trkpt><trkpt lat="42.22393" lon="14.56237"><ele>8.666666666666666</ele><time>2026-04-27T07:32:50.892Z</time></trkpt><trkpt lat="42.2239783" lon="14.5622733"><ele>8.333333333333334</ele><time>2026-04-27T07:32:52.892Z</time></trkpt><trkpt lat="42.2240233" lon="14.562175"><ele>8.0</ele><time>2026-04-27T07:32:54.892Z</time></trkpt><trkpt lat="42.224065" lon="14.5620767"><ele>7.666666666666667</ele><time>2026-04-27T07:32:56.892Z</time></trkpt><trkpt lat="42.2241117" lon="14.5619833"><ele>7.333333333333334</ele><time>2026-04-27T07:32:58.892Z</time></trkpt><trkpt lat="42.2241583" lon="14.5618917"><ele>7.0</ele><time>2026-04-27T07:33:00.892Z</time></trkpt><trkpt lat="42.2242" lon="14.5617967"><ele>7.000000000000001</ele><time>2026-04-27T07:33:02.892Z</time></trkpt><trkpt lat="42.224245" lon="14.5617"><ele>7.0</ele><time>2026-04-27T07:33:04.892Z</time></trkpt><trkpt lat="42.2242883" lon="14.5616"><ele>7.0</ele><time>2026-04-27T07:33:06.892Z</time></trkpt><trkpt lat="42.22433" lon="14.5615"><ele>7.0</ele><time>2026-04-27T07:33:08.891Z</time></trkpt><trkpt lat="42.2243733" lon="14.5613967"><ele>7.000000000000001</ele><time>2026-04-27T07:33:10.892Z</time></trkpt><trkpt lat="42.224415" lon="14.5613033"><ele>7.0</ele><time>2026-04-27T07:33:12.892Z</time></trkpt><trkpt lat="42.2244583" lon="14.5612067"><ele>8.333333333333334</ele><time>2026-04-27T07:33:14.891Z</time></trkpt><trkpt lat="42.2244983" lon="14.561115"><ele>9.666666666666668</ele><time>2026-04-27T07:33:16.892Z</time></trkpt><trkpt lat="42.2245367" lon="14.561025"><ele>11.0</ele><time>2026-04-27T07:33:18.891Z</time></trkpt><trkpt lat="42.2245717" lon="14.5609417"><ele>12.333333333333334</ele><time>2026-04-27T07:33:20.892Z</time></trkpt><trkpt lat="42.2246033" lon="14.5608667"><ele>13.666666666666666</ele><time>2026-04-27T07:33:22.892Z</time></trkpt><trkpt lat="42.2246667" lon="14.5607933"><ele>15.0</ele><time>2026-04-27T07:33:25.892Z</time></trkpt><trkpt lat="42.2247517" lon="14.56076"><ele>13.0</ele><time>2026-04-27T07:33:27.892Z</time></trkpt><trkpt lat="42.2248433" lon="14.5607167"><ele>11.0</ele><time>2026-04-27T07:33:29.892Z</time></trkpt><trkpt lat="42.224925" lon="14.5606483"><ele>9.0</ele><time>2026-04-27T07:33:31.891Z</time></trkpt><trkpt lat="42.2249967" lon="14.5605517"><ele>7.0</ele><time>2026-04-27T07:33:33.892Z</time></trkpt><trkpt lat="42.2250567" lon="14.5604433"><ele>5.0</ele><time>2026-04-27T07:33:35.891Z</time></trkpt><trkpt lat="42.2251133" lon="14.560315"><ele>5.0</ele><time>2026-04-27T07:33:37.892Z</time></trkpt><trkpt lat="42.225165" lon="14.5601767"><ele>5.0</ele><time>2026-04-27T07:33:39.891Z</time></trkpt><trkpt lat="42.2252133" lon="14.560045"><ele>5.0</ele><time>2026-04-27T07:33:41.891Z</time></trkpt><trkpt lat="42.2252617" lon="14.55993"><ele>5.0</ele><time>2026-04-27T07:33:43.892Z</time></trkpt><trkpt lat="42.2253133" lon="14.5598183"><ele>5.0</ele><time>2026-04-27T07:33:45.892Z</time></trkpt><trkpt lat="42.22536" lon="14.5597133"><ele>5.0</ele><time>2026-04-27T07:33:47.891Z</time></trkpt><trkpt lat="42.22541" lon="14.5596"><ele>5.0</ele><time>2026-04-27T07:33:49.892Z</time></trkpt><trkpt lat="42.2254633" lon="14.559485"><ele>5.0</ele><time>2026-04-27T07:33:51.892Z</time></trkpt><trkpt lat="42.2255183" lon="14.5593683"><ele>5.0</ele><time>2026-04-27T07:33:53.892Z</time></trkpt><trkpt lat="42.2255717" lon="14.5592533"><ele>5.0</ele><time>2026-04-27T07:33:55.892Z</time></trkpt><trkpt lat="42.225625" lon="14.5591233"><ele>5.0</ele><time>2026-04-27T07:33:57.891Z</time></trkpt><trkpt lat="42.2256883" lon="14.5589833"><ele>5.0</ele><time>2026-04-27T07:33:59.891Z</time></trkpt><trkpt lat="42.22575" lon="14.558855"><ele>5.0</ele><time>2026-04-27T07:34:01.892Z</time></trkpt><trkpt lat="42.2258133" lon="14.5587167"><ele>5.0</ele><time>2026-04-27T07:34:03.892Z</time></trkpt><trkpt lat="42.22587" lon="14.5585817"><ele>5.0</ele><time>2026-04-27T07:34:05.892Z</time></trkpt><trkpt lat="42.2258983" lon="14.5585017"><ele>5.0</ele><time>2026-04-27T07:34:06.891Z</time></trkpt><trkpt lat="42.225965" lon="14.5583783"><ele>5.0</ele><time>2026-04-27T07:34:08.892Z</time></trkpt><trkpt lat="42.2260317" lon="14.5582617"><ele>5.0</ele><time>2026-04-27T07:34:10.891Z</time></trkpt><trkpt lat="42.226095" lon="14.5581367"><ele>5.0</ele><time>2026-04-27T07:34:12.89Z</time></trkpt><trkpt lat="42.2261533" lon="14.55801"><ele>5.0</ele><time>2026-04-27T07:34:14.891Z</time></trkpt><trkpt lat="42.2262067" lon="14.5578817"><ele>5.0</ele><time>2026-04-27T07:34:16.891Z</time></trkpt><trkpt lat="42.2262683" lon="14.5577583"><ele>5.0</ele><time>2026-04-27T07:34:18.891Z</time></trkpt><trkpt lat="42.2263333" lon="14.5576267"><ele>5.0</ele><time>2026-04-27T07:34:20.89Z</time></trkpt><trkpt lat="42.2263867" lon="14.5575033"><ele>5.0</ele><time>2026-04-27T07:34:22.891Z</time></trkpt><trkpt lat="42.2264467" lon="14.5573783"><ele>4.8</ele><time>2026-04-27T07:34:24.891Z</time></trkpt><trkpt lat="42.2265017" lon="14.557255"><ele>4.6</ele><time>2026-04-27T07:34:26.891Z</time></trkpt><trkpt lat="42.2265533" lon="14.557135"><ele>4.4</ele><time>2026-04-27T07:34:28.891Z</time></trkpt><trkpt lat="42.2266083" lon="14.557015"><ele>4.2</ele><time>2026-04-27T07:34:30.891Z</time></trkpt><trkpt lat="42.226665" lon="14.5568933"><ele>4.0</ele><time>2026-04-27T07:34:32.89Z</time></trkpt><trkpt lat="42.22672" lon="14.5567717"><ele>4.0</ele><time>2026-04-27T07:34:34.891Z</time></trkpt><trkpt lat="42.2267783" lon="14.5566367"><ele>4.0</ele><time>2026-04-27T07:34:36.89Z</time></trkpt><trkpt lat="42.2268383" lon="14.5565033"><ele>4.0</ele><time>2026-04-27T07:34:38.89Z</time></trkpt><trkpt lat="42.2268917" lon="14.5563817"><ele>4.0</ele><time>2026-04-27T07:34:40.89Z</time></trkpt><trkpt lat="42.2269467" lon="14.556265"><ele>4.0</ele><time>2026-04-27T07:34:42.891Z</time></trkpt><trkpt lat="42.2270083" lon="14.5561517"><ele>4.4</ele><time>2026-04-27T07:34:44.891Z</time></trkpt><trkpt lat="42.2270717" lon="14.556035"><ele>4.800000000000001</ele><time>2026-04-27T07:34:46.89Z</time></trkpt><trkpt lat="42.2271333" lon="14.5559183"><ele>5.199999999999999</ele><time>2026-04-27T07:34:48.89Z</time></trkpt><trkpt lat="42.22719" lon="14.5557917"><ele>5.6</ele><time>2026-04-27T07:34:50.891Z</time></trkpt><trkpt lat="42.2272517" lon="14.55567"><ele>6.0</ele><time>2026-04-27T07:34:52.89Z</time></trkpt><trkpt lat="42.2273167" lon="14.5555467"><ele>5.2</ele><time>2026-04-27T07:34:54.891Z</time></trkpt><trkpt lat="42.227385" lon="14.5554283"><ele>4.3999999999999995</ele><time>2026-04-27T07:34:56.891Z</time></trkpt><trkpt lat="42.2274517" lon="14.5553183"><ele>3.6</ele><time>2026-04-27T07:34:58.89Z</time></trkpt><trkpt lat="42.2275183" lon="14.5552133"><ele>2.8</ele><time>2026-04-27T07:35:00.891Z</time></trkpt><trkpt lat="42.2275883" lon="14.5551133"><ele>2.0</ele><time>2026-04-27T07:35:02.891Z</time></trkpt><trkpt lat="42.2276567" lon="14.5550133"><ele>2.0</ele><time>2026-04-27T07:35:04.89Z</time></trkpt><trkpt lat="42.2277183" lon="14.5548983"><ele>2.0</ele><time>2026-04-27T07:35:06.891Z</time></trkpt><trkpt lat="42.2277717" lon="14.5547867"><ele>2.0</ele><time>2026-04-27T07:35:08.89Z</time></trkpt><trkpt lat="42.22782" lon="14.5546683"><ele>2.0</ele><time>2026-04-27T07:35:10.891Z</time></trkpt><trkpt lat="42.2278683" lon="14.5545567"><ele>2.0</ele><time>2026-04-27T07:35:12.891Z</time></trkpt><trkpt lat="42.227925" lon="14.5544433"><ele>2.2</ele><time>2026-04-27T07:35:14.89Z</time></trkpt><trkpt lat="42.2279917" lon="14.5543367"><ele>2.4000000000000004</ele><time>2026-04-27T07:35:16.891Z</time></trkpt><trkpt lat="42.2280567" lon="14.5542417"><ele>2.5999999999999996</ele><time>2026-04-27T07:35:18.891Z</time></trkpt><trkpt lat="42.2281233" lon="14.554145"><ele>2.8</ele><time>2026-04-27T07:35:20.891Z</time></trkpt><trkpt lat="42.228185" lon="14.55404"><ele>3.0</ele><time>2026-04-27T07:35:22.89Z</time></trkpt><trkpt lat="42.2282467" lon="14.5539267"><ele>3.0</ele><time>2026-04-27T07:35:24.891Z</time></trkpt><trkpt lat="42.2283083" lon="14.5538217"><ele>3.0</ele><time>2026-04-27T07:35:26.891Z</time></trkpt><trkpt lat="42.2283733" lon="14.5537217"><ele>3.0</ele><time>2026-04-27T07:35:28.89Z</time></trkpt><trkpt lat="42.2284367" lon="14.5536317"><ele>3.0</ele><time>2026-04-27T07:35:30.891Z</time></trkpt><trkpt lat="42.2285017" lon="14.5535383"><ele>3.0</ele><time>2026-04-27T07:35:32.89Z</time></trkpt><trkpt lat="42.2285667" lon="14.55344"><ele>3.0</ele><time>2026-04-27T07:35:34.89Z</time></trkpt><trkpt lat="42.2286317" lon="14.5533383"><ele>3.0</ele><time>2026-04-27T07:35:36.891Z</time></trkpt><trkpt lat="42.2287" lon="14.553235"><ele>3.0</ele><time>2026-04-27T07:35:38.891Z</time></trkpt><trkpt lat="42.2287767" lon="14.5531333"><ele>3.0</ele><time>2026-04-27T07:35:40.89Z</time></trkpt><trkpt lat="42.22886" lon="14.5530317"><ele>3.0</ele><time>2026-04-27T07:35:42.891Z</time></trkpt><trkpt lat="42.228945" lon="14.5529567"><ele>2.1999999999999997</ele><time>2026-04-27T07:35:44.891Z</time></trkpt><trkpt lat="42.2290383" lon="14.55287"><ele>1.4</ele><time>2026-04-27T07:35:46.891Z</time></trkpt><trkpt lat="42.22912" lon="14.5527967"><ele>0.5999999999999999</ele><time>2026-04-27T07:35:48.89Z</time></trkpt><trkpt lat="42.2292017" lon="14.5527"><ele>-0.20000000000000007</ele><time>2026-04-27T07:35:50.891Z</time></trkpt><trkpt lat="42.2292633" lon="14.5525817"><ele>-1.0</ele><time>2026-04-27T07:35:52.891Z</time></trkpt><trkpt lat="42.2293167" lon="14.5524683"><ele>-1.0</ele><time>2026-04-27T07:35:54.891Z</time></trkpt><trkpt lat="42.2293667" lon="14.5523567"><ele>-1.0</ele><time>2026-04-27T07:35:56.891Z</time></trkpt><trkpt lat="42.2294183" lon="14.552245"><ele>-1.0</ele><time>2026-04-27T07:35:58.891Z</time></trkpt><trkpt lat="42.2294717" lon="14.552135"><ele>-1.0</ele><time>2026-04-27T07:36:00.891Z</time></trkpt><trkpt lat="42.229525" lon="14.552025"><ele>-1.0</ele><time>2026-04-27T07:36:02.89Z</time></trkpt><trkpt lat="42.2295867" lon="14.5519167"><ele>-0.8</ele><time>2026-04-27T07:36:04.891Z</time></trkpt><trkpt lat="42.2296433" lon="14.5518167"><ele>-0.6000000000000001</ele><time>2026-04-27T07:36:06.891Z</time></trkpt><trkpt lat="42.2296933" lon="14.5517133"><ele>-0.4</ele><time>2026-04-27T07:36:08.891Z</time></trkpt><trkpt lat="42.2297333" lon="14.551595"><ele>-0.2</ele><time>2026-04-27T07:36:10.89Z</time></trkpt><trkpt lat="42.2297617" lon="14.5514717"><ele>0.0</ele><time>2026-04-27T07:36:12.891Z</time></trkpt><trkpt lat="42.2297783" lon="14.551345"><ele>0.0</ele><time>2026-04-27T07:36:14.891Z</time></trkpt><trkpt lat="42.2297867" lon="14.5512183"><ele>0.0</ele><time>2026-04-27T07:36:16.891Z</time></trkpt><trkpt lat="42.2298033" lon="14.5510967"><ele>0.0</ele><time>2026-04-27T07:36:18.891Z</time></trkpt><trkpt lat="42.2298467" lon="14.550995"><ele>0.0</ele><time>2026-04-27T07:36:20.891Z</time></trkpt><trkpt lat="42.2299017" lon="14.5508933"><ele>0.0</ele><time>2026-04-27T07:36:22.891Z</time></trkpt><trkpt lat="42.22996" lon="14.5507883"><ele>0.0</ele><time>2026-04-27T07:36:24.891Z</time></trkpt><trkpt lat="42.2300233" lon="14.55069"><ele>0.0</ele><time>2026-04-27T07:36:26.89Z</time></trkpt><trkpt lat="42.2300783" lon="14.5505917"><ele>0.0</ele><time>2026-04-27T07:36:28.89Z</time></trkpt><trkpt lat="42.2301317" lon="14.5504933"><ele>0.0</ele><time>2026-04-27T07:36:30.891Z</time></trkpt><trkpt lat="42.230185" lon="14.550395"><ele>0.0</ele><time>2026-04-27T07:36:32.891Z</time></trkpt><trkpt lat="42.2302383" lon="14.5503017"><ele>0.0</ele><time>2026-04-27T07:36:34.891Z</time></trkpt><trkpt lat="42.2302933" lon="14.5502117"><ele>0.0</ele><time>2026-04-27T07:36:36.891Z</time></trkpt><trkpt lat="42.23035" lon="14.55012"><ele>0.0</ele><time>2026-04-27T07:36:38.891Z</time></trkpt><trkpt lat="42.230405" lon="14.5500267"><ele>0.0</ele><time>2026-04-27T07:36:40.89Z</time></trkpt><trkpt lat="42.23046" lon="14.5499333"><ele>0.0</ele><time>2026-04-27T07:36:42.891Z</time></trkpt><trkpt lat="42.230515" lon="14.5498283"><ele>0.0</ele><time>2026-04-27T07:36:44.891Z</time></trkpt><trkpt lat="42.23058" lon="14.5497333"><ele>0.0</ele><time>2026-04-27T07:36:46.891Z</time></trkpt><trkpt lat="42.230645" lon="14.54964"><ele>0.0</ele><time>2026-04-27T07:36:48.891Z</time></trkpt><trkpt lat="42.2307067" lon="14.5495517"><ele>0.0</ele><time>2026-04-27T07:36:50.89Z</time></trkpt><trkpt lat="42.230765" lon="14.5494583"><ele>0.0</ele><time>2026-04-27T07:36:52.891Z</time></trkpt><trkpt lat="42.230825" lon="14.54936"><ele>0.0</ele><time>2026-04-27T07:36:54.891Z</time></trkpt><trkpt lat="42.230885" lon="14.5492483"><ele>0.0</ele><time>2026-04-27T07:36:56.89Z</time></trkpt><trkpt lat="42.2309467" lon="14.54915"><ele>0.0</ele><time>2026-04-27T07:36:58.891Z</time></trkpt><trkpt lat="42.2310183" lon="14.54905"><ele>0.0</ele><time>2026-04-27T07:37:00.891Z</time></trkpt><trkpt lat="42.23108" lon="14.54895"><ele>0.0</ele><time>2026-04-27T07:37:02.89Z</time></trkpt><trkpt lat="42.2311383" lon="14.5488433"><ele>0.0</ele><time>2026-04-27T07:37:04.891Z</time></trkpt><trkpt lat="42.2311983" lon="14.548745"><ele>-0.2</ele><time>2026-04-27T07:37:06.891Z</time></trkpt><trkpt lat="42.231255" lon="14.5486383"><ele>-0.4</ele><time>2026-04-27T07:37:08.89Z</time></trkpt><trkpt lat="42.2313183" lon="14.5485433"><ele>-0.6000000000000001</ele><time>2026-04-27T07:37:10.89Z</time></trkpt><trkpt lat="42.23138" lon="14.5484483"><ele>-0.8</ele><time>2026-04-27T07:37:12.891Z</time></trkpt><trkpt lat="42.23144" lon="14.5483517"><ele>-1.0</ele><time>2026-04-27T07:37:14.891Z</time></trkpt><trkpt lat="42.2314983" lon="14.548255"><ele>-1.0</ele><time>2026-04-27T07:37:16.89Z</time></trkpt><trkpt lat="42.2315517" lon="14.548155"><ele>-1.0</ele><time>2026-04-27T07:37:18.891Z</time></trkpt><trkpt lat="42.2316067" lon="14.5480383"><ele>-1.0</ele><time>2026-04-27T07:37:20.89Z</time></trkpt><trkpt lat="42.2316617" lon="14.5479383"><ele>-1.0</ele><time>2026-04-27T07:37:22.89Z</time></trkpt><trkpt lat="42.231715" lon="14.5478417"><ele>-1.0</ele><time>2026-04-27T07:37:24.891Z</time></trkpt><trkpt lat="42.2317717" lon="14.5477467"><ele>-0.8</ele><time>2026-04-27T07:37:26.891Z</time></trkpt><trkpt lat="42.2318233" lon="14.547645"><ele>-0.6000000000000001</ele><time>2026-04-27T07:37:28.891Z</time></trkpt><trkpt lat="42.231885" lon="14.547555"><ele>-0.4</ele><time>2026-04-27T07:37:30.891Z</time></trkpt><trkpt lat="42.231955" lon="14.5474617"><ele>-0.2</ele><time>2026-04-27T07:37:32.891Z</time></trkpt><trkpt lat="42.2320267" lon="14.5473733"><ele>0.0</ele><time>2026-04-27T07:37:34.891Z</time></trkpt><trkpt lat="42.232105" lon="14.5472867"><ele>0.0</ele><time>2026-04-27T07:37:36.89Z</time></trkpt><trkpt lat="42.2321817" lon="14.5472017"><ele>0.0</ele><time>2026-04-27T07:37:38.89Z</time></trkpt><trkpt lat="42.2322567" lon="14.5471217"><ele>0.0</ele><time>2026-04-27T07:37:40.891Z</time></trkpt><trkpt lat="42.2323267" lon="14.5470467"><ele>0.0</ele><time>2026-04-27T07:37:42.891Z</time></trkpt><trkpt lat="42.232385" lon="14.546965"><ele>0.0</ele><time>2026-04-27T07:37:44.891Z</time></trkpt><trkpt lat="42.2324317" lon="14.5468817"><ele>0.0</ele><time>2026-04-27T07:37:46.891Z</time></trkpt><trkpt lat="42.2324767" lon="14.54681"><ele>0.0</ele><time>2026-04-27T07:37:48.89Z</time></trkpt><trkpt lat="42.2325283" lon="14.5467333"><ele>0.0</ele><time>2026-04-27T07:37:50.89Z</time></trkpt><trkpt lat="42.2325883" lon="14.546645"><ele>0.0</ele><time>2026-04-27T07:37:52.891Z</time></trkpt><trkpt lat="42.2326417" lon="14.54655"><ele>0.0</ele><time>2026-04-27T07:37:54.89Z</time></trkpt><trkpt lat="42.232705" lon="14.5464467"><ele>0.0</ele><time>2026-04-27T07:37:56.89Z</time></trkpt><trkpt lat="42.2327683" lon="14.5463467"><ele>0.0</ele><time>2026-04-27T07:37:58.891Z</time></trkpt><trkpt lat="42.2328267" lon="14.5462567"><ele>0.0</ele><time>2026-04-27T07:38:00.89Z</time></trkpt><trkpt lat="42.2328817" lon="14.5461683"><ele>0.0</ele><time>2026-04-27T07:38:02.891Z</time></trkpt><trkpt lat="42.23294" lon="14.54608"><ele>0.0</ele><time>2026-04-27T07:38:04.891Z</time></trkpt><trkpt lat="42.232995" lon="14.545995"><ele>0.0</ele><time>2026-04-27T07:38:06.891Z</time></trkpt><trkpt lat="42.2330533" lon="14.5459183"><ele>0.0</ele><time>2026-04-27T07:38:08.89Z</time></trkpt><trkpt lat="42.233115" lon="14.5458367"><ele>0.0</ele><time>2026-04-27T07:38:10.891Z</time></trkpt><trkpt lat="42.2331683" lon="14.5457433"><ele>0.0</ele><time>2026-04-27T07:38:12.891Z</time></trkpt><trkpt lat="42.233225" lon="14.5456533"><ele>0.0</ele><time>2026-04-27T07:38:14.89Z</time></trkpt><trkpt lat="42.2332867" lon="14.5455633"><ele>0.0</ele><time>2026-04-27T07:38:16.89Z</time></trkpt><trkpt lat="42.2333417" lon="14.5454717"><ele>0.0</ele><time>2026-04-27T07:38:18.891Z</time></trkpt><trkpt lat="42.2333983" lon="14.5453767"><ele>0.0</ele><time>2026-04-27T07:38:20.89Z</time></trkpt><trkpt lat="42.233455" lon="14.5452867"><ele>0.3333333333333333</ele><time>2026-04-27T07:38:22.891Z</time></trkpt><trkpt lat="42.2335067" lon="14.5452033"><ele>0.6666666666666666</ele><time>2026-04-27T07:38:24.891Z</time></trkpt><trkpt lat="42.2335583" lon="14.5451217"><ele>1.0</ele><time>2026-04-27T07:38:26.891Z</time></trkpt><trkpt lat="42.2336067" lon="14.5450467"><ele>1.3333333333333333</ele><time>2026-04-27T07:38:28.891Z</time></trkpt><trkpt lat="42.2336517" lon="14.5449717"><ele>1.6666666666666665</ele><time>2026-04-27T07:38:30.89Z</time></trkpt><trkpt lat="42.2336917" lon="14.544905"><ele>2.0</ele><time>2026-04-27T07:38:32.891Z</time></trkpt><trkpt lat="42.2337467" lon="14.54481"><ele>2.0</ele><time>2026-04-27T07:38:35.891Z</time></trkpt><trkpt lat="42.233795" lon="14.544705"><ele>1.9999999999999998</ele><time>2026-04-27T07:38:38.891Z</time></trkpt><trkpt lat="42.2337983" lon="14.5446167"><ele>2.0</ele><time>2026-04-27T07:38:40.89Z</time></trkpt><trkpt lat="42.23378" lon="14.544525"><ele>2.0</ele><time>2026-04-27T07:38:42.89Z</time></trkpt><trkpt lat="42.23376" lon="14.5444317"><ele>1.9999999999999998</ele><time>2026-04-27T07:38:44.89Z</time></trkpt><trkpt lat="42.2337383" lon="14.54434"><ele>2.0</ele><time>2026-04-27T07:38:46.891Z</time></trkpt><trkpt lat="42.2337183" lon="14.5442533"><ele>2.0</ele><time>2026-04-27T07:38:48.891Z</time></trkpt><trkpt lat="42.2337083" lon="14.5441633"><ele>2.333333333333333</ele><time>2026-04-27T07:38:50.891Z</time></trkpt><trkpt lat="42.2337017" lon="14.5440717"><ele>2.6666666666666665</ele><time>2026-04-27T07:38:52.891Z</time></trkpt><trkpt lat="42.233705" lon="14.54398"><ele>3.0</ele><time>2026-04-27T07:38:54.891Z</time></trkpt><trkpt lat="42.2337233" lon="14.5438967"><ele>3.333333333333333</ele><time>2026-04-27T07:38:56.89Z</time></trkpt><trkpt lat="42.23372" lon="14.5437717"><ele>3.6666666666666665</ele><time>2026-04-27T07:38:58.89Z</time></trkpt><trkpt lat="42.2337" lon="14.5436717"><ele>4.0</ele><time>2026-04-27T07:39:00.891Z</time></trkpt><trkpt lat="42.2336717" lon="14.5435517"><ele>5.0</ele><time>2026-04-27T07:39:03.891Z</time></trkpt><trkpt lat="42.2336467" lon="14.5434667"><ele>6.0</ele><time>2026-04-27T07:39:06.89Z</time></trkpt><trkpt lat="42.2336083" lon="14.5433817"><ele>7.0</ele><time>2026-04-27T07:39:10.891Z</time></trkpt><trkpt lat="42.2335833" lon="14.5432867"><ele>8.0</ele><time>2026-04-27T07:39:13.891Z</time></trkpt><trkpt lat="42.2335767" lon="14.5431967"><ele>9.0</ele><time>2026-04-27T07:39:15.891Z</time></trkpt><trkpt lat="42.2335933" lon="14.5431083"><ele>10.0</ele><time>2026-04-27T07:39:17.89Z</time></trkpt><trkpt lat="42.2336333" lon="14.5429917"><ele>11.0</ele><time>2026-04-27T07:39:20.89Z</time></trkpt><trkpt lat="42.2336917" lon="14.5428917"><ele>12.833333333333332</ele><time>2026-04-27T07:39:23.891Z</time></trkpt><trkpt lat="42.2337417" lon="14.542815"><ele>14.666666666666666</ele><time>2026-04-27T07:39:25.891Z</time></trkpt><trkpt lat="42.2337933" lon="14.54273"><ele>16.5</ele><time>2026-04-27T07:39:27.89Z</time></trkpt><trkpt lat="42.233845" lon="14.5426333"><ele>18.333333333333332</ele><time>2026-04-27T07:39:29.891Z</time></trkpt><trkpt lat="42.2338933" lon="14.5425317"><ele>20.166666666666664</ele><time>2026-04-27T07:39:31.891Z</time></trkpt><trkpt lat="42.2339267" lon="14.5424167"><ele>22.0</ele><time>2026-04-27T07:39:33.891Z</time></trkpt><trkpt lat="42.2339617" lon="14.5423133"><ele>19.0</ele><time>2026-04-27T07:39:35.891Z</time></trkpt><trkpt lat="42.2339983" lon="14.54222"><ele>16.0</ele><time>2026-04-27T07:39:37.891Z</time></trkpt><trkpt lat="42.2340267" lon="14.5421333"><ele>13.0</ele><time>2026-04-27T07:39:39.89Z</time></trkpt><trkpt lat="42.2340517" lon="14.5420517"><ele>10.0</ele><time>2026-04-27T07:39:41.89Z</time></trkpt><trkpt lat="42.2340917" lon="14.5419267"><ele>7.0</ele><time>2026-04-27T07:39:44.891Z</time></trkpt><trkpt lat="42.23413" lon="14.5418233"><ele>4.0</ele><time>2026-04-27T07:39:47.891Z</time></trkpt><trkpt lat="42.2341533" lon="14.5417417"><ele>3.9999999999999996</ele><time>2026-04-27T07:39:49.89Z</time></trkpt><trkpt lat="42.2341583" lon="14.541655"><ele>4.0</ele><time>2026-04-27T07:39:51.891Z</time></trkpt><trkpt lat="42.234125" lon="14.5415783"><ele>4.0</ele><time>2026-04-27T07:39:54.891Z</time></trkpt><trkpt lat="42.23406" lon="14.54151"><ele>4.0</ele><time>2026-04-27T07:40:00.891Z</time></trkpt><trkpt lat="42.2340183" lon="14.5414233"><ele>3.9999999999999996</ele><time>2026-04-27T07:40:03.891Z</time></trkpt><trkpt lat="42.2339567" lon="14.5413467"><ele>4.0</ele><time>2026-04-27T07:40:06.89Z</time></trkpt><trkpt lat="42.2339" lon="14.5412567"><ele>5.285714285714286</ele><time>2026-04-27T07:40:09.89Z</time></trkpt><trkpt lat="42.2338383" lon="14.5411867"><ele>6.571428571428571</ele><time>2026-04-27T07:40:12.89Z</time></trkpt><trkpt lat="42.233805" lon="14.5410917"><ele>7.857142857142857</ele><time>2026-04-27T07:40:17.891Z</time></trkpt><trkpt lat="42.2338133" lon="14.5410017"><ele>9.142857142857142</ele><time>2026-04-27T07:40:21.89Z</time></trkpt><trkpt lat="42.2337617" lon="14.5409233"><ele>10.428571428571429</ele><time>2026-04-27T07:40:25.89Z</time></trkpt><trkpt lat="42.2337133" lon="14.5408533"><ele>11.714285714285714</ele><time>2026-04-27T07:40:29.89Z</time></trkpt><trkpt lat="42.23368" lon="14.5407767"><ele>13.0</ele><time>2026-04-27T07:40:33.89Z</time></trkpt><trkpt lat="42.2336233" lon="14.5407117"><ele>12.999999999999998</ele><time>2026-04-27T07:40:37.891Z</time></trkpt><trkpt lat="42.2335817" lon="14.5406467"><ele>13.0</ele><time>2026-04-27T07:40:40.891Z</time></trkpt><trkpt lat="42.2335117" lon="14.5405833"><ele>13.0</ele><time>2026-04-27T07:40:43.89Z</time></trkpt><trkpt lat="42.2334433" lon="14.540515"><ele>13.0</ele><time>2026-04-27T07:40:46.89Z</time></trkpt><trkpt lat="42.2333933" lon="14.5404617"><ele>12.999999999999998</ele><time>2026-04-27T07:40:49.891Z</time></trkpt><trkpt lat="42.2333233" lon="14.540385"><ele>13.0</ele><time>2026-04-27T07:40:53.891Z</time></trkpt><trkpt lat="42.2332333" lon="14.54033"><ele>13.166666666666666</ele><time>2026-04-27T07:40:55.891Z</time></trkpt><trkpt lat="42.2331767" lon="14.54029"><ele>13.333333333333332</ele><time>2026-04-27T07:40:57.891Z</time></trkpt><trkpt lat="42.2331267" lon="14.5402033"><ele>13.5</ele><time>2026-04-27T07:41:01.891Z</time></trkpt><trkpt lat="42.233105" lon="14.5400933"><ele>13.666666666666668</ele><time>2026-04-27T07:41:04.891Z</time></trkpt><trkpt lat="42.2330767" lon="14.5399933"><ele>13.833333333333334</ele><time>2026-04-27T07:41:07.891Z</time></trkpt><trkpt lat="42.2330133" lon="14.5398983"><ele>14.0</ele><time>2026-04-27T07:41:10.89Z</time></trkpt><trkpt lat="42.232975" lon="14.53983"><ele>14.000000000000002</ele><time>2026-04-27T07:41:12.89Z</time></trkpt><trkpt lat="42.2329283" lon="14.5397383"><ele>14.0</ele><time>2026-04-27T07:41:16.89Z</time></trkpt><trkpt lat="42.232885" lon="14.539675"><ele>14.0</ele><time>2026-04-27T07:41:23.891Z</time></trkpt><trkpt lat="42.2327967" lon="14.539565"><ele>14.0</ele><time>2026-04-27T07:42:06.891Z</time></trkpt><trkpt lat="42.2327833" lon="14.5396517"><ele>14.000000000000002</ele><time>2026-04-27T07:45:44.891Z</time></trkpt><trkpt lat="42.2328733" lon="14.5397383"><ele>14.0</ele><time>2026-04-27T07:48:53.892Z</time></trkpt><trkpt lat="42.232917" lon="14.5398068"><ele>14.000000000000002</ele><time>2026-04-27T07:49:10.893Z</time></trkpt><trkpt lat="42.2329014" lon="14.5399011"><ele>14.0</ele><time>2026-04-27T07:49:36.893Z</time></trkpt><trkpt lat="42.2328853" lon="14.5399889"><ele>14.0</ele><time>2026-04-27T07:49:42.892Z</time></trkpt><trkpt lat="42.2328144" lon="14.5400551"><ele>14.0</ele><time>2026-04-27T07:49:43.893Z</time></trkpt><trkpt lat="42.2328958" lon="14.5399315"><ele>14.000000000000002</ele><time>2026-04-27T07:49:57.893Z</time></trkpt><trkpt lat="42.2329397" lon="14.5398396"><ele>14.0</ele><time>2026-04-27T07:50:06.892Z</time></trkpt><trkpt lat="42.2329414" lon="14.5397459"><ele>14.0</ele><time>2026-04-27T07:50:33.893Z</time></trkpt><trkpt lat="42.2329029" lon="14.5398297"><ele>14.0</ele><time>2026-04-27T07:51:50.892Z</time></trkpt><trkpt lat="42.2329201" lon="14.5399209"><ele>14.0</ele><time>2026-04-27T07:51:58.892Z</time></trkpt><trkpt lat="42.2329511" lon="14.5400118"><ele>14.0</ele><time>2026-04-27T07:52:04.893Z</time></trkpt><trkpt lat="42.2329731" lon="14.5401181"><ele>14.0</ele><time>2026-04-27T07:52:09.893Z</time></trkpt><trkpt lat="42.233008" lon="14.5402066"><ele>14.0</ele><time>2026-04-27T07:52:12.892Z</time></trkpt><trkpt lat="42.2330655" lon="14.5402578"><ele>14.0</ele><time>2026-04-27T07:52:14.892Z</time></trkpt><trkpt lat="42.2331188" lon="14.5403041"><ele>13.833333333333334</ele><time>2026-04-27T07:52:16.893Z</time></trkpt><trkpt lat="42.233171" lon="14.5403937"><ele>13.666666666666668</ele><time>2026-04-27T07:52:19.893Z</time></trkpt><trkpt lat="42.2332381" lon="14.540456"><ele>13.5</ele><time>2026-04-27T07:52:22.893Z</time></trkpt><trkpt lat="42.2333017" lon="14.5405017"><ele>13.333333333333332</ele><time>2026-04-27T07:52:25.892Z</time></trkpt><trkpt lat="42.2333667" lon="14.5405667"><ele>13.166666666666666</ele><time>2026-04-27T07:52:28.893Z</time></trkpt><trkpt lat="42.23342" lon="14.54064"><ele>13.0</ele><time>2026-04-27T07:52:31.892Z</time></trkpt><trkpt lat="42.2335" lon="14.54071"><ele>12.999999999999998</ele><time>2026-04-27T07:52:34.892Z</time></trkpt><trkpt lat="42.2335683" lon="14.5407567"><ele>13.0</ele><time>2026-04-27T07:52:37.893Z</time></trkpt><trkpt lat="42.233635" lon="14.5408333"><ele>13.0</ele><time>2026-04-27T07:52:40.893Z</time></trkpt><trkpt lat="42.233675" lon="14.54091"><ele>13.0</ele><time>2026-04-27T07:52:42.892Z</time></trkpt><trkpt lat="42.2336967" lon="14.5410083"><ele>12.999999999999998</ele><time>2026-04-27T07:52:46.893Z</time></trkpt><trkpt lat="42.2337183" lon="14.5411017"><ele>13.0</ele><time>2026-04-27T07:52:50.893Z</time></trkpt><trkpt lat="42.2337783" lon="14.5411767"><ele>11.499999999999998</ele><time>2026-04-27T07:52:53.892Z</time></trkpt><trkpt lat="42.2338383" lon="14.5412467"><ele>10.0</ele><time>2026-04-27T07:52:56.893Z</time></trkpt><trkpt lat="42.2338917" lon="14.5413133"><ele>8.5</ele><time>2026-04-27T07:52:59.893Z</time></trkpt><trkpt lat="42.2339417" lon="14.541365"><ele>7.0</ele><time>2026-04-27T07:53:02.892Z</time></trkpt><trkpt lat="42.2340117" lon="14.5414333"><ele>5.5</ele><time>2026-04-27T07:53:05.893Z</time></trkpt><trkpt lat="42.2340767" lon="14.5415383"><ele>4.0</ele><time>2026-04-27T07:53:08.893Z</time></trkpt><trkpt lat="42.2340967" lon="14.5416233"><ele>3.9999999999999996</ele><time>2026-04-27T07:53:10.893Z</time></trkpt><trkpt lat="42.2340783" lon="14.5417133"><ele>4.0</ele><time>2026-04-27T07:53:13.893Z</time></trkpt><trkpt lat="42.2340483" lon="14.5418167"><ele>4.0</ele><time>2026-04-27T07:53:17.893Z</time></trkpt><trkpt lat="42.23401" lon="14.541905"><ele>4.0</ele><time>2026-04-27T07:53:20.892Z</time></trkpt><trkpt lat="42.233965" lon="14.5420033"><ele>3.9999999999999996</ele><time>2026-04-27T07:53:23.892Z</time></trkpt><trkpt lat="42.233935" lon="14.5421033"><ele>4.0</ele><time>2026-04-27T07:53:26.892Z</time></trkpt><trkpt lat="42.2339033" lon="14.5421867"><ele>7.0</ele><time>2026-04-27T07:53:29.893Z</time></trkpt><trkpt lat="42.23386" lon="14.5422817"><ele>10.0</ele><time>2026-04-27T07:53:33.893Z</time></trkpt><trkpt lat="42.23382" lon="14.5423617"><ele>13.0</ele><time>2026-04-27T07:53:35.892Z</time></trkpt><trkpt lat="42.23377" lon="14.5424567"><ele>16.0</ele><time>2026-04-27T07:53:38.893Z</time></trkpt><trkpt lat="42.23372" lon="14.542555"><ele>19.0</ele><time>2026-04-27T07:53:41.893Z</time></trkpt><trkpt lat="42.2336817" lon="14.542655"><ele>22.0</ele><time>2026-04-27T07:53:44.893Z</time></trkpt><trkpt lat="42.23364" lon="14.542735"><ele>22.0</ele><time>2026-04-27T07:53:47.892Z</time></trkpt><trkpt lat="42.23359" lon="14.5428083"><ele>22.0</ele><time>2026-04-27T07:53:50.891Z</time></trkpt><trkpt lat="42.23356" lon="14.542915"><ele>22.0</ele><time>2026-04-27T07:53:53.891Z</time></trkpt><trkpt lat="42.2335317" lon="14.5429967"><ele>22.0</ele><time>2026-04-27T07:53:55.891Z</time></trkpt><trkpt lat="42.2335133" lon="14.5430883"><ele>22.0</ele><time>2026-04-27T07:53:57.892Z</time></trkpt><trkpt lat="42.233505" lon="14.54318"><ele>22.0</ele><time>2026-04-27T07:53:59.892Z</time></trkpt><trkpt lat="42.2334433" lon="14.5432733"><ele>23.333333333333332</ele><time>2026-04-27T07:54:02.892Z</time></trkpt><trkpt lat="42.2333733" lon="14.54336"><ele>24.666666666666664</ele><time>2026-04-27T07:54:05.891Z</time></trkpt><trkpt lat="42.2333267" lon="14.5434217"><ele>26.0</ele><time>2026-04-27T07:54:07.892Z</time></trkpt><trkpt lat="42.2332533" lon="14.5434967"><ele>27.333333333333332</ele><time>2026-04-27T07:54:10.892Z</time></trkpt><trkpt lat="42.23319" lon="14.5435733"><ele>28.666666666666668</ele><time>2026-04-27T07:54:13.892Z</time></trkpt><trkpt lat="42.23313" lon="14.5436283"><ele>30.0</ele><time>2026-04-27T07:54:16.892Z</time></trkpt><trkpt lat="42.2330717" lon="14.5436733"><ele>27.714285714285715</ele><time>2026-04-27T07:54:19.891Z</time></trkpt><trkpt lat="42.2330217" lon="14.5437517"><ele>25.428571428571427</ele><time>2026-04-27T07:54:22.892Z</time></trkpt><trkpt lat="42.2329733" lon="14.5438167"><ele>23.142857142857142</ele><time>2026-04-27T07:54:25.891Z</time></trkpt><trkpt lat="42.232925" lon="14.5438883"><ele>20.857142857142858</ele><time>2026-04-27T07:54:28.891Z</time></trkpt><trkpt lat="42.2328417" lon="14.54393"><ele>18.57142857142857</ele><time>2026-04-27T07:54:32.891Z</time></trkpt><trkpt lat="42.23278" lon="14.543975"><ele>16.285714285714285</ele><time>2026-04-27T07:54:34.892Z</time></trkpt><trkpt lat="42.23273" lon="14.5440367"><ele>14.0</ele><time>2026-04-27T07:54:36.891Z</time></trkpt><trkpt lat="42.2326833" lon="14.5440983"><ele>14.000000000000002</ele><time>2026-04-27T07:54:38.892Z</time></trkpt><trkpt lat="42.2326367" lon="14.5441667"><ele>14.0</ele><time>2026-04-27T07:54:40.891Z</time></trkpt><trkpt lat="42.2325767" lon="14.5442417"><ele>14.0</ele><time>2026-04-27T07:54:42.892Z</time></trkpt><trkpt lat="42.2325133" lon="14.5443233"><ele>14.0</ele><time>2026-04-27T07:54:44.892Z</time></trkpt><trkpt lat="42.2324417" lon="14.5444"><ele>14.000000000000002</ele><time>2026-04-27T07:54:46.891Z</time></trkpt><trkpt lat="42.23236" lon="14.5444767"><ele>14.0</ele><time>2026-04-27T07:54:48.892Z</time></trkpt><trkpt lat="42.23229" lon="14.5445617"><ele>15.399999999999999</ele><time>2026-04-27T07:54:50.891Z</time></trkpt><trkpt lat="42.2322167" lon="14.5446333"><ele>16.799999999999997</ele><time>2026-04-27T07:54:52.892Z</time></trkpt><trkpt lat="42.2321433" lon="14.544725"><ele>18.200000000000003</ele><time>2026-04-27T07:54:54.892Z</time></trkpt><trkpt lat="42.2320783" lon="14.5448167"><ele>19.6</ele><time>2026-04-27T07:54:56.891Z</time></trkpt><trkpt lat="42.2320133" lon="14.5449083"><ele>21.0</ele><time>2026-04-27T07:54:58.891Z</time></trkpt><trkpt lat="42.2319483" lon="14.5450017"><ele>21.0</ele><time>2026-04-27T07:55:00.892Z</time></trkpt><trkpt lat="42.2318883" lon="14.5450917"><ele>21.0</ele><time>2026-04-27T07:55:02.892Z</time></trkpt><trkpt lat="42.2318317" lon="14.5451733"><ele>21.0</ele><time>2026-04-27T07:55:04.892Z</time></trkpt><trkpt lat="42.2317767" lon="14.5452517"><ele>21.0</ele><time>2026-04-27T07:55:06.891Z</time></trkpt><trkpt lat="42.2317167" lon="14.5453267"><ele>21.0</ele><time>2026-04-27T07:55:08.892Z</time></trkpt><trkpt lat="42.23167" lon="14.545395"><ele>21.0</ele><time>2026-04-27T07:55:10.892Z</time></trkpt><trkpt lat="42.231625" lon="14.5454633"><ele>21.0</ele><time>2026-04-27T07:55:12.892Z</time></trkpt><trkpt lat="42.2315617" lon="14.5455117"><ele>21.0</ele><time>2026-04-27T07:55:15.892Z</time></trkpt><trkpt lat="42.2316" lon="14.5454317"><ele>21.0</ele><time>2026-04-27T07:55:19.892Z</time></trkpt><trkpt lat="42.23166" lon="14.5453817"><ele>21.0</ele><time>2026-04-27T07:55:22.892Z</time></trkpt><trkpt lat="42.2317117" lon="14.5453167"><ele>21.0</ele><time>2026-04-27T07:55:25.892Z</time></trkpt><trkpt lat="42.2317733" lon="14.5452533"><ele>21.0</ele><time>2026-04-27T07:55:28.891Z</time></trkpt><trkpt lat="42.2318283" lon="14.54517"><ele>21.0</ele><time>2026-04-27T07:55:31.892Z</time></trkpt><trkpt lat="42.2318867" lon="14.5450917"><ele>21.0</ele><time>2026-04-27T07:55:34.892Z</time></trkpt><trkpt lat="42.2319217" lon="14.5450167"><ele>21.0</ele><time>2026-04-27T07:55:36.891Z</time></trkpt><trkpt lat="42.2319533" lon="14.5449383"><ele>21.0</ele><time>2026-04-27T07:55:38.892Z</time></trkpt><trkpt lat="42.2320083" lon="14.54484"><ele>21.0</ele><time>2026-04-27T07:55:41.892Z</time></trkpt><trkpt lat="42.2320567" lon="14.54474"><ele>21.0</ele><time>2026-04-27T07:55:44.891Z</time></trkpt><trkpt lat="42.2320883" lon="14.5446583"><ele>21.0</ele><time>2026-04-27T07:55:46.892Z</time></trkpt><trkpt lat="42.2321283" lon="14.544585"><ele>21.0</ele><time>2026-04-27T07:55:48.892Z</time></trkpt><trkpt lat="42.2321667" lon="14.544515"><ele>22.0</ele><time>2026-04-27T07:55:50.892Z</time></trkpt><trkpt lat="42.2322017" lon="14.5444417"><ele>23.0</ele><time>2026-04-27T07:55:52.892Z</time></trkpt><trkpt lat="42.2322367" lon="14.5443683"><ele>24.0</ele><time>2026-04-27T07:55:54.892Z</time></trkpt><trkpt lat="42.2322817" lon="14.5442683"><ele>25.0</ele><time>2026-04-27T07:55:57.891Z</time></trkpt><trkpt lat="42.2323067" lon="14.5441717"><ele>26.0</ele><time>2026-04-27T07:56:00.891Z</time></trkpt><trkpt lat="42.23229" lon="14.5440767"><ele>27.0</ele><time>2026-04-27T07:56:03.891Z</time></trkpt><trkpt lat="42.2322283" lon="14.5440433"><ele>28.0</ele><time>2026-04-27T07:56:06.892Z</time></trkpt><trkpt lat="42.2321417" lon="14.5440283"><ele>28.000000000000004</ele><time>2026-04-27T07:56:09.891Z</time></trkpt><trkpt lat="42.232065" lon="14.5440417"><ele>28.0</ele><time>2026-04-27T07:56:12.891Z</time></trkpt><trkpt lat="42.2319783" lon="14.544055"><ele>28.0</ele><time>2026-04-27T07:56:15.891Z</time></trkpt><trkpt lat="42.2319067" lon="14.5440833"><ele>28.0</ele><time>2026-04-27T07:56:18.891Z</time></trkpt><trkpt lat="42.2318367" lon="14.5440967"><ele>28.000000000000004</ele><time>2026-04-27T07:56:21.892Z</time></trkpt><trkpt lat="42.2317633" lon="14.5441133"><ele>28.0</ele><time>2026-04-27T07:56:24.892Z</time></trkpt><trkpt lat="42.2316883" lon="14.5441317"><ele>28.0</ele><time>2026-04-27T07:56:27.892Z</time></trkpt><trkpt lat="42.2316067" lon="14.5441417"><ele>28.0</ele><time>2026-04-27T07:56:31.892Z</time></trkpt><trkpt lat="42.2315283" lon="14.5441533"><ele>28.0</ele><time>2026-04-27T07:56:35.892Z</time></trkpt><trkpt lat="42.23146" lon="14.5441583"><ele>28.0</ele><time>2026-04-27T07:56:38.891Z</time></trkpt><trkpt lat="42.23139" lon="14.54417"><ele>28.0</ele><time>2026-04-27T07:56:41.892Z</time></trkpt><trkpt lat="42.231325" lon="14.5441617"><ele>28.0</ele><time>2026-04-27T07:56:45.892Z</time></trkpt><trkpt lat="42.2312583" lon="14.5441383"><ele>28.0</ele><time>2026-04-27T07:56:53.891Z</time></trkpt><trkpt lat="42.231195" lon="14.544135"><ele>30.42857142857143</ele><time>2026-04-27T07:56:57.891Z</time></trkpt><trkpt lat="42.231115" lon="14.5441617"><ele>32.85714285714286</ele><time>2026-04-27T07:57:00.892Z</time></trkpt><trkpt lat="42.23105" lon="14.54419"><ele>35.285714285714285</ele><time>2026-04-27T07:57:04.891Z</time></trkpt><trkpt lat="42.2309767" lon="14.5442433"><ele>37.714285714285715</ele><time>2026-04-27T07:57:08.892Z</time></trkpt><trkpt lat="42.2309217" lon="14.5442967"><ele>40.142857142857146</ele><time>2026-04-27T07:57:12.891Z</time></trkpt><trkpt lat="42.2308667" lon="14.5443483"><ele>42.57142857142857</ele><time>2026-04-27T07:57:15.892Z</time></trkpt><trkpt lat="42.2308183" lon="14.5444217"><ele>45.0</ele><time>2026-04-27T07:57:19.892Z</time></trkpt><trkpt lat="42.2307533" lon="14.5445017"><ele>45.714285714285715</ele><time>2026-04-27T07:57:23.892Z</time></trkpt><trkpt lat="42.2307017" lon="14.5445817"><ele>46.42857142857143</ele><time>2026-04-27T07:57:26.891Z</time></trkpt><trkpt lat="42.2306667" lon="14.5446583"><ele>47.142857142857146</ele><time>2026-04-27T07:57:29.892Z</time></trkpt><trkpt lat="42.2306083" lon="14.5447267"><ele>47.85714285714286</ele><time>2026-04-27T07:57:32.891Z</time></trkpt><trkpt lat="42.2305583" lon="14.5447833"><ele>48.57142857142857</ele><time>2026-04-27T07:57:35.892Z</time></trkpt><trkpt lat="42.230505" lon="14.544845"><ele>49.28571428571429</ele><time>2026-04-27T07:57:39.891Z</time></trkpt><trkpt lat="42.2304717" lon="14.5449433"><ele>50.0</ele><time>2026-04-27T07:57:44.891Z</time></trkpt><trkpt lat="42.2304367" lon="14.5450417"><ele>50.00000000000001</ele><time>2026-04-27T07:57:48.892Z</time></trkpt><trkpt lat="42.2304033" lon="14.5451233"><ele>50.0</ele><time>2026-04-27T07:57:52.892Z</time></trkpt><trkpt lat="42.230355" lon="14.54518"><ele>50.0</ele><time>2026-04-27T07:58:00.892Z</time></trkpt><trkpt lat="42.2302717" lon="14.5452767"><ele>50.0</ele><time>2026-04-27T07:58:17.891Z</time></trkpt><trkpt lat="42.2302217" lon="14.5453883"><ele>50.00000000000001</ele><time>2026-04-27T07:58:21.892Z</time></trkpt><trkpt lat="42.2301767" lon="14.5454717"><ele>50.0</ele><time>2026-04-27T07:58:24.892Z</time></trkpt><trkpt lat="42.2301333" lon="14.5455333"><ele>49.833333333333336</ele><time>2026-04-27T07:58:27.891Z</time></trkpt><trkpt lat="42.230065" lon="14.5455933"><ele>49.66666666666667</ele><time>2026-04-27T07:58:31.891Z</time></trkpt><trkpt lat="42.2300183" lon="14.5456517"><ele>49.5</ele><time>2026-04-27T07:58:34.891Z</time></trkpt><trkpt lat="42.2299417" lon="14.5456967"><ele>49.33333333333333</ele><time>2026-04-27T07:58:37.891Z</time></trkpt><trkpt lat="42.2298683" lon="14.5457717"><ele>49.166666666666664</ele><time>2026-04-27T07:58:40.892Z</time></trkpt><trkpt lat="42.2298133" lon="14.545835"><ele>49.0</ele><time>2026-04-27T07:58:43.891Z</time></trkpt><trkpt lat="42.229765" lon="14.545895"><ele>48.99999999999999</ele><time>2026-04-27T07:58:46.892Z</time></trkpt><trkpt lat="42.2296967" lon="14.5459833"><ele>49.0</ele><time>2026-04-27T07:58:49.892Z</time></trkpt><trkpt lat="42.2296117" lon="14.54604"><ele>49.0</ele><time>2026-04-27T07:58:51.892Z</time></trkpt><trkpt lat="42.229535" lon="14.546105"><ele>49.0</ele><time>2026-04-27T07:58:53.892Z</time></trkpt><trkpt lat="42.229475" lon="14.5461683"><ele>48.99999999999999</ele><time>2026-04-27T07:58:55.891Z</time></trkpt><trkpt lat="42.2294133" lon="14.54623"><ele>49.0</ele><time>2026-04-27T07:58:57.891Z</time></trkpt><trkpt lat="42.2293517" lon="14.546305"><ele>48.142857142857146</ele><time>2026-04-27T07:58:59.892Z</time></trkpt><trkpt lat="42.2292767" lon="14.5463733"><ele>47.285714285714285</ele><time>2026-04-27T07:59:02.891Z</time></trkpt><trkpt lat="42.2292383" lon="14.5464467"><ele>46.42857142857143</ele><time>2026-04-27T07:59:05.892Z</time></trkpt><trkpt lat="42.2291867" lon="14.546515"><ele>45.57142857142857</ele><time>2026-04-27T07:59:10.891Z</time></trkpt><trkpt lat="42.229125" lon="14.5465767"><ele>44.714285714285715</ele><time>2026-04-27T07:59:14.892Z</time></trkpt><trkpt lat="42.229085" lon="14.546645"><ele>43.85714285714286</ele><time>2026-04-27T07:59:18.891Z</time></trkpt><trkpt lat="42.229045" lon="14.5467183"><ele>43.0</ele><time>2026-04-27T07:59:23.891Z</time></trkpt><trkpt lat="42.229" lon="14.5467833"><ele>43.57142857142858</ele><time>2026-04-27T07:59:27.892Z</time></trkpt><trkpt lat="42.2289567" lon="14.5468583"><ele>44.142857142857146</ele><time>2026-04-27T07:59:30.892Z</time></trkpt><trkpt lat="42.22892" lon="14.5469333"><ele>44.714285714285715</ele><time>2026-04-27T07:59:34.892Z</time></trkpt><trkpt lat="42.2288983" lon="14.54702"><ele>45.28571428571429</ele><time>2026-04-27T07:59:38.891Z</time></trkpt><trkpt lat="42.2288583" lon="14.5471067"><ele>45.857142857142854</ele><time>2026-04-27T07:59:42.892Z</time></trkpt><trkpt lat="42.22883" lon="14.5471983"><ele>46.42857142857143</ele><time>2026-04-27T07:59:47.892Z</time></trkpt><trkpt lat="42.228805" lon="14.5472817"><ele>47.0</ele><time>2026-04-27T07:59:51.891Z</time></trkpt><trkpt lat="42.2287733" lon="14.5473633"><ele>47.0</ele><time>2026-04-27T07:59:55.892Z</time></trkpt><trkpt lat="42.228745" lon="14.547445"><ele>47.0</ele><time>2026-04-27T07:59:59.892Z</time></trkpt><trkpt lat="42.2286633" lon="14.5474383"><ele>47.0</ele><time>2026-04-27T08:00:15.891Z</time></trkpt><trkpt lat="42.2286083" lon="14.5473733"><ele>47.0</ele><time>2026-04-27T08:00:22.892Z</time></trkpt><trkpt lat="42.2285433" lon="14.54734"><ele>47.0</ele><time>2026-04-27T08:00:28.892Z</time></trkpt><trkpt lat="42.2284683" lon="14.5472867"><ele>47.0</ele><time>2026-04-27T08:00:34.892Z</time></trkpt><trkpt lat="42.228405" lon="14.5472733"><ele>47.0</ele><time>2026-04-27T08:00:37.892Z</time></trkpt><trkpt lat="42.2283267" lon="14.5472583"><ele>47.0</ele><time>2026-04-27T08:00:42.891Z</time></trkpt><trkpt lat="42.2282633" lon="14.54726"><ele>47.0</ele><time>2026-04-27T08:00:48.891Z</time></trkpt><trkpt lat="42.2281967" lon="14.54725"><ele>47.0</ele><time>2026-04-27T08:00:59.891Z</time></trkpt><trkpt lat="42.228135" lon="14.547345"><ele>47.0</ele><time>2026-04-27T08:01:51.892Z</time></trkpt><trkpt lat="42.2280967" lon="14.5474683"><ele>47.0</ele><time>2026-04-27T08:02:39.892Z</time></trkpt><trkpt lat="42.2280067" lon="14.547425"><ele>47.0</ele><time>2026-04-27T08:03:26.891Z</time></trkpt><trkpt lat="42.2279083" lon="14.5473783"><ele>49.0</ele><time>2026-04-27T08:03:52.892Z</time></trkpt><trkpt lat="42.227865" lon="14.547305"><ele>51.0</ele><time>2026-04-27T08:04:07.892Z</time></trkpt><trkpt lat="42.2278283" lon="14.5472283"><ele>53.0</ele><time>2026-04-27T08:04:15.891Z</time></trkpt><trkpt lat="42.227755" lon="14.547185"><ele>55.0</ele><time>2026-04-27T08:04:25.892Z</time></trkpt><trkpt lat="42.2276917" lon="14.5472033"><ele>57.00000000000001</ele><time>2026-04-27T08:04:31.892Z</time></trkpt><trkpt lat="42.2276183" lon="14.547235"><ele>59.0</ele><time>2026-04-27T08:04:36.891Z</time></trkpt><trkpt lat="42.2275317" lon="14.5472933"><ele>59.0</ele><time>2026-04-27T08:04:42.891Z</time></trkpt><trkpt lat="42.2274733" lon="14.547345"><ele>59.00000000000001</ele><time>2026-04-27T08:04:47.892Z</time></trkpt><trkpt lat="42.227425" lon="14.5474"><ele>59.00000000000001</ele><time>2026-04-27T08:04:52.892Z</time></trkpt><trkpt lat="42.2273" lon="14.54746"><ele>59.0</ele><time>2026-04-27T08:05:01.892Z</time></trkpt><trkpt lat="42.2272317" lon="14.5475"><ele>59.0</ele><time>2026-04-27T08:05:07.891Z</time></trkpt><trkpt lat="42.2271133" lon="14.547535"><ele>60.71428571428571</ele><time>2026-04-27T08:05:17.892Z</time></trkpt><trkpt lat="42.2270483" lon="14.5475317"><ele>62.42857142857143</ele><time>2026-04-27T08:05:22.891Z</time></trkpt><trkpt lat="42.22696" lon="14.5474883"><ele>64.14285714285714</ele><time>2026-04-27T08:05:27.892Z</time></trkpt><trkpt lat="42.2269067" lon="14.5474417"><ele>65.85714285714286</ele><time>2026-04-27T08:05:30.892Z</time></trkpt><trkpt lat="42.2268517" lon="14.5473883"><ele>67.57142857142857</ele><time>2026-04-27T08:05:33.892Z</time></trkpt><trkpt lat="42.2267967" lon="14.5473283"><ele>69.28571428571428</ele><time>2026-04-27T08:05:38.891Z</time></trkpt><trkpt lat="42.2267167" lon="14.5472883"><ele>71.0</ele><time>2026-04-27T08:05:44.892Z</time></trkpt><trkpt lat="42.2266617" lon="14.5472183"><ele>71.0</ele><time>2026-04-27T08:05:49.892Z</time></trkpt><trkpt lat="42.226615" lon="14.547135"><ele>71.0</ele><time>2026-04-27T08:05:53.892Z</time></trkpt><trkpt lat="42.226565" lon="14.5470683"><ele>71.0</ele><time>2026-04-27T08:05:57.891Z</time></trkpt><trkpt lat="42.2265083" lon="14.547025"><ele>71.0</ele><time>2026-04-27T08:06:01.892Z</time></trkpt><trkpt lat="42.2264533" lon="14.5469817"><ele>71.0</ele><time>2026-04-27T08:06:07.891Z</time></trkpt><trkpt lat="42.2263817" lon="14.546975"><ele>71.0</ele><time>2026-04-27T08:06:12.892Z</time></trkpt><trkpt lat="42.22632" lon="14.54695"><ele>71.0</ele><time>2026-04-27T08:06:18.891Z</time></trkpt><trkpt lat="42.2262017" lon="14.546905"><ele>74.6</ele><time>2026-04-27T08:06:52.892Z</time></trkpt><trkpt lat="42.226185" lon="14.54676"><ele>78.19999999999999</ele><time>2026-04-27T08:07:23.892Z</time></trkpt><trkpt lat="42.2261917" lon="14.5466567"><ele>81.80000000000001</ele><time>2026-04-27T08:07:31.892Z</time></trkpt><trkpt lat="42.2260733" lon="14.5466517"><ele>85.4</ele><time>2026-04-27T08:07:47.892Z</time></trkpt><trkpt lat="42.226005" lon="14.546695"><ele>89.0</ele><time>2026-04-27T08:07:51.891Z</time></trkpt><trkpt lat="42.22591" lon="14.5467917"><ele>88.99999999999999</ele><time>2026-04-27T08:07:58.891Z</time></trkpt><trkpt lat="42.225855" lon="14.5468767"><ele>89.0</ele><time>2026-04-27T08:08:02.892Z</time></trkpt><trkpt lat="42.2258067" lon="14.5469367"><ele>89.0</ele><time>2026-04-27T08:08:05.891Z</time></trkpt><trkpt lat="42.2257567" lon="14.5470167"><ele>89.0</ele><time>2026-04-27T08:08:09.892Z</time></trkpt><trkpt lat="42.2257117" lon="14.547085"><ele>89.0</ele><time>2026-04-27T08:08:13.891Z</time></trkpt><trkpt lat="42.2256767" lon="14.5471683"><ele>88.99999999999999</ele><time>2026-04-27T08:08:16.892Z</time></trkpt><trkpt lat="42.2256267" lon="14.5472467"><ele>89.0</ele><time>2026-04-27T08:08:19.892Z</time></trkpt><trkpt lat="42.2255783" lon="14.5473317"><ele>90.66666666666667</ele><time>2026-04-27T08:08:22.891Z</time></trkpt><trkpt lat="42.22552" lon="14.54743"><ele>92.33333333333334</ele><time>2026-04-27T08:08:25.891Z</time></trkpt><trkpt lat="42.225465" lon="14.547505"><ele>94.0</ele><time>2026-04-27T08:08:28.892Z</time></trkpt><trkpt lat="42.225425" lon="14.5475917"><ele>95.66666666666667</ele><time>2026-04-27T08:08:32.892Z</time></trkpt><trkpt lat="42.2254133" lon="14.5476767"><ele>97.33333333333333</ele><time>2026-04-27T08:08:35.891Z</time></trkpt><trkpt lat="42.22538" lon="14.54778"><ele>99.0</ele><time>2026-04-27T08:08:39.892Z</time></trkpt><trkpt lat="42.2253483" lon="14.54786"><ele>97.66666666666667</ele><time>2026-04-27T08:08:42.892Z</time></trkpt><trkpt lat="42.22532" lon="14.5479633"><ele>96.33333333333333</ele><time>2026-04-27T08:08:46.892Z</time></trkpt><trkpt lat="42.225285" lon="14.548045"><ele>95.0</ele><time>2026-04-27T08:08:49.892Z</time></trkpt><trkpt lat="42.2252367" lon="14.5481367"><ele>93.66666666666666</ele><time>2026-04-27T08:08:52.891Z</time></trkpt><trkpt lat="42.2251833" lon="14.5482233"><ele>92.33333333333333</ele><time>2026-04-27T08:08:55.892Z</time></trkpt><trkpt lat="42.2251317" lon="14.5482933"><ele>91.0</ele><time>2026-04-27T08:08:58.891Z</time></trkpt><trkpt lat="42.2250867" lon="14.5483733"><ele>91.0</ele><time>2026-04-27T08:09:01.891Z</time></trkpt><trkpt lat="42.2250583" lon="14.54848"><ele>91.0</ele><time>2026-04-27T08:09:05.892Z</time></trkpt><trkpt lat="42.225025" lon="14.5485667"><ele>91.0</ele><time>2026-04-27T08:09:08.892Z</time></trkpt><trkpt lat="42.225005" lon="14.548655"><ele>91.0</ele><time>2026-04-27T08:09:11.892Z</time></trkpt><trkpt lat="42.2249667" lon="14.5487567"><ele>91.0</ele><time>2026-04-27T08:09:15.891Z</time></trkpt><trkpt lat="42.22492" lon="14.548865"><ele>91.0</ele><time>2026-04-27T08:09:18.892Z</time></trkpt><trkpt lat="42.2248683" lon="14.54896"><ele>89.71428571428571</ele><time>2026-04-27T08:09:21.892Z</time></trkpt><trkpt lat="42.22483" lon="14.5490533"><ele>88.42857142857143</ele><time>2026-04-27T08:09:24.891Z</time></trkpt><trkpt lat="42.2247917" lon="14.5491217"><ele>87.14285714285714</ele><time>2026-04-27T08:09:27.892Z</time></trkpt><trkpt lat="42.2247383" lon="14.5491933"><ele>85.85714285714286</ele><time>2026-04-27T08:09:31.892Z</time></trkpt><trkpt lat="42.2247067" lon="14.54927"><ele>84.57142857142857</ele><time>2026-04-27T08:09:34.892Z</time></trkpt><trkpt lat="42.22465" lon="14.5493633"><ele>83.28571428571428</ele><time>2026-04-27T08:09:37.891Z</time></trkpt><trkpt lat="42.2245983" lon="14.549425"><ele>82.0</ele><time>2026-04-27T08:09:39.891Z</time></trkpt><trkpt lat="42.2245417" lon="14.5495"><ele>83.33333333333333</ele><time>2026-04-27T08:09:42.892Z</time></trkpt><trkpt lat="42.2244967" lon="14.54958"><ele>84.66666666666666</ele><time>2026-04-27T08:09:45.892Z</time></trkpt><trkpt lat="42.22445" lon="14.5496633"><ele>86.0</ele><time>2026-04-27T08:09:48.892Z</time></trkpt><trkpt lat="42.2244067" lon="14.5497433"><ele>87.33333333333333</ele><time>2026-04-27T08:09:51.891Z</time></trkpt><trkpt lat="42.224355" lon="14.549825"><ele>88.66666666666667</ele><time>2026-04-27T08:09:54.891Z</time></trkpt><trkpt lat="42.2242967" lon="14.5499217"><ele>90.0</ele><time>2026-04-27T08:09:57.892Z</time></trkpt><trkpt lat="42.2242483" lon="14.5500067"><ele>90.0</ele><time>2026-04-27T08:09:59.892Z</time></trkpt><trkpt lat="42.224205" lon="14.55011"><ele>90.0</ele><time>2026-04-27T08:10:01.891Z</time></trkpt><trkpt lat="42.2241567" lon="14.55021"><ele>90.0</ele><time>2026-04-27T08:10:03.892Z</time></trkpt><trkpt lat="42.2241017" lon="14.550285"><ele>90.0</ele><time>2026-04-27T08:10:05.892Z</time></trkpt><trkpt lat="42.2240133" lon="14.550375"><ele>90.0</ele><time>2026-04-27T08:10:08.892Z</time></trkpt><trkpt lat="42.2239483" lon="14.5504517"><ele>92.0</ele><time>2026-04-27T08:10:11.892Z</time></trkpt><trkpt lat="42.223905" lon="14.5505333"><ele>94.0</ele><time>2026-04-27T08:10:13.892Z</time></trkpt><trkpt lat="42.22388" lon="14.5506133"><ele>96.0</ele><time>2026-04-27T08:10:15.892Z</time></trkpt><trkpt lat="42.2238433" lon="14.550715"><ele>98.0</ele><time>2026-04-27T08:10:17.892Z</time></trkpt><trkpt lat="42.2238" lon="14.55084"><ele>100.0</ele><time>2026-04-27T08:10:19.892Z</time></trkpt><trkpt lat="42.2237483" lon="14.55095"><ele>102.0</ele><time>2026-04-27T08:10:21.891Z</time></trkpt><trkpt lat="42.2237233" lon="14.5510333"><ele>102.0</ele><time>2026-04-27T08:10:22.892Z</time></trkpt><trkpt lat="42.223675" lon="14.55116"><ele>102.0</ele><time>2026-04-27T08:10:24.892Z</time></trkpt><trkpt lat="42.22363" lon="14.5512817"><ele>102.0</ele><time>2026-04-27T08:10:26.891Z</time></trkpt><trkpt lat="42.2235767" lon="14.55138"><ele>102.0</ele><time>2026-04-27T08:10:28.892Z</time></trkpt><trkpt lat="42.2235333" lon="14.55146"><ele>102.0</ele><time>2026-04-27T08:10:30.892Z</time></trkpt><trkpt lat="42.223495" lon="14.551535"><ele>102.0</ele><time>2026-04-27T08:10:32.892Z</time></trkpt><trkpt lat="42.223445" lon="14.551615"><ele>100.66666666666667</ele><time>2026-04-27T08:10:34.892Z</time></trkpt><trkpt lat="42.2234067" lon="14.5517033"><ele>99.33333333333333</ele><time>2026-04-27T08:10:36.891Z</time></trkpt><trkpt lat="42.223375" lon="14.5518283"><ele>98.0</ele><time>2026-04-27T08:10:38.891Z</time></trkpt><trkpt lat="42.22334" lon="14.5519367"><ele>96.66666666666666</ele><time>2026-04-27T08:10:40.891Z</time></trkpt><trkpt lat="42.2233" lon="14.5520433"><ele>95.33333333333333</ele><time>2026-04-27T08:10:42.892Z</time></trkpt><trkpt lat="42.2232633" lon="14.552125"><ele>94.0</ele><time>2026-04-27T08:10:44.891Z</time></trkpt><trkpt lat="42.223225" lon="14.5522033"><ele>92.66666666666666</ele><time>2026-04-27T08:10:46.892Z</time></trkpt><trkpt lat="42.2231867" lon="14.5522867"><ele>91.33333333333333</ele><time>2026-04-27T08:10:48.892Z</time></trkpt><trkpt lat="42.22315" lon="14.5523633"><ele>90.0</ele><time>2026-04-27T08:10:50.892Z</time></trkpt><trkpt lat="42.223115" lon="14.55244"><ele>88.66666666666667</ele><time>2026-04-27T08:10:52.892Z</time></trkpt><trkpt lat="42.2230633" lon="14.5525583"><ele>87.33333333333334</ele><time>2026-04-27T08:10:55.891Z</time></trkpt><trkpt lat="42.223005" lon="14.552675"><ele>86.0</ele><time>2026-04-27T08:10:57.892Z</time></trkpt><trkpt lat="42.22296" lon="14.552775"><ele>88.16666666666667</ele><time>2026-04-27T08:10:59.892Z</time></trkpt><trkpt lat="42.2229217" lon="14.5528667"><ele>90.33333333333334</ele><time>2026-04-27T08:11:01.891Z</time></trkpt><trkpt lat="42.22287" lon="14.5529767"><ele>92.5</ele><time>2026-04-27T08:11:03.892Z</time></trkpt><trkpt lat="42.2228283" lon="14.553085"><ele>94.66666666666667</ele><time>2026-04-27T08:11:05.892Z</time></trkpt><trkpt lat="42.2227783" lon="14.5531683"><ele>96.83333333333333</ele><time>2026-04-27T08:11:08.892Z</time></trkpt><trkpt lat="42.22273" lon="14.5532267"><ele>99.0</ele><time>2026-04-27T08:11:11.892Z</time></trkpt><trkpt lat="42.2227017" lon="14.5533083"><ele>99.0</ele><time>2026-04-27T08:11:14.891Z</time></trkpt><trkpt lat="42.22268" lon="14.5533917"><ele>99.0</ele><time>2026-04-27T08:11:16.892Z</time></trkpt><trkpt lat="42.22266" lon="14.5535317"><ele>99.0</ele><time>2026-04-27T08:11:19.892Z</time></trkpt><trkpt lat="42.2226367" lon="14.5536183"><ele>99.0</ele><time>2026-04-27T08:11:21.891Z</time></trkpt><trkpt lat="42.2226333" lon="14.5537533"><ele>99.0</ele><time>2026-04-27T08:11:23.891Z</time></trkpt><trkpt lat="42.2226233" lon="14.5538917"><ele>99.0</ele><time>2026-04-27T08:11:25.892Z</time></trkpt><trkpt lat="42.2226267" lon="14.55405"><ele>98.0</ele><time>2026-04-27T08:11:27.891Z</time></trkpt><trkpt lat="42.222615" lon="14.5541833"><ele>97.0</ele><time>2026-04-27T08:11:29.891Z</time></trkpt><trkpt lat="42.2225983" lon="14.5543383"><ele>96.0</ele><time>2026-04-27T08:11:31.891Z</time></trkpt><trkpt lat="42.2225567" lon="14.554465"><ele>95.0</ele><time>2026-04-27T08:11:33.892Z</time></trkpt><trkpt lat="42.222525" lon="14.5545967"><ele>94.0</ele><time>2026-04-27T08:11:35.892Z</time></trkpt><trkpt lat="42.2224917" lon="14.55467"><ele>93.0</ele><time>2026-04-27T08:11:37.892Z</time></trkpt><trkpt lat="42.22246" lon="14.55476"><ele>92.0</ele><time>2026-04-27T08:11:39.891Z</time></trkpt><trkpt lat="42.2224233" lon="14.554875"><ele>91.0</ele><time>2026-04-27T08:11:41.892Z</time></trkpt><trkpt lat="42.2223917" lon="14.555005"><ele>90.0</ele><time>2026-04-27T08:11:44.891Z</time></trkpt><trkpt lat="42.22238" lon="14.5551367"><ele>89.0</ele><time>2026-04-27T08:11:46.891Z</time></trkpt><trkpt lat="42.2223583" lon="14.555265"><ele>89.0</ele><time>2026-04-27T08:11:48.891Z</time></trkpt><trkpt lat="42.2223333" lon="14.5553567"><ele>89.0</ele><time>2026-04-27T08:11:50.891Z</time></trkpt><trkpt lat="42.2223033" lon="14.5554783"><ele>89.0</ele><time>2026-04-27T08:11:52.892Z</time></trkpt><trkpt lat="42.2222733" lon="14.5556567"><ele>89.0</ele><time>2026-04-27T08:11:54.892Z</time></trkpt><trkpt lat="42.2222683" lon="14.5557483"><ele>89.0</ele><time>2026-04-27T08:11:55.892Z</time></trkpt><trkpt lat="42.2222683" lon="14.555845"><ele>89.0</ele><time>2026-04-27T08:11:56.891Z</time></trkpt><trkpt lat="42.22225" lon="14.5559733"><ele>88.16666666666667</ele><time>2026-04-27T08:11:58.892Z</time></trkpt><trkpt lat="42.2222183" lon="14.55609"><ele>87.33333333333334</ele><time>2026-04-27T08:12:00.891Z</time></trkpt><trkpt lat="42.2221717" lon="14.5561767"><ele>86.5</ele><time>2026-04-27T08:12:02.892Z</time></trkpt><trkpt lat="42.222125" lon="14.5562367"><ele>85.66666666666667</ele><time>2026-04-27T08:12:04.891Z</time></trkpt><trkpt lat="42.2221117" lon="14.55633"><ele>84.83333333333333</ele><time>2026-04-27T08:12:05.892Z</time></trkpt><trkpt lat="42.22207" lon="14.5564033"><ele>84.0</ele><time>2026-04-27T08:12:06.892Z</time></trkpt><trkpt lat="42.222015" lon="14.5564933"><ele>84.0</ele><time>2026-04-27T08:12:08.892Z</time></trkpt><trkpt lat="42.22196" lon="14.5566033"><ele>84.0</ele><time>2026-04-27T08:12:11.892Z</time></trkpt><trkpt lat="42.2219017" lon="14.5567167"><ele>84.0</ele><time>2026-04-27T08:12:13.892Z</time></trkpt><trkpt lat="42.2218533" lon="14.5568183"><ele>84.0</ele><time>2026-04-27T08:12:15.892Z</time></trkpt><trkpt lat="42.2218167" lon="14.5569167"><ele>84.0</ele><time>2026-04-27T08:12:17.891Z</time></trkpt><trkpt lat="42.221785" lon="14.557"><ele>84.0</ele><time>2026-04-27T08:12:19.892Z</time></trkpt><trkpt lat="42.221765" lon="14.5570883"><ele>82.0</ele><time>2026-04-27T08:12:21.892Z</time></trkpt><trkpt lat="42.22174" lon="14.557185"><ele>80.0</ele><time>2026-04-27T08:12:23.892Z</time></trkpt><trkpt lat="42.2217167" lon="14.5572983"><ele>78.0</ele><time>2026-04-27T08:12:25.892Z</time></trkpt><trkpt lat="42.22168" lon="14.5574017"><ele>76.0</ele><time>2026-04-27T08:12:27.892Z</time></trkpt><trkpt lat="42.2216367" lon="14.55752"><ele>74.0</ele><time>2026-04-27T08:12:29.891Z</time></trkpt><trkpt lat="42.2216" lon="14.557635"><ele>72.0</ele><time>2026-04-27T08:12:31.892Z</time></trkpt><trkpt lat="42.22156" lon="14.5577467"><ele>72.0</ele><time>2026-04-27T08:12:33.891Z</time></trkpt><trkpt lat="42.2215217" lon="14.5578533"><ele>72.0</ele><time>2026-04-27T08:12:35.892Z</time></trkpt><trkpt lat="42.22149" lon="14.55798"><ele>72.0</ele><time>2026-04-27T08:12:37.892Z</time></trkpt><trkpt lat="42.2214517" lon="14.5581233"><ele>72.0</ele><time>2026-04-27T08:12:39.891Z</time></trkpt><trkpt lat="42.22143" lon="14.5582733"><ele>72.0</ele><time>2026-04-27T08:12:41.891Z</time></trkpt><trkpt lat="42.2214233" lon="14.5583683"><ele>73.0</ele><time>2026-04-27T08:12:42.892Z</time></trkpt><trkpt lat="42.2214033" lon="14.558495"><ele>74.0</ele><time>2026-04-27T08:12:44.892Z</time></trkpt><trkpt lat="42.2214017" lon="14.5585833"><ele>75.0</ele><time>2026-04-27T08:12:45.891Z</time></trkpt><trkpt lat="42.2213933" lon="14.55875"><ele>76.0</ele><time>2026-04-27T08:12:47.891Z</time></trkpt><trkpt lat="42.2213733" lon="14.55889"><ele>77.0</ele><time>2026-04-27T08:12:49.892Z</time></trkpt><trkpt lat="42.2213483" lon="14.55901"><ele>77.0</ele><time>2026-04-27T08:12:51.892Z</time></trkpt><trkpt lat="42.2213" lon="14.5590933"><ele>77.0</ele><time>2026-04-27T08:12:53.892Z</time></trkpt><trkpt lat="42.2212333" lon="14.5591533"><ele>77.0</ele><time>2026-04-27T08:12:55.892Z</time></trkpt><trkpt lat="42.22117" lon="14.559215"><ele>77.0</ele><time>2026-04-27T08:12:57.891Z</time></trkpt><trkpt lat="42.2211167" lon="14.5592733"><ele>77.0</ele><time>2026-04-27T08:12:59.892Z</time></trkpt><trkpt lat="42.2210783" lon="14.559375"><ele>77.0</ele><time>2026-04-27T08:13:01.892Z</time></trkpt><trkpt lat="42.22105" lon="14.5594817"><ele>76.28571428571429</ele><time>2026-04-27T08:13:03.892Z</time></trkpt><trkpt lat="42.22101" lon="14.5595583"><ele>75.57142857142857</ele><time>2026-04-27T08:13:06.892Z</time></trkpt><trkpt lat="42.2209683" lon="14.5596267"><ele>74.85714285714286</ele><time>2026-04-27T08:13:09.891Z</time></trkpt><trkpt lat="42.220925" lon="14.559715"><ele>74.14285714285714</ele><time>2026-04-27T08:13:12.892Z</time></trkpt><trkpt lat="42.22091" lon="14.5598017"><ele>73.42857142857143</ele><time>2026-04-27T08:13:14.892Z</time></trkpt><trkpt lat="42.2208783" lon="14.5598783"><ele>72.71428571428572</ele><time>2026-04-27T08:13:16.892Z</time></trkpt><trkpt lat="42.2208367" lon="14.5599717"><ele>72.0</ele><time>2026-04-27T08:13:19.891Z</time></trkpt><trkpt lat="42.220805" lon="14.5600583"><ele>72.00000000000001</ele><time>2026-04-27T08:13:21.891Z</time></trkpt><trkpt lat="42.2207583" lon="14.5601217"><ele>72.0</ele><time>2026-04-27T08:13:23.892Z</time></trkpt><trkpt lat="42.2206983" lon="14.5601983"><ele>72.0</ele><time>2026-04-27T08:13:26.892Z</time></trkpt><trkpt lat="42.22066" lon="14.5602683"><ele>72.0</ele><time>2026-04-27T08:13:29.891Z</time></trkpt><trkpt lat="42.2206" lon="14.56032"><ele>72.0</ele><time>2026-04-27T08:13:32.891Z</time></trkpt><trkpt lat="42.2205433" lon="14.56037"><ele>72.00000000000001</ele><time>2026-04-27T08:13:35.892Z</time></trkpt><trkpt lat="42.2204767" lon="14.56042"><ele>72.0</ele><time>2026-04-27T08:13:38.891Z</time></trkpt><trkpt lat="42.2204167" lon="14.5604617"><ele>72.83333333333333</ele><time>2026-04-27T08:13:40.892Z</time></trkpt><trkpt lat="42.2203567" lon="14.56051"><ele>73.66666666666667</ele><time>2026-04-27T08:13:43.891Z</time></trkpt><trkpt lat="42.2203017" lon="14.5605767"><ele>74.5</ele><time>2026-04-27T08:13:47.892Z</time></trkpt><trkpt lat="42.2202467" lon="14.5606433"><ele>75.33333333333334</ele><time>2026-04-27T08:13:52.89Z</time></trkpt><trkpt lat="42.2202283" lon="14.5607333"><ele>76.16666666666667</ele><time>2026-04-27T08:13:57.89Z</time></trkpt><trkpt lat="42.2201767" lon="14.5607967"><ele>77.0</ele><time>2026-04-27T08:14:02.891Z</time></trkpt><trkpt lat="42.220095" lon="14.5608817"><ele>77.0</ele><time>2026-04-27T08:14:07.891Z</time></trkpt><trkpt lat="42.2200433" lon="14.5609317"><ele>77.0</ele><time>2026-04-27T08:14:09.891Z</time></trkpt><trkpt lat="42.21996" lon="14.5609967"><ele>77.0</ele><time>2026-04-27T08:14:12.891Z</time></trkpt><trkpt lat="42.2198867" lon="14.5610233"><ele>77.0</ele><time>2026-04-27T08:14:15.89Z</time></trkpt><trkpt lat="42.2198167" lon="14.5610533"><ele>77.0</ele><time>2026-04-27T08:14:17.891Z</time></trkpt><trkpt lat="42.2197567" lon="14.561085"><ele>77.0</ele><time>2026-04-27T08:14:19.891Z</time></trkpt><trkpt lat="42.2196883" lon="14.5611217"><ele>77.0</ele><time>2026-04-27T08:14:22.891Z</time></trkpt><trkpt lat="42.2196167" lon="14.5611683"><ele>77.66666666666667</ele><time>2026-04-27T08:14:25.891Z</time></trkpt><trkpt lat="42.2195417" lon="14.5612233"><ele>78.33333333333334</ele><time>2026-04-27T08:14:28.891Z</time></trkpt><trkpt lat="42.2194667" lon="14.561285"><ele>79.0</ele><time>2026-04-27T08:14:31.891Z</time></trkpt><trkpt lat="42.2193983" lon="14.56133"><ele>79.66666666666667</ele><time>2026-04-27T08:14:33.891Z</time></trkpt><trkpt lat="42.219335" lon="14.561375"><ele>80.33333333333333</ele><time>2026-04-27T08:14:35.89Z</time></trkpt><trkpt lat="42.21928" lon="14.56142"><ele>81.0</ele><time>2026-04-27T08:14:37.891Z</time></trkpt><trkpt lat="42.2192217" lon="14.5614883"><ele>81.0</ele><time>2026-04-27T08:14:40.891Z</time></trkpt><trkpt lat="42.219165" lon="14.561565"><ele>81.0</ele><time>2026-04-27T08:14:43.891Z</time></trkpt><trkpt lat="42.2191117" lon="14.5616533"><ele>81.0</ele><time>2026-04-27T08:14:46.89Z</time></trkpt><trkpt lat="42.2190867" lon="14.5617533"><ele>81.0</ele><time>2026-04-27T08:14:51.891Z</time></trkpt><trkpt lat="42.219065" lon="14.5618433"><ele>81.0</ele><time>2026-04-27T08:14:56.89Z</time></trkpt><trkpt lat="42.2190233" lon="14.5617683"><ele>81.0</ele><time>2026-04-27T08:15:12.891Z</time></trkpt><trkpt lat="42.2190367" lon="14.561665"><ele>81.0</ele><time>2026-04-27T08:15:18.89Z</time></trkpt><trkpt lat="42.2190383" lon="14.5615783"><ele>81.0</ele><time>2026-04-27T08:15:23.89Z</time></trkpt><trkpt lat="42.2190533" lon="14.5614917"><ele>81.0</ele><time>2026-04-27T08:15:28.89Z</time></trkpt><trkpt lat="42.219055" lon="14.561395"><ele>81.0</ele><time>2026-04-27T08:15:32.89Z</time></trkpt><trkpt lat="42.2190683" lon="14.5613117"><ele>81.0</ele><time>2026-04-27T08:15:34.891Z</time></trkpt><trkpt lat="42.21907" lon="14.56118"><ele>81.0</ele><time>2026-04-27T08:15:37.891Z</time></trkpt><trkpt lat="42.2190667" lon="14.561095"><ele>81.0</ele><time>2026-04-27T08:15:39.891Z</time></trkpt><trkpt lat="42.21907" lon="14.56099"><ele>82.0</ele><time>2026-04-27T08:15:42.891Z</time></trkpt><trkpt lat="42.2190733" lon="14.5608983"><ele>83.0</ele><time>2026-04-27T08:15:45.891Z</time></trkpt><trkpt lat="42.2190867" lon="14.5607917"><ele>84.0</ele><time>2026-04-27T08:16:11.891Z</time></trkpt><trkpt lat="42.2191183" lon="14.5607067"><ele>85.0</ele><time>2026-04-27T08:16:15.891Z</time></trkpt><trkpt lat="42.219145" lon="14.5605983"><ele>86.0</ele><time>2026-04-27T08:16:18.891Z</time></trkpt><trkpt lat="42.2191767" lon="14.5605033"><ele>87.0</ele><time>2026-04-27T08:16:21.891Z</time></trkpt><trkpt lat="42.2192067" lon="14.5604017"><ele>88.33333333333333</ele><time>2026-04-27T08:16:24.891Z</time></trkpt><trkpt lat="42.21924" lon="14.5602883"><ele>89.66666666666667</ele><time>2026-04-27T08:16:27.89Z</time></trkpt><trkpt lat="42.21927" lon="14.5601817"><ele>91.0</ele><time>2026-04-27T08:16:30.891Z</time></trkpt><trkpt lat="42.2193017" lon="14.5600717"><ele>92.33333333333334</ele><time>2026-04-27T08:16:33.891Z</time></trkpt><trkpt lat="42.2193367" lon="14.5599717"><ele>93.66666666666667</ele><time>2026-04-27T08:16:36.891Z</time></trkpt><trkpt lat="42.21939" lon="14.559875"><ele>95.0</ele><time>2026-04-27T08:16:39.891Z</time></trkpt><trkpt lat="42.2194467" lon="14.5597833"><ele>95.0</ele><time>2026-04-27T08:16:42.89Z</time></trkpt><trkpt lat="42.2195117" lon="14.559695"><ele>95.0</ele><time>2026-04-27T08:16:45.891Z</time></trkpt><trkpt lat="42.2195567" lon="14.5596333"><ele>95.0</ele><time>2026-04-27T08:16:47.891Z</time></trkpt><trkpt lat="42.2196083" lon="14.55958"><ele>95.0</ele><time>2026-04-27T08:16:49.89Z</time></trkpt><trkpt lat="42.2196617" lon="14.5594767"><ele>95.0</ele><time>2026-04-27T08:16:52.891Z</time></trkpt><trkpt lat="42.2196583" lon="14.5593833"><ele>95.0</ele><time>2026-04-27T08:16:54.891Z</time></trkpt><trkpt lat="42.219615" lon="14.5593"><ele>95.33333333333334</ele><time>2026-04-27T08:16:56.891Z</time></trkpt><trkpt lat="42.219555" lon="14.55923"><ele>95.66666666666667</ele><time>2026-04-27T08:16:58.891Z</time></trkpt><trkpt lat="42.2194917" lon="14.55917"><ele>96.0</ele><time>2026-04-27T08:17:00.891Z</time></trkpt><trkpt lat="42.2194217" lon="14.55911"><ele>96.33333333333334</ele><time>2026-04-27T08:17:02.89Z</time></trkpt><trkpt lat="42.2193467" lon="14.5590483"><ele>96.66666666666667</ele><time>2026-04-27T08:17:04.891Z</time></trkpt><trkpt lat="42.2192583" lon="14.5589867"><ele>97.0</ele><time>2026-04-27T08:17:06.891Z</time></trkpt><trkpt lat="42.2191833" lon="14.5589333"><ele>97.00000000000001</ele><time>2026-04-27T08:17:08.891Z</time></trkpt><trkpt lat="42.2191233" lon="14.558885"><ele>97.0</ele><time>2026-04-27T08:17:10.89Z</time></trkpt><trkpt lat="42.2190733" lon="14.5588333"><ele>97.0</ele><time>2026-04-27T08:17:12.891Z</time></trkpt><trkpt lat="42.21901" lon="14.5587667"><ele>97.0</ele><time>2026-04-27T08:17:15.89Z</time></trkpt><trkpt lat="42.2189317" lon="14.5586983"><ele>97.00000000000001</ele><time>2026-04-27T08:17:18.891Z</time></trkpt><trkpt lat="42.21886" lon="14.5586317"><ele>97.0</ele><time>2026-04-27T08:17:20.89Z</time></trkpt><trkpt lat="42.2187933" lon="14.5585683"><ele>96.50000000000001</ele><time>2026-04-27T08:17:22.89Z</time></trkpt><trkpt lat="42.21871" lon="14.558515"><ele>96.0</ele><time>2026-04-27T08:17:24.891Z</time></trkpt><trkpt lat="42.2186333" lon="14.5584567"><ele>95.5</ele><time>2026-04-27T08:17:26.891Z</time></trkpt><trkpt lat="42.2185567" lon="14.5583967"><ele>95.0</ele><time>2026-04-27T08:17:28.891Z</time></trkpt><trkpt lat="42.21848" lon="14.5583383"><ele>94.5</ele><time>2026-04-27T08:17:30.89Z</time></trkpt><trkpt lat="42.2184117" lon="14.5582767"><ele>94.0</ele><time>2026-04-27T08:17:32.891Z</time></trkpt><trkpt lat="42.2183533" lon="14.55821"><ele>94.0</ele><time>2026-04-27T08:17:34.891Z</time></trkpt><trkpt lat="42.2182967" lon="14.5581583"><ele>94.0</ele><time>2026-04-27T08:17:36.89Z</time></trkpt><trkpt lat="42.2182383" lon="14.5581083"><ele>94.0</ele><time>2026-04-27T08:17:38.891Z</time></trkpt><trkpt lat="42.2181717" lon="14.5580567"><ele>94.0</ele><time>2026-04-27T08:17:40.891Z</time></trkpt><trkpt lat="42.2180983" lon="14.557985"><ele>94.0</ele><time>2026-04-27T08:17:42.89Z</time></trkpt><trkpt lat="42.2180117" lon="14.5578833"><ele>94.0</ele><time>2026-04-27T08:17:44.891Z</time></trkpt><trkpt lat="42.21796" lon="14.5578267"><ele>94.33333333333333</ele><time>2026-04-27T08:17:45.89Z</time></trkpt><trkpt lat="42.2178967" lon="14.5577767"><ele>94.66666666666666</ele><time>2026-04-27T08:17:46.891Z</time></trkpt><trkpt lat="42.2177933" lon="14.55771"><ele>95.0</ele><time>2026-04-27T08:17:48.891Z</time></trkpt><trkpt lat="42.2177133" lon="14.55766"><ele>95.33333333333333</ele><time>2026-04-27T08:17:50.891Z</time></trkpt><trkpt lat="42.217635" lon="14.55762"><ele>95.66666666666667</ele><time>2026-04-27T08:17:52.891Z</time></trkpt><trkpt lat="42.21756" lon="14.55756"><ele>96.0</ele><time>2026-04-27T08:17:55.89Z</time></trkpt><trkpt lat="42.2174983" lon="14.5574867"><ele>96.0</ele><time>2026-04-27T08:17:58.891Z</time></trkpt><trkpt lat="42.2174183" lon="14.5574217"><ele>96.0</ele><time>2026-04-27T08:18:01.891Z</time></trkpt><trkpt lat="42.2173617" lon="14.557375"><ele>96.0</ele><time>2026-04-27T08:18:03.891Z</time></trkpt><trkpt lat="42.2173017" lon="14.5573283"><ele>96.0</ele><time>2026-04-27T08:18:05.891Z</time></trkpt><trkpt lat="42.217235" lon="14.55728"><ele>96.0</ele><time>2026-04-27T08:18:07.891Z</time></trkpt><trkpt lat="42.2171733" lon="14.5572217"><ele>96.0</ele><time>2026-04-27T08:18:09.891Z</time></trkpt><trkpt lat="42.2170967" lon="14.5571433"><ele>96.14285714285714</ele><time>2026-04-27T08:18:12.89Z</time></trkpt><trkpt lat="42.217035" lon="14.557095"><ele>96.28571428571428</ele><time>2026-04-27T08:18:14.891Z</time></trkpt><trkpt lat="42.21698" lon="14.55705"><ele>96.42857142857142</ele><time>2026-04-27T08:18:16.891Z</time></trkpt><trkpt lat="42.2169167" lon="14.557"><ele>96.57142857142857</ele><time>2026-04-27T08:18:18.891Z</time></trkpt><trkpt lat="42.2168567" lon="14.5569517"><ele>96.71428571428572</ele><time>2026-04-27T08:18:20.891Z</time></trkpt><trkpt lat="42.2168033" lon="14.5569033"><ele>96.85714285714285</ele><time>2026-04-27T08:18:22.891Z</time></trkpt><trkpt lat="42.2167433" lon="14.5568567"><ele>97.0</ele><time>2026-04-27T08:18:24.891Z</time></trkpt><trkpt lat="42.2166817" lon="14.5568033"><ele>97.14285714285714</ele><time>2026-04-27T08:18:26.89Z</time></trkpt><trkpt lat="42.216625" lon="14.556755"><ele>97.28571428571429</ele><time>2026-04-27T08:18:28.891Z</time></trkpt><trkpt lat="42.21657" lon="14.5566933"><ele>97.42857142857143</ele><time>2026-04-27T08:18:30.891Z</time></trkpt><trkpt lat="42.2165083" lon="14.55664"><ele>97.57142857142857</ele><time>2026-04-27T08:18:32.891Z</time></trkpt><trkpt lat="42.216445" lon="14.5565783"><ele>97.71428571428572</ele><time>2026-04-27T08:18:34.89Z</time></trkpt><trkpt lat="42.216385" lon="14.5565183"><ele>97.85714285714286</ele><time>2026-04-27T08:18:36.891Z</time></trkpt><trkpt lat="42.21632" lon="14.55646"><ele>98.0</ele><time>2026-04-27T08:18:38.891Z</time></trkpt><trkpt lat="42.2162583" lon="14.5564033"><ele>97.99999999999999</ele><time>2026-04-27T08:18:40.891Z</time></trkpt><trkpt lat="42.2162033" lon="14.5563517"><ele>98.0</ele><time>2026-04-27T08:18:42.891Z</time></trkpt><trkpt lat="42.2161283" lon="14.55628"><ele>98.0</ele><time>2026-04-27T08:18:45.89Z</time></trkpt><trkpt lat="42.2160633" lon="14.556205"><ele>98.0</ele><time>2026-04-27T08:18:48.89Z</time></trkpt><trkpt lat="42.2159967" lon="14.5561283"><ele>97.99999999999999</ele><time>2026-04-27T08:18:51.891Z</time></trkpt><trkpt lat="42.2159283" lon="14.5560917"><ele>98.0</ele><time>2026-04-27T08:18:53.89Z</time></trkpt><trkpt lat="42.215865" lon="14.5560467"><ele>97.99999999999999</ele><time>2026-04-27T08:18:55.891Z</time></trkpt><trkpt lat="42.2158017" lon="14.555985"><ele>98.0</ele><time>2026-04-27T08:18:57.89Z</time></trkpt><trkpt lat="42.2157417" lon="14.5559267"><ele>98.0</ele><time>2026-04-27T08:18:59.891Z</time></trkpt><trkpt lat="42.2156833" lon="14.5558683"><ele>98.0</ele><time>2026-04-27T08:19:01.89Z</time></trkpt><trkpt lat="42.2156067" lon="14.5558083"><ele>97.99999999999999</ele><time>2026-04-27T08:19:03.891Z</time></trkpt><trkpt lat="42.21553" lon="14.5557483"><ele>98.0</ele><time>2026-04-27T08:19:05.891Z</time></trkpt><trkpt lat="42.2154383" lon="14.5556733"><ele>97.4</ele><time>2026-04-27T08:19:07.891Z</time></trkpt><trkpt lat="42.215345" lon="14.5555967"><ele>96.80000000000001</ele><time>2026-04-27T08:19:09.89Z</time></trkpt><trkpt lat="42.2152667" lon="14.5555283"><ele>96.2</ele><time>2026-04-27T08:19:11.891Z</time></trkpt><trkpt lat="42.21519" lon="14.55545"><ele>95.6</ele><time>2026-04-27T08:19:13.891Z</time></trkpt><trkpt lat="42.215115" lon="14.5553867"><ele>95.0</ele><time>2026-04-27T08:19:15.891Z</time></trkpt><trkpt lat="42.2150267" lon="14.5553167"><ele>94.6</ele><time>2026-04-27T08:19:17.891Z</time></trkpt><trkpt lat="42.2149383" lon="14.5552333"><ele>94.2</ele><time>2026-04-27T08:19:19.891Z</time></trkpt><trkpt lat="42.21485" lon="14.5551383"><ele>93.80000000000001</ele><time>2026-04-27T08:19:21.891Z</time></trkpt><trkpt lat="42.2147667" lon="14.5550617"><ele>93.4</ele><time>2026-04-27T08:19:23.891Z</time></trkpt><trkpt lat="42.214695" lon="14.5549833"><ele>93.0</ele><time>2026-04-27T08:19:25.89Z</time></trkpt><trkpt lat="42.2146233" lon="14.5549183"><ele>92.33333333333333</ele><time>2026-04-27T08:19:27.891Z</time></trkpt><trkpt lat="42.21456" lon="14.5548717"><ele>91.66666666666667</ele><time>2026-04-27T08:19:29.89Z</time></trkpt><trkpt lat="42.214495" lon="14.5548333"><ele>91.0</ele><time>2026-04-27T08:19:31.89Z</time></trkpt><trkpt lat="42.2144217" lon="14.554785"><ele>90.33333333333334</ele><time>2026-04-27T08:19:33.891Z</time></trkpt><trkpt lat="42.214355" lon="14.5547367"><ele>89.66666666666667</ele><time>2026-04-27T08:19:35.89Z</time></trkpt><trkpt lat="42.21429" lon="14.5546867"><ele>89.0</ele><time>2026-04-27T08:19:37.891Z</time></trkpt><trkpt lat="42.2142167" lon="14.5546233"><ele>89.0</ele><time>2026-04-27T08:19:40.891Z</time></trkpt><trkpt lat="42.2141533" lon="14.5545683"><ele>89.0</ele><time>2026-04-27T08:19:43.89Z</time></trkpt><trkpt lat="42.21408" lon="14.5544917"><ele>89.0</ele><time>2026-04-27T08:19:46.891Z</time></trkpt><trkpt lat="42.2140017" lon="14.5544267"><ele>89.0</ele><time>2026-04-27T08:19:49.891Z</time></trkpt><trkpt lat="42.2139283" lon="14.5543717"><ele>89.0</ele><time>2026-04-27T08:19:52.891Z</time></trkpt><trkpt lat="42.2138583" lon="14.5543233"><ele>89.0</ele><time>2026-04-27T08:19:55.891Z</time></trkpt><trkpt lat="42.21379" lon="14.5542617"><ele>90.0</ele><time>2026-04-27T08:19:58.89Z</time></trkpt><trkpt lat="42.213715" lon="14.55421"><ele>91.0</ele><time>2026-04-27T08:20:01.891Z</time></trkpt><trkpt lat="42.2136483" lon="14.5541567"><ele>92.0</ele><time>2026-04-27T08:20:04.891Z</time></trkpt><trkpt lat="42.213585" lon="14.5541133"><ele>93.0</ele><time>2026-04-27T08:20:07.89Z</time></trkpt><trkpt lat="42.2135167" lon="14.5540633"><ele>94.0</ele><time>2026-04-27T08:20:10.89Z</time></trkpt><trkpt lat="42.2134367" lon="14.5540083"><ele>95.0</ele><time>2026-04-27T08:20:13.891Z</time></trkpt><trkpt lat="42.2133767" lon="14.55398"><ele>95.0</ele><time>2026-04-27T08:20:15.891Z</time></trkpt><trkpt lat="42.2133183" lon="14.553945"><ele>95.0</ele><time>2026-04-27T08:20:17.89Z</time></trkpt><trkpt lat="42.21325" lon="14.553885"><ele>95.0</ele><time>2026-04-27T08:20:20.89Z</time></trkpt><trkpt lat="42.2131783" lon="14.55383"><ele>95.0</ele><time>2026-04-27T08:20:23.891Z</time></trkpt><trkpt lat="42.2131067" lon="14.5537783"><ele>95.0</ele><time>2026-04-27T08:20:26.89Z</time></trkpt><trkpt lat="42.2130283" lon="14.5537267"><ele>95.0</ele><time>2026-04-27T08:20:29.891Z</time></trkpt><trkpt lat="42.2129717" lon="14.5536833"><ele>93.33333333333334</ele><time>2026-04-27T08:20:31.891Z</time></trkpt><trkpt lat="42.21291" lon="14.553645"><ele>91.66666666666667</ele><time>2026-04-27T08:20:33.891Z</time></trkpt><trkpt lat="42.2128417" lon="14.5536233"><ele>90.0</ele><time>2026-04-27T08:20:35.891Z</time></trkpt><trkpt lat="42.2127733" lon="14.553595"><ele>88.33333333333333</ele><time>2026-04-27T08:20:37.891Z</time></trkpt><trkpt lat="42.212695" lon="14.5535567"><ele>86.66666666666666</ele><time>2026-04-27T08:20:39.891Z</time></trkpt><trkpt lat="42.2126033" lon="14.553515"><ele>85.0</ele><time>2026-04-27T08:20:41.89Z</time></trkpt><trkpt lat="42.2124983" lon="14.5534817"><ele>85.0</ele><time>2026-04-27T08:20:43.891Z</time></trkpt><trkpt lat="42.2123833" lon="14.5534417"><ele>85.0</ele><time>2026-04-27T08:20:45.891Z</time></trkpt><trkpt lat="42.21229" lon="14.553415"><ele>85.0</ele><time>2026-04-27T08:20:47.89Z</time></trkpt><trkpt lat="42.2122267" lon="14.55335"><ele>85.0</ele><time>2026-04-27T08:20:50.89Z</time></trkpt><trkpt lat="42.2122633" lon="14.55324"><ele>85.0</ele><time>2026-04-27T08:20:53.89Z</time></trkpt><trkpt lat="42.2123033" lon="14.553145"><ele>85.0</ele><time>2026-04-27T08:20:55.891Z</time></trkpt><trkpt lat="42.21233" lon="14.5530383"><ele>85.0</ele><time>2026-04-27T08:20:57.89Z</time></trkpt><trkpt lat="42.2123683" lon="14.5529367"><ele>85.0</ele><time>2026-04-27T08:20:59.891Z</time></trkpt><trkpt lat="42.2124083" lon="14.55285"><ele>85.0</ele><time>2026-04-27T08:21:01.891Z</time></trkpt><trkpt lat="42.2124483" lon="14.5527367"><ele>85.0</ele><time>2026-04-27T08:21:04.89Z</time></trkpt><trkpt lat="42.21248" lon="14.5526617"><ele>85.0</ele><time>2026-04-27T08:21:06.89Z</time></trkpt><trkpt lat="42.212515" lon="14.5525817"><ele>84.14285714285715</ele><time>2026-04-27T08:21:08.891Z</time></trkpt><trkpt lat="42.2125417" lon="14.5525033"><ele>83.28571428571428</ele><time>2026-04-27T08:21:10.891Z</time></trkpt><trkpt lat="42.2125683" lon="14.5524117"><ele>82.42857142857143</ele><time>2026-04-27T08:21:12.891Z</time></trkpt><trkpt lat="42.212595" lon="14.5523167"><ele>81.57142857142858</ele><time>2026-04-27T08:21:14.891Z</time></trkpt><trkpt lat="42.2126033" lon="14.5522183"><ele>80.71428571428572</ele><time>2026-04-27T08:21:17.891Z</time></trkpt><trkpt lat="42.2125867" lon="14.5521217"><ele>79.85714285714286</ele><time>2026-04-27T08:21:23.891Z</time></trkpt><trkpt lat="42.2125567" lon="14.5520367"><ele>79.0</ele><time>2026-04-27T08:21:26.891Z</time></trkpt><trkpt lat="42.2125217" lon="14.5519467"><ele>78.5</ele><time>2026-04-27T08:21:29.891Z</time></trkpt><trkpt lat="42.21252" lon="14.55185"><ele>78.0</ele><time>2026-04-27T08:21:31.891Z</time></trkpt><trkpt lat="42.212495" lon="14.5517383"><ele>77.5</ele><time>2026-04-27T08:21:33.891Z</time></trkpt><trkpt lat="42.21247" lon="14.5516217"><ele>77.0</ele><time>2026-04-27T08:21:35.891Z</time></trkpt><trkpt lat="42.2124317" lon="14.5515133"><ele>76.5</ele><time>2026-04-27T08:21:37.891Z</time></trkpt><trkpt lat="42.2124" lon="14.5514033"><ele>76.0</ele><time>2026-04-27T08:21:39.891Z</time></trkpt><trkpt lat="42.2123683" lon="14.5512983"><ele>75.33333333333333</ele><time>2026-04-27T08:21:41.89Z</time></trkpt><trkpt lat="42.212345" lon="14.5512"><ele>74.66666666666666</ele><time>2026-04-27T08:21:43.891Z</time></trkpt><trkpt lat="42.2123167" lon="14.5511067"><ele>74.0</ele><time>2026-04-27T08:21:45.891Z</time></trkpt><trkpt lat="42.2122983" lon="14.551015"><ele>73.33333333333333</ele><time>2026-04-27T08:21:47.891Z</time></trkpt><trkpt lat="42.2122817" lon="14.5508917"><ele>72.66666666666667</ele><time>2026-04-27T08:21:49.891Z</time></trkpt><trkpt lat="42.21226" lon="14.5507817"><ele>72.0</ele><time>2026-04-27T08:21:51.89Z</time></trkpt><trkpt lat="42.2122433" lon="14.5506983"><ele>70.0</ele><time>2026-04-27T08:21:53.891Z</time></trkpt><trkpt lat="42.212225" lon="14.5506"><ele>68.0</ele><time>2026-04-27T08:21:55.891Z</time></trkpt><trkpt lat="42.2121883" lon="14.5505067"><ele>66.0</ele><time>2026-04-27T08:21:57.89Z</time></trkpt><trkpt lat="42.21215" lon="14.5504233"><ele>64.0</ele><time>2026-04-27T08:21:59.891Z</time></trkpt><trkpt lat="42.212105" lon="14.5503617"><ele>62.0</ele><time>2026-04-27T08:22:01.89Z</time></trkpt><trkpt lat="42.2120367" lon="14.5503083"><ele>60.0</ele><time>2026-04-27T08:22:03.891Z</time></trkpt><trkpt lat="42.21195" lon="14.5502933"><ele>59.0</ele><time>2026-04-27T08:22:05.89Z</time></trkpt><trkpt lat="42.2118583" lon="14.5502817"><ele>58.0</ele><time>2026-04-27T08:22:07.891Z</time></trkpt><trkpt lat="42.211755" lon="14.550265"><ele>57.0</ele><time>2026-04-27T08:22:09.891Z</time></trkpt><trkpt lat="42.2116367" lon="14.550265"><ele>56.0</ele><time>2026-04-27T08:22:11.891Z</time></trkpt><trkpt lat="42.2115167" lon="14.5502567"><ele>55.0</ele><time>2026-04-27T08:22:13.89Z</time></trkpt><trkpt lat="42.21141" lon="14.5502433"><ele>53.49999999999999</ele><time>2026-04-27T08:22:15.891Z</time></trkpt><trkpt lat="42.211295" lon="14.55024"><ele>52.0</ele><time>2026-04-27T08:22:17.891Z</time></trkpt><trkpt lat="42.2112267" lon="14.5502333"><ele>50.5</ele><time>2026-04-27T08:22:18.89Z</time></trkpt><trkpt lat="42.2111517" lon="14.550225"><ele>49.0</ele><time>2026-04-27T08:22:19.89Z</time></trkpt><trkpt lat="42.21108" lon="14.5502133"><ele>47.5</ele><time>2026-04-27T08:22:20.891Z</time></trkpt><trkpt lat="42.2110017" lon="14.5501917"><ele>46.0</ele><time>2026-04-27T08:22:21.891Z</time></trkpt><trkpt lat="42.2109267" lon="14.550175"><ele>46.0</ele><time>2026-04-27T08:22:22.891Z</time></trkpt><trkpt lat="42.21085" lon="14.5501667"><ele>46.0</ele><time>2026-04-27T08:22:23.89Z</time></trkpt><trkpt lat="42.210775" lon="14.550145"><ele>46.0</ele><time>2026-04-27T08:22:24.89Z</time></trkpt><trkpt lat="42.2106917" lon="14.5501267"><ele>46.0</ele><time>2026-04-27T08:22:25.891Z</time></trkpt><trkpt lat="42.2106133" lon="14.5501067"><ele>46.0</ele><time>2026-04-27T08:22:26.891Z</time></trkpt><trkpt lat="42.2105383" lon="14.5500883"><ele>46.0</ele><time>2026-04-27T08:22:27.891Z</time></trkpt><trkpt lat="42.2104667" lon="14.5500633"><ele>45.16666666666667</ele><time>2026-04-27T08:22:28.891Z</time></trkpt><trkpt lat="42.2103883" lon="14.5500433"><ele>44.333333333333336</ele><time>2026-04-27T08:22:29.89Z</time></trkpt><trkpt lat="42.210325" lon="14.55002"><ele>43.5</ele><time>2026-04-27T08:22:30.891Z</time></trkpt><trkpt lat="42.2102183" lon="14.5499733"><ele>42.666666666666664</ele><time>2026-04-27T08:22:32.89Z</time></trkpt><trkpt lat="42.2101333" lon="14.549935"><ele>41.83333333333333</ele><time>2026-04-27T08:22:34.89Z</time></trkpt><trkpt lat="42.2100567" lon="14.5499083"><ele>41.0</ele><time>2026-04-27T08:22:38.89Z</time></trkpt><trkpt lat="42.20998" lon="14.549905"><ele>41.0</ele><time>2026-04-27T08:22:40.891Z</time></trkpt><trkpt lat="42.2098683" lon="14.5498933"><ele>41.0</ele><time>2026-04-27T08:22:42.891Z</time></trkpt><trkpt lat="42.2098" lon="14.5498833"><ele>41.0</ele><time>2026-04-27T08:22:43.891Z</time></trkpt><trkpt lat="42.2097233" lon="14.5498683"><ele>41.0</ele><time>2026-04-27T08:22:44.89Z</time></trkpt><trkpt lat="42.20965" lon="14.5498617"><ele>41.0</ele><time>2026-04-27T08:22:45.891Z</time></trkpt><trkpt lat="42.2095767" lon="14.5498433"><ele>41.0</ele><time>2026-04-27T08:22:46.891Z</time></trkpt><trkpt lat="42.2095" lon="14.5498267"><ele>39.99999999999999</ele><time>2026-04-27T08:22:47.89Z</time></trkpt><trkpt lat="42.20943" lon="14.5498233"><ele>39.0</ele><time>2026-04-27T08:22:48.89Z</time></trkpt><trkpt lat="42.2093617" lon="14.5498433"><ele>38.0</ele><time>2026-04-27T08:22:49.891Z</time></trkpt><trkpt lat="42.2093" lon="14.54989"><ele>37.0</ele><time>2026-04-27T08:22:50.891Z</time></trkpt><trkpt lat="42.2092467" lon="14.54996"><ele>36.0</ele><time>2026-04-27T08:22:51.89Z</time></trkpt><trkpt lat="42.2092" lon="14.5500367"><ele>34.99999999999999</ele><time>2026-04-27T08:22:52.891Z</time></trkpt><trkpt lat="42.2091567" lon="14.5501017"><ele>34.0</ele><time>2026-04-27T08:22:53.891Z</time></trkpt><trkpt lat="42.2091083" lon="14.5501583"><ele>34.0</ele><time>2026-04-27T08:22:54.891Z</time></trkpt><trkpt lat="42.20906" lon="14.550215"><ele>34.0</ele><time>2026-04-27T08:22:55.891Z</time></trkpt><trkpt lat="42.208975" lon="14.550335"><ele>34.0</ele><time>2026-04-27T08:22:57.891Z</time></trkpt><trkpt lat="42.2089317" lon="14.5503967"><ele>34.0</ele><time>2026-04-27T08:22:58.891Z</time></trkpt><trkpt lat="42.2088567" lon="14.5505183"><ele>34.0</ele><time>2026-04-27T08:23:00.89Z</time></trkpt><trkpt lat="42.20879" lon="14.5506317"><ele>33.4</ele><time>2026-04-27T08:23:02.891Z</time></trkpt><trkpt lat="42.20876" lon="14.5507133"><ele>32.8</ele><time>2026-04-27T08:23:03.891Z</time></trkpt><trkpt lat="42.2086767" lon="14.550835"><ele>32.2</ele><time>2026-04-27T08:23:05.89Z</time></trkpt><trkpt lat="42.208595" lon="14.5509467"><ele>31.6</ele><time>2026-04-27T08:23:07.891Z</time></trkpt><trkpt lat="42.2085217" lon="14.5510667"><ele>31.0</ele><time>2026-04-27T08:23:09.89Z</time></trkpt><trkpt lat="42.2084417" lon="14.5511867"><ele>31.0</ele><time>2026-04-27T08:23:11.89Z</time></trkpt><trkpt lat="42.2083767" lon="14.5513033"><ele>31.0</ele><time>2026-04-27T08:23:13.891Z</time></trkpt><trkpt lat="42.20831" lon="14.5514133"><ele>31.0</ele><time>2026-04-27T08:23:15.89Z</time></trkpt><trkpt lat="42.208245" lon="14.5515133"><ele>31.0</ele><time>2026-04-27T08:23:17.891Z</time></trkpt><trkpt lat="42.2081783" lon="14.5516067"><ele>31.0</ele><time>2026-04-27T08:23:19.891Z</time></trkpt><trkpt lat="42.2081233" lon="14.5516967"><ele>31.000000000000004</ele><time>2026-04-27T08:23:21.89Z</time></trkpt><trkpt lat="42.2080667" lon="14.5517867"><ele>31.0</ele><time>2026-04-27T08:23:23.891Z</time></trkpt><trkpt lat="42.20801" lon="14.5518783"><ele>31.0</ele><time>2026-04-27T08:23:25.891Z</time></trkpt><trkpt lat="42.2079533" lon="14.5519633"><ele>31.0</ele><time>2026-04-27T08:23:27.891Z</time></trkpt><trkpt lat="42.2078883" lon="14.5520433"><ele>31.000000000000004</ele><time>2026-04-27T08:23:29.89Z</time></trkpt><trkpt lat="42.2078183" lon="14.5521217"><ele>31.0</ele><time>2026-04-27T08:23:31.891Z</time></trkpt><trkpt lat="42.20776" lon="14.5522233"><ele>31.0</ele><time>2026-04-27T08:23:33.891Z</time></trkpt><trkpt lat="42.2076933" lon="14.5523233"><ele>31.0</ele><time>2026-04-27T08:23:35.891Z</time></trkpt><trkpt lat="42.207625" lon="14.552415"><ele>31.0</ele><time>2026-04-27T08:23:37.891Z</time></trkpt><trkpt lat="42.2075617" lon="14.5525033"><ele>31.0</ele><time>2026-04-27T08:23:39.89Z</time></trkpt><trkpt lat="42.2075017" lon="14.55258"><ele>31.0</ele><time>2026-04-27T08:23:41.89Z</time></trkpt><trkpt lat="42.2074367" lon="14.5526467"><ele>31.0</ele><time>2026-04-27T08:23:43.89Z</time></trkpt><trkpt lat="42.207365" lon="14.5527067"><ele>31.0</ele><time>2026-04-27T08:23:45.89Z</time></trkpt><trkpt lat="42.2072917" lon="14.55279"><ele>31.0</ele><time>2026-04-27T08:23:47.89Z</time></trkpt><trkpt lat="42.2072217" lon="14.5528817"><ele>31.0</ele><time>2026-04-27T08:23:49.891Z</time></trkpt><trkpt lat="42.207155" lon="14.5529733"><ele>31.0</ele><time>2026-04-27T08:23:51.89Z</time></trkpt><trkpt lat="42.2070917" lon="14.553045"><ele>31.0</ele><time>2026-04-27T08:23:53.891Z</time></trkpt><trkpt lat="42.2070133" lon="14.5531317"><ele>31.0</ele><time>2026-04-27T08:23:55.891Z</time></trkpt><trkpt lat="42.2069417" lon="14.5532283"><ele>31.0</ele><time>2026-04-27T08:23:57.891Z</time></trkpt><trkpt lat="42.2068717" lon="14.5533267"><ele>31.0</ele><time>2026-04-27T08:23:59.891Z</time></trkpt><trkpt lat="42.2067983" lon="14.5534217"><ele>31.0</ele><time>2026-04-27T08:24:01.891Z</time></trkpt><trkpt lat="42.20673" lon="14.5535067"><ele>31.000000000000004</ele><time>2026-04-27T08:24:03.891Z</time></trkpt><trkpt lat="42.2066683" lon="14.5535967"><ele>31.0</ele><time>2026-04-27T08:24:05.89Z</time></trkpt><trkpt lat="42.206605" lon="14.5536783"><ele>31.0</ele><time>2026-04-27T08:24:07.891Z</time></trkpt><trkpt lat="42.2065483" lon="14.5537583"><ele>31.0</ele><time>2026-04-27T08:24:09.891Z</time></trkpt><trkpt lat="42.2064917" lon="14.5538567"><ele>31.000000000000004</ele><time>2026-04-27T08:24:11.89Z</time></trkpt><trkpt lat="42.206435" lon="14.5539433"><ele>31.0</ele><time>2026-04-27T08:24:13.891Z</time></trkpt><trkpt lat="42.2063667" lon="14.5540167"><ele>30.833333333333336</ele><time>2026-04-27T08:24:15.89Z</time></trkpt><trkpt lat="42.2063" lon="14.5540983"><ele>30.666666666666668</ele><time>2026-04-27T08:24:17.89Z</time></trkpt><trkpt lat="42.206235" lon="14.554175"><ele>30.5</ele><time>2026-04-27T08:24:19.891Z</time></trkpt><trkpt lat="42.20617" lon="14.5542683"><ele>30.333333333333336</ele><time>2026-04-27T08:24:21.891Z</time></trkpt><trkpt lat="42.2061183" lon="14.5543617"><ele>30.166666666666668</ele><time>2026-04-27T08:24:23.89Z</time></trkpt><trkpt lat="42.2060617" lon="14.5544483"><ele>30.0</ele><time>2026-04-27T08:24:25.891Z</time></trkpt><trkpt lat="42.2059883" lon="14.5545217"><ele>29.833333333333332</ele><time>2026-04-27T08:24:27.891Z</time></trkpt><trkpt lat="42.20592" lon="14.5546"><ele>29.666666666666664</ele><time>2026-04-27T08:24:29.891Z</time></trkpt><trkpt lat="42.2058533" lon="14.5546733"><ele>29.5</ele><time>2026-04-27T08:24:31.891Z</time></trkpt><trkpt lat="42.20579" lon="14.5547417"><ele>29.333333333333332</ele><time>2026-04-27T08:24:33.89Z</time></trkpt><trkpt lat="42.205745" lon="14.5548183"><ele>29.166666666666664</ele><time>2026-04-27T08:24:35.891Z</time></trkpt><trkpt lat="42.205695" lon="14.5549017"><ele>29.0</ele><time>2026-04-27T08:24:37.891Z</time></trkpt><trkpt lat="42.2056383" lon="14.55498"><ele>29.0</ele><time>2026-04-27T08:24:39.891Z</time></trkpt><trkpt lat="42.2055883" lon="14.5550567"><ele>29.0</ele><time>2026-04-27T08:24:41.891Z</time></trkpt><trkpt lat="42.20553" lon="14.5551483"><ele>29.0</ele><time>2026-04-27T08:24:43.891Z</time></trkpt><trkpt lat="42.2054717" lon="14.5552517"><ele>29.0</ele><time>2026-04-27T08:24:45.891Z</time></trkpt><trkpt lat="42.2054133" lon="14.555365"><ele>29.0</ele><time>2026-04-27T08:24:47.89Z</time></trkpt><trkpt lat="42.2053617" lon="14.5554817"><ele>29.0</ele><time>2026-04-27T08:24:49.89Z</time></trkpt><trkpt lat="42.2053183" lon="14.5555967"><ele>29.0</ele><time>2026-04-27T08:24:51.89Z</time></trkpt><trkpt lat="42.2052733" lon="14.5557083"><ele>29.0</ele><time>2026-04-27T08:24:53.891Z</time></trkpt><trkpt lat="42.20521" lon="14.5558283"><ele>29.0</ele><time>2026-04-27T08:24:55.891Z</time></trkpt><trkpt lat="42.2051483" lon="14.5559517"><ele>29.0</ele><time>2026-04-27T08:24:57.891Z</time></trkpt><trkpt lat="42.2051067" lon="14.556045"><ele>28.999999999999996</ele><time>2026-04-27T08:24:59.89Z</time></trkpt><trkpt lat="42.2050617" lon="14.5561233"><ele>29.0</ele><time>2026-04-27T08:25:01.891Z</time></trkpt><trkpt lat="42.20503" lon="14.55623"><ele>29.0</ele><time>2026-04-27T08:25:04.89Z</time></trkpt><trkpt lat="42.2050267" lon="14.5563267"><ele>29.0</ele><time>2026-04-27T08:25:08.89Z</time></trkpt><trkpt lat="42.205075" lon="14.55642"><ele>28.999999999999996</ele><time>2026-04-27T08:25:12.891Z</time></trkpt><trkpt lat="42.2051133" lon="14.5564933"><ele>29.0</ele><time>2026-04-27T08:25:14.89Z</time></trkpt><trkpt lat="42.2051617" lon="14.556595"><ele>28.666666666666664</ele><time>2026-04-27T08:25:17.89Z</time></trkpt><trkpt lat="42.2051833" lon="14.5567"><ele>28.333333333333332</ele><time>2026-04-27T08:25:20.89Z</time></trkpt><trkpt lat="42.2051817" lon="14.5568067"><ele>28.0</ele><time>2026-04-27T08:25:23.891Z</time></trkpt><trkpt lat="42.2051767" lon="14.5569"><ele>27.666666666666664</ele><time>2026-04-27T08:25:26.891Z</time></trkpt><trkpt lat="42.2052" lon="14.5570267"><ele>27.333333333333332</ele><time>2026-04-27T08:25:29.891Z</time></trkpt><trkpt lat="42.2052117" lon="14.557125"><ele>27.0</ele><time>2026-04-27T08:25:31.89Z</time></trkpt><trkpt lat="42.2052383" lon="14.5572233"><ele>26.6</ele><time>2026-04-27T08:25:33.891Z</time></trkpt><trkpt lat="42.20527" lon="14.557315"><ele>26.200000000000003</ele><time>2026-04-27T08:25:35.89Z</time></trkpt><trkpt lat="42.2053167" lon="14.5574167"><ele>25.8</ele><time>2026-04-27T08:25:37.891Z</time></trkpt><trkpt lat="42.205375" lon="14.557515"><ele>25.4</ele><time>2026-04-27T08:25:39.891Z</time></trkpt><trkpt lat="42.2054483" lon="14.5576317"><ele>25.0</ele><time>2026-04-27T08:25:41.891Z</time></trkpt><trkpt lat="42.2055283" lon="14.5576967"><ele>25.000000000000004</ele><time>2026-04-27T08:25:43.89Z</time></trkpt><trkpt lat="42.2055883" lon="14.5577283"><ele>25.0</ele><time>2026-04-27T08:25:45.891Z</time></trkpt><trkpt lat="42.2056617" lon="14.5577583"><ele>25.0</ele><time>2026-04-27T08:25:49.891Z</time></trkpt><trkpt lat="42.2057367" lon="14.557795"><ele>25.0</ele><time>2026-04-27T08:25:52.891Z</time></trkpt><trkpt lat="42.20576" lon="14.5578967"><ele>25.0</ele><time>2026-04-27T08:25:57.891Z</time></trkpt><trkpt lat="42.2057683" lon="14.5579917"><ele>25.000000000000004</ele><time>2026-04-27T08:26:01.891Z</time></trkpt><trkpt lat="42.2058233" lon="14.557935"><ele>25.0</ele><time>2026-04-27T08:26:36.891Z</time></trkpt><trkpt lat="42.2058517" lon="14.5578467"><ele>25.333333333333336</ele><time>2026-04-27T08:26:39.891Z</time></trkpt><trkpt lat="42.20592" lon="14.557835"><ele>25.666666666666668</ele><time>2026-04-27T08:26:43.89Z</time></trkpt><trkpt lat="42.2059867" lon="14.55784"><ele>26.0</ele><time>2026-04-27T08:26:46.891Z</time></trkpt><trkpt lat="42.2060833" lon="14.5578483"><ele>26.333333333333336</ele><time>2026-04-27T08:26:49.891Z</time></trkpt><trkpt lat="42.2061517" lon="14.5578417"><ele>26.666666666666668</ele><time>2026-04-27T08:26:51.891Z</time></trkpt><trkpt lat="42.2062467" lon="14.5578417"><ele>27.0</ele><time>2026-04-27T08:26:54.891Z</time></trkpt><trkpt lat="42.2063133" lon="14.5578433"><ele>27.0</ele><time>2026-04-27T08:26:56.89Z</time></trkpt><trkpt lat="42.2064067" lon="14.5578533"><ele>27.0</ele><time>2026-04-27T08:26:59.89Z</time></trkpt><trkpt lat="42.206495" lon="14.5578667"><ele>27.0</ele><time>2026-04-27T08:27:02.891Z</time></trkpt><trkpt lat="42.2065833" lon="14.5578617"><ele>27.0</ele><time>2026-04-27T08:27:05.89Z</time></trkpt><trkpt lat="42.2066483" lon="14.5578467"><ele>27.0</ele><time>2026-04-27T08:27:07.891Z</time></trkpt><trkpt lat="42.2067133" lon="14.5578217"><ele>27.0</ele><time>2026-04-27T08:27:09.89Z</time></trkpt><trkpt lat="42.2067917" lon="14.5577883"><ele>27.142857142857142</ele><time>2026-04-27T08:27:12.89Z</time></trkpt><trkpt lat="42.206865" lon="14.55777"><ele>27.285714285714285</ele><time>2026-04-27T08:27:15.891Z</time></trkpt><trkpt lat="42.2068517" lon="14.55787"><ele>27.42857142857143</ele><time>2026-04-27T08:27:20.891Z</time></trkpt><trkpt lat="42.206805" lon="14.557955"><ele>27.57142857142857</ele><time>2026-04-27T08:27:23.891Z</time></trkpt><trkpt lat="42.2067667" lon="14.55806"><ele>27.714285714285715</ele><time>2026-04-27T08:27:26.891Z</time></trkpt><trkpt lat="42.206735" lon="14.5581383"><ele>27.857142857142858</ele><time>2026-04-27T08:27:28.891Z</time></trkpt><trkpt lat="42.206705" lon="14.5582183"><ele>28.0</ele><time>2026-04-27T08:27:30.891Z</time></trkpt><trkpt lat="42.2066667" lon="14.5583033"><ele>28.0</ele><time>2026-04-27T08:27:32.89Z</time></trkpt><trkpt lat="42.2066383" lon="14.5583967"><ele>28.0</ele><time>2026-04-27T08:27:34.891Z</time></trkpt><trkpt lat="42.206625" lon="14.5584867"><ele>28.0</ele><time>2026-04-27T08:27:36.89Z</time></trkpt><trkpt lat="42.2066033" lon="14.5585767"><ele>28.0</ele><time>2026-04-27T08:27:38.891Z</time></trkpt><trkpt lat="42.2065767" lon="14.5586717"><ele>28.0</ele><time>2026-04-27T08:27:40.891Z</time></trkpt><trkpt lat="42.2065467" lon="14.5587683"><ele>28.0</ele><time>2026-04-27T08:27:42.891Z</time></trkpt><trkpt lat="42.2065233" lon="14.5588617"><ele>28.0</ele><time>2026-04-27T08:27:44.891Z</time></trkpt><trkpt lat="42.206505" lon="14.55898"><ele>27.857142857142858</ele><time>2026-04-27T08:27:47.891Z</time></trkpt><trkpt lat="42.206485" lon="14.559065"><ele>27.714285714285715</ele><time>2026-04-27T08:27:49.89Z</time></trkpt><trkpt lat="42.20646" lon="14.5591567"><ele>27.57142857142857</ele><time>2026-04-27T08:27:51.891Z</time></trkpt><trkpt lat="42.2064383" lon="14.559255"><ele>27.42857142857143</ele><time>2026-04-27T08:27:53.89Z</time></trkpt><trkpt lat="42.2064267" lon="14.55935"><ele>27.285714285714285</ele><time>2026-04-27T08:27:55.891Z</time></trkpt><trkpt lat="42.20643" lon="14.55944"><ele>27.142857142857142</ele><time>2026-04-27T08:27:57.891Z</time></trkpt><trkpt lat="42.2063967" lon="14.55953"><ele>27.0</ele><time>2026-04-27T08:28:01.891Z</time></trkpt><trkpt lat="42.20634" lon="14.5595817"><ele>27.0</ele><time>2026-04-27T08:28:04.89Z</time></trkpt><trkpt lat="42.2062783" lon="14.55966"><ele>27.0</ele><time>2026-04-27T08:28:07.891Z</time></trkpt><trkpt lat="42.2062067" lon="14.5597017"><ele>27.0</ele><time>2026-04-27T08:28:11.89Z</time></trkpt><trkpt lat="42.206125" lon="14.5596833"><ele>27.0</ele><time>2026-04-27T08:28:14.891Z</time></trkpt><trkpt lat="42.2060383" lon="14.5596633"><ele>27.0</ele><time>2026-04-27T08:28:17.891Z</time></trkpt><trkpt lat="42.2059583" lon="14.5596417"><ele>27.0</ele><time>2026-04-27T08:28:20.891Z</time></trkpt><trkpt lat="42.20588" lon="14.5596817"><ele>27.0</ele><time>2026-04-27T08:28:24.891Z</time></trkpt><trkpt lat="42.2058367" lon="14.5597817"><ele>27.0</ele><time>2026-04-27T08:28:27.89Z</time></trkpt><trkpt lat="42.2058067" lon="14.5598983"><ele>27.0</ele><time>2026-04-27T08:28:30.89Z</time></trkpt><trkpt lat="42.2057867" lon="14.56001"><ele>27.0</ele><time>2026-04-27T08:28:32.891Z</time></trkpt><trkpt lat="42.205775" lon="14.5601167"><ele>27.0</ele><time>2026-04-27T08:28:34.891Z</time></trkpt><trkpt lat="42.2057367" lon="14.56023"><ele>27.0</ele><time>2026-04-27T08:28:37.891Z</time></trkpt><trkpt lat="42.2056767" lon="14.560325"><ele>26.833333333333332</ele><time>2026-04-27T08:28:40.89Z</time></trkpt><trkpt lat="42.2056283" lon="14.56038"><ele>26.666666666666664</ele><time>2026-04-27T08:28:42.891Z</time></trkpt><trkpt lat="42.20558" lon="14.560445"><ele>26.5</ele><time>2026-04-27T08:28:44.891Z</time></trkpt><trkpt lat="42.2055" lon="14.5605483"><ele>26.333333333333332</ele><time>2026-04-27T08:28:46.891Z</time></trkpt><trkpt lat="42.2054667" lon="14.5606667"><ele>26.166666666666664</ele><time>2026-04-27T08:28:48.89Z</time></trkpt><trkpt lat="42.2054517" lon="14.5607783"><ele>26.0</ele><time>2026-04-27T08:28:50.891Z</time></trkpt><trkpt lat="42.2054517" lon="14.560895"><ele>25.999999999999996</ele><time>2026-04-27T08:28:52.89Z</time></trkpt><trkpt lat="42.2054433" lon="14.5610067"><ele>26.0</ele><time>2026-04-27T08:28:54.891Z</time></trkpt><trkpt lat="42.20544" lon="14.5611217"><ele>26.0</ele><time>2026-04-27T08:28:56.89Z</time></trkpt><trkpt lat="42.20544" lon="14.5612367"><ele>26.0</ele><time>2026-04-27T08:28:58.89Z</time></trkpt><trkpt lat="42.2054433" lon="14.56135"><ele>25.999999999999996</ele><time>2026-04-27T08:29:00.89Z</time></trkpt><trkpt lat="42.2054417" lon="14.561455"><ele>26.0</ele><time>2026-04-27T08:29:02.891Z</time></trkpt><trkpt lat="42.2054417" lon="14.5615517"><ele>25.999999999999996</ele><time>2026-04-27T08:29:04.89Z</time></trkpt><trkpt lat="42.2054367" lon="14.5616467"><ele>26.0</ele><time>2026-04-27T08:29:06.891Z</time></trkpt><trkpt lat="42.2054183" lon="14.5617433"><ele>26.0</ele><time>2026-04-27T08:29:08.89Z</time></trkpt><trkpt lat="42.2054067" lon="14.561845"><ele>26.0</ele><time>2026-04-27T08:29:10.89Z</time></trkpt><trkpt lat="42.2053983" lon="14.561945"><ele>25.999999999999996</ele><time>2026-04-27T08:29:12.891Z</time></trkpt><trkpt lat="42.2053933" lon="14.5620467"><ele>26.0</ele><time>2026-04-27T08:29:14.89Z</time></trkpt><trkpt lat="42.2053767" lon="14.5621533"><ele>25.4</ele><time>2026-04-27T08:29:16.891Z</time></trkpt><trkpt lat="42.2053383" lon="14.5622533"><ele>24.8</ele><time>2026-04-27T08:29:18.89Z</time></trkpt><trkpt lat="42.205265" lon="14.562355"><ele>24.2</ele><time>2026-04-27T08:29:20.891Z</time></trkpt><trkpt lat="42.2051917" lon="14.5624567"><ele>23.599999999999998</ele><time>2026-04-27T08:29:22.89Z</time></trkpt><trkpt lat="42.2051217" lon="14.56255"><ele>23.0</ele><time>2026-04-27T08:29:24.89Z</time></trkpt><trkpt lat="42.2050617" lon="14.5626167"><ele>23.0</ele><time>2026-04-27T08:29:26.891Z</time></trkpt><trkpt lat="42.2050083" lon="14.5626683"><ele>23.0</ele><time>2026-04-27T08:29:28.891Z</time></trkpt><trkpt lat="42.20497" lon="14.5627617"><ele>23.0</ele><time>2026-04-27T08:29:31.891Z</time></trkpt><trkpt lat="42.2050317" lon="14.5628283"><ele>23.0</ele><time>2026-04-27T08:29:35.891Z</time></trkpt><trkpt lat="42.20512" lon="14.562865"><ele>23.0</ele><time>2026-04-27T08:29:38.891Z</time></trkpt><trkpt lat="42.2051883" lon="14.5628983"><ele>23.0</ele><time>2026-04-27T08:29:40.89Z</time></trkpt><trkpt lat="42.2052467" lon="14.5629317"><ele>22.666666666666668</ele><time>2026-04-27T08:29:42.89Z</time></trkpt><trkpt lat="42.2053117" lon="14.5629833"><ele>22.333333333333336</ele><time>2026-04-27T08:29:45.891Z</time></trkpt><trkpt lat="42.2053917" lon="14.5630533"><ele>22.0</ele><time>2026-04-27T08:29:48.89Z</time></trkpt><trkpt lat="42.2054467" lon="14.5631117"><ele>21.666666666666668</ele><time>2026-04-27T08:29:50.89Z</time></trkpt><trkpt lat="42.2055" lon="14.56318"><ele>21.333333333333332</ele><time>2026-04-27T08:29:52.891Z</time></trkpt><trkpt lat="42.2055533" lon="14.563265"><ele>21.0</ele><time>2026-04-27T08:29:54.89Z</time></trkpt><trkpt lat="42.205585" lon="14.56334"><ele>21.0</ele><time>2026-04-27T08:29:56.89Z</time></trkpt><trkpt lat="42.2056133" lon="14.5634317"><ele>21.0</ele><time>2026-04-27T08:29:59.89Z</time></trkpt><trkpt lat="42.2056733" lon="14.5635267"><ele>21.0</ele><time>2026-04-27T08:30:02.89Z</time></trkpt><trkpt lat="42.20572" lon="14.5636167"><ele>21.0</ele><time>2026-04-27T08:30:05.891Z</time></trkpt><trkpt lat="42.2057483" lon="14.5637183"><ele>21.0</ele><time>2026-04-27T08:30:08.891Z</time></trkpt><trkpt lat="42.205765" lon="14.5638017"><ele>21.0</ele><time>2026-04-27T08:30:10.891Z</time></trkpt><trkpt lat="42.2057783" lon="14.5638983"><ele>21.428571428571427</ele><time>2026-04-27T08:30:12.89Z</time></trkpt><trkpt lat="42.2057917" lon="14.563985"><ele>21.857142857142858</ele><time>2026-04-27T08:30:14.89Z</time></trkpt><trkpt lat="42.205795" lon="14.564105"><ele>22.285714285714285</ele><time>2026-04-27T08:30:17.891Z</time></trkpt><trkpt lat="42.2057967" lon="14.56419"><ele>22.714285714285715</ele><time>2026-04-27T08:30:19.891Z</time></trkpt><trkpt lat="42.20577" lon="14.5643117"><ele>23.142857142857142</ele><time>2026-04-27T08:30:22.891Z</time></trkpt><trkpt lat="42.2057533" lon="14.5643967"><ele>23.57142857142857</ele><time>2026-04-27T08:30:24.891Z</time></trkpt><trkpt lat="42.2057367" lon="14.5644817"><ele>24.0</ele><time>2026-04-27T08:30:26.891Z</time></trkpt><trkpt lat="42.2057167" lon="14.56459"><ele>24.0</ele><time>2026-04-27T08:30:28.89Z</time></trkpt><trkpt lat="42.2057033" lon="14.5647033"><ele>24.0</ele><time>2026-04-27T08:30:30.891Z</time></trkpt><trkpt lat="42.2056833" lon="14.564795"><ele>24.0</ele><time>2026-04-27T08:30:32.89Z</time></trkpt><trkpt lat="42.2056583" lon="14.5648783"><ele>24.0</ele><time>2026-04-27T08:30:34.891Z</time></trkpt><trkpt lat="42.2056017" lon="14.5649633"><ele>24.0</ele><time>2026-04-27T08:30:37.891Z</time></trkpt><trkpt lat="42.2055467" lon="14.5650517"><ele>24.0</ele><time>2026-04-27T08:30:40.891Z</time></trkpt><trkpt lat="42.2054833" lon="14.56512"><ele>24.0</ele><time>2026-04-27T08:30:43.891Z</time></trkpt><trkpt lat="42.2054483" lon="14.5651933"><ele>24.0</ele><time>2026-04-27T08:30:46.891Z</time></trkpt><trkpt lat="42.2054367" lon="14.5652967"><ele>24.0</ele><time>2026-04-27T08:30:50.891Z</time></trkpt><trkpt lat="42.2053717" lon="14.5653667"><ele>24.0</ele><time>2026-04-27T08:30:54.891Z</time></trkpt><trkpt lat="42.2053083" lon="14.565425"><ele>24.0</ele><time>2026-04-27T08:30:56.891Z</time></trkpt><trkpt lat="42.2052233" lon="14.5654883"><ele>24.0</ele><time>2026-04-27T08:30:58.89Z</time></trkpt><trkpt lat="42.2051417" lon="14.5655567"><ele>23.666666666666668</ele><time>2026-04-27T08:31:00.891Z</time></trkpt><trkpt lat="42.2050667" lon="14.565635"><ele>23.333333333333332</ele><time>2026-04-27T08:31:02.89Z</time></trkpt><trkpt lat="42.205" lon="14.5657133"><ele>23.0</ele><time>2026-04-27T08:31:04.891Z</time></trkpt><trkpt lat="42.204945" lon="14.565795"><ele>22.666666666666664</ele><time>2026-04-27T08:31:06.891Z</time></trkpt><trkpt lat="42.2049067" lon="14.565875"><ele>22.333333333333332</ele><time>2026-04-27T08:31:08.891Z</time></trkpt><trkpt lat="42.204895" lon="14.56598"><ele>22.0</ele><time>2026-04-27T08:31:11.891Z</time></trkpt><trkpt lat="42.2049267" lon="14.566065"><ele>22.0</ele><time>2026-04-27T08:31:13.891Z</time></trkpt><trkpt lat="42.20497" lon="14.5661617"><ele>22.0</ele><time>2026-04-27T08:31:15.89Z</time></trkpt><trkpt lat="42.20502" lon="14.5662683"><ele>22.0</ele><time>2026-04-27T08:31:17.891Z</time></trkpt><trkpt lat="42.2050767" lon="14.5663683"><ele>22.0</ele><time>2026-04-27T08:31:19.89Z</time></trkpt><trkpt lat="42.2051267" lon="14.566475"><ele>22.0</ele><time>2026-04-27T08:31:21.891Z</time></trkpt><trkpt lat="42.2051917" lon="14.5665767"><ele>21.833333333333332</ele><time>2026-04-27T08:31:23.89Z</time></trkpt><trkpt lat="42.20525" lon="14.5666683"><ele>21.666666666666664</ele><time>2026-04-27T08:31:25.891Z</time></trkpt><trkpt lat="42.2053083" lon="14.5667517"><ele>21.5</ele><time>2026-04-27T08:31:27.891Z</time></trkpt><trkpt lat="42.2053633" lon="14.5668367"><ele>21.333333333333332</ele><time>2026-04-27T08:31:29.891Z</time></trkpt><trkpt lat="42.2054033" lon="14.566905"><ele>21.166666666666668</ele><time>2026-04-27T08:31:31.891Z</time></trkpt><trkpt lat="42.20545" lon="14.5670017"><ele>21.0</ele><time>2026-04-27T08:31:34.891Z</time></trkpt><trkpt lat="42.2054983" lon="14.5671117"><ele>21.285714285714285</ele><time>2026-04-27T08:31:37.89Z</time></trkpt><trkpt lat="42.20553" lon="14.5671983"><ele>21.57142857142857</ele><time>2026-04-27T08:31:39.89Z</time></trkpt><trkpt lat="42.2055567" lon="14.5672833"><ele>21.857142857142858</ele><time>2026-04-27T08:31:41.891Z</time></trkpt><trkpt lat="42.2055633" lon="14.5673883"><ele>22.142857142857142</ele><time>2026-04-27T08:31:44.891Z</time></trkpt><trkpt lat="42.205585" lon="14.567495"><ele>22.428571428571427</ele><time>2026-04-27T08:31:48.891Z</time></trkpt><trkpt lat="42.2056233" lon="14.5675667"><ele>22.714285714285715</ele><time>2026-04-27T08:31:51.891Z</time></trkpt><trkpt lat="42.2056533" lon="14.56766"><ele>23.0</ele><time>2026-04-27T08:31:54.89Z</time></trkpt><trkpt lat="42.2056783" lon="14.5677433"><ele>23.142857142857142</ele><time>2026-04-27T08:31:57.89Z</time></trkpt><trkpt lat="42.2057" lon="14.56783"><ele>23.285714285714285</ele><time>2026-04-27T08:32:00.891Z</time></trkpt><trkpt lat="42.2057167" lon="14.567925"><ele>23.428571428571427</ele><time>2026-04-27T08:32:05.891Z</time></trkpt><trkpt lat="42.2057233" lon="14.5680233"><ele>23.57142857142857</ele><time>2026-04-27T08:32:09.891Z</time></trkpt><trkpt lat="42.20573" lon="14.5681367"><ele>23.714285714285715</ele><time>2026-04-27T08:32:12.891Z</time></trkpt><trkpt lat="42.20572" lon="14.568225"><ele>23.857142857142854</ele><time>2026-04-27T08:32:14.89Z</time></trkpt><trkpt lat="42.2057083" lon="14.5683217"><ele>24.0</ele><time>2026-04-27T08:32:17.891Z</time></trkpt><trkpt lat="42.20574" lon="14.5685033"><ele>24.166666666666668</ele><time>2026-04-27T08:32:37.891Z</time></trkpt><trkpt lat="42.2057983" lon="14.5684467"><ele>24.333333333333336</ele><time>2026-04-27T08:33:01.89Z</time></trkpt><trkpt lat="42.205805" lon="14.5683533"><ele>24.5</ele><time>2026-04-27T08:33:04.89Z</time></trkpt><trkpt lat="42.20581" lon="14.5682567"><ele>24.666666666666668</ele><time>2026-04-27T08:33:08.891Z</time></trkpt><trkpt lat="42.2058117" lon="14.568155"><ele>24.833333333333336</ele><time>2026-04-27T08:33:13.891Z</time></trkpt><trkpt lat="42.205815" lon="14.56805"><ele>25.0</ele><time>2026-04-27T08:33:16.891Z</time></trkpt><trkpt lat="42.2058017" lon="14.5679317"><ele>24.833333333333336</ele><time>2026-04-27T08:33:19.891Z</time></trkpt><trkpt lat="42.2057867" lon="14.5678217"><ele>24.666666666666668</ele><time>2026-04-27T08:33:22.891Z</time></trkpt><trkpt lat="42.20576" lon="14.5676967"><ele>24.5</ele><time>2026-04-27T08:33:25.891Z</time></trkpt><trkpt lat="42.20573" lon="14.5676117"><ele>24.333333333333336</ele><time>2026-04-27T08:33:28.891Z</time></trkpt><trkpt lat="42.2057033" lon="14.5675283"><ele>24.166666666666668</ele><time>2026-04-27T08:33:30.89Z</time></trkpt><trkpt lat="42.2056667" lon="14.567455"><ele>24.0</ele><time>2026-04-27T08:33:32.89Z</time></trkpt><trkpt lat="42.2056483" lon="14.5673367"><ele>23.857142857142854</ele><time>2026-04-27T08:33:35.891Z</time></trkpt><trkpt lat="42.2056217" lon="14.5672333"><ele>23.714285714285715</ele><time>2026-04-27T08:33:37.891Z</time></trkpt><trkpt lat="42.2055967" lon="14.5671417"><ele>23.57142857142857</ele><time>2026-04-27T08:33:39.891Z</time></trkpt><trkpt lat="42.2055717" lon="14.5670617"><ele>23.428571428571427</ele><time>2026-04-27T08:33:41.891Z</time></trkpt><trkpt lat="42.2055383" lon="14.56698"><ele>23.285714285714285</ele><time>2026-04-27T08:33:43.891Z</time></trkpt><trkpt lat="42.205495" lon="14.5668967"><ele>23.142857142857142</ele><time>2026-04-27T08:33:45.891Z</time></trkpt><trkpt lat="42.2054467" lon="14.5668233"><ele>23.0</ele><time>2026-04-27T08:33:47.89Z</time></trkpt><trkpt lat="42.205385" lon="14.5667433"><ele>22.714285714285715</ele><time>2026-04-27T08:33:49.891Z</time></trkpt><trkpt lat="42.20533" lon="14.5666633"><ele>22.428571428571427</ele><time>2026-04-27T08:33:51.891Z</time></trkpt><trkpt lat="42.2052667" lon="14.5665933"><ele>22.142857142857142</ele><time>2026-04-27T08:33:53.891Z</time></trkpt><trkpt lat="42.2052117" lon="14.5665283"><ele>21.857142857142858</ele><time>2026-04-27T08:33:55.891Z</time></trkpt><trkpt lat="42.2051633" lon="14.56646"><ele>21.57142857142857</ele><time>2026-04-27T08:33:57.89Z</time></trkpt><trkpt lat="42.2051183" lon="14.566395"><ele>21.285714285714285</ele><time>2026-04-27T08:33:59.891Z</time></trkpt><trkpt lat="42.2050767" lon="14.5663233"><ele>21.0</ele><time>2026-04-27T08:34:01.891Z</time></trkpt><trkpt lat="42.2050233" lon="14.56622"><ele>21.166666666666668</ele><time>2026-04-27T08:34:04.89Z</time></trkpt><trkpt lat="42.2049933" lon="14.5661417"><ele>21.333333333333332</ele><time>2026-04-27T08:34:06.891Z</time></trkpt><trkpt lat="42.20496" lon="14.5660317"><ele>21.5</ele><time>2026-04-27T08:34:09.891Z</time></trkpt><trkpt lat="42.2049683" lon="14.5659233"><ele>21.666666666666664</ele><time>2026-04-27T08:34:12.891Z</time></trkpt><trkpt lat="42.2049933" lon="14.5658217"><ele>21.833333333333332</ele><time>2026-04-27T08:34:15.891Z</time></trkpt><trkpt lat="42.2050583" lon="14.5657617"><ele>22.0</ele><time>2026-04-27T08:34:18.891Z</time></trkpt><trkpt lat="42.205115" lon="14.565685"><ele>22.0</ele><time>2026-04-27T08:34:22.89Z</time></trkpt><trkpt lat="42.2051883" lon="14.5655983"><ele>22.0</ele><time>2026-04-27T08:34:25.891Z</time></trkpt><trkpt lat="42.205265" lon="14.5655383"><ele>22.0</ele><time>2026-04-27T08:34:28.89Z</time></trkpt><trkpt lat="42.2053383" lon="14.56548"><ele>22.0</ele><time>2026-04-27T08:34:31.891Z</time></trkpt><trkpt lat="42.2053867" lon="14.5654133"><ele>22.0</ele><time>2026-04-27T08:34:35.891Z</time></trkpt><trkpt lat="42.2053767" lon="14.565305"><ele>22.0</ele><time>2026-04-27T08:34:38.891Z</time></trkpt><trkpt lat="42.2053417" lon="14.5652167"><ele>22.333333333333332</ele><time>2026-04-27T08:34:40.891Z</time></trkpt><trkpt lat="42.2053133" lon="14.5651283"><ele>22.666666666666664</ele><time>2026-04-27T08:34:42.891Z</time></trkpt><trkpt lat="42.20528" lon="14.56502"><ele>23.0</ele><time>2026-04-27T08:34:45.891Z</time></trkpt><trkpt lat="42.2052383" lon="14.5649367"><ele>23.333333333333332</ele><time>2026-04-27T08:34:48.891Z</time></trkpt><trkpt lat="42.2052033" lon="14.5648417"><ele>23.666666666666668</ele><time>2026-04-27T08:34:51.891Z</time></trkpt><trkpt lat="42.2051533" lon="14.5647417"><ele>24.0</ele><time>2026-04-27T08:34:54.891Z</time></trkpt><trkpt lat="42.2050783" lon="14.5647333"><ele>24.0</ele><time>2026-04-27T08:34:57.891Z</time></trkpt><trkpt lat="42.20502" lon="14.5647867"><ele>24.0</ele><time>2026-04-27T08:34:59.891Z</time></trkpt><trkpt lat="42.20495" lon="14.5648667"><ele>24.0</ele><time>2026-04-27T08:35:01.891Z</time></trkpt><trkpt lat="42.2048733" lon="14.564955"><ele>24.0</ele><time>2026-04-27T08:35:03.891Z</time></trkpt><trkpt lat="42.2048017" lon="14.5650433"><ele>24.0</ele><time>2026-04-27T08:35:05.89Z</time></trkpt><trkpt lat="42.20473" lon="14.56514"><ele>24.0</ele><time>2026-04-27T08:35:07.891Z</time></trkpt><trkpt lat="42.204645" lon="14.56522"><ele>24.0</ele><time>2026-04-27T08:35:09.891Z</time></trkpt><trkpt lat="42.20458" lon="14.56532"><ele>24.0</ele><time>2026-04-27T08:35:11.891Z</time></trkpt><trkpt lat="42.204525" lon="14.5654183"><ele>24.0</ele><time>2026-04-27T08:35:13.891Z</time></trkpt><trkpt lat="42.2044817" lon="14.5655267"><ele>24.0</ele><time>2026-04-27T08:35:15.891Z</time></trkpt><trkpt lat="42.2044467" lon="14.5656233"><ele>23.999999999999996</ele><time>2026-04-27T08:35:17.891Z</time></trkpt><trkpt lat="42.2044333" lon="14.5657267"><ele>24.0</ele><time>2026-04-27T08:35:19.891Z</time></trkpt><trkpt lat="42.2044233" lon="14.5658133"><ele>24.0</ele><time>2026-04-27T08:35:21.891Z</time></trkpt><trkpt lat="42.2044183" lon="14.5659083"><ele>24.0</ele><time>2026-04-27T08:35:23.891Z</time></trkpt><trkpt lat="42.2044117" lon="14.5660033"><ele>24.0</ele><time>2026-04-27T08:35:25.891Z</time></trkpt><trkpt lat="42.2044083" lon="14.5661033"><ele>23.999999999999996</ele><time>2026-04-27T08:35:27.891Z</time></trkpt><trkpt lat="42.2044033" lon="14.5661883"><ele>24.0</ele><time>2026-04-27T08:35:29.891Z</time></trkpt><trkpt lat="42.20441" lon="14.5662917"><ele>23.857142857142854</ele><time>2026-04-27T08:35:32.891Z</time></trkpt><trkpt lat="42.20444" lon="14.5664"><ele>23.714285714285715</ele><time>2026-04-27T08:35:35.891Z</time></trkpt><trkpt lat="42.20447" lon="14.566485"><ele>23.57142857142857</ele><time>2026-04-27T08:35:37.89Z</time></trkpt><trkpt lat="42.2045" lon="14.5665683"><ele>23.428571428571427</ele><time>2026-04-27T08:35:39.891Z</time></trkpt><trkpt lat="42.20454" lon="14.56665"><ele>23.285714285714285</ele><time>2026-04-27T08:35:41.89Z</time></trkpt><trkpt lat="42.2045867" lon="14.5667317"><ele>23.142857142857142</ele><time>2026-04-27T08:35:43.891Z</time></trkpt><trkpt lat="42.2046283" lon="14.5668017"><ele>23.0</ele><time>2026-04-27T08:35:45.89Z</time></trkpt><trkpt lat="42.2046733" lon="14.566865"><ele>23.0</ele><time>2026-04-27T08:35:47.89Z</time></trkpt><trkpt lat="42.20472" lon="14.5669283"><ele>23.0</ele><time>2026-04-27T08:35:49.891Z</time></trkpt><trkpt lat="42.20477" lon="14.566985"><ele>23.0</ele><time>2026-04-27T08:35:51.891Z</time></trkpt><trkpt lat="42.2048367" lon="14.5670483"><ele>23.0</ele><time>2026-04-27T08:35:53.89Z</time></trkpt><trkpt lat="42.2049067" lon="14.56713"><ele>23.0</ele><time>2026-04-27T08:35:55.891Z</time></trkpt><trkpt lat="42.204975" lon="14.567225"><ele>23.0</ele><time>2026-04-27T08:35:57.891Z</time></trkpt><trkpt lat="42.20504" lon="14.5673367"><ele>23.0</ele><time>2026-04-27T08:35:59.891Z</time></trkpt><trkpt lat="42.2050933" lon="14.5674467"><ele>23.0</ele><time>2026-04-27T08:36:01.891Z</time></trkpt><trkpt lat="42.2051367" lon="14.5675683"><ele>23.0</ele><time>2026-04-27T08:36:03.891Z</time></trkpt><trkpt lat="42.2051583" lon="14.567685"><ele>23.0</ele><time>2026-04-27T08:36:05.891Z</time></trkpt><trkpt lat="42.2051883" lon="14.567765"><ele>23.0</ele><time>2026-04-27T08:36:07.891Z</time></trkpt><trkpt lat="42.2052133" lon="14.567855"><ele>23.0</ele><time>2026-04-27T08:36:10.891Z</time></trkpt><trkpt lat="42.205255" lon="14.56794"><ele>22.857142857142858</ele><time>2026-04-27T08:36:14.89Z</time></trkpt><trkpt lat="42.20526" lon="14.568025"><ele>22.71428571428571</ele><time>2026-04-27T08:36:17.891Z</time></trkpt><trkpt lat="42.205265" lon="14.56813"><ele>22.57142857142857</ele><time>2026-04-27T08:36:20.891Z</time></trkpt><trkpt lat="42.205255" lon="14.5682383"><ele>22.42857142857143</ele><time>2026-04-27T08:36:23.89Z</time></trkpt><trkpt lat="42.2052333" lon="14.5683283"><ele>22.285714285714285</ele><time>2026-04-27T08:36:26.89Z</time></trkpt><trkpt lat="42.2051867" lon="14.5684183"><ele>22.142857142857142</ele><time>2026-04-27T08:36:30.89Z</time></trkpt><trkpt lat="42.205135" lon="14.5684717"><ele>22.0</ele><time>2026-04-27T08:36:33.891Z</time></trkpt><trkpt lat="42.2050633" lon="14.56853"><ele>22.0</ele><time>2026-04-27T08:36:36.891Z</time></trkpt><trkpt lat="42.2050117" lon="14.5685883"><ele>22.0</ele><time>2026-04-27T08:36:39.891Z</time></trkpt><trkpt lat="42.2049517" lon="14.5686433"><ele>22.0</ele><time>2026-04-27T08:36:43.89Z</time></trkpt><trkpt lat="42.2048867" lon="14.5686783"><ele>22.0</ele><time>2026-04-27T08:36:47.891Z</time></trkpt><trkpt lat="42.204825" lon="14.568715"><ele>22.0</ele><time>2026-04-27T08:36:50.891Z</time></trkpt><trkpt lat="42.2047517" lon="14.5687417"><ele>22.0</ele><time>2026-04-27T08:36:53.891Z</time></trkpt><trkpt lat="42.20467" lon="14.5687933"><ele>22.0</ele><time>2026-04-27T08:36:57.891Z</time></trkpt><trkpt lat="42.2046067" lon="14.5688283"><ele>21.857142857142858</ele><time>2026-04-27T08:37:00.891Z</time></trkpt><trkpt lat="42.20455" lon="14.5688733"><ele>21.714285714285715</ele><time>2026-04-27T08:37:03.891Z</time></trkpt><trkpt lat="42.2044933" lon="14.5689117"><ele>21.57142857142857</ele><time>2026-04-27T08:37:06.891Z</time></trkpt><trkpt lat="42.2044267" lon="14.56892"><ele>21.42857142857143</ele><time>2026-04-27T08:37:09.891Z</time></trkpt><trkpt lat="42.20435" lon="14.568965"><ele>21.285714285714285</ele><time>2026-04-27T08:37:12.89Z</time></trkpt><trkpt lat="42.20429" lon="14.5690167"><ele>21.142857142857142</ele><time>2026-04-27T08:37:16.89Z</time></trkpt><trkpt lat="42.2043283" lon="14.5691333"><ele>21.0</ele><time>2026-04-27T08:38:06.891Z</time></trkpt><trkpt lat="42.2043417" lon="14.5689617"><ele>21.0</ele><time>2026-04-27T08:38:57.891Z</time></trkpt><trkpt lat="42.204295" lon="14.5688833"><ele>21.0</ele><time>2026-04-27T08:39:01.891Z</time></trkpt><trkpt lat="42.2042383" lon="14.5688383"><ele>21.0</ele><time>2026-04-27T08:39:05.891Z</time></trkpt><trkpt lat="42.2041783" lon="14.5688117"><ele>21.0</ele><time>2026-04-27T08:39:08.891Z</time></trkpt><trkpt lat="42.2040967" lon="14.5687817"><ele>21.0</ele><time>2026-04-27T08:39:12.89Z</time></trkpt><trkpt lat="42.2040217" lon="14.56878"><ele>21.0</ele><time>2026-04-27T08:39:16.89Z</time></trkpt><trkpt lat="42.2039533" lon="14.5687833"><ele>21.0</ele><time>2026-04-27T08:39:20.89Z</time></trkpt><trkpt lat="42.20389" lon="14.5687933"><ele>21.0</ele><time>2026-04-27T08:39:23.891Z</time></trkpt><trkpt lat="42.2038167" lon="14.568805"><ele>21.0</ele><time>2026-04-27T08:39:27.891Z</time></trkpt><trkpt lat="42.20375" lon="14.568815"><ele>21.0</ele><time>2026-04-27T08:39:31.891Z</time></trkpt><trkpt lat="42.2036817" lon="14.56881"><ele>21.0</ele><time>2026-04-27T08:39:35.89Z</time></trkpt><trkpt lat="42.2036117" lon="14.5688067"><ele>21.0</ele><time>2026-04-27T08:39:39.89Z</time></trkpt><trkpt lat="42.2035467" lon="14.5688117"><ele>21.0</ele><time>2026-04-27T08:39:43.891Z</time></trkpt><trkpt lat="42.2034817" lon="14.5688233"><ele>21.0</ele><time>2026-04-27T08:39:47.891Z</time></trkpt><trkpt lat="42.2034183" lon="14.56884"><ele>21.0</ele><time>2026-04-27T08:39:51.891Z</time></trkpt><trkpt lat="42.2033567" lon="14.568865"><ele>21.0</ele><time>2026-04-27T08:39:55.89Z</time></trkpt><trkpt lat="42.2032917" lon="14.5688867"><ele>21.0</ele><time>2026-04-27T08:39:59.89Z</time></trkpt><trkpt lat="42.2033283" lon="14.5688133"><ele>21.0</ele><time>2026-04-27T08:40:51.891Z</time></trkpt><trkpt lat="42.20339" lon="14.5687733"><ele>21.0</ele><time>2026-04-27T08:40:54.891Z</time></trkpt><trkpt lat="42.2034517" lon="14.5687233"><ele>21.0</ele><time>2026-04-27T08:40:57.891Z</time></trkpt><trkpt lat="42.203495" lon="14.5686567"><ele>21.0</ele><time>2026-04-27T08:41:01.89Z</time></trkpt><trkpt lat="42.2035183" lon="14.5685767"><ele>21.0</ele><time>2026-04-27T08:41:04.891Z</time></trkpt><trkpt lat="42.2035367" lon="14.5684933"><ele>21.0</ele><time>2026-04-27T08:41:07.891Z</time></trkpt><trkpt lat="42.2035633" lon="14.5683933"><ele>21.0</ele><time>2026-04-27T08:41:11.891Z</time></trkpt><trkpt lat="42.203595" lon="14.568305"><ele>21.0</ele><time>2026-04-27T08:41:14.891Z</time></trkpt><trkpt lat="42.2036417" lon="14.5682217"><ele>21.0</ele><time>2026-04-27T08:41:17.89Z</time></trkpt><trkpt lat="42.203705" lon="14.5681533"><ele>21.0</ele><time>2026-04-27T08:41:20.89Z</time></trkpt><trkpt lat="42.2037667" lon="14.5680883"><ele>21.0</ele><time>2026-04-27T08:41:23.89Z</time></trkpt><trkpt lat="42.2038017" lon="14.567995"><ele>21.0</ele><time>2026-04-27T08:41:27.891Z</time></trkpt><trkpt lat="42.2037933" lon="14.567905"><ele>21.0</ele><time>2026-04-27T08:41:29.89Z</time></trkpt><trkpt lat="42.2037833" lon="14.5677783"><ele>21.0</ele><time>2026-04-27T08:41:32.89Z</time></trkpt><trkpt lat="42.20378" lon="14.5676817"><ele>21.0</ele><time>2026-04-27T08:41:34.891Z</time></trkpt><trkpt lat="42.20378" lon="14.56759"><ele>21.0</ele><time>2026-04-27T08:41:36.89Z</time></trkpt><trkpt lat="42.2037917" lon="14.5674767"><ele>21.142857142857142</ele><time>2026-04-27T08:41:39.891Z</time></trkpt><trkpt lat="42.2038217" lon="14.567365"><ele>21.285714285714285</ele><time>2026-04-27T08:41:42.891Z</time></trkpt><trkpt lat="42.2038567" lon="14.567285"><ele>21.42857142857143</ele><time>2026-04-27T08:41:44.89Z</time></trkpt><trkpt lat="42.2038883" lon="14.5671833"><ele>21.57142857142857</ele><time>2026-04-27T08:41:47.891Z</time></trkpt><trkpt lat="42.203895" lon="14.56709"><ele>21.714285714285715</ele><time>2026-04-27T08:41:50.891Z</time></trkpt><trkpt lat="42.203865" lon="14.5670033"><ele>21.857142857142858</ele><time>2026-04-27T08:41:54.891Z</time></trkpt><trkpt lat="42.2038117" lon="14.5669417"><ele>22.0</ele><time>2026-04-27T08:41:57.891Z</time></trkpt><trkpt lat="42.2037667" lon="14.5668767"><ele>22.166666666666664</ele><time>2026-04-27T08:41:59.89Z</time></trkpt><trkpt lat="42.20371" lon="14.5668033"><ele>22.333333333333332</ele><time>2026-04-27T08:42:01.891Z</time></trkpt><trkpt lat="42.2036383" lon="14.5667283"><ele>22.5</ele><time>2026-04-27T08:42:03.891Z</time></trkpt><trkpt lat="42.2035567" lon="14.5666567"><ele>22.666666666666668</ele><time>2026-04-27T08:42:05.891Z</time></trkpt><trkpt lat="42.2034867" lon="14.5665867"><ele>22.833333333333336</ele><time>2026-04-27T08:42:07.89Z</time></trkpt><trkpt lat="42.2034283" lon="14.5665267"><ele>23.0</ele><time>2026-04-27T08:42:09.891Z</time></trkpt><trkpt lat="42.2033683" lon="14.5664683"><ele>23.0</ele><time>2026-04-27T08:42:11.891Z</time></trkpt><trkpt lat="42.2033183" lon="14.5664033"><ele>23.0</ele><time>2026-04-27T08:42:13.891Z</time></trkpt><trkpt lat="42.20326" lon="14.5663317"><ele>23.0</ele><time>2026-04-27T08:42:15.891Z</time></trkpt><trkpt lat="42.2032083" lon="14.566275"><ele>23.0</ele><time>2026-04-27T08:42:17.891Z</time></trkpt><trkpt lat="42.2031483" lon="14.5661833"><ele>23.0</ele><time>2026-04-27T08:42:20.89Z</time></trkpt><trkpt lat="42.2031383" lon="14.56606"><ele>23.0</ele><time>2026-04-27T08:42:23.89Z</time></trkpt><trkpt lat="42.2031517" lon="14.5659683"><ele>23.166666666666668</ele><time>2026-04-27T08:42:25.891Z</time></trkpt><trkpt lat="42.2031683" lon="14.5658467"><ele>23.333333333333336</ele><time>2026-04-27T08:42:28.89Z</time></trkpt><trkpt lat="42.20318" lon="14.56576"><ele>23.5</ele><time>2026-04-27T08:42:30.891Z</time></trkpt><trkpt lat="42.2031933" lon="14.565665"><ele>23.666666666666668</ele><time>2026-04-27T08:42:32.891Z</time></trkpt><trkpt lat="42.2031983" lon="14.5655617"><ele>23.833333333333332</ele><time>2026-04-27T08:42:34.89Z</time></trkpt><trkpt lat="42.2032" lon="14.5654533"><ele>24.0</ele><time>2026-04-27T08:42:36.89Z</time></trkpt><trkpt lat="42.2032117" lon="14.5653417"><ele>24.0</ele><time>2026-04-27T08:42:38.891Z</time></trkpt><trkpt lat="42.203215" lon="14.5652317"><ele>24.0</ele><time>2026-04-27T08:42:40.89Z</time></trkpt><trkpt lat="42.2032167" lon="14.5651133"><ele>24.0</ele><time>2026-04-27T08:42:42.891Z</time></trkpt><trkpt lat="42.20322" lon="14.5649983"><ele>24.0</ele><time>2026-04-27T08:42:44.891Z</time></trkpt><trkpt lat="42.2032217" lon="14.564885"><ele>24.0</ele><time>2026-04-27T08:42:46.891Z</time></trkpt><trkpt lat="42.20322" lon="14.564785"><ele>24.0</ele><time>2026-04-27T08:42:48.891Z</time></trkpt><trkpt lat="42.203225" lon="14.56468"><ele>24.0</ele><time>2026-04-27T08:42:50.89Z</time></trkpt><trkpt lat="42.2032217" lon="14.5645783"><ele>24.0</ele><time>2026-04-27T08:42:52.891Z</time></trkpt><trkpt lat="42.203225" lon="14.5644733"><ele>24.0</ele><time>2026-04-27T08:42:54.891Z</time></trkpt><trkpt lat="42.203215" lon="14.5643733"><ele>24.0</ele><time>2026-04-27T08:42:56.891Z</time></trkpt><trkpt lat="42.2031883" lon="14.564275"><ele>24.0</ele><time>2026-04-27T08:42:58.89Z</time></trkpt><trkpt lat="42.2031717" lon="14.5641767"><ele>24.0</ele><time>2026-04-27T08:43:00.89Z</time></trkpt><trkpt lat="42.203145" lon="14.564075"><ele>24.0</ele><time>2026-04-27T08:43:02.891Z</time></trkpt><trkpt lat="42.2031017" lon="14.56397"><ele>24.0</ele><time>2026-04-27T08:43:04.891Z</time></trkpt><trkpt lat="42.2030417" lon="14.5638817"><ele>24.0</ele><time>2026-04-27T08:43:06.891Z</time></trkpt><trkpt lat="42.2029733" lon="14.563795"><ele>24.0</ele><time>2026-04-27T08:43:08.891Z</time></trkpt><trkpt lat="42.2029133" lon="14.56373"><ele>24.0</ele><time>2026-04-27T08:43:10.891Z</time></trkpt><trkpt lat="42.2028633" lon="14.5636617"><ele>24.0</ele><time>2026-04-27T08:43:12.891Z</time></trkpt><trkpt lat="42.2028417" lon="14.5635767"><ele>24.0</ele><time>2026-04-27T08:43:14.891Z</time></trkpt><trkpt lat="42.2028483" lon="14.5634733"><ele>24.0</ele><time>2026-04-27T08:43:16.89Z</time></trkpt><trkpt lat="42.202885" lon="14.563385"><ele>24.0</ele><time>2026-04-27T08:43:18.891Z</time></trkpt><trkpt lat="42.20293" lon="14.5632933"><ele>24.0</ele><time>2026-04-27T08:43:20.891Z</time></trkpt><trkpt lat="42.2029733" lon="14.563205"><ele>24.0</ele><time>2026-04-27T08:43:22.89Z</time></trkpt><trkpt lat="42.2030133" lon="14.5631233"><ele>24.0</ele><time>2026-04-27T08:43:24.891Z</time></trkpt><trkpt lat="42.2030517" lon="14.5630317"><ele>23.999999999999996</ele><time>2026-04-27T08:43:26.89Z</time></trkpt><trkpt lat="42.2030967" lon="14.562945"><ele>24.0</ele><time>2026-04-27T08:43:28.889Z</time></trkpt><trkpt lat="42.2031383" lon="14.56286"><ele>24.0</ele><time>2026-04-27T08:43:30.89Z</time></trkpt><trkpt lat="42.2031767" lon="14.5627833"><ele>24.0</ele><time>2026-04-27T08:43:32.889Z</time></trkpt><trkpt lat="42.203215" lon="14.5627117"><ele>24.0</ele><time>2026-04-27T08:43:34.89Z</time></trkpt><trkpt lat="42.203255" lon="14.5626283"><ele>23.999999999999996</ele><time>2026-04-27T08:43:37.89Z</time></trkpt><trkpt lat="42.2033117" lon="14.5625783"><ele>24.0</ele><time>2026-04-27T08:43:41.889Z</time></trkpt><trkpt lat="42.2032483" lon="14.5626"><ele>24.0</ele><time>2026-04-27T08:43:49.889Z</time></trkpt><trkpt lat="42.2032067" lon="14.5626683"><ele>24.0</ele><time>2026-04-27T08:43:51.889Z</time></trkpt><trkpt lat="42.20317" lon="14.5627433"><ele>24.0</ele><time>2026-04-27T08:43:53.89Z</time></trkpt><trkpt lat="42.20313" lon="14.5628217"><ele>24.0</ele><time>2026-04-27T08:43:55.89Z</time></trkpt><trkpt lat="42.203085" lon="14.5629083"><ele>24.0</ele><time>2026-04-27T08:43:57.889Z</time></trkpt><trkpt lat="42.2030333" lon="14.5630017"><ele>24.0</ele><time>2026-04-27T08:43:59.89Z</time></trkpt><trkpt lat="42.2029867" lon="14.5630983"><ele>24.0</ele><time>2026-04-27T08:44:01.89Z</time></trkpt><trkpt lat="42.20294" lon="14.5631983"><ele>24.0</ele><time>2026-04-27T08:44:03.89Z</time></trkpt><trkpt lat="42.20289" lon="14.5632967"><ele>24.0</ele><time>2026-04-27T08:44:05.89Z</time></trkpt><trkpt lat="42.2028433" lon="14.563385"><ele>24.0</ele><time>2026-04-27T08:44:07.89Z</time></trkpt><trkpt lat="42.202805" lon="14.5634833"><ele>24.0</ele><time>2026-04-27T08:44:09.89Z</time></trkpt><trkpt lat="42.202805" lon="14.5635783"><ele>24.0</ele><time>2026-04-27T08:44:11.889Z</time></trkpt><trkpt lat="42.2028283" lon="14.56366"><ele>23.833333333333332</ele><time>2026-04-27T08:44:13.89Z</time></trkpt><trkpt lat="42.2028867" lon="14.5637533"><ele>23.666666666666668</ele><time>2026-04-27T08:44:15.89Z</time></trkpt><trkpt lat="42.202955" lon="14.5638283"><ele>23.5</ele><time>2026-04-27T08:44:17.889Z</time></trkpt><trkpt lat="42.2030217" lon="14.5639"><ele>23.333333333333336</ele><time>2026-04-27T08:44:19.889Z</time></trkpt><trkpt lat="42.2030683" lon="14.5639867"><ele>23.166666666666668</ele><time>2026-04-27T08:44:21.889Z</time></trkpt><trkpt lat="42.2031033" lon="14.56407"><ele>23.0</ele><time>2026-04-27T08:44:23.89Z</time></trkpt><trkpt lat="42.203135" lon="14.56417"><ele>23.0</ele><time>2026-04-27T08:44:25.89Z</time></trkpt><trkpt lat="42.2031617" lon="14.564285"><ele>23.0</ele><time>2026-04-27T08:44:27.89Z</time></trkpt><trkpt lat="42.2031783" lon="14.5644017"><ele>23.0</ele><time>2026-04-27T08:44:29.889Z</time></trkpt><trkpt lat="42.2031783" lon="14.5645067"><ele>23.0</ele><time>2026-04-27T08:44:31.89Z</time></trkpt><trkpt lat="42.203175" lon="14.5646117"><ele>23.0</ele><time>2026-04-27T08:44:33.889Z</time></trkpt><trkpt lat="42.2031733" lon="14.5647383"><ele>23.0</ele><time>2026-04-27T08:44:35.889Z</time></trkpt><trkpt lat="42.2031733" lon="14.5648733"><ele>23.166666666666668</ele><time>2026-04-27T08:44:37.89Z</time></trkpt><trkpt lat="42.203175" lon="14.5650017"><ele>23.333333333333336</ele><time>2026-04-27T08:44:39.889Z</time></trkpt><trkpt lat="42.2031717" lon="14.56512"><ele>23.5</ele><time>2026-04-27T08:44:41.889Z</time></trkpt><trkpt lat="42.2031717" lon="14.565235"><ele>23.666666666666668</ele><time>2026-04-27T08:44:43.89Z</time></trkpt><trkpt lat="42.2031667" lon="14.5653567"><ele>23.833333333333332</ele><time>2026-04-27T08:44:45.89Z</time></trkpt><trkpt lat="42.2031667" lon="14.5654767"><ele>24.0</ele><time>2026-04-27T08:44:47.889Z</time></trkpt><trkpt lat="42.2031617" lon="14.5655967"><ele>24.0</ele><time>2026-04-27T08:44:49.889Z</time></trkpt><trkpt lat="42.20316" lon="14.5657233"><ele>24.0</ele><time>2026-04-27T08:44:51.89Z</time></trkpt><trkpt lat="42.2031483" lon="14.565835"><ele>24.0</ele><time>2026-04-27T08:44:53.89Z</time></trkpt><trkpt lat="42.2031217" lon="14.565945"><ele>24.0</ele><time>2026-04-27T08:44:55.89Z</time></trkpt><trkpt lat="42.2031017" lon="14.5660417"><ele>24.0</ele><time>2026-04-27T08:44:57.89Z</time></trkpt><trkpt lat="42.20311" lon="14.56615"><ele>24.0</ele><time>2026-04-27T08:44:59.89Z</time></trkpt><trkpt lat="42.2031583" lon="14.5662467"><ele>23.833333333333332</ele><time>2026-04-27T08:45:01.889Z</time></trkpt><trkpt lat="42.2032283" lon="14.5663217"><ele>23.666666666666668</ele><time>2026-04-27T08:45:03.89Z</time></trkpt><trkpt lat="42.2032917" lon="14.56639"><ele>23.5</ele><time>2026-04-27T08:45:05.89Z</time></trkpt><trkpt lat="42.2033467" lon="14.5664683"><ele>23.333333333333336</ele><time>2026-04-27T08:45:07.89Z</time></trkpt><trkpt lat="42.2034117" lon="14.5665467"><ele>23.166666666666668</ele><time>2026-04-27T08:45:09.89Z</time></trkpt><trkpt lat="42.20349" lon="14.5666317"><ele>23.0</ele><time>2026-04-27T08:45:11.89Z</time></trkpt><trkpt lat="42.2035667" lon="14.56671"><ele>23.0</ele><time>2026-04-27T08:45:13.889Z</time></trkpt><trkpt lat="42.2036317" lon="14.5667683"><ele>23.0</ele><time>2026-04-27T08:45:15.89Z</time></trkpt><trkpt lat="42.203695" lon="14.5668367"><ele>23.0</ele><time>2026-04-27T08:45:17.889Z</time></trkpt><trkpt lat="42.2037517" lon="14.5669"><ele>23.0</ele><time>2026-04-27T08:45:19.89Z</time></trkpt><trkpt lat="42.2038" lon="14.5669567"><ele>23.0</ele><time>2026-04-27T08:45:21.889Z</time></trkpt><trkpt lat="42.203865" lon="14.5670217"><ele>23.0</ele><time>2026-04-27T08:45:24.89Z</time></trkpt><trkpt lat="42.20392" lon="14.5670817"><ele>23.0</ele><time>2026-04-27T08:45:28.889Z</time></trkpt><trkpt lat="42.2038883" lon="14.5671817"><ele>22.833333333333336</ele><time>2026-04-27T08:45:32.89Z</time></trkpt><trkpt lat="42.2038483" lon="14.5672833"><ele>22.666666666666668</ele><time>2026-04-27T08:45:35.889Z</time></trkpt><trkpt lat="42.20381" lon="14.5673733"><ele>22.5</ele><time>2026-04-27T08:45:37.89Z</time></trkpt><trkpt lat="42.2037833" lon="14.5674817"><ele>22.333333333333332</ele><time>2026-04-27T08:45:39.89Z</time></trkpt><trkpt lat="42.2037717" lon="14.5675717"><ele>22.166666666666664</ele><time>2026-04-27T08:45:41.89Z</time></trkpt><trkpt lat="42.20377" lon="14.5676633"><ele>22.0</ele><time>2026-04-27T08:45:43.89Z</time></trkpt><trkpt lat="42.2037717" lon="14.56776"><ele>22.0</ele><time>2026-04-27T08:45:45.89Z</time></trkpt><trkpt lat="42.20378" lon="14.5678567"><ele>22.0</ele><time>2026-04-27T08:45:47.89Z</time></trkpt><trkpt lat="42.203795" lon="14.567955"><ele>22.0</ele><time>2026-04-27T08:45:49.89Z</time></trkpt><trkpt lat="42.20377" lon="14.5680517"><ele>22.0</ele><time>2026-04-27T08:45:52.889Z</time></trkpt><trkpt lat="42.2036983" lon="14.56813"><ele>22.0</ele><time>2026-04-27T08:45:55.89Z</time></trkpt><trkpt lat="42.2036433" lon="14.5681917"><ele>22.0</ele><time>2026-04-27T08:45:57.889Z</time></trkpt><trkpt lat="42.2035967" lon="14.5682717"><ele>21.833333333333332</ele><time>2026-04-27T08:45:59.89Z</time></trkpt><trkpt lat="42.20357" lon="14.5683617"><ele>21.666666666666664</ele><time>2026-04-27T08:46:01.89Z</time></trkpt><trkpt lat="42.2035467" lon="14.5684483"><ele>21.5</ele><time>2026-04-27T08:46:03.89Z</time></trkpt><trkpt lat="42.20351" lon="14.5685533"><ele>21.333333333333332</ele><time>2026-04-27T08:46:06.89Z</time></trkpt><trkpt lat="42.2034733" lon="14.5686467"><ele>21.166666666666668</ele><time>2026-04-27T08:46:09.89Z</time></trkpt><trkpt lat="42.203405" lon="14.5687133"><ele>21.0</ele><time>2026-04-27T08:46:12.889Z</time></trkpt><trkpt lat="42.20333" lon="14.5687733"><ele>21.0</ele><time>2026-04-27T08:46:15.889Z</time></trkpt><trkpt lat="42.203265" lon="14.5688367"><ele>21.0</ele><time>2026-04-27T08:46:17.889Z</time></trkpt><trkpt lat="42.2031983" lon="14.5688733"><ele>21.0</ele><time>2026-04-27T08:46:19.889Z</time></trkpt><trkpt lat="42.203135" lon="14.5688867"><ele>21.0</ele><time>2026-04-27T08:46:21.89Z</time></trkpt><trkpt lat="42.203065" lon="14.5688817"><ele>21.0</ele><time>2026-04-27T08:46:23.89Z</time></trkpt><trkpt lat="42.202995" lon="14.56887"><ele>21.0</ele><time>2026-04-27T08:46:25.89Z</time></trkpt><trkpt lat="42.2029267" lon="14.56885"><ele>21.0</ele><time>2026-04-27T08:46:27.89Z</time></trkpt><trkpt lat="42.2028533" lon="14.5688317"><ele>21.142857142857142</ele><time>2026-04-27T08:46:29.889Z</time></trkpt><trkpt lat="42.2027783" lon="14.5688067"><ele>21.285714285714285</ele><time>2026-04-27T08:46:31.89Z</time></trkpt><trkpt lat="42.2027117" lon="14.5687867"><ele>21.42857142857143</ele><time>2026-04-27T08:46:33.889Z</time></trkpt><trkpt lat="42.2026483" lon="14.568785"><ele>21.57142857142857</ele><time>2026-04-27T08:46:35.889Z</time></trkpt><trkpt lat="42.2025833" lon="14.5687667"><ele>21.714285714285715</ele><time>2026-04-27T08:46:37.889Z</time></trkpt><trkpt lat="42.2025017" lon="14.5687783"><ele>21.857142857142858</ele><time>2026-04-27T08:46:40.89Z</time></trkpt><trkpt lat="42.2024567" lon="14.568875"><ele>22.0</ele><time>2026-04-27T08:47:00.89Z</time></trkpt><trkpt lat="42.2024433" lon="14.5689717"><ele>22.0</ele><time>2026-04-27T08:47:03.89Z</time></trkpt><trkpt lat="42.20243" lon="14.5690767"><ele>22.0</ele><time>2026-04-27T08:47:06.889Z</time></trkpt><trkpt lat="42.2024267" lon="14.5691633"><ele>22.0</ele><time>2026-04-27T08:47:08.89Z</time></trkpt><trkpt lat="42.2024183" lon="14.56926"><ele>22.0</ele><time>2026-04-27T08:47:10.89Z</time></trkpt><trkpt lat="42.20241" lon="14.569365"><ele>22.0</ele><time>2026-04-27T08:47:12.89Z</time></trkpt><trkpt lat="42.2024" lon="14.5694667"><ele>22.0</ele><time>2026-04-27T08:47:14.889Z</time></trkpt><trkpt lat="42.2023883" lon="14.5695717"><ele>22.0</ele><time>2026-04-27T08:47:16.89Z</time></trkpt><trkpt lat="42.2023833" lon="14.5696867"><ele>21.833333333333332</ele><time>2026-04-27T08:47:18.89Z</time></trkpt><trkpt lat="42.202375" lon="14.5697933"><ele>21.666666666666664</ele><time>2026-04-27T08:47:20.89Z</time></trkpt><trkpt lat="42.2023667" lon="14.56989"><ele>21.5</ele><time>2026-04-27T08:47:22.889Z</time></trkpt><trkpt lat="42.202355" lon="14.569985"><ele>21.333333333333332</ele><time>2026-04-27T08:47:24.89Z</time></trkpt><trkpt lat="42.20234" lon="14.5700983"><ele>21.166666666666668</ele><time>2026-04-27T08:47:26.889Z</time></trkpt><trkpt lat="42.2023267" lon="14.5701967"><ele>21.0</ele><time>2026-04-27T08:47:28.89Z</time></trkpt><trkpt lat="42.2023133" lon="14.5703"><ele>21.0</ele><time>2026-04-27T08:47:30.889Z</time></trkpt><trkpt lat="42.2023033" lon="14.5704117"><ele>21.0</ele><time>2026-04-27T08:47:32.89Z</time></trkpt><trkpt lat="42.2022967" lon="14.5705267"><ele>21.0</ele><time>2026-04-27T08:47:34.89Z</time></trkpt><trkpt lat="42.2022933" lon="14.5706267"><ele>21.0</ele><time>2026-04-27T08:47:36.89Z</time></trkpt><trkpt lat="42.2022867" lon="14.5707267"><ele>21.0</ele><time>2026-04-27T08:47:38.89Z</time></trkpt><trkpt lat="42.2022733" lon="14.5708217"><ele>21.0</ele><time>2026-04-27T08:47:40.89Z</time></trkpt><trkpt lat="42.2022683" lon="14.5709267"><ele>21.0</ele><time>2026-04-27T08:47:42.889Z</time></trkpt><trkpt lat="42.20226" lon="14.5710267"><ele>21.0</ele><time>2026-04-27T08:47:44.89Z</time></trkpt><trkpt lat="42.2022467" lon="14.5711167"><ele>21.0</ele><time>2026-04-27T08:47:46.889Z</time></trkpt><trkpt lat="42.2022317" lon="14.5712117"><ele>21.0</ele><time>2026-04-27T08:47:48.89Z</time></trkpt><trkpt lat="42.2022217" lon="14.5713"><ele>21.0</ele><time>2026-04-27T08:47:50.89Z</time></trkpt><trkpt lat="42.2022017" lon="14.5714267"><ele>21.0</ele><time>2026-04-27T08:47:53.89Z</time></trkpt><trkpt lat="42.2021983" lon="14.5715533"><ele>20.833333333333332</ele><time>2026-04-27T08:47:56.89Z</time></trkpt><trkpt lat="42.202185" lon="14.5716517"><ele>20.666666666666668</ele><time>2026-04-27T08:47:58.89Z</time></trkpt><trkpt lat="42.2021783" lon="14.5717633"><ele>20.5</ele><time>2026-04-27T08:48:00.889Z</time></trkpt><trkpt lat="42.2021683" lon="14.57187"><ele>20.333333333333336</ele><time>2026-04-27T08:48:02.89Z</time></trkpt><trkpt lat="42.202155" lon="14.5719633"><ele>20.166666666666668</ele><time>2026-04-27T08:48:04.89Z</time></trkpt><trkpt lat="42.2021367" lon="14.5720883"><ele>20.0</ele><time>2026-04-27T08:48:07.889Z</time></trkpt><trkpt lat="42.202115" lon="14.572215"><ele>20.0</ele><time>2026-04-27T08:48:10.889Z</time></trkpt><trkpt lat="42.2021083" lon="14.572305"><ele>20.0</ele><time>2026-04-27T08:48:12.889Z</time></trkpt><trkpt lat="42.2021067" lon="14.572405"><ele>20.0</ele><time>2026-04-27T08:48:14.89Z</time></trkpt><trkpt lat="42.2021067" lon="14.5725"><ele>20.0</ele><time>2026-04-27T08:48:16.89Z</time></trkpt><trkpt lat="42.2021033" lon="14.57261"><ele>20.0</ele><time>2026-04-27T08:48:19.89Z</time></trkpt><trkpt lat="42.2020383" lon="14.5726633"><ele>20.0</ele><time>2026-04-27T08:48:23.89Z</time></trkpt><trkpt lat="42.2019617" lon="14.572685"><ele>20.0</ele><time>2026-04-27T08:48:26.89Z</time></trkpt><trkpt lat="42.2018983" lon="14.5726883"><ele>20.0</ele><time>2026-04-27T08:48:28.889Z</time></trkpt><trkpt lat="42.20183" lon="14.5726683"><ele>20.0</ele><time>2026-04-27T08:48:30.89Z</time></trkpt><trkpt lat="42.20176" lon="14.5726417"><ele>20.0</ele><time>2026-04-27T08:48:32.889Z</time></trkpt><trkpt lat="42.2016933" lon="14.57261"><ele>20.0</ele><time>2026-04-27T08:48:34.89Z</time></trkpt><trkpt lat="42.201625" lon="14.5725867"><ele>20.0</ele><time>2026-04-27T08:48:36.89Z</time></trkpt><trkpt lat="42.20156" lon="14.5725433"><ele>20.0</ele><time>2026-04-27T08:48:38.89Z</time></trkpt><trkpt lat="42.201495" lon="14.5725083"><ele>20.0</ele><time>2026-04-27T08:48:40.89Z</time></trkpt><trkpt lat="42.2014267" lon="14.572485"><ele>20.0</ele><time>2026-04-27T08:48:42.89Z</time></trkpt><trkpt lat="42.2013617" lon="14.57246"><ele>20.0</ele><time>2026-04-27T08:48:45.889Z</time></trkpt><trkpt lat="42.2012717" lon="14.572425"><ele>20.0</ele><time>2026-04-27T08:48:48.89Z</time></trkpt><trkpt lat="42.2012117" lon="14.5723983"><ele>20.0</ele><time>2026-04-27T08:48:50.89Z</time></trkpt><trkpt lat="42.20114" lon="14.5723667"><ele>20.0</ele><time>2026-04-27T08:48:52.889Z</time></trkpt><trkpt lat="42.2010733" lon="14.57234"><ele>20.0</ele><time>2026-04-27T08:48:54.89Z</time></trkpt><trkpt lat="42.201005" lon="14.572305"><ele>20.0</ele><time>2026-04-27T08:48:56.89Z</time></trkpt><trkpt lat="42.2009367" lon="14.5722783"><ele>20.0</ele><time>2026-04-27T08:48:58.89Z</time></trkpt><trkpt lat="42.2008717" lon="14.572245"><ele>20.0</ele><time>2026-04-27T08:49:00.89Z</time></trkpt><trkpt lat="42.2008067" lon="14.5722117"><ele>20.0</ele><time>2026-04-27T08:49:02.89Z</time></trkpt><trkpt lat="42.20074" lon="14.5721817"><ele>20.0</ele><time>2026-04-27T08:49:04.89Z</time></trkpt><trkpt lat="42.20068" lon="14.5721517"><ele>20.0</ele><time>2026-04-27T08:49:06.889Z</time></trkpt><trkpt lat="42.200595" lon="14.5720983"><ele>20.0</ele><time>2026-04-27T08:49:09.889Z</time></trkpt><trkpt lat="42.2005233" lon="14.572065"><ele>20.0</ele><time>2026-04-27T08:49:11.89Z</time></trkpt><trkpt lat="42.20046" lon="14.5720333"><ele>20.285714285714285</ele><time>2026-04-27T08:49:13.89Z</time></trkpt><trkpt lat="42.2003933" lon="14.572005"><ele>20.571428571428573</ele><time>2026-04-27T08:49:15.89Z</time></trkpt><trkpt lat="42.200305" lon="14.571975"><ele>20.857142857142858</ele><time>2026-04-27T08:49:18.889Z</time></trkpt><trkpt lat="42.2002367" lon="14.5719417"><ele>21.142857142857142</ele><time>2026-04-27T08:49:20.89Z</time></trkpt><trkpt lat="42.2001717" lon="14.5719067"><ele>21.428571428571427</ele><time>2026-04-27T08:49:22.89Z</time></trkpt><trkpt lat="42.2001117" lon="14.5718783"><ele>21.714285714285715</ele><time>2026-04-27T08:49:24.89Z</time></trkpt><trkpt lat="42.20005" lon="14.5718517"><ele>22.0</ele><time>2026-04-27T08:49:26.89Z</time></trkpt><trkpt lat="42.19998" lon="14.5718167"><ele>22.0</ele><time>2026-04-27T08:49:29.89Z</time></trkpt><trkpt lat="42.1999217" lon="14.5717567"><ele>22.0</ele><time>2026-04-27T08:49:34.89Z</time></trkpt><trkpt lat="42.1998917" lon="14.5716683"><ele>22.0</ele><time>2026-04-27T08:49:38.889Z</time></trkpt><trkpt lat="42.1998767" lon="14.5715667"><ele>22.0</ele><time>2026-04-27T08:49:44.89Z</time></trkpt><trkpt lat="42.199855" lon="14.571455"><ele>22.0</ele><time>2026-04-27T08:50:02.889Z</time></trkpt><trkpt lat="42.1998133" lon="14.57152"><ele>22.0</ele><time>2026-04-27T08:50:06.89Z</time></trkpt><trkpt lat="42.1997917" lon="14.57163"><ele>22.0</ele><time>2026-04-27T08:50:09.889Z</time></trkpt><trkpt lat="42.19981" lon="14.5717167"><ele>22.0</ele><time>2026-04-27T08:50:11.889Z</time></trkpt><trkpt lat="42.1998267" lon="14.5718117"><ele>22.0</ele><time>2026-04-27T08:50:13.889Z</time></trkpt><trkpt lat="42.1998333" lon="14.57191"><ele>22.0</ele><time>2026-04-27T08:50:15.89Z</time></trkpt><trkpt lat="42.19984" lon="14.5720117"><ele>22.0</ele><time>2026-04-27T08:50:17.889Z</time></trkpt><trkpt lat="42.19986" lon="14.5721283"><ele>22.0</ele><time>2026-04-27T08:50:20.89Z</time></trkpt><trkpt lat="42.199875" lon="14.5722233"><ele>22.0</ele><time>2026-04-27T08:50:23.89Z</time></trkpt><trkpt lat="42.199845" lon="14.5723183"><ele>23.0</ele><time>2026-04-27T08:50:29.89Z</time></trkpt><trkpt lat="42.1998083" lon="14.57242"><ele>24.0</ele><time>2026-04-27T08:50:33.889Z</time></trkpt><trkpt lat="42.19978" lon="14.57251"><ele>25.0</ele><time>2026-04-27T08:50:35.89Z</time></trkpt><trkpt lat="42.19976" lon="14.572605"><ele>26.0</ele><time>2026-04-27T08:50:37.889Z</time></trkpt><trkpt lat="42.19975" lon="14.5727117"><ele>27.000000000000004</ele><time>2026-04-27T08:50:39.89Z</time></trkpt><trkpt lat="42.1997567" lon="14.572825"><ele>28.0</ele><time>2026-04-27T08:50:41.89Z</time></trkpt><trkpt lat="42.1997783" lon="14.5729217"><ele>28.142857142857142</ele><time>2026-04-27T08:50:43.89Z</time></trkpt><trkpt lat="42.199795" lon="14.573015"><ele>28.285714285714285</ele><time>2026-04-27T08:50:45.889Z</time></trkpt><trkpt lat="42.19981" lon="14.573105"><ele>28.42857142857143</ele><time>2026-04-27T08:50:47.89Z</time></trkpt><trkpt lat="42.1998217" lon="14.57319"><ele>28.571428571428573</ele><time>2026-04-27T08:50:49.889Z</time></trkpt><trkpt lat="42.1998333" lon="14.5732833"><ele>28.714285714285715</ele><time>2026-04-27T08:50:51.889Z</time></trkpt><trkpt lat="42.1998517" lon="14.5733733"><ele>28.85714285714286</ele><time>2026-04-27T08:50:53.89Z</time></trkpt><trkpt lat="42.1998683" lon="14.5734767"><ele>29.000000000000004</ele><time>2026-04-27T08:50:55.889Z</time></trkpt><trkpt lat="42.1998717" lon="14.5735867"><ele>28.666666666666664</ele><time>2026-04-27T08:50:57.89Z</time></trkpt><trkpt lat="42.1998633" lon="14.57369"><ele>28.333333333333332</ele><time>2026-04-27T08:50:59.89Z</time></trkpt><trkpt lat="42.1998617" lon="14.5738"><ele>28.0</ele><time>2026-04-27T08:51:01.89Z</time></trkpt><trkpt lat="42.1998633" lon="14.5739183"><ele>27.666666666666664</ele><time>2026-04-27T08:51:03.889Z</time></trkpt><trkpt lat="42.1998483" lon="14.5740267"><ele>27.333333333333332</ele><time>2026-04-27T08:51:05.89Z</time></trkpt><trkpt lat="42.1998367" lon="14.574135"><ele>27.0</ele><time>2026-04-27T08:51:07.89Z</time></trkpt><trkpt lat="42.1998317" lon="14.5742467"><ele>27.0</ele><time>2026-04-27T08:51:09.89Z</time></trkpt><trkpt lat="42.1998283" lon="14.5743583"><ele>27.0</ele><time>2026-04-27T08:51:11.89Z</time></trkpt><trkpt lat="42.19982" lon="14.574465"><ele>27.0</ele><time>2026-04-27T08:51:13.89Z</time></trkpt><trkpt lat="42.1998217" lon="14.5745717"><ele>27.0</ele><time>2026-04-27T08:51:15.889Z</time></trkpt><trkpt lat="42.1998217" lon="14.5746783"><ele>27.0</ele><time>2026-04-27T08:51:17.89Z</time></trkpt><trkpt lat="42.1998217" lon="14.574785"><ele>27.0</ele><time>2026-04-27T08:51:19.89Z</time></trkpt><trkpt lat="42.1998217" lon="14.5749"><ele>26.400000000000002</ele><time>2026-04-27T08:51:21.89Z</time></trkpt><trkpt lat="42.1998233" lon="14.5750167"><ele>25.800000000000004</ele><time>2026-04-27T08:51:23.89Z</time></trkpt><trkpt lat="42.1998217" lon="14.5751417"><ele>25.2</ele><time>2026-04-27T08:51:25.89Z</time></trkpt><trkpt lat="42.19982" lon="14.5752767"><ele>24.6</ele><time>2026-04-27T08:51:27.889Z</time></trkpt><trkpt lat="42.1998167" lon="14.5753933"><ele>24.0</ele><time>2026-04-27T08:51:29.889Z</time></trkpt><trkpt lat="42.1998133" lon="14.5755117"><ele>23.833333333333332</ele><time>2026-04-27T08:51:31.889Z</time></trkpt><trkpt lat="42.1998067" lon="14.5756217"><ele>23.666666666666668</ele><time>2026-04-27T08:51:33.89Z</time></trkpt><trkpt lat="42.1998" lon="14.5757283"><ele>23.5</ele><time>2026-04-27T08:51:35.89Z</time></trkpt><trkpt lat="42.199785" lon="14.5758417"><ele>23.333333333333336</ele><time>2026-04-27T08:51:37.89Z</time></trkpt><trkpt lat="42.19977" lon="14.575955"><ele>23.166666666666668</ele><time>2026-04-27T08:51:39.889Z</time></trkpt><trkpt lat="42.1997633" lon="14.5760483"><ele>23.0</ele><time>2026-04-27T08:51:41.89Z</time></trkpt><trkpt lat="42.199815" lon="14.5761233"><ele>22.2</ele><time>2026-04-27T08:51:44.89Z</time></trkpt><trkpt lat="42.1998983" lon="14.5761367"><ele>21.4</ele><time>2026-04-27T08:51:46.89Z</time></trkpt><trkpt lat="42.2000017" lon="14.5761583"><ele>20.599999999999998</ele><time>2026-04-27T08:51:48.89Z</time></trkpt><trkpt lat="42.2001017" lon="14.5761783"><ele>19.799999999999997</ele><time>2026-04-27T08:51:50.889Z</time></trkpt><trkpt lat="42.2002033" lon="14.5761917"><ele>19.0</ele><time>2026-04-27T08:51:52.89Z</time></trkpt><trkpt lat="42.200295" lon="14.5762083"><ele>18.833333333333332</ele><time>2026-04-27T08:51:54.889Z</time></trkpt><trkpt lat="42.2003833" lon="14.5762183"><ele>18.666666666666664</ele><time>2026-04-27T08:51:56.889Z</time></trkpt><trkpt lat="42.2004683" lon="14.576235"><ele>18.5</ele><time>2026-04-27T08:51:58.89Z</time></trkpt><trkpt lat="42.2005517" lon="14.5762567"><ele>18.333333333333332</ele><time>2026-04-27T08:52:00.889Z</time></trkpt><trkpt lat="42.20063" lon="14.5762733"><ele>18.166666666666668</ele><time>2026-04-27T08:52:02.89Z</time></trkpt><trkpt lat="42.200705" lon="14.57629"><ele>18.0</ele><time>2026-04-27T08:52:04.89Z</time></trkpt><trkpt lat="42.20077" lon="14.5762483"><ele>18.000000000000004</ele><time>2026-04-27T08:52:08.89Z</time></trkpt><trkpt lat="42.2008317" lon="14.5761967"><ele>18.0</ele><time>2026-04-27T08:52:11.89Z</time></trkpt><trkpt lat="42.20091" lon="14.5761683"><ele>18.0</ele><time>2026-04-27T08:52:14.89Z</time></trkpt><trkpt lat="42.200975" lon="14.57614"><ele>18.0</ele><time>2026-04-27T08:52:17.89Z</time></trkpt><trkpt lat="42.2010383" lon="14.576135"><ele>18.0</ele><time>2026-04-27T08:52:22.889Z</time></trkpt><trkpt lat="42.2010833" lon="14.5762083"><ele>18.000000000000004</ele><time>2026-04-27T08:52:27.889Z</time></trkpt><trkpt lat="42.2011283" lon="14.5763"><ele>18.0</ele><time>2026-04-27T08:52:31.889Z</time></trkpt><trkpt lat="42.2011917" lon="14.57636"><ele>18.0</ele><time>2026-04-27T08:52:36.89Z</time></trkpt><trkpt lat="42.2011383" lon="14.5762667"><ele>18.0</ele><time>2026-04-27T08:52:52.89Z</time></trkpt><trkpt lat="42.201105" lon="14.57618"><ele>18.0</ele><time>2026-04-27T08:52:55.89Z</time></trkpt><trkpt lat="42.2010667" lon="14.5760883"><ele>18.0</ele><time>2026-04-27T08:52:58.89Z</time></trkpt><trkpt lat="42.2010683" lon="14.5759867"><ele>18.0</ele><time>2026-04-27T08:53:01.89Z</time></trkpt><trkpt lat="42.2010833" lon="14.575875"><ele>18.0</ele><time>2026-04-27T08:53:04.89Z</time></trkpt><trkpt lat="42.2011017" lon="14.575755"><ele>18.0</ele><time>2026-04-27T08:53:07.889Z</time></trkpt><trkpt lat="42.2011083" lon="14.5756283"><ele>18.0</ele><time>2026-04-27T08:53:10.889Z</time></trkpt><trkpt lat="42.2011167" lon="14.57554"><ele>18.0</ele><time>2026-04-27T08:53:12.889Z</time></trkpt><trkpt lat="42.2011317" lon="14.5754483"><ele>18.0</ele><time>2026-04-27T08:53:14.89Z</time></trkpt><trkpt lat="42.2011467" lon="14.575325"><ele>18.0</ele><time>2026-04-27T08:53:17.89Z</time></trkpt><trkpt lat="42.20115" lon="14.57523"><ele>18.0</ele><time>2026-04-27T08:53:19.89Z</time></trkpt><trkpt lat="42.20115" lon="14.5751367"><ele>18.000000000000004</ele><time>2026-04-27T08:53:21.889Z</time></trkpt><trkpt lat="42.2011567" lon="14.57505"><ele>18.0</ele><time>2026-04-27T08:53:23.889Z</time></trkpt><trkpt lat="42.2011567" lon="14.5749617"><ele>18.0</ele><time>2026-04-27T08:53:25.889Z</time></trkpt><trkpt lat="42.20116" lon="14.574865"><ele>18.0</ele><time>2026-04-27T08:53:27.89Z</time></trkpt><trkpt lat="42.2011667" lon="14.5747717"><ele>18.0</ele><time>2026-04-27T08:53:29.89Z</time></trkpt><trkpt lat="42.2011717" lon="14.57467"><ele>18.000000000000004</ele><time>2026-04-27T08:53:31.89Z</time></trkpt><trkpt lat="42.2011833" lon="14.57456"><ele>18.0</ele><time>2026-04-27T08:53:33.89Z</time></trkpt><trkpt lat="42.20119" lon="14.57446"><ele>18.0</ele><time>2026-04-27T08:53:35.89Z</time></trkpt><trkpt lat="42.2012017" lon="14.5743533"><ele>18.0</ele><time>2026-04-27T08:53:37.889Z</time></trkpt><trkpt lat="42.2012067" lon="14.5742517"><ele>18.0</ele><time>2026-04-27T08:53:39.889Z</time></trkpt><trkpt lat="42.201215" lon="14.574145"><ele>18.0</ele><time>2026-04-27T08:53:41.889Z</time></trkpt><trkpt lat="42.2012267" lon="14.5740317"><ele>18.0</ele><time>2026-04-27T08:53:43.89Z</time></trkpt><trkpt lat="42.2012367" lon="14.5739117"><ele>18.0</ele><time>2026-04-27T08:53:45.889Z</time></trkpt><trkpt lat="42.2012417" lon="14.5738133"><ele>18.000000000000004</ele><time>2026-04-27T08:53:47.889Z</time></trkpt><trkpt lat="42.2012517" lon="14.5737267"><ele>18.0</ele><time>2026-04-27T08:53:49.889Z</time></trkpt><trkpt lat="42.2012633" lon="14.57362"><ele>18.0</ele><time>2026-04-27T08:53:52.89Z</time></trkpt><trkpt lat="42.2012733" lon="14.5734983"><ele>18.0</ele><time>2026-04-27T08:53:55.89Z</time></trkpt><trkpt lat="42.2012883" lon="14.5734"><ele>18.0</ele><time>2026-04-27T08:53:57.889Z</time></trkpt><trkpt lat="42.201295" lon="14.5733083"><ele>18.000000000000004</ele><time>2026-04-27T08:53:59.89Z</time></trkpt><trkpt lat="42.201305" lon="14.573215"><ele>18.0</ele><time>2026-04-27T08:54:01.89Z</time></trkpt><trkpt lat="42.2013283" lon="14.5731083"><ele>18.333333333333332</ele><time>2026-04-27T08:54:03.89Z</time></trkpt><trkpt lat="42.20133" lon="14.57301"><ele>18.666666666666668</ele><time>2026-04-27T08:54:05.89Z</time></trkpt><trkpt lat="42.2013367" lon="14.57288"><ele>19.0</ele><time>2026-04-27T08:54:08.89Z</time></trkpt><trkpt lat="42.2013433" lon="14.5727767"><ele>19.333333333333336</ele><time>2026-04-27T08:54:10.89Z</time></trkpt><trkpt lat="42.2013517" lon="14.5726833"><ele>19.666666666666668</ele><time>2026-04-27T08:54:12.89Z</time></trkpt><trkpt lat="42.201365" lon="14.5725767"><ele>20.0</ele><time>2026-04-27T08:54:15.89Z</time></trkpt><trkpt lat="42.2013417" lon="14.5726633"><ele>20.0</ele><time>2026-04-27T08:54:57.889Z</time></trkpt><trkpt lat="42.2013283" lon="14.5727717"><ele>20.0</ele><time>2026-04-27T08:55:00.89Z</time></trkpt><trkpt lat="42.20131" lon="14.5728633"><ele>20.0</ele><time>2026-04-27T08:55:03.89Z</time></trkpt><trkpt lat="42.2012933" lon="14.5729917"><ele>20.0</ele><time>2026-04-27T08:55:06.889Z</time></trkpt><trkpt lat="42.2012833" lon="14.5730867"><ele>20.0</ele><time>2026-04-27T08:55:08.89Z</time></trkpt><trkpt lat="42.2012667" lon="14.57318"><ele>20.0</ele><time>2026-04-27T08:55:10.89Z</time></trkpt><trkpt lat="42.2012483" lon="14.5732817"><ele>20.0</ele><time>2026-04-27T08:55:12.889Z</time></trkpt><trkpt lat="42.2012417" lon="14.573395"><ele>20.0</ele><time>2026-04-27T08:55:14.889Z</time></trkpt><trkpt lat="42.2012333" lon="14.573495"><ele>20.0</ele><time>2026-04-27T08:55:16.89Z</time></trkpt><trkpt lat="42.2012283" lon="14.573585"><ele>20.0</ele><time>2026-04-27T08:55:18.89Z</time></trkpt><trkpt lat="42.2012217" lon="14.573685"><ele>20.0</ele><time>2026-04-27T08:55:20.89Z</time></trkpt><trkpt lat="42.2012167" lon="14.5737883"><ele>20.0</ele><time>2026-04-27T08:55:22.89Z</time></trkpt><trkpt lat="42.2012117" lon="14.5738767"><ele>20.0</ele><time>2026-04-27T08:55:24.889Z</time></trkpt><trkpt lat="42.20121" lon="14.573985"><ele>19.666666666666668</ele><time>2026-04-27T08:55:26.89Z</time></trkpt><trkpt lat="42.2012017" lon="14.5740917"><ele>19.333333333333336</ele><time>2026-04-27T08:55:28.89Z</time></trkpt><trkpt lat="42.2011933" lon="14.5741967"><ele>19.0</ele><time>2026-04-27T08:55:30.89Z</time></trkpt><trkpt lat="42.2011883" lon="14.5742983"><ele>18.666666666666668</ele><time>2026-04-27T08:55:32.89Z</time></trkpt><trkpt lat="42.2011783" lon="14.5744033"><ele>18.333333333333332</ele><time>2026-04-27T08:55:34.889Z</time></trkpt><trkpt lat="42.20117" lon="14.5745033"><ele>18.0</ele><time>2026-04-27T08:55:36.89Z</time></trkpt><trkpt lat="42.2011617" lon="14.574605"><ele>18.0</ele><time>2026-04-27T08:55:38.89Z</time></trkpt><trkpt lat="42.2011533" lon="14.5747183"><ele>18.0</ele><time>2026-04-27T08:55:40.89Z</time></trkpt><trkpt lat="42.2011467" lon="14.574825"><ele>18.0</ele><time>2026-04-27T08:55:42.89Z</time></trkpt><trkpt lat="42.2011467" lon="14.574925"><ele>18.0</ele><time>2026-04-27T08:55:44.889Z</time></trkpt><trkpt lat="42.2011483" lon="14.5750167"><ele>18.0</ele><time>2026-04-27T08:55:46.89Z</time></trkpt><trkpt lat="42.201145" lon="14.5751067"><ele>18.0</ele><time>2026-04-27T08:55:48.89Z</time></trkpt><trkpt lat="42.201135" lon="14.5752167"><ele>18.000000000000004</ele><time>2026-04-27T08:55:50.889Z</time></trkpt><trkpt lat="42.2011267" lon="14.5753117"><ele>18.0</ele><time>2026-04-27T08:55:52.89Z</time></trkpt><trkpt lat="42.201125" lon="14.5753983"><ele>18.0</ele><time>2026-04-27T08:55:54.889Z</time></trkpt><trkpt lat="42.2011167" lon="14.5755"><ele>18.0</ele><time>2026-04-27T08:55:56.89Z</time></trkpt><trkpt lat="42.2011017" lon="14.5756067"><ele>18.0</ele><time>2026-04-27T08:55:58.89Z</time></trkpt><trkpt lat="42.2010917" lon="14.5757117"><ele>18.000000000000004</ele><time>2026-04-27T08:56:00.89Z</time></trkpt><trkpt lat="42.2010783" lon="14.57581"><ele>18.0</ele><time>2026-04-27T08:56:02.89Z</time></trkpt><trkpt lat="42.2010583" lon="14.5758983"><ele>18.000000000000004</ele><time>2026-04-27T08:56:04.89Z</time></trkpt><trkpt lat="42.2010417" lon="14.5759867"><ele>18.0</ele><time>2026-04-27T08:56:06.889Z</time></trkpt><trkpt lat="42.201045" lon="14.57611"><ele>18.0</ele><time>2026-04-27T08:56:09.89Z</time></trkpt><trkpt lat="42.201085" lon="14.5761983"><ele>18.0</ele><time>2026-04-27T08:56:11.889Z</time></trkpt><trkpt lat="42.20113" lon="14.5762867"><ele>18.0</ele><time>2026-04-27T08:56:13.889Z</time></trkpt><trkpt lat="42.20117" lon="14.5763533"><ele>18.000000000000004</ele><time>2026-04-27T08:56:15.89Z</time></trkpt><trkpt lat="42.2012233" lon="14.576415"><ele>18.0</ele><time>2026-04-27T08:56:17.89Z</time></trkpt><trkpt lat="42.2012583" lon="14.5764967"><ele>17.833333333333332</ele><time>2026-04-27T08:56:19.889Z</time></trkpt><trkpt lat="42.201275" lon="14.5765933"><ele>17.666666666666668</ele><time>2026-04-27T08:56:21.889Z</time></trkpt><trkpt lat="42.2012683" lon="14.5766983"><ele>17.5</ele><time>2026-04-27T08:56:23.89Z</time></trkpt><trkpt lat="42.201255" lon="14.576805"><ele>17.333333333333336</ele><time>2026-04-27T08:56:25.889Z</time></trkpt><trkpt lat="42.2012417" lon="14.576905"><ele>17.166666666666668</ele><time>2026-04-27T08:56:27.889Z</time></trkpt><trkpt lat="42.201235" lon="14.5770117"><ele>17.0</ele><time>2026-04-27T08:56:29.89Z</time></trkpt><trkpt lat="42.20122" lon="14.5771083"><ele>17.0</ele><time>2026-04-27T08:56:31.89Z</time></trkpt><trkpt lat="42.2012067" lon="14.5772217"><ele>17.0</ele><time>2026-04-27T08:56:33.889Z</time></trkpt><trkpt lat="42.2011967" lon="14.5773233"><ele>17.0</ele><time>2026-04-27T08:56:35.89Z</time></trkpt><trkpt lat="42.2011867" lon="14.5774267"><ele>17.0</ele><time>2026-04-27T08:56:37.89Z</time></trkpt><trkpt lat="42.2011717" lon="14.5775333"><ele>17.0</ele><time>2026-04-27T08:56:39.89Z</time></trkpt><trkpt lat="42.20116" lon="14.5776533"><ele>17.0</ele><time>2026-04-27T08:56:41.89Z</time></trkpt><trkpt lat="42.2011517" lon="14.577775"><ele>17.166666666666668</ele><time>2026-04-27T08:56:43.89Z</time></trkpt><trkpt lat="42.2011417" lon="14.5778817"><ele>17.333333333333336</ele><time>2026-04-27T08:56:45.89Z</time></trkpt><trkpt lat="42.2011317" lon="14.5779933"><ele>17.5</ele><time>2026-04-27T08:56:47.89Z</time></trkpt><trkpt lat="42.2011283" lon="14.5781083"><ele>17.666666666666668</ele><time>2026-04-27T08:56:49.89Z</time></trkpt><trkpt lat="42.2011183" lon="14.5782117"><ele>17.833333333333332</ele><time>2026-04-27T08:56:51.889Z</time></trkpt><trkpt lat="42.2011133" lon="14.578305"><ele>18.0</ele><time>2026-04-27T08:56:53.89Z</time></trkpt><trkpt lat="42.2011083" lon="14.578415"><ele>18.0</ele><time>2026-04-27T08:56:55.89Z</time></trkpt><trkpt lat="42.2010983" lon="14.5785167"><ele>18.0</ele><time>2026-04-27T08:56:57.89Z</time></trkpt><trkpt lat="42.2010767" lon="14.5786167"><ele>18.0</ele><time>2026-04-27T08:56:59.89Z</time></trkpt><trkpt lat="42.2010533" lon="14.5787267"><ele>18.0</ele><time>2026-04-27T08:57:01.889Z</time></trkpt><trkpt lat="42.2010433" lon="14.5788383"><ele>18.0</ele><time>2026-04-27T08:57:03.89Z</time></trkpt><trkpt lat="42.2010383" lon="14.5789517"><ele>18.0</ele><time>2026-04-27T08:57:05.89Z</time></trkpt><trkpt lat="42.2010317" lon="14.5790733"><ele>17.666666666666668</ele><time>2026-04-27T08:57:07.889Z</time></trkpt><trkpt lat="42.201025" lon="14.5791817"><ele>17.333333333333332</ele><time>2026-04-27T08:57:09.89Z</time></trkpt><trkpt lat="42.2010183" lon="14.5792883"><ele>17.0</ele><time>2026-04-27T08:57:11.89Z</time></trkpt><trkpt lat="42.201005" lon="14.579405"><ele>16.666666666666664</ele><time>2026-04-27T08:57:13.89Z</time></trkpt><trkpt lat="42.2009917" lon="14.579525"><ele>16.333333333333332</ele><time>2026-04-27T08:57:15.89Z</time></trkpt><trkpt lat="42.20099" lon="14.5796417"><ele>16.0</ele><time>2026-04-27T08:57:17.89Z</time></trkpt><trkpt lat="42.2009883" lon="14.57975"><ele>15.999999999999998</ele><time>2026-04-27T08:57:19.89Z</time></trkpt><trkpt lat="42.200975" lon="14.5798733"><ele>16.0</ele><time>2026-04-27T08:57:21.89Z</time></trkpt><trkpt lat="42.2009667" lon="14.5799917"><ele>16.0</ele><time>2026-04-27T08:57:23.89Z</time></trkpt><trkpt lat="42.2009617" lon="14.580105"><ele>16.0</ele><time>2026-04-27T08:57:25.89Z</time></trkpt><trkpt lat="42.20095" lon="14.5802333"><ele>15.999999999999998</ele><time>2026-04-27T08:57:27.889Z</time></trkpt><trkpt lat="42.2009317" lon="14.5803483"><ele>16.0</ele><time>2026-04-27T08:57:29.89Z</time></trkpt><trkpt lat="42.2009267" lon="14.580455"><ele>15.833333333333332</ele><time>2026-04-27T08:57:31.889Z</time></trkpt><trkpt lat="42.200925" lon="14.5805617"><ele>15.666666666666666</ele><time>2026-04-27T08:57:33.89Z</time></trkpt><trkpt lat="42.2009183" lon="14.58068"><ele>15.5</ele><time>2026-04-27T08:57:35.889Z</time></trkpt><trkpt lat="42.2009083" lon="14.5807917"><ele>15.333333333333332</ele><time>2026-04-27T08:57:37.889Z</time></trkpt><trkpt lat="42.200885" lon="14.5808867"><ele>15.166666666666666</ele><time>2026-04-27T08:57:39.89Z</time></trkpt><trkpt lat="42.20086" lon="14.5809783"><ele>15.0</ele><time>2026-04-27T08:57:41.89Z</time></trkpt><trkpt lat="42.2008533" lon="14.5810917"><ele>15.0</ele><time>2026-04-27T08:57:43.89Z</time></trkpt><trkpt lat="42.2008583" lon="14.5812283"><ele>15.0</ele><time>2026-04-27T08:57:45.889Z</time></trkpt><trkpt lat="42.2008733" lon="14.5813533"><ele>15.0</ele><time>2026-04-27T08:57:47.89Z</time></trkpt><trkpt lat="42.200875" lon="14.581465"><ele>15.0</ele><time>2026-04-27T08:57:49.89Z</time></trkpt><trkpt lat="42.2008683" lon="14.58156"><ele>15.0</ele><time>2026-04-27T08:57:51.889Z</time></trkpt><trkpt lat="42.2008683" lon="14.58165"><ele>15.0</ele><time>2026-04-27T08:57:53.89Z</time></trkpt><trkpt lat="42.2008733" lon="14.581745"><ele>15.0</ele><time>2026-04-27T08:57:55.89Z</time></trkpt><trkpt lat="42.2008417" lon="14.5818433"><ele>15.0</ele><time>2026-04-27T08:57:58.89Z</time></trkpt><trkpt lat="42.2008317" lon="14.5819517"><ele>15.0</ele><time>2026-04-27T08:58:01.89Z</time></trkpt><trkpt lat="42.200825" lon="14.5820517"><ele>15.0</ele><time>2026-04-27T08:58:03.889Z</time></trkpt><trkpt lat="42.2008167" lon="14.582175"><ele>15.0</ele><time>2026-04-27T08:58:05.889Z</time></trkpt><trkpt lat="42.2008083" lon="14.5822933"><ele>15.0</ele><time>2026-04-27T08:58:07.889Z</time></trkpt><trkpt lat="42.2008" lon="14.5824"><ele>14.833333333333334</ele><time>2026-04-27T08:58:09.889Z</time></trkpt><trkpt lat="42.20079" lon="14.58251"><ele>14.666666666666668</ele><time>2026-04-27T08:58:11.89Z</time></trkpt><trkpt lat="42.200775" lon="14.58263"><ele>14.5</ele><time>2026-04-27T08:58:13.89Z</time></trkpt><trkpt lat="42.2007667" lon="14.582755"><ele>14.333333333333334</ele><time>2026-04-27T08:58:15.89Z</time></trkpt><trkpt lat="42.2007533" lon="14.582875"><ele>14.166666666666668</ele><time>2026-04-27T08:58:17.889Z</time></trkpt><trkpt lat="42.20074" lon="14.582985"><ele>14.0</ele><time>2026-04-27T08:58:19.889Z</time></trkpt><trkpt lat="42.2007233" lon="14.5830967"><ele>13.833333333333334</ele><time>2026-04-27T08:58:21.89Z</time></trkpt><trkpt lat="42.2007067" lon="14.5831967"><ele>13.666666666666668</ele><time>2026-04-27T08:58:23.89Z</time></trkpt><trkpt lat="42.20069" lon="14.5833"><ele>13.5</ele><time>2026-04-27T08:58:25.889Z</time></trkpt><trkpt lat="42.2006817" lon="14.583405"><ele>13.333333333333332</ele><time>2026-04-27T08:58:27.89Z</time></trkpt><trkpt lat="42.2006783" lon="14.5835167"><ele>13.166666666666666</ele><time>2026-04-27T08:58:29.89Z</time></trkpt><trkpt lat="42.2006683" lon="14.5836283"><ele>13.0</ele><time>2026-04-27T08:58:31.89Z</time></trkpt><trkpt lat="42.200655" lon="14.58372"><ele>12.999999999999998</ele><time>2026-04-27T08:58:33.889Z</time></trkpt><trkpt lat="42.2006467" lon="14.58383"><ele>13.0</ele><time>2026-04-27T08:58:35.889Z</time></trkpt><trkpt lat="42.2006317" lon="14.583935"><ele>13.0</ele><time>2026-04-27T08:58:37.89Z</time></trkpt><trkpt lat="42.2006167" lon="14.5840583"><ele>13.0</ele><time>2026-04-27T08:58:40.889Z</time></trkpt><trkpt lat="42.2006067" lon="14.584155"><ele>12.999999999999998</ele><time>2026-04-27T08:58:42.889Z</time></trkpt><trkpt lat="42.2005917" lon="14.58425"><ele>13.0</ele><time>2026-04-27T08:58:44.89Z</time></trkpt><trkpt lat="42.2005817" lon="14.5843517"><ele>13.0</ele><time>2026-04-27T08:58:46.889Z</time></trkpt><trkpt lat="42.2005717" lon="14.5844567"><ele>13.0</ele><time>2026-04-27T08:58:48.889Z</time></trkpt><trkpt lat="42.2005617" lon="14.5845583"><ele>13.0</ele><time>2026-04-27T08:58:50.89Z</time></trkpt><trkpt lat="42.2005517" lon="14.5846433"><ele>13.0</ele><time>2026-04-27T08:58:52.89Z</time></trkpt><trkpt lat="42.2005183" lon="14.584735"><ele>13.0</ele><time>2026-04-27T08:58:56.889Z</time></trkpt><trkpt lat="42.20044" lon="14.5847417"><ele>13.0</ele><time>2026-04-27T08:58:59.89Z</time></trkpt><trkpt lat="42.2003717" lon="14.5847333"><ele>13.0</ele><time>2026-04-27T08:59:01.889Z</time></trkpt><trkpt lat="42.200305" lon="14.58472"><ele>12.714285714285714</ele><time>2026-04-27T08:59:03.89Z</time></trkpt><trkpt lat="42.2002317" lon="14.5847"><ele>12.428571428571429</ele><time>2026-04-27T08:59:05.89Z</time></trkpt><trkpt lat="42.2001583" lon="14.5846817"><ele>12.142857142857142</ele><time>2026-04-27T08:59:07.89Z</time></trkpt><trkpt lat="42.2000917" lon="14.58467"><ele>11.857142857142858</ele><time>2026-04-27T08:59:09.89Z</time></trkpt><trkpt lat="42.200015" lon="14.5846983"><ele>11.571428571428571</ele><time>2026-04-27T08:59:12.889Z</time></trkpt><trkpt lat="42.1999917" lon="14.584795"><ele>11.285714285714286</ele><time>2026-04-27T08:59:15.89Z</time></trkpt><trkpt lat="42.1999717" lon="14.5848817"><ele>11.0</ele><time>2026-04-27T08:59:19.89Z</time></trkpt><trkpt lat="42.19995" lon="14.5849683"><ele>11.0</ele><time>2026-04-27T08:59:22.89Z</time></trkpt><trkpt lat="42.1999683" lon="14.5850633"><ele>11.0</ele><time>2026-04-27T08:59:25.89Z</time></trkpt><trkpt lat="42.199985" lon="14.5851583"><ele>11.0</ele><time>2026-04-27T08:59:28.889Z</time></trkpt><trkpt lat="42.2000117" lon="14.5852583"><ele>11.0</ele><time>2026-04-27T08:59:31.89Z</time></trkpt><trkpt lat="42.200025" lon="14.5851733"><ele>11.0</ele><time>2026-04-27T09:00:18.89Z</time></trkpt><trkpt lat="42.2000067" lon="14.5850817"><ele>11.0</ele><time>2026-04-27T09:00:22.89Z</time></trkpt><trkpt lat="42.1999783" lon="14.5849983"><ele>11.0</ele><time>2026-04-27T09:00:26.889Z</time></trkpt><trkpt lat="42.2000433" lon="14.58505"><ele>11.0</ele><time>2026-04-27T09:00:56.89Z</time></trkpt><trkpt lat="42.20006" lon="14.5851417"><ele>11.0</ele><time>2026-04-27T09:00:59.89Z</time></trkpt><trkpt lat="42.200075" lon="14.5852467"><ele>11.0</ele><time>2026-04-27T09:01:03.889Z</time></trkpt><trkpt lat="42.2000933" lon="14.5853283"><ele>11.0</ele><time>2026-04-27T09:01:06.889Z</time></trkpt><trkpt lat="42.2001" lon="14.585415"><ele>11.0</ele><time>2026-04-27T09:01:10.89Z</time></trkpt><trkpt lat="42.2001333" lon="14.585505"><ele>11.0</ele><time>2026-04-27T09:01:14.889Z</time></trkpt><trkpt lat="42.2002017" lon="14.5854867"><ele>11.0</ele><time>2026-04-27T09:01:29.89Z</time></trkpt><trkpt lat="42.2002183" lon="14.5853783"><ele>11.0</ele><time>2026-04-27T09:01:33.89Z</time></trkpt><trkpt lat="42.2001817" lon="14.5852883"><ele>11.0</ele><time>2026-04-27T09:01:37.89Z</time></trkpt><trkpt lat="42.200135" lon="14.5852133"><ele>11.0</ele><time>2026-04-27T09:01:41.89Z</time></trkpt><trkpt lat="42.2001067" lon="14.5851317"><ele>11.0</ele><time>2026-04-27T09:01:44.89Z</time></trkpt><trkpt lat="42.20008" lon="14.58505"><ele>11.0</ele><time>2026-04-27T09:01:47.889Z</time></trkpt><trkpt lat="42.20005" lon="14.584965"><ele>11.0</ele><time>2026-04-27T09:01:51.889Z</time></trkpt><trkpt lat="42.199985" lon="14.584925"><ele>11.0</ele><time>2026-04-27T09:01:55.89Z</time></trkpt><trkpt lat="42.1999183" lon="14.5849183"><ele>11.0</ele><time>2026-04-27T09:01:58.89Z</time></trkpt><trkpt lat="42.1998433" lon="14.584905"><ele>11.0</ele><time>2026-04-27T09:02:01.889Z</time></trkpt><trkpt lat="42.1997783" lon="14.584905"><ele>11.0</ele><time>2026-04-27T09:02:04.889Z</time></trkpt><trkpt lat="42.1997017" lon="14.5849133"><ele>11.0</ele><time>2026-04-27T09:02:09.889Z</time></trkpt><trkpt lat="42.1996233" lon="14.5849233"><ele>11.0</ele><time>2026-04-27T09:02:30.89Z</time></trkpt><trkpt lat="42.1995517" lon="14.584925"><ele>11.0</ele><time>2026-04-27T09:02:34.889Z</time></trkpt><trkpt lat="42.199475" lon="14.5849317"><ele>11.0</ele><time>2026-04-27T09:02:38.89Z</time></trkpt><trkpt lat="42.1993983" lon="14.5849333"><ele>12.0</ele><time>2026-04-27T09:02:43.889Z</time></trkpt><trkpt lat="42.1993217" lon="14.5849383"><ele>13.0</ele><time>2026-04-27T09:02:47.889Z</time></trkpt><trkpt lat="42.1992433" lon="14.584955"><ele>14.0</ele><time>2026-04-27T09:02:51.89Z</time></trkpt><trkpt lat="42.1991733" lon="14.5849583"><ele>15.0</ele><time>2026-04-27T09:02:55.89Z</time></trkpt><trkpt lat="42.1990917" lon="14.585025"><ele>16.0</ele><time>2026-04-27T09:03:03.889Z</time></trkpt><trkpt lat="42.1990567" lon="14.58511"><ele>17.0</ele><time>2026-04-27T09:03:07.89Z</time></trkpt><trkpt lat="42.1990067" lon="14.58518"><ele>17.857142857142854</ele><time>2026-04-27T09:03:10.89Z</time></trkpt><trkpt lat="42.1989667" lon="14.5852617"><ele>18.714285714285715</ele><time>2026-04-27T09:03:14.89Z</time></trkpt><trkpt lat="42.19894" lon="14.58537"><ele>19.57142857142857</ele><time>2026-04-27T09:03:17.89Z</time></trkpt><trkpt lat="42.198925" lon="14.58548"><ele>20.428571428571427</ele><time>2026-04-27T09:03:21.889Z</time></trkpt><trkpt lat="42.1989083" lon="14.5855633"><ele>21.285714285714285</ele><time>2026-04-27T09:03:24.89Z</time></trkpt><trkpt lat="42.1989" lon="14.58565"><ele>22.142857142857142</ele><time>2026-04-27T09:03:27.89Z</time></trkpt><trkpt lat="42.1988867" lon="14.5857333"><ele>23.0</ele><time>2026-04-27T09:03:30.889Z</time></trkpt><trkpt lat="42.1988767" lon="14.585845"><ele>23.333333333333336</ele><time>2026-04-27T09:03:33.89Z</time></trkpt><trkpt lat="42.1988767" lon="14.5859533"><ele>23.666666666666668</ele><time>2026-04-27T09:03:36.89Z</time></trkpt><trkpt lat="42.1988717" lon="14.5860383"><ele>24.0</ele><time>2026-04-27T09:03:38.89Z</time></trkpt><trkpt lat="42.1988567" lon="14.5861567"><ele>24.333333333333336</ele><time>2026-04-27T09:03:41.89Z</time></trkpt><trkpt lat="42.198855" lon="14.5862683"><ele>24.666666666666668</ele><time>2026-04-27T09:03:44.89Z</time></trkpt><trkpt lat="42.1988433" lon="14.5863933"><ele>25.0</ele><time>2026-04-27T09:03:47.889Z</time></trkpt><trkpt lat="42.1988283" lon="14.5865183"><ele>25.142857142857146</ele><time>2026-04-27T09:03:50.889Z</time></trkpt><trkpt lat="42.1988217" lon="14.58661"><ele>25.285714285714285</ele><time>2026-04-27T09:03:52.89Z</time></trkpt><trkpt lat="42.198815" lon="14.5866967"><ele>25.42857142857143</ele><time>2026-04-27T09:03:54.89Z</time></trkpt><trkpt lat="42.1988" lon="14.58679"><ele>25.571428571428573</ele><time>2026-04-27T09:03:56.89Z</time></trkpt><trkpt lat="42.19879" lon="14.5868917"><ele>25.714285714285715</ele><time>2026-04-27T09:03:58.89Z</time></trkpt><trkpt lat="42.198785" lon="14.5870033"><ele>25.857142857142858</ele><time>2026-04-27T09:04:00.889Z</time></trkpt><trkpt lat="42.19878" lon="14.5871083"><ele>26.0</ele><time>2026-04-27T09:04:02.89Z</time></trkpt><trkpt lat="42.198775" lon="14.5872083"><ele>25.999999999999996</ele><time>2026-04-27T09:04:04.89Z</time></trkpt><trkpt lat="42.1987683" lon="14.5873067"><ele>26.0</ele><time>2026-04-27T09:04:06.889Z</time></trkpt><trkpt lat="42.19876" lon="14.58741"><ele>26.0</ele><time>2026-04-27T09:04:08.89Z</time></trkpt><trkpt lat="42.1987667" lon="14.587515"><ele>26.0</ele><time>2026-04-27T09:04:10.89Z</time></trkpt><trkpt lat="42.1988017" lon="14.587605"><ele>25.999999999999996</ele><time>2026-04-27T09:04:12.889Z</time></trkpt><trkpt lat="42.198845" lon="14.5877017"><ele>26.0</ele><time>2026-04-27T09:04:14.89Z</time></trkpt><trkpt lat="42.1989183" lon="14.58776"><ele>25.999999999999996</ele><time>2026-04-27T09:04:16.89Z</time></trkpt><trkpt lat="42.198965" lon="14.5878267"><ele>26.0</ele><time>2026-04-27T09:04:18.89Z</time></trkpt><trkpt lat="42.1989733" lon="14.5879217"><ele>26.0</ele><time>2026-04-27T09:04:20.89Z</time></trkpt><trkpt lat="42.1989633" lon="14.5880083"><ele>26.0</ele><time>2026-04-27T09:04:22.89Z</time></trkpt><trkpt lat="42.1989617" lon="14.58812"><ele>25.999999999999996</ele><time>2026-04-27T09:04:24.889Z</time></trkpt><trkpt lat="42.1989667" lon="14.5882633"><ele>26.0</ele><time>2026-04-27T09:04:26.889Z</time></trkpt><trkpt lat="42.1989667" lon="14.588405"><ele>25.999999999999996</ele><time>2026-04-27T09:04:28.89Z</time></trkpt><trkpt lat="42.1989683" lon="14.5885283"><ele>26.0</ele><time>2026-04-27T09:04:30.89Z</time></trkpt><trkpt lat="42.198975" lon="14.5886467"><ele>26.0</ele><time>2026-04-27T09:04:32.89Z</time></trkpt><trkpt lat="42.19898" lon="14.5887567"><ele>26.0</ele><time>2026-04-27T09:04:34.89Z</time></trkpt><trkpt lat="42.1989833" lon="14.588865"><ele>25.999999999999996</ele><time>2026-04-27T09:04:36.89Z</time></trkpt><trkpt lat="42.198985" lon="14.5889733"><ele>26.0</ele><time>2026-04-27T09:04:38.89Z</time></trkpt><trkpt lat="42.1989867" lon="14.589075"><ele>25.333333333333332</ele><time>2026-04-27T09:04:40.889Z</time></trkpt><trkpt lat="42.1989933" lon="14.58918"><ele>24.666666666666664</ele><time>2026-04-27T09:04:43.89Z</time></trkpt><trkpt lat="42.1990467" lon="14.58925"><ele>24.0</ele><time>2026-04-27T09:04:46.889Z</time></trkpt><trkpt lat="42.1991167" lon="14.5892733"><ele>23.333333333333332</ele><time>2026-04-27T09:04:48.89Z</time></trkpt><trkpt lat="42.1992083" lon="14.589275"><ele>22.666666666666664</ele><time>2026-04-27T09:04:50.89Z</time></trkpt><trkpt lat="42.1992933" lon="14.589265"><ele>22.0</ele><time>2026-04-27T09:04:52.89Z</time></trkpt><trkpt lat="42.1993883" lon="14.5892633"><ele>20.200000000000003</ele><time>2026-04-27T09:04:54.89Z</time></trkpt><trkpt lat="42.19949" lon="14.5892617"><ele>18.400000000000002</ele><time>2026-04-27T09:04:56.889Z</time></trkpt><trkpt lat="42.1995967" lon="14.5892567"><ele>16.6</ele><time>2026-04-27T09:04:58.89Z</time></trkpt><trkpt lat="42.19971" lon="14.5892533"><ele>14.8</ele><time>2026-04-27T09:05:00.889Z</time></trkpt><trkpt lat="42.1998267" lon="14.58925"><ele>13.0</ele><time>2026-04-27T09:05:02.889Z</time></trkpt><trkpt lat="42.1999483" lon="14.5892517"><ele>12.499999999999998</ele><time>2026-04-27T09:05:04.889Z</time></trkpt><trkpt lat="42.20006" lon="14.5892517"><ele>12.0</ele><time>2026-04-27T09:05:06.889Z</time></trkpt><trkpt lat="42.2001467" lon="14.5892517"><ele>11.5</ele><time>2026-04-27T09:05:08.89Z</time></trkpt><trkpt lat="42.2002317" lon="14.5892617"><ele>11.0</ele><time>2026-04-27T09:05:11.89Z</time></trkpt><trkpt lat="42.2002567" lon="14.5893417"><ele>10.5</ele><time>2026-04-27T09:05:15.89Z</time></trkpt><trkpt lat="42.2002517" lon="14.5894733"><ele>10.0</ele><time>2026-04-27T09:05:18.89Z</time></trkpt><trkpt lat="42.200255" lon="14.589575"><ele>9.833333333333334</ele><time>2026-04-27T09:05:20.89Z</time></trkpt><trkpt lat="42.200265" lon="14.5896883"><ele>9.666666666666668</ele><time>2026-04-27T09:05:22.89Z</time></trkpt><trkpt lat="42.2002667" lon="14.5898017"><ele>9.5</ele><time>2026-04-27T09:05:24.89Z</time></trkpt><trkpt lat="42.20027" lon="14.5899"><ele>9.333333333333334</ele><time>2026-04-27T09:05:26.89Z</time></trkpt><trkpt lat="42.2002783" lon="14.5899933"><ele>9.166666666666666</ele><time>2026-04-27T09:05:28.889Z</time></trkpt><trkpt lat="42.2002883" lon="14.5900967"><ele>9.0</ele><time>2026-04-27T09:05:30.89Z</time></trkpt><trkpt lat="42.2002983" lon="14.5902017"><ele>9.000000000000002</ele><time>2026-04-27T09:05:32.89Z</time></trkpt><trkpt lat="42.2003067" lon="14.5902933"><ele>9.0</ele><time>2026-04-27T09:05:34.89Z</time></trkpt><trkpt lat="42.2003183" lon="14.5903867"><ele>9.0</ele><time>2026-04-27T09:05:36.89Z</time></trkpt><trkpt lat="42.2003283" lon="14.5904867"><ele>9.0</ele><time>2026-04-27T09:05:38.89Z</time></trkpt><trkpt lat="42.2003383" lon="14.5905883"><ele>9.0</ele><time>2026-04-27T09:05:40.89Z</time></trkpt><trkpt lat="42.2003517" lon="14.590685"><ele>9.000000000000002</ele><time>2026-04-27T09:05:42.89Z</time></trkpt><trkpt lat="42.2003533" lon="14.5907733"><ele>9.0</ele><time>2026-04-27T09:05:44.89Z</time></trkpt><trkpt lat="42.2003483" lon="14.5908617"><ele>8.666666666666666</ele><time>2026-04-27T09:05:46.89Z</time></trkpt><trkpt lat="42.2003367" lon="14.5909783"><ele>8.333333333333334</ele><time>2026-04-27T09:05:49.889Z</time></trkpt><trkpt lat="42.200305" lon="14.5911"><ele>8.0</ele><time>2026-04-27T09:05:52.89Z</time></trkpt><trkpt lat="42.2002733" lon="14.5911783"><ele>7.666666666666667</ele><time>2026-04-27T09:05:54.889Z</time></trkpt><trkpt lat="42.2002467" lon="14.5912933"><ele>7.333333333333334</ele><time>2026-04-27T09:05:57.889Z</time></trkpt><trkpt lat="42.2002017" lon="14.591385"><ele>7.0</ele><time>2026-04-27T09:06:00.89Z</time></trkpt><trkpt lat="42.200125" lon="14.5914417"><ele>7.000000000000001</ele><time>2026-04-27T09:06:03.89Z</time></trkpt><trkpt lat="42.2000383" lon="14.5914633"><ele>7.0</ele><time>2026-04-27T09:06:06.89Z</time></trkpt><trkpt lat="42.1999617" lon="14.591475"><ele>7.0</ele><time>2026-04-27T09:06:09.89Z</time></trkpt><trkpt lat="42.1998883" lon="14.5914833"><ele>7.0</ele><time>2026-04-27T09:06:12.89Z</time></trkpt><trkpt lat="42.1998133" lon="14.5914883"><ele>7.000000000000001</ele><time>2026-04-27T09:06:16.89Z</time></trkpt><trkpt lat="42.1997267" lon="14.591475"><ele>7.0</ele><time>2026-04-27T09:06:21.889Z</time></trkpt><trkpt lat="42.1996533" lon="14.5914567"><ele>8.0</ele><time>2026-04-27T09:06:24.89Z</time></trkpt><trkpt lat="42.19958" lon="14.5914283"><ele>9.0</ele><time>2026-04-27T09:06:27.89Z</time></trkpt><trkpt lat="42.199515" lon="14.5914"><ele>10.0</ele><time>2026-04-27T09:06:30.889Z</time></trkpt><trkpt lat="42.19945" lon="14.5913667"><ele>11.0</ele><time>2026-04-27T09:06:33.89Z</time></trkpt><trkpt lat="42.1993933" lon="14.5914117"><ele>11.999999999999998</ele><time>2026-04-27T09:06:37.889Z</time></trkpt><trkpt lat="42.1994867" lon="14.5915183"><ele>13.0</ele><time>2026-04-27T09:07:42.186Z</time></trkpt><trkpt lat="42.1994183" lon="14.5914817"><ele>12.999999999999998</ele><time>2026-04-27T09:07:46.892Z</time></trkpt><trkpt lat="42.199405" lon="14.59135"><ele>13.0</ele><time>2026-04-27T09:08:03.892Z</time></trkpt><trkpt lat="42.1993967" lon="14.59125"><ele>13.0</ele><time>2026-04-27T09:08:06.892Z</time></trkpt><trkpt lat="42.19938" lon="14.591165"><ele>13.0</ele><time>2026-04-27T09:08:09.891Z</time></trkpt><trkpt lat="42.1993583" lon="14.5910833"><ele>12.999999999999998</ele><time>2026-04-27T09:08:12.892Z</time></trkpt><trkpt lat="42.1993267" lon="14.5909833"><ele>13.0</ele><time>2026-04-27T09:08:16.892Z</time></trkpt><trkpt lat="42.1993033" lon="14.590895"><ele>12.857142857142856</ele><time>2026-04-27T09:08:19.892Z</time></trkpt><trkpt lat="42.1992683" lon="14.5908033"><ele>12.714285714285715</ele><time>2026-04-27T09:08:22.892Z</time></trkpt><trkpt lat="42.1992233" lon="14.5907283"><ele>12.571428571428571</ele><time>2026-04-27T09:08:26.892Z</time></trkpt><trkpt lat="42.19916" lon="14.59069"><ele>12.428571428571427</ele><time>2026-04-27T09:08:31.891Z</time></trkpt><trkpt lat="42.19908" lon="14.5906783"><ele>12.285714285714285</ele><time>2026-04-27T09:08:35.891Z</time></trkpt><trkpt lat="42.199005" lon="14.5906867"><ele>12.142857142857142</ele><time>2026-04-27T09:08:38.89Z</time></trkpt><trkpt lat="42.198935" lon="14.5906867"><ele>12.0</ele><time>2026-04-27T09:08:41.891Z</time></trkpt><trkpt lat="42.1988683" lon="14.59069"><ele>13.285714285714285</ele><time>2026-04-27T09:08:44.891Z</time></trkpt><trkpt lat="42.1987983" lon="14.5907"><ele>14.571428571428571</ele><time>2026-04-27T09:08:48.89Z</time></trkpt><trkpt lat="42.1987167" lon="14.590705"><ele>15.857142857142858</ele><time>2026-04-27T09:08:52.891Z</time></trkpt><trkpt lat="42.1986483" lon="14.590715"><ele>17.142857142857142</ele><time>2026-04-27T09:08:55.891Z</time></trkpt><trkpt lat="42.1985767" lon="14.5907267"><ele>18.428571428571427</ele><time>2026-04-27T09:08:59.891Z</time></trkpt><trkpt lat="42.1985017" lon="14.5907333"><ele>19.714285714285715</ele><time>2026-04-27T09:09:03.89Z</time></trkpt><trkpt lat="42.1984267" lon="14.5907283"><ele>21.0</ele><time>2026-04-27T09:09:07.891Z</time></trkpt><trkpt lat="42.19835" lon="14.5907117"><ele>21.0</ele><time>2026-04-27T09:09:11.89Z</time></trkpt><trkpt lat="42.19828" lon="14.5907033"><ele>21.0</ele><time>2026-04-27T09:09:14.891Z</time></trkpt><trkpt lat="42.198215" lon="14.590705"><ele>21.0</ele><time>2026-04-27T09:09:17.891Z</time></trkpt><trkpt lat="42.1981367" lon="14.5906983"><ele>21.0</ele><time>2026-04-27T09:09:21.891Z</time></trkpt><trkpt lat="42.1980733" lon="14.5906967"><ele>21.0</ele><time>2026-04-27T09:09:24.891Z</time></trkpt><trkpt lat="42.1980033" lon="14.5906967"><ele>21.0</ele><time>2026-04-27T09:09:27.891Z</time></trkpt><trkpt lat="42.197925" lon="14.5906733"><ele>21.0</ele><time>2026-04-27T09:09:31.891Z</time></trkpt><trkpt lat="42.1978433" lon="14.5906667"><ele>22.333333333333332</ele><time>2026-04-27T09:09:35.891Z</time></trkpt><trkpt lat="42.19776" lon="14.5906633"><ele>23.666666666666664</ele><time>2026-04-27T09:09:39.891Z</time></trkpt><trkpt lat="42.1976967" lon="14.5906733"><ele>25.0</ele><time>2026-04-27T09:09:42.891Z</time></trkpt><trkpt lat="42.197625" lon="14.590675"><ele>26.333333333333332</ele><time>2026-04-27T09:09:45.89Z</time></trkpt><trkpt lat="42.1975467" lon="14.5906967"><ele>27.666666666666664</ele><time>2026-04-27T09:09:48.89Z</time></trkpt><trkpt lat="42.197465" lon="14.5907067"><ele>29.0</ele><time>2026-04-27T09:09:51.89Z</time></trkpt><trkpt lat="42.197395" lon="14.590715"><ele>31.499999999999996</ele><time>2026-04-27T09:09:54.89Z</time></trkpt><trkpt lat="42.19733" lon="14.590715"><ele>34.0</ele><time>2026-04-27T09:09:57.891Z</time></trkpt><trkpt lat="42.197245" lon="14.5907133"><ele>36.5</ele><time>2026-04-27T09:10:01.891Z</time></trkpt><trkpt lat="42.1971633" lon="14.5907117"><ele>39.0</ele><time>2026-04-27T09:10:05.891Z</time></trkpt><trkpt lat="42.19709" lon="14.5907167"><ele>41.5</ele><time>2026-04-27T09:10:09.891Z</time></trkpt><trkpt lat="42.197015" lon="14.590715"><ele>44.0</ele><time>2026-04-27T09:10:13.891Z</time></trkpt><trkpt lat="42.196935" lon="14.5907133"><ele>44.0</ele><time>2026-04-27T09:10:17.891Z</time></trkpt><trkpt lat="42.1968567" lon="14.5907133"><ele>44.0</ele><time>2026-04-27T09:10:21.89Z</time></trkpt><trkpt lat="42.1967783" lon="14.5907233"><ele>44.0</ele><time>2026-04-27T09:10:25.891Z</time></trkpt><trkpt lat="42.196715" lon="14.5907183"><ele>44.0</ele><time>2026-04-27T09:10:29.891Z</time></trkpt><trkpt lat="42.196635" lon="14.59072"><ele>44.0</ele><time>2026-04-27T09:10:33.891Z</time></trkpt><trkpt lat="42.1965767" lon="14.5906683"><ele>44.0</ele><time>2026-04-27T09:10:37.891Z</time></trkpt><trkpt lat="42.196545" lon="14.5905917"><ele>44.0</ele><time>2026-04-27T09:10:41.89Z</time></trkpt><trkpt lat="42.1965333" lon="14.5904917"><ele>44.0</ele><time>2026-04-27T09:10:45.89Z</time></trkpt><trkpt lat="42.196515" lon="14.5903983"><ele>44.0</ele><time>2026-04-27T09:10:49.891Z</time></trkpt><trkpt lat="42.1964967" lon="14.5903033"><ele>44.0</ele><time>2026-04-27T09:10:53.891Z</time></trkpt><trkpt lat="42.1964833" lon="14.590195"><ele>44.0</ele><time>2026-04-27T09:10:57.89Z</time></trkpt><trkpt lat="42.1964817" lon="14.5901033"><ele>44.0</ele><time>2026-04-27T09:11:01.891Z</time></trkpt><trkpt lat="42.1964583" lon="14.5900017"><ele>44.0</ele><time>2026-04-27T09:11:05.891Z</time></trkpt><trkpt lat="42.1964367" lon="14.589905"><ele>44.0</ele><time>2026-04-27T09:11:08.891Z</time></trkpt><trkpt lat="42.19643" lon="14.5898117"><ele>48.0</ele><time>2026-04-27T09:11:11.891Z</time></trkpt><trkpt lat="42.1964183" lon="14.5897117"><ele>52.0</ele><time>2026-04-27T09:11:14.89Z</time></trkpt><trkpt lat="42.1963967" lon="14.58962"><ele>56.0</ele><time>2026-04-27T09:11:17.891Z</time></trkpt><trkpt lat="42.19637" lon="14.5895167"><ele>60.0</ele><time>2026-04-27T09:11:21.891Z</time></trkpt><trkpt lat="42.196345" lon="14.5894333"><ele>64.0</ele><time>2026-04-27T09:11:24.89Z</time></trkpt><trkpt lat="42.196325" lon="14.589345"><ele>68.00000000000001</ele><time>2026-04-27T09:11:27.891Z</time></trkpt><trkpt lat="42.1962917" lon="14.5892667"><ele>72.0</ele><time>2026-04-27T09:11:30.89Z</time></trkpt><trkpt lat="42.1962383" lon="14.58922"><ele>72.00000000000001</ele><time>2026-04-27T09:11:32.89Z</time></trkpt><trkpt lat="42.1961667" lon="14.58919"><ele>72.0</ele><time>2026-04-27T09:11:36.89Z</time></trkpt><trkpt lat="42.1961017" lon="14.5891767"><ele>72.0</ele><time>2026-04-27T09:11:39.891Z</time></trkpt><trkpt lat="42.1960417" lon="14.5891483"><ele>72.0</ele><time>2026-04-27T09:11:42.89Z</time></trkpt><trkpt lat="42.19597" lon="14.5891167"><ele>72.0</ele><time>2026-04-27T09:11:46.891Z</time></trkpt><trkpt lat="42.1959333" lon="14.58903"><ele>72.00000000000001</ele><time>2026-04-27T09:11:51.891Z</time></trkpt><trkpt lat="42.1959017" lon="14.588945"><ele>72.0</ele><time>2026-04-27T09:11:54.891Z</time></trkpt><trkpt lat="42.1958783" lon="14.5888483"><ele>72.0</ele><time>2026-04-27T09:11:57.891Z</time></trkpt><trkpt lat="42.1958717" lon="14.5887367"><ele>72.0</ele><time>2026-04-27T09:12:00.891Z</time></trkpt><trkpt lat="42.1958283" lon="14.5886483"><ele>72.0</ele><time>2026-04-27T09:12:03.89Z</time></trkpt><trkpt lat="42.1957933" lon="14.5885633"><ele>72.0</ele><time>2026-04-27T09:12:06.89Z</time></trkpt><trkpt lat="42.1957767" lon="14.5884633"><ele>72.0</ele><time>2026-04-27T09:12:09.89Z</time></trkpt><trkpt lat="42.1957433" lon="14.5883867"><ele>72.0</ele><time>2026-04-27T09:12:12.891Z</time></trkpt><trkpt lat="42.1956967" lon="14.588305"><ele>70.85714285714286</ele><time>2026-04-27T09:12:17.891Z</time></trkpt><trkpt lat="42.195695" lon="14.588215"><ele>69.71428571428572</ele><time>2026-04-27T09:12:33.89Z</time></trkpt><trkpt lat="42.1957117" lon="14.58813"><ele>68.57142857142857</ele><time>2026-04-27T09:12:36.891Z</time></trkpt><trkpt lat="42.1957117" lon="14.5880417"><ele>67.42857142857143</ele><time>2026-04-27T09:12:39.891Z</time></trkpt><trkpt lat="42.195705" lon="14.5879567"><ele>66.28571428571428</ele><time>2026-04-27T09:12:42.891Z</time></trkpt><trkpt lat="42.195645" lon="14.5880117"><ele>65.14285714285714</ele><time>2026-04-27T09:13:24.891Z</time></trkpt><trkpt lat="42.19564" lon="14.5881067"><ele>64.0</ele><time>2026-04-27T09:13:29.891Z</time></trkpt><trkpt lat="42.1956183" lon="14.588195"><ele>67.33333333333333</ele><time>2026-04-27T09:13:32.891Z</time></trkpt><trkpt lat="42.1955983" lon="14.5882883"><ele>70.66666666666666</ele><time>2026-04-27T09:13:35.89Z</time></trkpt><trkpt lat="42.1955683" lon="14.588375"><ele>74.0</ele><time>2026-04-27T09:13:38.891Z</time></trkpt><trkpt lat="42.195535" lon="14.5884717"><ele>77.33333333333333</ele><time>2026-04-27T09:13:41.89Z</time></trkpt><trkpt lat="42.1954817" lon="14.588565"><ele>80.66666666666667</ele><time>2026-04-27T09:13:44.891Z</time></trkpt><trkpt lat="42.1954533" lon="14.588665"><ele>84.0</ele><time>2026-04-27T09:13:48.891Z</time></trkpt><trkpt lat="42.195455" lon="14.5887733"><ele>84.28571428571429</ele><time>2026-04-27T09:13:53.891Z</time></trkpt><trkpt lat="42.1954317" lon="14.58887"><ele>84.57142857142857</ele><time>2026-04-27T09:13:56.891Z</time></trkpt><trkpt lat="42.19543" lon="14.58897"><ele>84.85714285714286</ele><time>2026-04-27T09:13:59.891Z</time></trkpt><trkpt lat="42.1954333" lon="14.58907"><ele>85.14285714285714</ele><time>2026-04-27T09:14:03.89Z</time></trkpt><trkpt lat="42.1954533" lon="14.5891717"><ele>85.42857142857143</ele><time>2026-04-27T09:14:07.891Z</time></trkpt><trkpt lat="42.1954683" lon="14.5892617"><ele>85.71428571428572</ele><time>2026-04-27T09:14:10.891Z</time></trkpt><trkpt lat="42.19549" lon="14.5893567"><ele>86.0</ele><time>2026-04-27T09:14:13.89Z</time></trkpt><trkpt lat="42.1955083" lon="14.589465"><ele>86.14285714285715</ele><time>2026-04-27T09:14:16.891Z</time></trkpt><trkpt lat="42.1955167" lon="14.5895617"><ele>86.28571428571429</ele><time>2026-04-27T09:14:19.891Z</time></trkpt><trkpt lat="42.1955133" lon="14.5896733"><ele>86.42857142857143</ele><time>2026-04-27T09:14:23.89Z</time></trkpt><trkpt lat="42.195515" lon="14.589765"><ele>86.57142857142858</ele><time>2026-04-27T09:14:26.891Z</time></trkpt><trkpt lat="42.1955183" lon="14.5898533"><ele>86.71428571428572</ele><time>2026-04-27T09:14:29.89Z</time></trkpt><trkpt lat="42.195515" lon="14.589955"><ele>86.85714285714286</ele><time>2026-04-27T09:14:32.891Z</time></trkpt><trkpt lat="42.1955083" lon="14.5900683"><ele>87.0</ele><time>2026-04-27T09:14:35.89Z</time></trkpt><trkpt lat="42.1955" lon="14.5901683"><ele>87.0</ele><time>2026-04-27T09:14:38.891Z</time></trkpt><trkpt lat="42.19551" lon="14.590255"><ele>87.0</ele><time>2026-04-27T09:14:41.89Z</time></trkpt><trkpt lat="42.195525" lon="14.590365"><ele>87.0</ele><time>2026-04-27T09:14:44.89Z</time></trkpt><trkpt lat="42.1955333" lon="14.5904567"><ele>87.0</ele><time>2026-04-27T09:14:47.891Z</time></trkpt><trkpt lat="42.19553" lon="14.5905417"><ele>87.0</ele><time>2026-04-27T09:14:50.891Z</time></trkpt><trkpt lat="42.1955233" lon="14.5906483"><ele>87.0</ele><time>2026-04-27T09:14:53.891Z</time></trkpt><trkpt lat="42.1955117" lon="14.59077"><ele>87.16666666666667</ele><time>2026-04-27T09:14:56.891Z</time></trkpt><trkpt lat="42.1954867" lon="14.5908817"><ele>87.33333333333333</ele><time>2026-04-27T09:14:59.891Z</time></trkpt><trkpt lat="42.1954617" lon="14.5909683"><ele>87.5</ele><time>2026-04-27T09:15:02.89Z</time></trkpt><trkpt lat="42.195415" lon="14.5910533"><ele>87.66666666666666</ele><time>2026-04-27T09:15:06.891Z</time></trkpt><trkpt lat="42.1953717" lon="14.5911483"><ele>87.83333333333333</ele><time>2026-04-27T09:15:10.89Z</time></trkpt><trkpt lat="42.1953283" lon="14.591235"><ele>88.0</ele><time>2026-04-27T09:15:13.89Z</time></trkpt><trkpt lat="42.1952933" lon="14.59133"><ele>87.66666666666666</ele><time>2026-04-27T09:15:16.891Z</time></trkpt><trkpt lat="42.1952667" lon="14.5914417"><ele>87.33333333333333</ele><time>2026-04-27T09:15:19.891Z</time></trkpt><trkpt lat="42.1952433" lon="14.59154"><ele>87.0</ele><time>2026-04-27T09:15:22.891Z</time></trkpt><trkpt lat="42.1952233" lon="14.59163"><ele>86.66666666666667</ele><time>2026-04-27T09:15:25.89Z</time></trkpt><trkpt lat="42.1951933" lon="14.5917117"><ele>86.33333333333334</ele><time>2026-04-27T09:15:28.891Z</time></trkpt><trkpt lat="42.1951617" lon="14.5918083"><ele>86.0</ele><time>2026-04-27T09:15:32.89Z</time></trkpt><trkpt lat="42.195135" lon="14.5918967"><ele>86.0</ele><time>2026-04-27T09:15:35.891Z</time></trkpt><trkpt lat="42.1951" lon="14.591975"><ele>86.0</ele><time>2026-04-27T09:15:38.89Z</time></trkpt><trkpt lat="42.195055" lon="14.59205"><ele>86.0</ele><time>2026-04-27T09:15:41.891Z</time></trkpt><trkpt lat="42.1950117" lon="14.5921517"><ele>86.0</ele><time>2026-04-27T09:15:44.89Z</time></trkpt><trkpt lat="42.1949783" lon="14.5922533"><ele>86.0</ele><time>2026-04-27T09:15:47.89Z</time></trkpt><trkpt lat="42.194935" lon="14.59236"><ele>86.0</ele><time>2026-04-27T09:15:50.89Z</time></trkpt><trkpt lat="42.1948967" lon="14.59247"><ele>85.85714285714286</ele><time>2026-04-27T09:15:53.891Z</time></trkpt><trkpt lat="42.194865" lon="14.5925533"><ele>85.71428571428572</ele><time>2026-04-27T09:15:55.891Z</time></trkpt><trkpt lat="42.1948333" lon="14.5926467"><ele>85.57142857142858</ele><time>2026-04-27T09:15:58.891Z</time></trkpt><trkpt lat="42.1947817" lon="14.592745"><ele>85.42857142857143</ele><time>2026-04-27T09:16:01.89Z</time></trkpt><trkpt lat="42.1947517" lon="14.59284"><ele>85.28571428571428</ele><time>2026-04-27T09:16:04.891Z</time></trkpt><trkpt lat="42.1947767" lon="14.5929267"><ele>85.14285714285715</ele><time>2026-04-27T09:16:07.891Z</time></trkpt><trkpt lat="42.1948317" lon="14.5929683"><ele>85.0</ele><time>2026-04-27T09:16:09.89Z</time></trkpt><trkpt lat="42.194915" lon="14.5930217"><ele>85.0</ele><time>2026-04-27T09:16:12.891Z</time></trkpt><trkpt lat="42.1950017" lon="14.593065"><ele>85.0</ele><time>2026-04-27T09:16:15.891Z</time></trkpt><trkpt lat="42.1950967" lon="14.5930933"><ele>85.0</ele><time>2026-04-27T09:16:18.891Z</time></trkpt><trkpt lat="42.1951633" lon="14.5931183"><ele>85.0</ele><time>2026-04-27T09:16:20.891Z</time></trkpt><trkpt lat="42.1952317" lon="14.593145"><ele>85.0</ele><time>2026-04-27T09:16:22.891Z</time></trkpt><trkpt lat="42.1952967" lon="14.5931717"><ele>85.0</ele><time>2026-04-27T09:16:24.891Z</time></trkpt><trkpt lat="42.19537" lon="14.5931967"><ele>85.0</ele><time>2026-04-27T09:16:26.891Z</time></trkpt><trkpt lat="42.1954483" lon="14.5932217"><ele>85.0</ele><time>2026-04-27T09:16:28.89Z</time></trkpt><trkpt lat="42.1955267" lon="14.593255"><ele>85.0</ele><time>2026-04-27T09:16:30.891Z</time></trkpt><trkpt lat="42.1956133" lon="14.5932917"><ele>85.0</ele><time>2026-04-27T09:16:32.891Z</time></trkpt><trkpt lat="42.1957017" lon="14.59333"><ele>85.0</ele><time>2026-04-27T09:16:34.891Z</time></trkpt><trkpt lat="42.1957833" lon="14.5933617"><ele>85.0</ele><time>2026-04-27T09:16:36.89Z</time></trkpt><trkpt lat="42.19586" lon="14.5933883"><ele>84.14285714285715</ele><time>2026-04-27T09:16:38.891Z</time></trkpt><trkpt lat="42.1959333" lon="14.5934117"><ele>83.28571428571428</ele><time>2026-04-27T09:16:40.891Z</time></trkpt><trkpt lat="42.196" lon="14.593435"><ele>82.42857142857143</ele><time>2026-04-27T09:16:42.891Z</time></trkpt><trkpt lat="42.196065" lon="14.5935117"><ele>81.57142857142858</ele><time>2026-04-27T09:16:45.891Z</time></trkpt><trkpt lat="42.1960717" lon="14.593605"><ele>80.71428571428572</ele><time>2026-04-27T09:16:47.891Z</time></trkpt><trkpt lat="42.1960683" lon="14.5936933"><ele>79.85714285714286</ele><time>2026-04-27T09:16:49.89Z</time></trkpt><trkpt lat="42.1960717" lon="14.5937833"><ele>79.0</ele><time>2026-04-27T09:16:51.891Z</time></trkpt><trkpt lat="42.1960683" lon="14.5938967"><ele>79.0</ele><time>2026-04-27T09:16:53.891Z</time></trkpt><trkpt lat="42.196065" lon="14.594035"><ele>79.0</ele><time>2026-04-27T09:16:55.891Z</time></trkpt><trkpt lat="42.1960583" lon="14.5941717"><ele>79.0</ele><time>2026-04-27T09:16:57.891Z</time></trkpt><trkpt lat="42.1960617" lon="14.5943017"><ele>79.0</ele><time>2026-04-27T09:16:59.89Z</time></trkpt><trkpt lat="42.196055" lon="14.594425"><ele>79.0</ele><time>2026-04-27T09:17:01.891Z</time></trkpt><trkpt lat="42.1960617" lon="14.5945383"><ele>78.85714285714286</ele><time>2026-04-27T09:17:03.89Z</time></trkpt><trkpt lat="42.1961117" lon="14.5946083"><ele>78.71428571428572</ele><time>2026-04-27T09:17:05.891Z</time></trkpt><trkpt lat="42.196155" lon="14.59468"><ele>78.57142857142858</ele><time>2026-04-27T09:17:08.89Z</time></trkpt><trkpt lat="42.19613" lon="14.594775"><ele>78.42857142857143</ele><time>2026-04-27T09:17:13.891Z</time></trkpt><trkpt lat="42.19611" lon="14.5948767"><ele>78.28571428571428</ele><time>2026-04-27T09:17:17.891Z</time></trkpt><trkpt lat="42.1961067" lon="14.5949683"><ele>78.14285714285715</ele><time>2026-04-27T09:17:20.891Z</time></trkpt><trkpt lat="42.19613" lon="14.5950517"><ele>78.0</ele><time>2026-04-27T09:17:23.89Z</time></trkpt><trkpt lat="42.1961283" lon="14.5951583"><ele>78.0</ele><time>2026-04-27T09:17:27.89Z</time></trkpt><trkpt lat="42.1961083" lon="14.595245"><ele>78.0</ele><time>2026-04-27T09:17:30.891Z</time></trkpt><trkpt lat="42.1960933" lon="14.59533"><ele>78.0</ele><time>2026-04-27T09:17:33.891Z</time></trkpt><trkpt lat="42.196085" lon="14.595435"><ele>78.0</ele><time>2026-04-27T09:17:37.891Z</time></trkpt><trkpt lat="42.1960933" lon="14.5955283"><ele>78.0</ele><time>2026-04-27T09:17:40.891Z</time></trkpt><trkpt lat="42.196095" lon="14.5956183"><ele>78.0</ele><time>2026-04-27T09:17:43.89Z</time></trkpt><trkpt lat="42.19609" lon="14.5957067"><ele>78.0</ele><time>2026-04-27T09:17:46.891Z</time></trkpt><trkpt lat="42.19608" lon="14.5958167"><ele>77.66666666666667</ele><time>2026-04-27T09:17:49.891Z</time></trkpt><trkpt lat="42.196065" lon="14.59595"><ele>77.33333333333333</ele><time>2026-04-27T09:17:52.89Z</time></trkpt><trkpt lat="42.1960467" lon="14.596065"><ele>77.0</ele><time>2026-04-27T09:17:54.891Z</time></trkpt><trkpt lat="42.196025" lon="14.5961917"><ele>76.66666666666666</ele><time>2026-04-27T09:17:56.891Z</time></trkpt><trkpt lat="42.1960017" lon="14.5963017"><ele>76.33333333333333</ele><time>2026-04-27T09:17:58.891Z</time></trkpt><trkpt lat="42.1959683" lon="14.5963883"><ele>76.0</ele><time>2026-04-27T09:18:00.89Z</time></trkpt><trkpt lat="42.1959283" lon="14.5964667"><ele>75.28571428571428</ele><time>2026-04-27T09:18:02.891Z</time></trkpt><trkpt lat="42.1958817" lon="14.596535"><ele>74.57142857142858</ele><time>2026-04-27T09:18:04.891Z</time></trkpt><trkpt lat="42.19584" lon="14.5966033"><ele>73.85714285714286</ele><time>2026-04-27T09:18:06.891Z</time></trkpt><trkpt lat="42.1958133" lon="14.5966933"><ele>73.14285714285714</ele><time>2026-04-27T09:18:08.891Z</time></trkpt><trkpt lat="42.1957967" lon="14.5967917"><ele>72.42857142857142</ele><time>2026-04-27T09:18:10.89Z</time></trkpt><trkpt lat="42.1957817" lon="14.5968883"><ele>71.71428571428571</ele><time>2026-04-27T09:18:12.89Z</time></trkpt><trkpt lat="42.1957583" lon="14.5969767"><ele>71.0</ele><time>2026-04-27T09:18:14.891Z</time></trkpt><trkpt lat="42.195705" lon="14.5970683"><ele>71.85714285714286</ele><time>2026-04-27T09:18:17.891Z</time></trkpt><trkpt lat="42.195635" lon="14.5970883"><ele>72.71428571428571</ele><time>2026-04-27T09:18:20.89Z</time></trkpt><trkpt lat="42.1955683" lon="14.59709"><ele>73.57142857142857</ele><time>2026-04-27T09:18:25.891Z</time></trkpt><trkpt lat="42.195495" lon="14.5971017"><ele>74.42857142857143</ele><time>2026-04-27T09:18:31.891Z</time></trkpt><trkpt lat="42.1954267" lon="14.59713"><ele>75.28571428571428</ele><time>2026-04-27T09:18:34.89Z</time></trkpt><trkpt lat="42.1953617" lon="14.5972133"><ele>76.14285714285714</ele><time>2026-04-27T09:18:37.891Z</time></trkpt><trkpt lat="42.195335" lon="14.5973"><ele>77.0</ele><time>2026-04-27T09:18:39.891Z</time></trkpt><trkpt lat="42.1953133" lon="14.597405"><ele>77.0</ele><time>2026-04-27T09:18:41.89Z</time></trkpt><trkpt lat="42.1952917" lon="14.5975017"><ele>77.0</ele><time>2026-04-27T09:18:43.89Z</time></trkpt><trkpt lat="42.1952733" lon="14.597585"><ele>77.0</ele><time>2026-04-27T09:18:45.891Z</time></trkpt><trkpt lat="42.1952467" lon="14.5976667"><ele>77.0</ele><time>2026-04-27T09:18:47.891Z</time></trkpt><trkpt lat="42.195245" lon="14.597795"><ele>77.0</ele><time>2026-04-27T09:18:50.891Z</time></trkpt><trkpt lat="42.1952783" lon="14.5979033"><ele>77.0</ele><time>2026-04-27T09:18:53.89Z</time></trkpt><trkpt lat="42.1953283" lon="14.5979583"><ele>77.33333333333334</ele><time>2026-04-27T09:18:55.891Z</time></trkpt><trkpt lat="42.195415" lon="14.5980183"><ele>77.66666666666667</ele><time>2026-04-27T09:18:58.89Z</time></trkpt><trkpt lat="42.19548" lon="14.59805"><ele>78.0</ele><time>2026-04-27T09:19:00.891Z</time></trkpt><trkpt lat="42.1955433" lon="14.59809"><ele>78.33333333333333</ele><time>2026-04-27T09:19:02.891Z</time></trkpt><trkpt lat="42.1956283" lon="14.5981267"><ele>78.66666666666666</ele><time>2026-04-27T09:19:04.891Z</time></trkpt><trkpt lat="42.19572" lon="14.5981533"><ele>79.0</ele><time>2026-04-27T09:19:06.891Z</time></trkpt><trkpt lat="42.19581" lon="14.5981483"><ele>77.8</ele><time>2026-04-27T09:19:08.89Z</time></trkpt><trkpt lat="42.195895" lon="14.59812"><ele>76.60000000000001</ele><time>2026-04-27T09:19:10.89Z</time></trkpt><trkpt lat="42.19599" lon="14.59809"><ele>75.4</ele><time>2026-04-27T09:19:12.89Z</time></trkpt><trkpt lat="42.1960883" lon="14.59806"><ele>74.2</ele><time>2026-04-27T09:19:14.891Z</time></trkpt><trkpt lat="42.1961883" lon="14.5980467"><ele>73.0</ele><time>2026-04-27T09:19:16.891Z</time></trkpt><trkpt lat="42.196275" lon="14.5980333"><ele>73.0</ele><time>2026-04-27T09:19:18.891Z</time></trkpt><trkpt lat="42.19636" lon="14.5980167"><ele>73.0</ele><time>2026-04-27T09:19:20.891Z</time></trkpt><trkpt lat="42.1964283" lon="14.5980133"><ele>73.0</ele><time>2026-04-27T09:19:22.891Z</time></trkpt><trkpt lat="42.1965083" lon="14.598035"><ele>73.0</ele><time>2026-04-27T09:19:25.891Z</time></trkpt><trkpt lat="42.1965933" lon="14.59808"><ele>73.0</ele><time>2026-04-27T09:19:28.891Z</time></trkpt><trkpt lat="42.19666" lon="14.5981533"><ele>73.0</ele><time>2026-04-27T09:19:31.891Z</time></trkpt><trkpt lat="42.1967017" lon="14.5982283"><ele>71.2</ele><time>2026-04-27T09:19:33.89Z</time></trkpt><trkpt lat="42.1967367" lon="14.5983267"><ele>69.4</ele><time>2026-04-27T09:19:35.891Z</time></trkpt><trkpt lat="42.1967817" lon="14.59844"><ele>67.60000000000001</ele><time>2026-04-27T09:19:37.891Z</time></trkpt><trkpt lat="42.1968217" lon="14.5985633"><ele>65.8</ele><time>2026-04-27T09:19:39.891Z</time></trkpt><trkpt lat="42.196855" lon="14.5986867"><ele>64.0</ele><time>2026-04-27T09:19:41.891Z</time></trkpt><trkpt lat="42.1968883" lon="14.5988117"><ele>63.99999999999999</ele><time>2026-04-27T09:19:43.89Z</time></trkpt><trkpt lat="42.1969117" lon="14.5989367"><ele>64.0</ele><time>2026-04-27T09:19:45.89Z</time></trkpt><trkpt lat="42.19693" lon="14.5990667"><ele>64.0</ele><time>2026-04-27T09:19:47.89Z</time></trkpt><trkpt lat="42.19694" lon="14.599175"><ele>64.0</ele><time>2026-04-27T09:19:49.891Z</time></trkpt><trkpt lat="42.1969483" lon="14.5992833"><ele>63.99999999999999</ele><time>2026-04-27T09:19:51.89Z</time></trkpt><trkpt lat="42.1969467" lon="14.5993917"><ele>64.0</ele><time>2026-04-27T09:19:53.891Z</time></trkpt><trkpt lat="42.1969433" lon="14.5995067"><ele>63.166666666666664</ele><time>2026-04-27T09:19:55.891Z</time></trkpt><trkpt lat="42.19693" lon="14.599625"><ele>62.33333333333333</ele><time>2026-04-27T09:19:57.89Z</time></trkpt><trkpt lat="42.19691" lon="14.5997367"><ele>61.5</ele><time>2026-04-27T09:19:59.891Z</time></trkpt><trkpt lat="42.1968933" lon="14.5998433"><ele>60.66666666666667</ele><time>2026-04-27T09:20:01.89Z</time></trkpt><trkpt lat="42.1968783" lon="14.5999417"><ele>59.833333333333336</ele><time>2026-04-27T09:20:03.891Z</time></trkpt><trkpt lat="42.19687" lon="14.60005"><ele>59.0</ele><time>2026-04-27T09:20:05.89Z</time></trkpt><trkpt lat="42.1968733" lon="14.60015"><ele>59.00000000000001</ele><time>2026-04-27T09:20:07.89Z</time></trkpt><trkpt lat="42.196905" lon="14.6002417"><ele>59.0</ele><time>2026-04-27T09:20:09.891Z</time></trkpt><trkpt lat="42.1969633" lon="14.6003117"><ele>59.0</ele><time>2026-04-27T09:20:11.891Z</time></trkpt><trkpt lat="42.1970367" lon="14.6003417"><ele>59.0</ele><time>2026-04-27T09:20:13.891Z</time></trkpt><trkpt lat="42.197115" lon="14.6003167"><ele>59.00000000000001</ele><time>2026-04-27T09:20:15.891Z</time></trkpt><trkpt lat="42.1971783" lon="14.60026"><ele>59.0</ele><time>2026-04-27T09:20:17.891Z</time></trkpt><trkpt lat="42.197235" lon="14.600185"><ele>59.0</ele><time>2026-04-27T09:20:19.891Z</time></trkpt><trkpt lat="42.1972917" lon="14.6001433"><ele>59.0</ele><time>2026-04-27T09:20:21.89Z</time></trkpt><trkpt lat="42.197355" lon="14.6001467"><ele>59.0</ele><time>2026-04-27T09:20:23.89Z</time></trkpt><trkpt lat="42.197425" lon="14.6001767"><ele>59.0</ele><time>2026-04-27T09:20:25.891Z</time></trkpt><trkpt lat="42.1975" lon="14.6001967"><ele>59.0</ele><time>2026-04-27T09:20:27.89Z</time></trkpt><trkpt lat="42.197585" lon="14.6001967"><ele>59.0</ele><time>2026-04-27T09:20:29.891Z</time></trkpt><trkpt lat="42.1976617" lon="14.6001867"><ele>59.0</ele><time>2026-04-27T09:20:31.891Z</time></trkpt><trkpt lat="42.1977417" lon="14.6001783"><ele>55.66666666666667</ele><time>2026-04-27T09:20:34.891Z</time></trkpt><trkpt lat="42.1978067" lon="14.60017"><ele>52.333333333333336</ele><time>2026-04-27T09:20:37.89Z</time></trkpt><trkpt lat="42.1978767" lon="14.60014"><ele>49.0</ele><time>2026-04-27T09:20:39.89Z</time></trkpt><trkpt lat="42.197955" lon="14.6001033"><ele>45.66666666666667</ele><time>2026-04-27T09:20:41.891Z</time></trkpt><trkpt lat="42.19804" lon="14.6000733"><ele>42.333333333333336</ele><time>2026-04-27T09:20:43.891Z</time></trkpt><trkpt lat="42.1981367" lon="14.6000417"><ele>39.0</ele><time>2026-04-27T09:20:45.89Z</time></trkpt><trkpt lat="42.1982567" lon="14.60002"><ele>36.333333333333336</ele><time>2026-04-27T09:20:47.89Z</time></trkpt><trkpt lat="42.1983267" lon="14.60003"><ele>33.666666666666664</ele><time>2026-04-27T09:20:48.891Z</time></trkpt><trkpt lat="42.19839" lon="14.600035"><ele>31.0</ele><time>2026-04-27T09:20:49.891Z</time></trkpt><trkpt lat="42.19849" lon="14.600085"><ele>28.333333333333336</ele><time>2026-04-27T09:20:51.89Z</time></trkpt><trkpt lat="42.198535" lon="14.6001483"><ele>25.666666666666668</ele><time>2026-04-27T09:20:52.891Z</time></trkpt><trkpt lat="42.1985783" lon="14.60023"><ele>23.0</ele><time>2026-04-27T09:20:53.89Z</time></trkpt><trkpt lat="42.1986317" lon="14.6003017"><ele>22.5</ele><time>2026-04-27T09:20:54.891Z</time></trkpt><trkpt lat="42.1986917" lon="14.6003617"><ele>22.0</ele><time>2026-04-27T09:20:55.89Z</time></trkpt><trkpt lat="42.1987483" lon="14.600415"><ele>21.5</ele><time>2026-04-27T09:20:56.891Z</time></trkpt><trkpt lat="42.1988483" lon="14.600515"><ele>21.0</ele><time>2026-04-27T09:20:58.891Z</time></trkpt><trkpt lat="42.1989033" lon="14.60056"><ele>20.5</ele><time>2026-04-27T09:20:59.89Z</time></trkpt><trkpt lat="42.1989983" lon="14.6006367"><ele>20.0</ele><time>2026-04-27T09:21:01.89Z</time></trkpt><trkpt lat="42.1991" lon="14.6006733"><ele>19.0</ele><time>2026-04-27T09:21:03.89Z</time></trkpt><trkpt lat="42.1992033" lon="14.6006383"><ele>18.0</ele><time>2026-04-27T09:21:05.89Z</time></trkpt><trkpt lat="42.1992483" lon="14.6005783"><ele>17.0</ele><time>2026-04-27T09:21:06.891Z</time></trkpt><trkpt lat="42.1993183" lon="14.6004467"><ele>16.0</ele><time>2026-04-27T09:21:08.89Z</time></trkpt><trkpt lat="42.1993483" lon="14.6003717"><ele>15.000000000000002</ele><time>2026-04-27T09:21:09.891Z</time></trkpt><trkpt lat="42.1993917" lon="14.6002567"><ele>14.0</ele><time>2026-04-27T09:21:11.89Z</time></trkpt><trkpt lat="42.1994617" lon="14.6001733"><ele>14.000000000000002</ele><time>2026-04-27T09:21:13.891Z</time></trkpt><trkpt lat="42.199525" lon="14.6002"><ele>14.0</ele><time>2026-04-27T09:21:15.891Z</time></trkpt><trkpt lat="42.199485" lon="14.6003"><ele>14.0</ele><time>2026-04-27T09:21:40.891Z</time></trkpt><trkpt lat="42.1994333" lon="14.6003767"><ele>14.0</ele><time>2026-04-27T09:21:42.891Z</time></trkpt><trkpt lat="42.1993883" lon="14.6004817"><ele>14.000000000000002</ele><time>2026-04-27T09:21:44.89Z</time></trkpt><trkpt lat="42.1993467" lon="14.600605"><ele>14.0</ele><time>2026-04-27T09:21:46.891Z</time></trkpt><trkpt lat="42.1992933" lon="14.6007117"><ele>13.500000000000002</ele><time>2026-04-27T09:21:48.891Z</time></trkpt><trkpt lat="42.1992633" lon="14.600825"><ele>13.0</ele><time>2026-04-27T09:21:50.89Z</time></trkpt><trkpt lat="42.199315" lon="14.60091"><ele>12.5</ele><time>2026-04-27T09:21:52.891Z</time></trkpt><trkpt lat="42.1993767" lon="14.6009433"><ele>12.0</ele><time>2026-04-27T09:21:53.891Z</time></trkpt><trkpt lat="42.19945" lon="14.6009783"><ele>11.5</ele><time>2026-04-27T09:21:54.891Z</time></trkpt><trkpt lat="42.1995267" lon="14.6010183"><ele>11.0</ele><time>2026-04-27T09:21:55.891Z</time></trkpt><trkpt lat="42.1996033" lon="14.6010617"><ele>11.0</ele><time>2026-04-27T09:21:56.891Z</time></trkpt><trkpt lat="42.199675" lon="14.6011117"><ele>11.0</ele><time>2026-04-27T09:21:57.891Z</time></trkpt><trkpt lat="42.1997417" lon="14.60117"><ele>11.0</ele><time>2026-04-27T09:21:58.891Z</time></trkpt><trkpt lat="42.1997967" lon="14.6012317"><ele>11.0</ele><time>2026-04-27T09:21:59.89Z</time></trkpt><trkpt lat="42.1998617" lon="14.6013183"><ele>11.0</ele><time>2026-04-27T09:22:01.891Z</time></trkpt><trkpt lat="42.1999033" lon="14.6013883"><ele>11.0</ele><time>2026-04-27T09:22:03.891Z</time></trkpt><trkpt lat="42.1999567" lon="14.6014817"><ele>9.833333333333332</ele><time>2026-04-27T09:22:06.89Z</time></trkpt><trkpt lat="42.199995" lon="14.60155"><ele>8.666666666666666</ele><time>2026-04-27T09:22:08.89Z</time></trkpt><trkpt lat="42.2000333" lon="14.6016333"><ele>7.5</ele><time>2026-04-27T09:22:10.891Z</time></trkpt><trkpt lat="42.2000833" lon="14.601725"><ele>6.333333333333333</ele><time>2026-04-27T09:22:12.891Z</time></trkpt><trkpt lat="42.2001417" lon="14.6018283"><ele>5.166666666666666</ele><time>2026-04-27T09:22:14.89Z</time></trkpt><trkpt lat="42.2001867" lon="14.6019383"><ele>4.0</ele><time>2026-04-27T09:22:16.89Z</time></trkpt><trkpt lat="42.20024" lon="14.6020433"><ele>4.0</ele><time>2026-04-27T09:22:18.891Z</time></trkpt><trkpt lat="42.2002933" lon="14.60215"><ele>4.0</ele><time>2026-04-27T09:22:20.891Z</time></trkpt><trkpt lat="42.2003483" lon="14.6022617"><ele>4.0</ele><time>2026-04-27T09:22:22.891Z</time></trkpt><trkpt lat="42.2004117" lon="14.6023667"><ele>4.0</ele><time>2026-04-27T09:22:24.891Z</time></trkpt><trkpt lat="42.200475" lon="14.6024767"><ele>4.0</ele><time>2026-04-27T09:22:26.89Z</time></trkpt><trkpt lat="42.2005267" lon="14.6025833"><ele>4.0</ele><time>2026-04-27T09:22:28.891Z</time></trkpt><trkpt lat="42.2005767" lon="14.6026933"><ele>4.0</ele><time>2026-04-27T09:22:30.89Z</time></trkpt><trkpt lat="42.20063" lon="14.6028067"><ele>4.0</ele><time>2026-04-27T09:22:32.891Z</time></trkpt><trkpt lat="42.2006867" lon="14.6029167"><ele>4.0</ele><time>2026-04-27T09:22:34.891Z</time></trkpt><trkpt lat="42.20074" lon="14.6030133"><ele>4.0</ele><time>2026-04-27T09:22:36.891Z</time></trkpt><trkpt lat="42.2007817" lon="14.603115"><ele>3.6</ele><time>2026-04-27T09:22:38.891Z</time></trkpt><trkpt lat="42.2008333" lon="14.6032133"><ele>3.2</ele><time>2026-04-27T09:22:40.891Z</time></trkpt><trkpt lat="42.2008883" lon="14.603335"><ele>2.8000000000000003</ele><time>2026-04-27T09:22:42.891Z</time></trkpt><trkpt lat="42.200935" lon="14.60346"><ele>2.4000000000000004</ele><time>2026-04-27T09:22:44.891Z</time></trkpt><trkpt lat="42.20099" lon="14.6035733"><ele>2.0</ele><time>2026-04-27T09:22:46.89Z</time></trkpt><trkpt lat="42.2010567" lon="14.60369"><ele>1.8</ele><time>2026-04-27T09:22:48.891Z</time></trkpt><trkpt lat="42.2011267" lon="14.6037917"><ele>1.6</ele><time>2026-04-27T09:22:50.891Z</time></trkpt><trkpt lat="42.2011883" lon="14.6038817"><ele>1.4000000000000001</ele><time>2026-04-27T09:22:52.891Z</time></trkpt><trkpt lat="42.20125" lon="14.6039817"><ele>1.2000000000000002</ele><time>2026-04-27T09:22:54.891Z</time></trkpt><trkpt lat="42.2013267" lon="14.6040683"><ele>1.0</ele><time>2026-04-27T09:22:56.89Z</time></trkpt><trkpt lat="42.2014" lon="14.6041567"><ele>1.0</ele><time>2026-04-27T09:22:58.89Z</time></trkpt><trkpt lat="42.2014767" lon="14.604245"><ele>1.0</ele><time>2026-04-27T09:23:00.891Z</time></trkpt><trkpt lat="42.2015367" lon="14.604325"><ele>1.0</ele><time>2026-04-27T09:23:02.891Z</time></trkpt><trkpt lat="42.2016017" lon="14.6044167"><ele>1.0</ele><time>2026-04-27T09:23:04.891Z</time></trkpt><trkpt lat="42.201665" lon="14.6045033"><ele>1.0</ele><time>2026-04-27T09:23:06.89Z</time></trkpt><trkpt lat="42.2017283" lon="14.6045817"><ele>1.1666666666666665</ele><time>2026-04-27T09:23:08.891Z</time></trkpt><trkpt lat="42.2017883" lon="14.6046633"><ele>1.3333333333333333</ele><time>2026-04-27T09:23:10.891Z</time></trkpt><trkpt lat="42.2018417" lon="14.6047383"><ele>1.5</ele><time>2026-04-27T09:23:12.891Z</time></trkpt><trkpt lat="42.2018883" lon="14.6048133"><ele>1.6666666666666665</ele><time>2026-04-27T09:23:14.891Z</time></trkpt><trkpt lat="42.201935" lon="14.6048783"><ele>1.8333333333333333</ele><time>2026-04-27T09:23:16.89Z</time></trkpt><trkpt lat="42.2019867" lon="14.60495"><ele>2.0</ele><time>2026-04-27T09:23:18.89Z</time></trkpt><trkpt lat="42.2020467" lon="14.6050467"><ele>1.9999999999999998</ele><time>2026-04-27T09:23:20.89Z</time></trkpt><trkpt lat="42.2021367" lon="14.6051133"><ele>2.0</ele><time>2026-04-27T09:23:22.891Z</time></trkpt><trkpt lat="42.2022117" lon="14.605175"><ele>2.0</ele><time>2026-04-27T09:23:24.891Z</time></trkpt><trkpt lat="42.2022683" lon="14.605245"><ele>2.0</ele><time>2026-04-27T09:23:26.891Z</time></trkpt><trkpt lat="42.2023317" lon="14.6053217"><ele>1.9999999999999998</ele><time>2026-04-27T09:23:28.891Z</time></trkpt><trkpt lat="42.2024" lon="14.605405"><ele>2.0</ele><time>2026-04-27T09:23:30.89Z</time></trkpt><trkpt lat="42.2024633" lon="14.6054817"><ele>1.8</ele><time>2026-04-27T09:23:32.891Z</time></trkpt><trkpt lat="42.2025383" lon="14.6055617"><ele>1.6</ele><time>2026-04-27T09:23:34.891Z</time></trkpt><trkpt lat="42.202615" lon="14.60563"><ele>1.4000000000000001</ele><time>2026-04-27T09:23:36.891Z</time></trkpt><trkpt lat="42.2026933" lon="14.6057"><ele>1.2000000000000002</ele><time>2026-04-27T09:23:38.891Z</time></trkpt><trkpt lat="42.202775" lon="14.6057433"><ele>1.0</ele><time>2026-04-27T09:23:40.89Z</time></trkpt><trkpt lat="42.2028567" lon="14.60579"><ele>1.0</ele><time>2026-04-27T09:23:42.891Z</time></trkpt><trkpt lat="42.2029483" lon="14.6058483"><ele>1.0</ele><time>2026-04-27T09:23:44.89Z</time></trkpt><trkpt lat="42.2030383" lon="14.6059017"><ele>1.0</ele><time>2026-04-27T09:23:46.89Z</time></trkpt><trkpt lat="42.2031317" lon="14.6059467"><ele>1.0</ele><time>2026-04-27T09:23:48.89Z</time></trkpt><trkpt lat="42.2032217" lon="14.6059917"><ele>1.0</ele><time>2026-04-27T09:23:50.89Z</time></trkpt><trkpt lat="42.203295" lon="14.606055"><ele>1.0</ele><time>2026-04-27T09:23:52.891Z</time></trkpt><trkpt lat="42.2032933" lon="14.6061483"><ele>0.9999999999999999</ele><time>2026-04-27T09:23:54.89Z</time></trkpt><trkpt lat="42.20324" lon="14.60622"><ele>1.0</ele><time>2026-04-27T09:23:56.891Z</time></trkpt><trkpt lat="42.203245" lon="14.606325"><ele>1.0</ele><time>2026-04-27T09:23:59.891Z</time></trkpt><trkpt lat="42.2033083" lon="14.606345"><ele>0.9999999999999999</ele><time>2026-04-27T09:24:02.89Z</time></trkpt><trkpt lat="42.20338" lon="14.60635"><ele>1.0</ele><time>2026-04-27T09:24:05.891Z</time></trkpt><trkpt lat="42.2034383" lon="14.6063917"><ele>1.0</ele><time>2026-04-27T09:24:10.891Z</time></trkpt><trkpt lat="42.20339" lon="14.60648"><ele>0.9999999999999999</ele><time>2026-04-27T09:24:13.891Z</time></trkpt><trkpt lat="42.2033583" lon="14.6065567"><ele>1.0</ele><time>2026-04-27T09:24:15.891Z</time></trkpt><trkpt lat="42.2033183" lon="14.60665"><ele>1.0</ele><time>2026-04-27T09:24:17.891Z</time></trkpt><trkpt lat="42.20328" lon="14.6067433"><ele>1.0</ele><time>2026-04-27T09:24:19.891Z</time></trkpt><trkpt lat="42.2032417" lon="14.606835"><ele>0.9999999999999999</ele><time>2026-04-27T09:24:21.891Z</time></trkpt><trkpt lat="42.2031983" lon="14.6069333"><ele>1.0</ele><time>2026-04-27T09:24:23.891Z</time></trkpt><trkpt lat="42.20315" lon="14.6070233"><ele>1.4</ele><time>2026-04-27T09:24:25.891Z</time></trkpt><trkpt lat="42.2031017" lon="14.6071283"><ele>1.8</ele><time>2026-04-27T09:24:27.891Z</time></trkpt><trkpt lat="42.20305" lon="14.6072433"><ele>2.1999999999999997</ele><time>2026-04-27T09:24:29.89Z</time></trkpt><trkpt lat="42.203" lon="14.6073483"><ele>2.6</ele><time>2026-04-27T09:24:31.89Z</time></trkpt><trkpt lat="42.20295" lon="14.6074583"><ele>3.0</ele><time>2026-04-27T09:24:33.891Z</time></trkpt><trkpt lat="42.2029117" lon="14.6075633"><ele>3.0</ele><time>2026-04-27T09:24:35.891Z</time></trkpt><trkpt lat="42.2028633" lon="14.6076667"><ele>3.0</ele><time>2026-04-27T09:24:37.891Z</time></trkpt><trkpt lat="42.20281" lon="14.6077717"><ele>3.0</ele><time>2026-04-27T09:24:39.891Z</time></trkpt><trkpt lat="42.2027583" lon="14.6078733"><ele>3.0</ele><time>2026-04-27T09:24:41.89Z</time></trkpt><trkpt lat="42.2027083" lon="14.6079867"><ele>3.0</ele><time>2026-04-27T09:24:43.89Z</time></trkpt><trkpt lat="42.2026717" lon="14.60811"><ele>3.1666666666666665</ele><time>2026-04-27T09:24:45.89Z</time></trkpt><trkpt lat="42.202635" lon="14.608215"><ele>3.333333333333333</ele><time>2026-04-27T09:24:47.89Z</time></trkpt><trkpt lat="42.2025817" lon="14.6083217"><ele>3.5</ele><time>2026-04-27T09:24:49.891Z</time></trkpt><trkpt lat="42.2025283" lon="14.6084333"><ele>3.6666666666666665</ele><time>2026-04-27T09:24:51.89Z</time></trkpt><trkpt lat="42.202485" lon="14.6085283"><ele>3.833333333333333</ele><time>2026-04-27T09:24:53.891Z</time></trkpt><trkpt lat="42.202445" lon="14.6086267"><ele>4.0</ele><time>2026-04-27T09:24:55.89Z</time></trkpt><trkpt lat="42.2024083" lon="14.608735"><ele>4.166666666666666</ele><time>2026-04-27T09:24:57.89Z</time></trkpt><trkpt lat="42.2023717" lon="14.6088367"><ele>4.333333333333333</ele><time>2026-04-27T09:24:59.89Z</time></trkpt><trkpt lat="42.202335" lon="14.608935"><ele>4.5</ele><time>2026-04-27T09:25:01.89Z</time></trkpt><trkpt lat="42.2022933" lon="14.6090467"><ele>4.666666666666667</ele><time>2026-04-27T09:25:03.891Z</time></trkpt><trkpt lat="42.2022517" lon="14.6091567"><ele>4.833333333333334</ele><time>2026-04-27T09:25:05.891Z</time></trkpt><trkpt lat="42.2022017" lon="14.6092633"><ele>5.0</ele><time>2026-04-27T09:25:07.891Z</time></trkpt><trkpt lat="42.2021567" lon="14.6093733"><ele>4.6</ele><time>2026-04-27T09:25:09.891Z</time></trkpt><trkpt lat="42.2021133" lon="14.6094867"><ele>4.2</ele><time>2026-04-27T09:25:11.891Z</time></trkpt><trkpt lat="42.202065" lon="14.6095983"><ele>3.8</ele><time>2026-04-27T09:25:13.891Z</time></trkpt><trkpt lat="42.2020233" lon="14.6097067"><ele>3.4</ele><time>2026-04-27T09:25:15.891Z</time></trkpt><trkpt lat="42.201985" lon="14.6098133"><ele>3.0</ele><time>2026-04-27T09:25:17.891Z</time></trkpt><trkpt lat="42.20196" lon="14.6099383"><ele>3.0</ele><time>2026-04-27T09:25:19.89Z</time></trkpt><trkpt lat="42.20196" lon="14.61009"><ele>3.0</ele><time>2026-04-27T09:25:21.89Z</time></trkpt><trkpt lat="42.2019567" lon="14.610265"><ele>3.0</ele><time>2026-04-27T09:25:23.891Z</time></trkpt><trkpt lat="42.201955" lon="14.6103633"><ele>3.0</ele><time>2026-04-27T09:25:24.89Z</time></trkpt><trkpt lat="42.2019533" lon="14.6104583"><ele>3.0</ele><time>2026-04-27T09:25:25.89Z</time></trkpt><trkpt lat="42.2019367" lon="14.6105517"><ele>3.3333333333333335</ele><time>2026-04-27T09:25:26.891Z</time></trkpt><trkpt lat="42.2019067" lon="14.6106383"><ele>3.666666666666667</ele><time>2026-04-27T09:25:27.891Z</time></trkpt><trkpt lat="42.201875" lon="14.6107233"><ele>4.0</ele><time>2026-04-27T09:25:28.891Z</time></trkpt><trkpt lat="42.201845" lon="14.6107983"><ele>4.333333333333334</ele><time>2026-04-27T09:25:29.891Z</time></trkpt><trkpt lat="42.2017983" lon="14.610945"><ele>4.666666666666667</ele><time>2026-04-27T09:25:31.891Z</time></trkpt><trkpt lat="42.2017433" lon="14.6110833"><ele>5.0</ele><time>2026-04-27T09:25:33.891Z</time></trkpt><trkpt lat="42.2016933" lon="14.6112117"><ele>5.0</ele><time>2026-04-27T09:25:35.891Z</time></trkpt><trkpt lat="42.201645" lon="14.6113417"><ele>5.0</ele><time>2026-04-27T09:25:37.89Z</time></trkpt><trkpt lat="42.2016033" lon="14.6114833"><ele>5.0</ele><time>2026-04-27T09:25:39.891Z</time></trkpt><trkpt lat="42.2015617" lon="14.61162"><ele>5.0</ele><time>2026-04-27T09:25:41.891Z</time></trkpt><trkpt lat="42.2015267" lon="14.611745"><ele>5.0</ele><time>2026-04-27T09:25:43.891Z</time></trkpt><trkpt lat="42.2014917" lon="14.61188"><ele>5.2</ele><time>2026-04-27T09:25:45.891Z</time></trkpt><trkpt lat="42.20146" lon="14.6120067"><ele>5.4</ele><time>2026-04-27T09:25:47.891Z</time></trkpt><trkpt lat="42.2014217" lon="14.6121283"><ele>5.6</ele><time>2026-04-27T09:25:49.891Z</time></trkpt><trkpt lat="42.2013767" lon="14.61226"><ele>5.8</ele><time>2026-04-27T09:25:51.891Z</time></trkpt><trkpt lat="42.2013367" lon="14.6123883"><ele>6.0</ele><time>2026-04-27T09:25:53.89Z</time></trkpt><trkpt lat="42.2012983" lon="14.6125183"><ele>6.0</ele><time>2026-04-27T09:25:55.891Z</time></trkpt><trkpt lat="42.201265" lon="14.6126433"><ele>6.0</ele><time>2026-04-27T09:25:57.891Z</time></trkpt><trkpt lat="42.2012333" lon="14.61276"><ele>6.0</ele><time>2026-04-27T09:25:59.891Z</time></trkpt><trkpt lat="42.2012083" lon="14.6128633"><ele>6.0</ele><time>2026-04-27T09:26:01.891Z</time></trkpt><trkpt lat="42.2011633" lon="14.6129533"><ele>6.0</ele><time>2026-04-27T09:26:03.891Z</time></trkpt><trkpt lat="42.2011067" lon="14.6130617"><ele>6.166666666666667</ele><time>2026-04-27T09:26:05.89Z</time></trkpt><trkpt lat="42.2010767" lon="14.6131767"><ele>6.333333333333334</ele><time>2026-04-27T09:26:07.89Z</time></trkpt><trkpt lat="42.2010367" lon="14.6132783"><ele>6.5</ele><time>2026-04-27T09:26:09.891Z</time></trkpt><trkpt lat="42.201005" lon="14.6133767"><ele>6.666666666666667</ele><time>2026-04-27T09:26:11.891Z</time></trkpt><trkpt lat="42.200975" lon="14.613475"><ele>6.833333333333334</ele><time>2026-04-27T09:26:13.891Z</time></trkpt><trkpt lat="42.20094" lon="14.6135833"><ele>7.0</ele><time>2026-04-27T09:26:15.89Z</time></trkpt><trkpt lat="42.20091" lon="14.6136917"><ele>6.666666666666667</ele><time>2026-04-27T09:26:17.891Z</time></trkpt><trkpt lat="42.2008783" lon="14.61379"><ele>6.333333333333334</ele><time>2026-04-27T09:26:19.89Z</time></trkpt><trkpt lat="42.2008467" lon="14.6138883"><ele>6.0</ele><time>2026-04-27T09:26:21.891Z</time></trkpt><trkpt lat="42.2008217" lon="14.6139867"><ele>5.666666666666667</ele><time>2026-04-27T09:26:23.891Z</time></trkpt><trkpt lat="42.2007967" lon="14.6140783"><ele>5.333333333333334</ele><time>2026-04-27T09:26:25.891Z</time></trkpt><trkpt lat="42.2007717" lon="14.6141833"><ele>5.0</ele><time>2026-04-27T09:26:27.891Z</time></trkpt><trkpt lat="42.2007417" lon="14.6142967"><ele>5.0</ele><time>2026-04-27T09:26:29.891Z</time></trkpt><trkpt lat="42.2007133" lon="14.614415"><ele>5.0</ele><time>2026-04-27T09:26:31.891Z</time></trkpt><trkpt lat="42.2006883" lon="14.6145317"><ele>5.0</ele><time>2026-04-27T09:26:33.89Z</time></trkpt><trkpt lat="42.2006767" lon="14.6146583"><ele>5.0</ele><time>2026-04-27T09:26:35.891Z</time></trkpt><trkpt lat="42.20068" lon="14.6148"><ele>5.0</ele><time>2026-04-27T09:26:37.891Z</time></trkpt><trkpt lat="42.2006567" lon="14.6149283"><ele>4.833333333333334</ele><time>2026-04-27T09:26:39.891Z</time></trkpt><trkpt lat="42.2006117" lon="14.615045"><ele>4.666666666666667</ele><time>2026-04-27T09:26:41.891Z</time></trkpt><trkpt lat="42.200565" lon="14.6151383"><ele>4.5</ele><time>2026-04-27T09:26:43.89Z</time></trkpt><trkpt lat="42.2005117" lon="14.6152117"><ele>4.333333333333333</ele><time>2026-04-27T09:26:45.891Z</time></trkpt><trkpt lat="42.200465" lon="14.61527"><ele>4.166666666666666</ele><time>2026-04-27T09:26:47.89Z</time></trkpt><trkpt lat="42.2004283" lon="14.6153517"><ele>4.0</ele><time>2026-04-27T09:26:49.89Z</time></trkpt><trkpt lat="42.2004117" lon="14.615455"><ele>3.9999999999999996</ele><time>2026-04-27T09:26:52.89Z</time></trkpt><trkpt lat="42.2003567" lon="14.6155333"><ele>4.0</ele><time>2026-04-27T09:26:56.891Z</time></trkpt><trkpt lat="42.200295" lon="14.6156133"><ele>4.0</ele><time>2026-04-27T09:26:59.891Z</time></trkpt><trkpt lat="42.2002667" lon="14.61571"><ele>4.0</ele><time>2026-04-27T09:27:02.891Z</time></trkpt><trkpt lat="42.2003433" lon="14.615625"><ele>3.9999999999999996</ele><time>2026-04-27T09:27:13.891Z</time></trkpt><trkpt lat="42.2003983" lon="14.61556"><ele>4.0</ele><time>2026-04-27T09:27:15.891Z</time></trkpt><trkpt lat="42.2004733" lon="14.6154967"><ele>4.0</ele><time>2026-04-27T09:27:18.891Z</time></trkpt><trkpt lat="42.200535" lon="14.6154233"><ele>3.9999999999999996</ele><time>2026-04-27T09:27:21.891Z</time></trkpt><trkpt lat="42.200555" lon="14.6153217"><ele>4.0</ele><time>2026-04-27T09:27:25.89Z</time></trkpt><trkpt lat="42.200565" lon="14.6152267"><ele>4.0</ele><time>2026-04-27T09:27:29.89Z</time></trkpt><trkpt lat="42.20061" lon="14.6151667"><ele>3.9999999999999996</ele><time>2026-04-27T09:27:31.891Z</time></trkpt><trkpt lat="42.2006617" lon="14.615105"><ele>4.0</ele><time>2026-04-27T09:27:33.891Z</time></trkpt><trkpt lat="42.200735" lon="14.615085"><ele>4.0</ele><time>2026-04-27T09:27:35.891Z</time></trkpt><trkpt lat="42.200815" lon="14.6150683"><ele>3.8571428571428568</ele><time>2026-04-27T09:27:37.89Z</time></trkpt><trkpt lat="42.2008867" lon="14.6150517"><ele>3.714285714285714</ele><time>2026-04-27T09:27:39.89Z</time></trkpt><trkpt lat="42.200955" lon="14.615035"><ele>3.571428571428571</ele><time>2026-04-27T09:27:41.89Z</time></trkpt><trkpt lat="42.2010383" lon="14.6150183"><ele>3.4285714285714284</ele><time>2026-04-27T09:27:44.891Z</time></trkpt><trkpt lat="42.20111" lon="14.615"><ele>3.2857142857142856</ele><time>2026-04-27T09:27:47.89Z</time></trkpt><trkpt lat="42.2011733" lon="14.614975"><ele>3.1428571428571423</ele><time>2026-04-27T09:27:50.891Z</time></trkpt><trkpt lat="42.20123" lon="14.614915"><ele>3.0</ele><time>2026-04-27T09:27:53.891Z</time></trkpt><trkpt lat="42.2012833" lon="14.6148383"><ele>3.0</ele><time>2026-04-27T09:27:56.89Z</time></trkpt><trkpt lat="42.2013417" lon="14.6147833"><ele>3.0</ele><time>2026-04-27T09:27:59.891Z</time></trkpt><trkpt lat="42.2013917" lon="14.6147083"><ele>3.0</ele><time>2026-04-27T09:28:02.891Z</time></trkpt><trkpt lat="42.2014483" lon="14.6146217"><ele>3.0</ele><time>2026-04-27T09:28:05.89Z</time></trkpt><trkpt lat="42.2014833" lon="14.6145417"><ele>3.0</ele><time>2026-04-27T09:28:08.891Z</time></trkpt><trkpt lat="42.2014367" lon="14.614635"><ele>3.0</ele><time>2026-04-27T09:28:23.89Z</time></trkpt><trkpt lat="42.2013967" lon="14.6147167"><ele>2.9999999999999996</ele><time>2026-04-27T09:28:26.891Z</time></trkpt><trkpt lat="42.2013333" lon="14.6147967"><ele>3.0</ele><time>2026-04-27T09:28:29.891Z</time></trkpt><trkpt lat="42.2012817" lon="14.6148483"><ele>3.0</ele><time>2026-04-27T09:28:31.891Z</time></trkpt><trkpt lat="42.201205" lon="14.6149267"><ele>3.0</ele><time>2026-04-27T09:28:34.89Z</time></trkpt><trkpt lat="42.2011467" lon="14.6149617"><ele>3.0</ele><time>2026-04-27T09:28:36.891Z</time></trkpt><trkpt lat="42.20108" lon="14.6149833"><ele>2.9999999999999996</ele><time>2026-04-27T09:28:38.891Z</time></trkpt><trkpt lat="42.2010133" lon="14.6150033"><ele>3.0</ele><time>2026-04-27T09:28:40.89Z</time></trkpt><trkpt lat="42.20095" lon="14.61501"><ele>3.0</ele><time>2026-04-27T09:28:42.89Z</time></trkpt><trkpt lat="42.200855" lon="14.6150333"><ele>3.0</ele><time>2026-04-27T09:28:45.891Z</time></trkpt><trkpt lat="42.2007667" lon="14.6150417"><ele>3.0</ele><time>2026-04-27T09:28:48.89Z</time></trkpt><trkpt lat="42.2007" lon="14.6150617"><ele>3.0</ele><time>2026-04-27T09:28:50.89Z</time></trkpt><trkpt lat="42.2006417" lon="14.61512"><ele>3.0</ele><time>2026-04-27T09:28:52.891Z</time></trkpt><trkpt lat="42.2005967" lon="14.61519"><ele>3.0</ele><time>2026-04-27T09:28:54.891Z</time></trkpt><trkpt lat="42.2005483" lon="14.61525"><ele>3.1666666666666665</ele><time>2026-04-27T09:28:56.891Z</time></trkpt><trkpt lat="42.2004767" lon="14.6153333"><ele>3.333333333333333</ele><time>2026-04-27T09:28:59.89Z</time></trkpt><trkpt lat="42.2004267" lon="14.615405"><ele>3.5</ele><time>2026-04-27T09:29:01.891Z</time></trkpt><trkpt lat="42.2003817" lon="14.6154833"><ele>3.6666666666666665</ele><time>2026-04-27T09:29:03.891Z</time></trkpt><trkpt lat="42.2003383" lon="14.6155667"><ele>3.833333333333333</ele><time>2026-04-27T09:29:05.891Z</time></trkpt><trkpt lat="42.2003033" lon="14.6156633"><ele>4.0</ele><time>2026-04-27T09:29:07.891Z</time></trkpt><trkpt lat="42.2002717" lon="14.6157617"><ele>3.9999999999999996</ele><time>2026-04-27T09:29:09.891Z</time></trkpt><trkpt lat="42.2002417" lon="14.6158383"><ele>4.0</ele><time>2026-04-27T09:29:11.891Z</time></trkpt><trkpt lat="42.200205" lon="14.6159167"><ele>4.0</ele><time>2026-04-27T09:29:13.891Z</time></trkpt><trkpt lat="42.2001733" lon="14.6160083"><ele>4.0</ele><time>2026-04-27T09:29:15.891Z</time></trkpt><trkpt lat="42.2001367" lon="14.6160967"><ele>3.9999999999999996</ele><time>2026-04-27T09:29:17.89Z</time></trkpt><trkpt lat="42.2000933" lon="14.6161967"><ele>4.0</ele><time>2026-04-27T09:29:19.891Z</time></trkpt><trkpt lat="42.2000533" lon="14.61631"><ele>3.4000000000000004</ele><time>2026-04-27T09:29:21.89Z</time></trkpt><trkpt lat="42.2000167" lon="14.6164283"><ele>2.8000000000000003</ele><time>2026-04-27T09:29:23.891Z</time></trkpt><trkpt lat="42.19998" lon="14.6165417"><ele>2.2</ele><time>2026-04-27T09:29:25.891Z</time></trkpt><trkpt lat="42.199945" lon="14.6166533"><ele>1.6</ele><time>2026-04-27T09:29:27.891Z</time></trkpt><trkpt lat="42.1999067" lon="14.6167817"><ele>1.0</ele><time>2026-04-27T09:29:29.89Z</time></trkpt><trkpt lat="42.1998683" lon="14.6168933"><ele>2.0</ele><time>2026-04-27T09:29:31.891Z</time></trkpt><trkpt lat="42.1998283" lon="14.6170067"><ele>3.0</ele><time>2026-04-27T09:29:33.89Z</time></trkpt><trkpt lat="42.1997983" lon="14.6171183"><ele>3.9999999999999996</ele><time>2026-04-27T09:29:35.89Z</time></trkpt><trkpt lat="42.1997517" lon="14.6172183"><ele>5.0</ele><time>2026-04-27T09:29:37.891Z</time></trkpt><trkpt lat="42.199715" lon="14.6173367"><ele>6.0</ele><time>2026-04-27T09:29:39.89Z</time></trkpt><trkpt lat="42.1996717" lon="14.6174383"><ele>6.0</ele><time>2026-04-27T09:29:41.89Z</time></trkpt><trkpt lat="42.1996317" lon="14.61756"><ele>6.0</ele><time>2026-04-27T09:29:43.89Z</time></trkpt><trkpt lat="42.1995933" lon="14.6176867"><ele>6.0</ele><time>2026-04-27T09:29:45.89Z</time></trkpt><trkpt lat="42.19956" lon="14.6178133"><ele>6.0</ele><time>2026-04-27T09:29:47.891Z</time></trkpt><trkpt lat="42.1995233" lon="14.6179267"><ele>6.0</ele><time>2026-04-27T09:29:49.891Z</time></trkpt><trkpt lat="42.199485" lon="14.6180367"><ele>5.5</ele><time>2026-04-27T09:29:51.891Z</time></trkpt><trkpt lat="42.1994517" lon="14.6181417"><ele>5.0</ele><time>2026-04-27T09:29:53.89Z</time></trkpt><trkpt lat="42.1994183" lon="14.6182517"><ele>4.5</ele><time>2026-04-27T09:29:55.891Z</time></trkpt><trkpt lat="42.1993867" lon="14.61836"><ele>4.0</ele><time>2026-04-27T09:29:57.891Z</time></trkpt><trkpt lat="42.19935" lon="14.6184567"><ele>3.5</ele><time>2026-04-27T09:29:59.891Z</time></trkpt><trkpt lat="42.1993067" lon="14.618565"><ele>3.0</ele><time>2026-04-27T09:30:01.891Z</time></trkpt><trkpt lat="42.1992683" lon="14.61867"><ele>2.8333333333333335</ele><time>2026-04-27T09:30:03.891Z</time></trkpt><trkpt lat="42.1992317" lon="14.6187683"><ele>2.6666666666666665</ele><time>2026-04-27T09:30:05.89Z</time></trkpt><trkpt lat="42.1992083" lon="14.6188667"><ele>2.5</ele><time>2026-04-27T09:30:07.891Z</time></trkpt><trkpt lat="42.19917" lon="14.6189517"><ele>2.333333333333333</ele><time>2026-04-27T09:30:09.89Z</time></trkpt><trkpt lat="42.199135" lon="14.61904"><ele>2.1666666666666665</ele><time>2026-04-27T09:30:11.891Z</time></trkpt><trkpt lat="42.1991033" lon="14.6191267"><ele>2.0</ele><time>2026-04-27T09:30:13.891Z</time></trkpt><trkpt lat="42.19906" lon="14.6192233"><ele>1.9999999999999998</ele><time>2026-04-27T09:30:15.891Z</time></trkpt><trkpt lat="42.199025" lon="14.6193067"><ele>2.0</ele><time>2026-04-27T09:30:17.89Z</time></trkpt><trkpt lat="42.19899" lon="14.6194033"><ele>2.0</ele><time>2026-04-27T09:30:19.89Z</time></trkpt><trkpt lat="42.1989533" lon="14.61951"><ele>2.0</ele><time>2026-04-27T09:30:21.891Z</time></trkpt><trkpt lat="42.1989133" lon="14.6196383"><ele>1.9999999999999998</ele><time>2026-04-27T09:30:23.891Z</time></trkpt><trkpt lat="42.1988767" lon="14.6197733"><ele>2.0</ele><time>2026-04-27T09:30:25.891Z</time></trkpt><trkpt lat="42.1988433" lon="14.6198933"><ele>3.4000000000000004</ele><time>2026-04-27T09:30:27.891Z</time></trkpt><trkpt lat="42.19881" lon="14.620015"><ele>4.800000000000001</ele><time>2026-04-27T09:30:29.89Z</time></trkpt><trkpt lat="42.1987783" lon="14.6201433"><ele>6.2</ele><time>2026-04-27T09:30:31.891Z</time></trkpt><trkpt lat="42.1987517" lon="14.6202717"><ele>7.6000000000000005</ele><time>2026-04-27T09:30:33.891Z</time></trkpt><trkpt lat="42.1987267" lon="14.6204"><ele>9.0</ele><time>2026-04-27T09:30:35.891Z</time></trkpt><trkpt lat="42.1987" lon="14.620525"><ele>9.0</ele><time>2026-04-27T09:30:37.891Z</time></trkpt><trkpt lat="42.19867" lon="14.6206433"><ele>9.0</ele><time>2026-04-27T09:30:39.891Z</time></trkpt><trkpt lat="42.1986367" lon="14.6207617"><ele>9.0</ele><time>2026-04-27T09:30:41.89Z</time></trkpt><trkpt lat="42.198605" lon="14.6208767"><ele>9.0</ele><time>2026-04-27T09:30:43.891Z</time></trkpt><trkpt lat="42.198575" lon="14.6209917"><ele>9.0</ele><time>2026-04-27T09:30:45.891Z</time></trkpt><trkpt lat="42.198545" lon="14.6211067"><ele>8.8</ele><time>2026-04-27T09:30:47.891Z</time></trkpt><trkpt lat="42.1985183" lon="14.6212217"><ele>8.600000000000001</ele><time>2026-04-27T09:30:49.89Z</time></trkpt><trkpt lat="42.19848" lon="14.6213433"><ele>8.4</ele><time>2026-04-27T09:30:51.891Z</time></trkpt><trkpt lat="42.1984433" lon="14.621465"><ele>8.200000000000001</ele><time>2026-04-27T09:30:53.891Z</time></trkpt><trkpt lat="42.1983933" lon="14.6215617"><ele>8.0</ele><time>2026-04-27T09:30:55.89Z</time></trkpt><trkpt lat="42.1983583" lon="14.6216833"><ele>7.999999999999999</ele><time>2026-04-27T09:30:57.89Z</time></trkpt><trkpt lat="42.19832" lon="14.6217883"><ele>8.0</ele><time>2026-04-27T09:30:59.891Z</time></trkpt><trkpt lat="42.19828" lon="14.6219033"><ele>8.0</ele><time>2026-04-27T09:31:01.891Z</time></trkpt><trkpt lat="42.1982467" lon="14.62202"><ele>8.0</ele><time>2026-04-27T09:31:03.891Z</time></trkpt><trkpt lat="42.198215" lon="14.6221217"><ele>7.999999999999999</ele><time>2026-04-27T09:31:05.891Z</time></trkpt><trkpt lat="42.1981817" lon="14.622225"><ele>8.0</ele><time>2026-04-27T09:31:07.891Z</time></trkpt><trkpt lat="42.19814" lon="14.6223283"><ele>8.600000000000001</ele><time>2026-04-27T09:31:09.89Z</time></trkpt><trkpt lat="42.1981" lon="14.6224317"><ele>9.200000000000001</ele><time>2026-04-27T09:31:11.891Z</time></trkpt><trkpt lat="42.19807" lon="14.6225517"><ele>9.8</ele><time>2026-04-27T09:31:13.89Z</time></trkpt><trkpt lat="42.198045" lon="14.6226983"><ele>10.4</ele><time>2026-04-27T09:31:15.891Z</time></trkpt><trkpt lat="42.1980117" lon="14.6228183"><ele>11.0</ele><time>2026-04-27T09:31:17.89Z</time></trkpt><trkpt lat="42.19797" lon="14.6229333"><ele>11.0</ele><time>2026-04-27T09:31:19.891Z</time></trkpt><trkpt lat="42.1979433" lon="14.6230667"><ele>11.0</ele><time>2026-04-27T09:31:21.89Z</time></trkpt><trkpt lat="42.1979167" lon="14.6232017"><ele>11.0</ele><time>2026-04-27T09:31:23.891Z</time></trkpt><trkpt lat="42.1978917" lon="14.62333"><ele>11.0</ele><time>2026-04-27T09:31:25.891Z</time></trkpt><trkpt lat="42.1978583" lon="14.62345"><ele>11.0</ele><time>2026-04-27T09:31:27.89Z</time></trkpt><trkpt lat="42.1978267" lon="14.62357"><ele>10.600000000000001</ele><time>2026-04-27T09:31:29.891Z</time></trkpt><trkpt lat="42.19779" lon="14.62369"><ele>10.200000000000001</ele><time>2026-04-27T09:31:31.891Z</time></trkpt><trkpt lat="42.1977567" lon="14.6238083"><ele>9.8</ele><time>2026-04-27T09:31:33.89Z</time></trkpt><trkpt lat="42.19772" lon="14.6239317"><ele>9.4</ele><time>2026-04-27T09:31:35.891Z</time></trkpt><trkpt lat="42.197685" lon="14.6240567"><ele>9.0</ele><time>2026-04-27T09:31:37.891Z</time></trkpt><trkpt lat="42.1976517" lon="14.6241783"><ele>9.0</ele><time>2026-04-27T09:31:39.89Z</time></trkpt><trkpt lat="42.1976117" lon="14.624285"><ele>9.0</ele><time>2026-04-27T09:31:41.89Z</time></trkpt><trkpt lat="42.197575" lon="14.6244033"><ele>9.0</ele><time>2026-04-27T09:31:43.89Z</time></trkpt><trkpt lat="42.1975333" lon="14.62452"><ele>9.0</ele><time>2026-04-27T09:31:45.891Z</time></trkpt><trkpt lat="42.19749" lon="14.62464"><ele>9.0</ele><time>2026-04-27T09:31:47.891Z</time></trkpt><trkpt lat="42.197455" lon="14.6247517"><ele>8.6</ele><time>2026-04-27T09:31:49.891Z</time></trkpt><trkpt lat="42.1974133" lon="14.6248633"><ele>8.2</ele><time>2026-04-27T09:31:51.891Z</time></trkpt><trkpt lat="42.1973717" lon="14.6249833"><ele>7.799999999999999</ele><time>2026-04-27T09:31:53.89Z</time></trkpt><trkpt lat="42.1973283" lon="14.6250983"><ele>7.3999999999999995</ele><time>2026-04-27T09:31:55.891Z</time></trkpt><trkpt lat="42.1972867" lon="14.6252167"><ele>7.0</ele><time>2026-04-27T09:31:57.891Z</time></trkpt><trkpt lat="42.1972483" lon="14.6253367"><ele>7.0</ele><time>2026-04-27T09:31:59.891Z</time></trkpt><trkpt lat="42.1972033" lon="14.6254483"><ele>6.999999999999999</ele><time>2026-04-27T09:32:01.891Z</time></trkpt><trkpt lat="42.1971583" lon="14.625565"><ele>6.999999999999999</ele><time>2026-04-27T09:32:03.891Z</time></trkpt><trkpt lat="42.197115" lon="14.62568"><ele>7.0</ele><time>2026-04-27T09:32:05.891Z</time></trkpt><trkpt lat="42.197075" lon="14.6258"><ele>7.0</ele><time>2026-04-27T09:32:07.891Z</time></trkpt><trkpt lat="42.1970383" lon="14.625925"><ele>7.0</ele><time>2026-04-27T09:32:09.891Z</time></trkpt><trkpt lat="42.1969967" lon="14.62604"><ele>6.999999999999999</ele><time>2026-04-27T09:32:11.891Z</time></trkpt><trkpt lat="42.1969517" lon="14.6261483"><ele>6.999999999999999</ele><time>2026-04-27T09:32:13.891Z</time></trkpt><trkpt lat="42.1969067" lon="14.6262567"><ele>7.0</ele><time>2026-04-27T09:32:15.89Z</time></trkpt><trkpt lat="42.1968617" lon="14.6263733"><ele>7.0</ele><time>2026-04-27T09:32:17.89Z</time></trkpt><trkpt lat="42.1968233" lon="14.626485"><ele>6.0</ele><time>2026-04-27T09:32:19.89Z</time></trkpt><trkpt lat="42.1967817" lon="14.6266"><ele>4.999999999999999</ele><time>2026-04-27T09:32:21.889Z</time></trkpt><trkpt lat="42.196745" lon="14.62672"><ele>4.0</ele><time>2026-04-27T09:32:23.89Z</time></trkpt><trkpt lat="42.1967" lon="14.6268333"><ele>3.0</ele><time>2026-04-27T09:32:25.89Z</time></trkpt><trkpt lat="42.196655" lon="14.6269433"><ele>2.0</ele><time>2026-04-27T09:32:27.889Z</time></trkpt><trkpt lat="42.1966067" lon="14.627045"><ele>2.0</ele><time>2026-04-27T09:32:29.89Z</time></trkpt><trkpt lat="42.1965667" lon="14.627145"><ele>2.0</ele><time>2026-04-27T09:32:31.89Z</time></trkpt><trkpt lat="42.1965267" lon="14.6272517"><ele>2.0</ele><time>2026-04-27T09:32:33.89Z</time></trkpt><trkpt lat="42.1964883" lon="14.62739"><ele>2.0</ele><time>2026-04-27T09:32:35.89Z</time></trkpt><trkpt lat="42.1964467" lon="14.62753"><ele>2.0</ele><time>2026-04-27T09:32:37.89Z</time></trkpt><trkpt lat="42.1964083" lon="14.62766"><ele>2.4000000000000004</ele><time>2026-04-27T09:32:39.89Z</time></trkpt><trkpt lat="42.1963717" lon="14.6277867"><ele>2.8000000000000003</ele><time>2026-04-27T09:32:41.89Z</time></trkpt><trkpt lat="42.1963333" lon="14.6279017"><ele>3.2</ele><time>2026-04-27T09:32:43.89Z</time></trkpt><trkpt lat="42.1963017" lon="14.6280233"><ele>3.6</ele><time>2026-04-27T09:32:45.89Z</time></trkpt><trkpt lat="42.1962567" lon="14.6281317"><ele>4.0</ele><time>2026-04-27T09:32:47.89Z</time></trkpt><trkpt lat="42.1962133" lon="14.62824"><ele>3.9999999999999996</ele><time>2026-04-27T09:32:49.89Z</time></trkpt><trkpt lat="42.19617" lon="14.628335"><ele>4.0</ele><time>2026-04-27T09:32:51.89Z</time></trkpt><trkpt lat="42.1961433" lon="14.6284317"><ele>4.0</ele><time>2026-04-27T09:32:53.889Z</time></trkpt><trkpt lat="42.1961217" lon="14.62853"><ele>4.0</ele><time>2026-04-27T09:32:55.89Z</time></trkpt><trkpt lat="42.1961033" lon="14.6286267"><ele>3.9999999999999996</ele><time>2026-04-27T09:32:57.89Z</time></trkpt><trkpt lat="42.1960883" lon="14.6287267"><ele>4.0</ele><time>2026-04-27T09:32:59.89Z</time></trkpt><trkpt lat="42.19608" lon="14.628835"><ele>3.9999999999999996</ele><time>2026-04-27T09:33:01.89Z</time></trkpt><trkpt lat="42.19607" lon="14.6289467"><ele>4.0</ele><time>2026-04-27T09:33:03.89Z</time></trkpt><trkpt lat="42.1960783" lon="14.6290617"><ele>4.0</ele><time>2026-04-27T09:33:05.89Z</time></trkpt><trkpt lat="42.1960767" lon="14.6291667"><ele>4.0</ele><time>2026-04-27T09:33:07.889Z</time></trkpt><trkpt lat="42.1960467" lon="14.6292483"><ele>3.9999999999999996</ele><time>2026-04-27T09:33:09.889Z</time></trkpt><trkpt lat="42.1960117" lon="14.629325"><ele>4.0</ele><time>2026-04-27T09:33:11.89Z</time></trkpt><trkpt lat="42.1959683" lon="14.6294"><ele>3.833333333333333</ele><time>2026-04-27T09:33:13.89Z</time></trkpt><trkpt lat="42.1959383" lon="14.6295"><ele>3.6666666666666665</ele><time>2026-04-27T09:33:15.89Z</time></trkpt><trkpt lat="42.1959067" lon="14.629585"><ele>3.5</ele><time>2026-04-27T09:33:17.89Z</time></trkpt><trkpt lat="42.1958767" lon="14.6296783"><ele>3.333333333333333</ele><time>2026-04-27T09:33:19.89Z</time></trkpt><trkpt lat="42.19584" lon="14.6297817"><ele>3.1666666666666665</ele><time>2026-04-27T09:33:21.89Z</time></trkpt><trkpt lat="42.1958117" lon="14.6298817"><ele>3.0</ele><time>2026-04-27T09:33:23.89Z</time></trkpt><trkpt lat="42.1957817" lon="14.6299733"><ele>3.0</ele><time>2026-04-27T09:33:25.89Z</time></trkpt><trkpt lat="42.195745" lon="14.6300633"><ele>3.0</ele><time>2026-04-27T09:33:27.889Z</time></trkpt><trkpt lat="42.195715" lon="14.6301583"><ele>3.0</ele><time>2026-04-27T09:33:29.89Z</time></trkpt><trkpt lat="42.1956867" lon="14.6302667"><ele>3.0</ele><time>2026-04-27T09:33:31.889Z</time></trkpt><trkpt lat="42.1956583" lon="14.6303767"><ele>3.0</ele><time>2026-04-27T09:33:33.89Z</time></trkpt><trkpt lat="42.1956267" lon="14.6304833"><ele>3.0</ele><time>2026-04-27T09:33:35.89Z</time></trkpt><trkpt lat="42.1955983" lon="14.630605"><ele>3.1666666666666665</ele><time>2026-04-27T09:33:37.89Z</time></trkpt><trkpt lat="42.1955767" lon="14.6307183"><ele>3.333333333333333</ele><time>2026-04-27T09:33:39.889Z</time></trkpt><trkpt lat="42.1955517" lon="14.6308267"><ele>3.5</ele><time>2026-04-27T09:33:41.889Z</time></trkpt><trkpt lat="42.1955233" lon="14.630915"><ele>3.6666666666666665</ele><time>2026-04-27T09:33:43.889Z</time></trkpt><trkpt lat="42.1954933" lon="14.6310117"><ele>3.833333333333333</ele><time>2026-04-27T09:33:45.89Z</time></trkpt><trkpt lat="42.1954617" lon="14.631115"><ele>4.0</ele><time>2026-04-27T09:33:47.89Z</time></trkpt><trkpt lat="42.1954367" lon="14.63122"><ele>3.9999999999999996</ele><time>2026-04-27T09:33:49.89Z</time></trkpt><trkpt lat="42.1954" lon="14.6313167"><ele>4.0</ele><time>2026-04-27T09:33:51.89Z</time></trkpt><trkpt lat="42.195365" lon="14.631415"><ele>4.0</ele><time>2026-04-27T09:33:53.889Z</time></trkpt><trkpt lat="42.1953283" lon="14.6314967"><ele>4.0</ele><time>2026-04-27T09:33:55.889Z</time></trkpt><trkpt lat="42.195285" lon="14.6315867"><ele>3.9999999999999996</ele><time>2026-04-27T09:33:57.889Z</time></trkpt><trkpt lat="42.1952317" lon="14.6316933"><ele>4.0</ele><time>2026-04-27T09:33:59.89Z</time></trkpt><trkpt lat="42.1952033" lon="14.6318133"><ele>4.0</ele><time>2026-04-27T09:34:01.89Z</time></trkpt><trkpt lat="42.1951717" lon="14.6319183"><ele>4.0</ele><time>2026-04-27T09:34:03.89Z</time></trkpt><trkpt lat="42.195155" lon="14.6320517"><ele>4.0</ele><time>2026-04-27T09:34:05.89Z</time></trkpt><trkpt lat="42.1951283" lon="14.6321933"><ele>4.0</ele><time>2026-04-27T09:34:07.89Z</time></trkpt><trkpt lat="42.195095" lon="14.6323133"><ele>4.0</ele><time>2026-04-27T09:34:09.89Z</time></trkpt><trkpt lat="42.195055" lon="14.6324283"><ele>4.2</ele><time>2026-04-27T09:34:11.89Z</time></trkpt><trkpt lat="42.1950167" lon="14.632555"><ele>4.4</ele><time>2026-04-27T09:34:13.89Z</time></trkpt><trkpt lat="42.1949917" lon="14.632665"><ele>4.6</ele><time>2026-04-27T09:34:15.89Z</time></trkpt><trkpt lat="42.1949483" lon="14.6327633"><ele>4.8</ele><time>2026-04-27T09:34:17.89Z</time></trkpt><trkpt lat="42.1949133" lon="14.6328733"><ele>5.0</ele><time>2026-04-27T09:34:19.889Z</time></trkpt><trkpt lat="42.1948817" lon="14.6329933"><ele>5.2</ele><time>2026-04-27T09:34:21.89Z</time></trkpt><trkpt lat="42.1948583" lon="14.6331083"><ele>5.4</ele><time>2026-04-27T09:34:23.889Z</time></trkpt><trkpt lat="42.1948283" lon="14.6332083"><ele>5.6</ele><time>2026-04-27T09:34:25.89Z</time></trkpt><trkpt lat="42.1947917" lon="14.6333233"><ele>5.8</ele><time>2026-04-27T09:34:27.89Z</time></trkpt><trkpt lat="42.1947617" lon="14.6334517"><ele>6.0</ele><time>2026-04-27T09:34:29.89Z</time></trkpt><trkpt lat="42.1947367" lon="14.633585"><ele>5.6</ele><time>2026-04-27T09:34:31.889Z</time></trkpt><trkpt lat="42.1947067" lon="14.6337133"><ele>5.199999999999999</ele><time>2026-04-27T09:34:33.89Z</time></trkpt><trkpt lat="42.1946867" lon="14.6338483"><ele>4.800000000000001</ele><time>2026-04-27T09:34:35.889Z</time></trkpt><trkpt lat="42.1946617" lon="14.6339483"><ele>4.4</ele><time>2026-04-27T09:34:37.89Z</time></trkpt><trkpt lat="42.1946033" lon="14.6340483"><ele>4.0</ele><time>2026-04-27T09:34:40.889Z</time></trkpt><trkpt lat="42.1945783" lon="14.6341467"><ele>3.9999999999999996</ele><time>2026-04-27T09:34:42.89Z</time></trkpt><trkpt lat="42.1945583" lon="14.634245"><ele>4.0</ele><time>2026-04-27T09:34:44.89Z</time></trkpt><trkpt lat="42.1945317" lon="14.6343433"><ele>4.0</ele><time>2026-04-27T09:34:46.89Z</time></trkpt><trkpt lat="42.194505" lon="14.6344483"><ele>4.0</ele><time>2026-04-27T09:34:48.89Z</time></trkpt><trkpt lat="42.1944667" lon="14.634565"><ele>3.9999999999999996</ele><time>2026-04-27T09:34:50.889Z</time></trkpt><trkpt lat="42.19443" lon="14.6346817"><ele>4.0</ele><time>2026-04-27T09:34:52.89Z</time></trkpt><trkpt lat="42.1944033" lon="14.6348067"><ele>3.6</ele><time>2026-04-27T09:34:54.889Z</time></trkpt><trkpt lat="42.194365" lon="14.6349217"><ele>3.2</ele><time>2026-04-27T09:34:56.89Z</time></trkpt><trkpt lat="42.1943467" lon="14.6350417"><ele>2.8000000000000003</ele><time>2026-04-27T09:34:58.89Z</time></trkpt><trkpt lat="42.194295" lon="14.6351617"><ele>2.4000000000000004</ele><time>2026-04-27T09:35:00.89Z</time></trkpt><trkpt lat="42.1942617" lon="14.6352783"><ele>2.0</ele><time>2026-04-27T09:35:02.89Z</time></trkpt><trkpt lat="42.1942333" lon="14.6354"><ele>1.8333333333333333</ele><time>2026-04-27T09:35:04.889Z</time></trkpt><trkpt lat="42.1941967" lon="14.6354967"><ele>1.6666666666666665</ele><time>2026-04-27T09:35:06.889Z</time></trkpt><trkpt lat="42.1941683" lon="14.6356033"><ele>1.5</ele><time>2026-04-27T09:35:08.89Z</time></trkpt><trkpt lat="42.1941333" lon="14.6357133"><ele>1.3333333333333333</ele><time>2026-04-27T09:35:10.89Z</time></trkpt><trkpt lat="42.1941067" lon="14.63583"><ele>1.1666666666666665</ele><time>2026-04-27T09:35:12.89Z</time></trkpt><trkpt lat="42.1940733" lon="14.6359383"><ele>1.0</ele><time>2026-04-27T09:35:14.89Z</time></trkpt><trkpt lat="42.1940417" lon="14.6360483"><ele>0.8333333333333333</ele><time>2026-04-27T09:35:16.889Z</time></trkpt><trkpt lat="42.1940133" lon="14.6361667"><ele>0.6666666666666666</ele><time>2026-04-27T09:35:18.89Z</time></trkpt><trkpt lat="42.1939767" lon="14.6362783"><ele>0.5</ele><time>2026-04-27T09:35:20.889Z</time></trkpt><trkpt lat="42.1939483" lon="14.636385"><ele>0.3333333333333333</ele><time>2026-04-27T09:35:22.889Z</time></trkpt><trkpt lat="42.1939183" lon="14.6364967"><ele>0.16666666666666666</ele><time>2026-04-27T09:35:24.89Z</time></trkpt><trkpt lat="42.1938933" lon="14.6365933"><ele>0.0</ele><time>2026-04-27T09:35:26.89Z</time></trkpt><trkpt lat="42.1938633" lon="14.636695"><ele>0.16666666666666666</ele><time>2026-04-27T09:35:28.889Z</time></trkpt><trkpt lat="42.1938317" lon="14.6368067"><ele>0.3333333333333333</ele><time>2026-04-27T09:35:30.889Z</time></trkpt><trkpt lat="42.1938" lon="14.6369117"><ele>0.5</ele><time>2026-04-27T09:35:32.889Z</time></trkpt><trkpt lat="42.19377" lon="14.6370083"><ele>0.6666666666666666</ele><time>2026-04-27T09:35:34.889Z</time></trkpt><trkpt lat="42.19374" lon="14.6371"><ele>0.8333333333333333</ele><time>2026-04-27T09:35:36.89Z</time></trkpt><trkpt lat="42.1937183" lon="14.6372033"><ele>1.0</ele><time>2026-04-27T09:35:38.889Z</time></trkpt><trkpt lat="42.1936883" lon="14.6373067"><ele>0.9999999999999999</ele><time>2026-04-27T09:35:40.89Z</time></trkpt><trkpt lat="42.1936533" lon="14.6374167"><ele>1.0</ele><time>2026-04-27T09:35:42.89Z</time></trkpt><trkpt lat="42.19362" lon="14.6375233"><ele>1.0</ele><time>2026-04-27T09:35:44.889Z</time></trkpt><trkpt lat="42.1935917" lon="14.63763"><ele>1.0</ele><time>2026-04-27T09:35:46.89Z</time></trkpt><trkpt lat="42.1935633" lon="14.6377483"><ele>0.9999999999999999</ele><time>2026-04-27T09:35:48.889Z</time></trkpt><trkpt lat="42.1935367" lon="14.6378517"><ele>1.0</ele><time>2026-04-27T09:35:50.89Z</time></trkpt><trkpt lat="42.1935033" lon="14.6379533"><ele>0.9999999999999999</ele><time>2026-04-27T09:35:52.89Z</time></trkpt><trkpt lat="42.193465" lon="14.6380517"><ele>1.0</ele><time>2026-04-27T09:35:54.89Z</time></trkpt><trkpt lat="42.1934217" lon="14.6381617"><ele>1.0</ele><time>2026-04-27T09:35:56.89Z</time></trkpt><trkpt lat="42.1933933" lon="14.6382683"><ele>1.0</ele><time>2026-04-27T09:35:58.889Z</time></trkpt><trkpt lat="42.1933717" lon="14.638365"><ele>0.9999999999999999</ele><time>2026-04-27T09:36:00.889Z</time></trkpt><trkpt lat="42.1933383" lon="14.6384767"><ele>1.0</ele><time>2026-04-27T09:36:02.89Z</time></trkpt><trkpt lat="42.1933067" lon="14.63859"><ele>1.0</ele><time>2026-04-27T09:36:04.889Z</time></trkpt><trkpt lat="42.193275" lon="14.6387033"><ele>1.0</ele><time>2026-04-27T09:36:06.89Z</time></trkpt><trkpt lat="42.1932383" lon="14.6388167"><ele>1.0</ele><time>2026-04-27T09:36:08.89Z</time></trkpt><trkpt lat="42.1931983" lon="14.6389317"><ele>1.0</ele><time>2026-04-27T09:36:10.889Z</time></trkpt><trkpt lat="42.1931617" lon="14.6390483"><ele>1.0</ele><time>2026-04-27T09:36:12.89Z</time></trkpt><trkpt lat="42.19312" lon="14.639165"><ele>1.0</ele><time>2026-04-27T09:36:14.889Z</time></trkpt><trkpt lat="42.193085" lon="14.6392883"><ele>1.0</ele><time>2026-04-27T09:36:16.89Z</time></trkpt><trkpt lat="42.1930517" lon="14.6394217"><ele>1.0</ele><time>2026-04-27T09:36:18.89Z</time></trkpt><trkpt lat="42.193015" lon="14.6395467"><ele>1.0</ele><time>2026-04-27T09:36:20.89Z</time></trkpt><trkpt lat="42.1929817" lon="14.6396717"><ele>1.0</ele><time>2026-04-27T09:36:22.89Z</time></trkpt><trkpt lat="42.1929517" lon="14.6397917"><ele>0.8</ele><time>2026-04-27T09:36:24.89Z</time></trkpt><trkpt lat="42.192925" lon="14.6399167"><ele>0.6000000000000001</ele><time>2026-04-27T09:36:26.889Z</time></trkpt><trkpt lat="42.1928883" lon="14.6400267"><ele>0.4</ele><time>2026-04-27T09:36:28.889Z</time></trkpt><trkpt lat="42.192855" lon="14.6401467"><ele>0.2</ele><time>2026-04-27T09:36:30.889Z</time></trkpt><trkpt lat="42.1928283" lon="14.6402717"><ele>0.0</ele><time>2026-04-27T09:36:32.89Z</time></trkpt><trkpt lat="42.1928033" lon="14.6403983"><ele>0.0</ele><time>2026-04-27T09:36:34.889Z</time></trkpt><trkpt lat="42.192775" lon="14.64053"><ele>0.0</ele><time>2026-04-27T09:36:36.889Z</time></trkpt><trkpt lat="42.1927483" lon="14.6406583"><ele>0.0</ele><time>2026-04-27T09:36:38.889Z</time></trkpt><trkpt lat="42.1927233" lon="14.6407867"><ele>0.0</ele><time>2026-04-27T09:36:40.89Z</time></trkpt><trkpt lat="42.1927017" lon="14.6409133"><ele>0.0</ele><time>2026-04-27T09:36:42.889Z</time></trkpt><trkpt lat="42.1926783" lon="14.64104"><ele>0.0</ele><time>2026-04-27T09:36:44.89Z</time></trkpt><trkpt lat="42.192655" lon="14.6411683"><ele>0.0</ele><time>2026-04-27T09:36:46.889Z</time></trkpt><trkpt lat="42.1926333" lon="14.6412933"><ele>0.0</ele><time>2026-04-27T09:36:48.89Z</time></trkpt><trkpt lat="42.1926083" lon="14.6414133"><ele>0.0</ele><time>2026-04-27T09:36:50.89Z</time></trkpt><trkpt lat="42.1925783" lon="14.6415383"><ele>0.0</ele><time>2026-04-27T09:36:52.89Z</time></trkpt><trkpt lat="42.19254" lon="14.6416567"><ele>0.0</ele><time>2026-04-27T09:36:54.89Z</time></trkpt><trkpt lat="42.192505" lon="14.6417567"><ele>0.0</ele><time>2026-04-27T09:36:56.89Z</time></trkpt><trkpt lat="42.192465" lon="14.6418583"><ele>0.0</ele><time>2026-04-27T09:36:58.889Z</time></trkpt><trkpt lat="42.1924417" lon="14.64198"><ele>0.0</ele><time>2026-04-27T09:37:00.89Z</time></trkpt><trkpt lat="42.1924133" lon="14.6421067"><ele>0.0</ele><time>2026-04-27T09:37:02.89Z</time></trkpt><trkpt lat="42.1923767" lon="14.64222"><ele>0.0</ele><time>2026-04-27T09:37:04.889Z</time></trkpt><trkpt lat="42.1923433" lon="14.6423383"><ele>0.0</ele><time>2026-04-27T09:37:06.89Z</time></trkpt><trkpt lat="42.1923033" lon="14.6424667"><ele>0.0</ele><time>2026-04-27T09:37:08.89Z</time></trkpt><trkpt lat="42.1922433" lon="14.6425533"><ele>0.0</ele><time>2026-04-27T09:37:10.89Z</time></trkpt><trkpt lat="42.1921717" lon="14.642635"><ele>0.0</ele><time>2026-04-27T09:37:12.89Z</time></trkpt><trkpt lat="42.1921017" lon="14.6427317"><ele>0.0</ele><time>2026-04-27T09:37:14.889Z</time></trkpt><trkpt lat="42.19203" lon="14.6428267"><ele>0.0</ele><time>2026-04-27T09:37:16.89Z</time></trkpt><trkpt lat="42.1919667" lon="14.6429167"><ele>0.0</ele><time>2026-04-27T09:37:18.89Z</time></trkpt><trkpt lat="42.1919017" lon="14.6430017"><ele>0.0</ele><time>2026-04-27T09:37:20.89Z</time></trkpt><trkpt lat="42.1918383" lon="14.6430867"><ele>0.0</ele><time>2026-04-27T09:37:22.889Z</time></trkpt><trkpt lat="42.1917667" lon="14.6431683"><ele>0.0</ele><time>2026-04-27T09:37:24.89Z</time></trkpt><trkpt lat="42.19169" lon="14.6432467"><ele>0.0</ele><time>2026-04-27T09:37:26.89Z</time></trkpt><trkpt lat="42.191615" lon="14.6433183"><ele>0.0</ele><time>2026-04-27T09:37:28.889Z</time></trkpt><trkpt lat="42.1915533" lon="14.643405"><ele>0.0</ele><time>2026-04-27T09:37:30.889Z</time></trkpt><trkpt lat="42.191495" lon="14.6434917"><ele>0.0</ele><time>2026-04-27T09:37:32.89Z</time></trkpt><trkpt lat="42.1914417" lon="14.6435833"><ele>0.4</ele><time>2026-04-27T09:37:34.889Z</time></trkpt><trkpt lat="42.19139" lon="14.6436767"><ele>0.8</ele><time>2026-04-27T09:37:36.89Z</time></trkpt><trkpt lat="42.1913317" lon="14.6437833"><ele>1.2000000000000002</ele><time>2026-04-27T09:37:38.89Z</time></trkpt><trkpt lat="42.1912817" lon="14.6438933"><ele>1.6</ele><time>2026-04-27T09:37:40.889Z</time></trkpt><trkpt lat="42.1912333" lon="14.6439983"><ele>2.0</ele><time>2026-04-27T09:37:42.89Z</time></trkpt><trkpt lat="42.1911817" lon="14.64409"><ele>1.9999999999999998</ele><time>2026-04-27T09:37:44.889Z</time></trkpt><trkpt lat="42.1911267" lon="14.644185"><ele>2.0</ele><time>2026-04-27T09:37:46.89Z</time></trkpt><trkpt lat="42.191065" lon="14.644255"><ele>2.0</ele><time>2026-04-27T09:37:48.889Z</time></trkpt><trkpt lat="42.19099" lon="14.6443133"><ele>2.0</ele><time>2026-04-27T09:37:50.89Z</time></trkpt><trkpt lat="42.1909067" lon="14.6443567"><ele>1.9999999999999998</ele><time>2026-04-27T09:37:52.889Z</time></trkpt><trkpt lat="42.19082" lon="14.64439"><ele>2.0</ele><time>2026-04-27T09:37:54.89Z</time></trkpt><trkpt lat="42.1907417" lon="14.6444133"><ele>2.2</ele><time>2026-04-27T09:37:56.89Z</time></trkpt><trkpt lat="42.1906467" lon="14.6444417"><ele>2.4000000000000004</ele><time>2026-04-27T09:37:58.89Z</time></trkpt><trkpt lat="42.1905567" lon="14.6444783"><ele>2.5999999999999996</ele><time>2026-04-27T09:38:00.89Z</time></trkpt><trkpt lat="42.19046" lon="14.6445083"><ele>2.8</ele><time>2026-04-27T09:38:02.89Z</time></trkpt><trkpt lat="42.1903667" lon="14.644545"><ele>3.0</ele><time>2026-04-27T09:38:04.889Z</time></trkpt><trkpt lat="42.19028" lon="14.64458"><ele>3.0</ele><time>2026-04-27T09:38:06.89Z</time></trkpt><trkpt lat="42.1901917" lon="14.6445883"><ele>3.0</ele><time>2026-04-27T09:38:08.89Z</time></trkpt><trkpt lat="42.190115" lon="14.6445867"><ele>3.0</ele><time>2026-04-27T09:38:10.889Z</time></trkpt><trkpt lat="42.1900317" lon="14.6445717"><ele>3.0</ele><time>2026-04-27T09:38:12.89Z</time></trkpt><trkpt lat="42.1899417" lon="14.6445533"><ele>3.0</ele><time>2026-04-27T09:38:14.89Z</time></trkpt><trkpt lat="42.1898833" lon="14.6444983"><ele>3.0</ele><time>2026-04-27T09:38:17.89Z</time></trkpt><trkpt lat="42.1899067" lon="14.644285"><ele>2.6</ele><time>2026-04-27T09:38:18.89Z</time></trkpt><trkpt lat="42.189755" lon="14.6443283"><ele>2.1999999999999997</ele><time>2026-04-27T09:38:20.89Z</time></trkpt><trkpt lat="42.1896733" lon="14.6443867"><ele>1.8</ele><time>2026-04-27T09:38:21.89Z</time></trkpt><trkpt lat="42.1896017" lon="14.6444333"><ele>1.4</ele><time>2026-04-27T09:38:22.889Z</time></trkpt><trkpt lat="42.18954" lon="14.644485"><ele>1.0</ele><time>2026-04-27T09:38:23.89Z</time></trkpt><trkpt lat="42.1894433" lon="14.6445433"><ele>1.0</ele><time>2026-04-27T09:38:25.89Z</time></trkpt><trkpt lat="42.1893433" lon="14.644585"><ele>1.0</ele><time>2026-04-27T09:38:27.89Z</time></trkpt><trkpt lat="42.1892417" lon="14.644605"><ele>1.0</ele><time>2026-04-27T09:38:29.89Z</time></trkpt><trkpt lat="42.1891467" lon="14.64462"><ele>1.0</ele><time>2026-04-27T09:38:31.89Z</time></trkpt><trkpt lat="42.189045" lon="14.6446333"><ele>1.0</ele><time>2026-04-27T09:38:33.89Z</time></trkpt><trkpt lat="42.1889517" lon="14.644635"><ele>1.2000000000000002</ele><time>2026-04-27T09:38:35.889Z</time></trkpt><trkpt lat="42.1888617" lon="14.6446367"><ele>1.4000000000000001</ele><time>2026-04-27T09:38:37.889Z</time></trkpt><trkpt lat="42.188765" lon="14.644645"><ele>1.6</ele><time>2026-04-27T09:38:39.89Z</time></trkpt><trkpt lat="42.1886567" lon="14.644645"><ele>1.8</ele><time>2026-04-27T09:38:41.889Z</time></trkpt><trkpt lat="42.18856" lon="14.6446583"><ele>2.0</ele><time>2026-04-27T09:38:43.89Z</time></trkpt><trkpt lat="42.18847" lon="14.6446617"><ele>2.0</ele><time>2026-04-27T09:38:45.889Z</time></trkpt><trkpt lat="42.188375" lon="14.6446717"><ele>2.0</ele><time>2026-04-27T09:38:47.89Z</time></trkpt><trkpt lat="42.18828" lon="14.6446833"><ele>2.0</ele><time>2026-04-27T09:38:49.89Z</time></trkpt><trkpt lat="42.18819" lon="14.644685"><ele>2.0</ele><time>2026-04-27T09:38:51.89Z</time></trkpt><trkpt lat="42.1880967" lon="14.6446783"><ele>2.0</ele><time>2026-04-27T09:38:53.89Z</time></trkpt><trkpt lat="42.188" lon="14.64468"><ele>2.2</ele><time>2026-04-27T09:38:55.89Z</time></trkpt><trkpt lat="42.1878967" lon="14.64468"><ele>2.4000000000000004</ele><time>2026-04-27T09:38:57.889Z</time></trkpt><trkpt lat="42.1877917" lon="14.6446717"><ele>2.5999999999999996</ele><time>2026-04-27T09:38:59.89Z</time></trkpt><trkpt lat="42.18769" lon="14.6446517"><ele>2.8</ele><time>2026-04-27T09:39:01.89Z</time></trkpt><trkpt lat="42.187585" lon="14.6446167"><ele>3.0</ele><time>2026-04-27T09:39:03.889Z</time></trkpt><trkpt lat="42.1875" lon="14.6445417"><ele>2.8</ele><time>2026-04-27T09:39:05.889Z</time></trkpt><trkpt lat="42.1874183" lon="14.6444517"><ele>2.5999999999999996</ele><time>2026-04-27T09:39:07.89Z</time></trkpt><trkpt lat="42.1873533" lon="14.6443483"><ele>2.4000000000000004</ele><time>2026-04-27T09:39:09.889Z</time></trkpt><trkpt lat="42.1872833" lon="14.644245"><ele>2.2</ele><time>2026-04-27T09:39:11.889Z</time></trkpt><trkpt lat="42.1872117" lon="14.6441417"><ele>2.0</ele><time>2026-04-27T09:39:13.89Z</time></trkpt><trkpt lat="42.1871383" lon="14.6440433"><ele>1.8333333333333333</ele><time>2026-04-27T09:39:15.889Z</time></trkpt><trkpt lat="42.18707" lon="14.6439617"><ele>1.6666666666666665</ele><time>2026-04-27T09:39:17.89Z</time></trkpt><trkpt lat="42.1870017" lon="14.64389"><ele>1.5</ele><time>2026-04-27T09:39:19.89Z</time></trkpt><trkpt lat="42.1869367" lon="14.6438233"><ele>1.3333333333333333</ele><time>2026-04-27T09:39:21.89Z</time></trkpt><trkpt lat="42.1868617" lon="14.643765"><ele>1.1666666666666665</ele><time>2026-04-27T09:39:23.889Z</time></trkpt><trkpt lat="42.186775" lon="14.6437133"><ele>1.0</ele><time>2026-04-27T09:39:25.89Z</time></trkpt><trkpt lat="42.1866833" lon="14.6436717"><ele>1.0</ele><time>2026-04-27T09:39:27.889Z</time></trkpt><trkpt lat="42.1865917" lon="14.6436333"><ele>1.0</ele><time>2026-04-27T09:39:29.89Z</time></trkpt><trkpt lat="42.1865067" lon="14.643585"><ele>1.0</ele><time>2026-04-27T09:39:31.89Z</time></trkpt><trkpt lat="42.1864183" lon="14.64354"><ele>1.0</ele><time>2026-04-27T09:39:33.89Z</time></trkpt><trkpt lat="42.1863217" lon="14.6434983"><ele>1.0</ele><time>2026-04-27T09:39:35.89Z</time></trkpt><trkpt lat="42.186225" lon="14.6434633"><ele>1.4</ele><time>2026-04-27T09:39:37.89Z</time></trkpt><trkpt lat="42.1861383" lon="14.6434317"><ele>1.8</ele><time>2026-04-27T09:39:39.89Z</time></trkpt><trkpt lat="42.1860417" lon="14.6433967"><ele>2.1999999999999997</ele><time>2026-04-27T09:39:41.889Z</time></trkpt><trkpt lat="42.18594" lon="14.643375"><ele>2.6</ele><time>2026-04-27T09:39:43.89Z</time></trkpt><trkpt lat="42.1858417" lon="14.6433683"><ele>3.0</ele><time>2026-04-27T09:39:45.89Z</time></trkpt><trkpt lat="42.1857517" lon="14.6433867"><ele>3.2</ele><time>2026-04-27T09:39:47.889Z</time></trkpt><trkpt lat="42.18566" lon="14.6434133"><ele>3.4</ele><time>2026-04-27T09:39:49.889Z</time></trkpt><trkpt lat="42.1855617" lon="14.643455"><ele>3.6000000000000005</ele><time>2026-04-27T09:39:51.89Z</time></trkpt><trkpt lat="42.185465" lon="14.6435017"><ele>3.8000000000000003</ele><time>2026-04-27T09:39:53.889Z</time></trkpt><trkpt lat="42.1853633" lon="14.6435583"><ele>4.0</ele><time>2026-04-27T09:39:55.89Z</time></trkpt><trkpt lat="42.185255" lon="14.6436167"><ele>4.0</ele><time>2026-04-27T09:39:57.89Z</time></trkpt><trkpt lat="42.185155" lon="14.6436667"><ele>4.0</ele><time>2026-04-27T09:39:59.89Z</time></trkpt><trkpt lat="42.1850517" lon="14.6437233"><ele>4.0</ele><time>2026-04-27T09:40:01.89Z</time></trkpt><trkpt lat="42.1849467" lon="14.6437733"><ele>4.0</ele><time>2026-04-27T09:40:03.89Z</time></trkpt><trkpt lat="42.1848433" lon="14.6438217"><ele>4.0</ele><time>2026-04-27T09:40:05.889Z</time></trkpt><trkpt lat="42.18474" lon="14.64388"><ele>4.0</ele><time>2026-04-27T09:40:07.89Z</time></trkpt><trkpt lat="42.1846417" lon="14.6439467"><ele>4.0</ele><time>2026-04-27T09:40:09.889Z</time></trkpt><trkpt lat="42.184555" lon="14.6440283"><ele>4.0</ele><time>2026-04-27T09:40:11.89Z</time></trkpt><trkpt lat="42.1844717" lon="14.644135"><ele>4.0</ele><time>2026-04-27T09:40:13.89Z</time></trkpt><trkpt lat="42.1843933" lon="14.644245"><ele>4.0</ele><time>2026-04-27T09:40:15.889Z</time></trkpt><trkpt lat="42.1843133" lon="14.6443517"><ele>4.0</ele><time>2026-04-27T09:40:17.889Z</time></trkpt><trkpt lat="42.184215" lon="14.6444467"><ele>4.0</ele><time>2026-04-27T09:40:19.89Z</time></trkpt><trkpt lat="42.18411" lon="14.6445083"><ele>4.0</ele><time>2026-04-27T09:40:21.89Z</time></trkpt><trkpt lat="42.1839983" lon="14.6445317"><ele>4.0</ele><time>2026-04-27T09:40:23.889Z</time></trkpt><trkpt lat="42.1838867" lon="14.6445367"><ele>4.0</ele><time>2026-04-27T09:40:25.89Z</time></trkpt><trkpt lat="42.1837733" lon="14.6445467"><ele>4.0</ele><time>2026-04-27T09:40:27.89Z</time></trkpt><trkpt lat="42.1836617" lon="14.6445567"><ele>4.0</ele><time>2026-04-27T09:40:29.89Z</time></trkpt><trkpt lat="42.1835517" lon="14.64456"><ele>4.0</ele><time>2026-04-27T09:40:31.89Z</time></trkpt><trkpt lat="42.18344" lon="14.6445683"><ele>4.0</ele><time>2026-04-27T09:40:33.89Z</time></trkpt><trkpt lat="42.1833317" lon="14.644575"><ele>4.0</ele><time>2026-04-27T09:40:35.889Z</time></trkpt><trkpt lat="42.18322" lon="14.6445833"><ele>4.0</ele><time>2026-04-27T09:40:37.889Z</time></trkpt><trkpt lat="42.1831117" lon="14.6445867"><ele>4.0</ele><time>2026-04-27T09:40:39.89Z</time></trkpt><trkpt lat="42.1829983" lon="14.6445933"><ele>4.0</ele><time>2026-04-27T09:40:41.889Z</time></trkpt><trkpt lat="42.1828867" lon="14.6446"><ele>4.0</ele><time>2026-04-27T09:40:43.889Z</time></trkpt><trkpt lat="42.1827733" lon="14.6446083"><ele>4.5</ele><time>2026-04-27T09:40:45.889Z</time></trkpt><trkpt lat="42.1826633" lon="14.6446133"><ele>5.0</ele><time>2026-04-27T09:40:47.889Z</time></trkpt><trkpt lat="42.1825467" lon="14.6446217"><ele>5.5</ele><time>2026-04-27T09:40:49.889Z</time></trkpt><trkpt lat="42.182435" lon="14.6446283"><ele>6.0</ele><time>2026-04-27T09:40:51.889Z</time></trkpt><trkpt lat="42.1823183" lon="14.64463"><ele>6.199999999999999</ele><time>2026-04-27T09:40:53.889Z</time></trkpt><trkpt lat="42.182205" lon="14.6446217"><ele>6.3999999999999995</ele><time>2026-04-27T09:40:55.89Z</time></trkpt><trkpt lat="42.1820967" lon="14.6446117"><ele>6.6</ele><time>2026-04-27T09:40:57.89Z</time></trkpt><trkpt lat="42.1819883" lon="14.6445917"><ele>6.8</ele><time>2026-04-27T09:40:59.89Z</time></trkpt><trkpt lat="42.1818817" lon="14.64457"><ele>7.0</ele><time>2026-04-27T09:41:01.89Z</time></trkpt><trkpt lat="42.181775" lon="14.64454"><ele>7.0</ele><time>2026-04-27T09:41:03.89Z</time></trkpt><trkpt lat="42.18167" lon="14.6445033"><ele>7.0</ele><time>2026-04-27T09:41:05.889Z</time></trkpt><trkpt lat="42.1815533" lon="14.6444767"><ele>7.0</ele><time>2026-04-27T09:41:07.889Z</time></trkpt><trkpt lat="42.1814367" lon="14.6444333"><ele>7.0</ele><time>2026-04-27T09:41:09.89Z</time></trkpt><trkpt lat="42.18133" lon="14.6443883"><ele>7.25</ele><time>2026-04-27T09:41:11.89Z</time></trkpt><trkpt lat="42.1812217" lon="14.6443417"><ele>7.5</ele><time>2026-04-27T09:41:13.889Z</time></trkpt><trkpt lat="42.1811117" lon="14.6443017"><ele>7.75</ele><time>2026-04-27T09:41:15.889Z</time></trkpt><trkpt lat="42.1809967" lon="14.64426"><ele>8.0</ele><time>2026-04-27T09:41:17.89Z</time></trkpt><trkpt lat="42.1808867" lon="14.6442067"><ele>8.0</ele><time>2026-04-27T09:41:19.89Z</time></trkpt><trkpt lat="42.1807817" lon="14.6441617"><ele>8.0</ele><time>2026-04-27T09:41:21.89Z</time></trkpt><trkpt lat="42.180675" lon="14.64412"><ele>8.0</ele><time>2026-04-27T09:41:23.89Z</time></trkpt><trkpt lat="42.18057" lon="14.644075"><ele>8.0</ele><time>2026-04-27T09:41:25.89Z</time></trkpt><trkpt lat="42.1804633" lon="14.6440333"><ele>8.0</ele><time>2026-04-27T09:41:27.889Z</time></trkpt><trkpt lat="42.180355" lon="14.6439817"><ele>7.800000000000001</ele><time>2026-04-27T09:41:29.89Z</time></trkpt><trkpt lat="42.1802733" lon="14.643885"><ele>7.6000000000000005</ele><time>2026-04-27T09:41:31.889Z</time></trkpt><trkpt lat="42.18023" lon="14.6437567"><ele>7.3999999999999995</ele><time>2026-04-27T09:41:33.889Z</time></trkpt><trkpt lat="42.1802217" lon="14.6435983"><ele>7.199999999999999</ele><time>2026-04-27T09:41:35.889Z</time></trkpt><trkpt lat="42.180235" lon="14.6434467"><ele>7.0</ele><time>2026-04-27T09:41:37.889Z</time></trkpt><trkpt lat="42.18023" lon="14.6432867"><ele>7.0</ele><time>2026-04-27T09:41:39.889Z</time></trkpt><trkpt lat="42.1802333" lon="14.643125"><ele>6.999999999999999</ele><time>2026-04-27T09:41:41.89Z</time></trkpt><trkpt lat="42.1802317" lon="14.6430367"><ele>6.999999999999999</ele><time>2026-04-27T09:41:42.89Z</time></trkpt><trkpt lat="42.1802217" lon="14.642885"><ele>7.0</ele><time>2026-04-27T09:41:44.89Z</time></trkpt><trkpt lat="42.180215" lon="14.642725"><ele>7.0</ele><time>2026-04-27T09:41:46.89Z</time></trkpt><trkpt lat="42.1801933" lon="14.642575"><ele>7.199999999999999</ele><time>2026-04-27T09:41:48.89Z</time></trkpt><trkpt lat="42.1801567" lon="14.6424317"><ele>7.3999999999999995</ele><time>2026-04-27T09:41:50.889Z</time></trkpt><trkpt lat="42.1801133" lon="14.6423033"><ele>7.6000000000000005</ele><time>2026-04-27T09:41:52.89Z</time></trkpt><trkpt lat="42.1800617" lon="14.6421733"><ele>7.800000000000001</ele><time>2026-04-27T09:41:54.89Z</time></trkpt><trkpt lat="42.1800033" lon="14.6420467"><ele>8.0</ele><time>2026-04-27T09:41:56.889Z</time></trkpt><trkpt lat="42.1799517" lon="14.6419233"><ele>8.0</ele><time>2026-04-27T09:41:58.89Z</time></trkpt><trkpt lat="42.1798867" lon="14.641815"><ele>8.0</ele><time>2026-04-27T09:42:00.889Z</time></trkpt><trkpt lat="42.1798167" lon="14.641715"><ele>8.0</ele><time>2026-04-27T09:42:02.89Z</time></trkpt><trkpt lat="42.179765" lon="14.6416217"><ele>8.0</ele><time>2026-04-27T09:42:04.89Z</time></trkpt><trkpt lat="42.1796967" lon="14.64154"><ele>8.0</ele><time>2026-04-27T09:42:06.89Z</time></trkpt><trkpt lat="42.1796317" lon="14.6414867"><ele>8.0</ele><time>2026-04-27T09:42:08.89Z</time></trkpt><trkpt lat="42.1795383" lon="14.64143"><ele>8.0</ele><time>2026-04-27T09:42:10.89Z</time></trkpt><trkpt lat="42.1794317" lon="14.641365"><ele>8.0</ele><time>2026-04-27T09:42:12.889Z</time></trkpt><trkpt lat="42.1793367" lon="14.641295"><ele>8.0</ele><time>2026-04-27T09:42:14.889Z</time></trkpt><trkpt lat="42.1792383" lon="14.6412433"><ele>8.0</ele><time>2026-04-27T09:42:16.89Z</time></trkpt><trkpt lat="42.179145" lon="14.6411917"><ele>8.0</ele><time>2026-04-27T09:42:18.889Z</time></trkpt><trkpt lat="42.17904" lon="14.641155"><ele>8.0</ele><time>2026-04-27T09:42:20.889Z</time></trkpt><trkpt lat="42.1789333" lon="14.64114"><ele>8.0</ele><time>2026-04-27T09:42:22.89Z</time></trkpt><trkpt lat="42.1788283" lon="14.641135"><ele>8.0</ele><time>2026-04-27T09:42:24.89Z</time></trkpt><trkpt lat="42.1787167" lon="14.6411383"><ele>8.0</ele><time>2026-04-27T09:42:26.89Z</time></trkpt><trkpt lat="42.178615" lon="14.6411483"><ele>8.200000000000001</ele><time>2026-04-27T09:42:28.889Z</time></trkpt><trkpt lat="42.1785217" lon="14.6411633"><ele>8.4</ele><time>2026-04-27T09:42:30.89Z</time></trkpt><trkpt lat="42.178435" lon="14.641185"><ele>8.600000000000001</ele><time>2026-04-27T09:42:32.89Z</time></trkpt><trkpt lat="42.1783533" lon="14.6412"><ele>8.8</ele><time>2026-04-27T09:42:34.89Z</time></trkpt><trkpt lat="42.1782683" lon="14.641225"><ele>9.0</ele><time>2026-04-27T09:42:36.89Z</time></trkpt><trkpt lat="42.178165" lon="14.641255"><ele>9.166666666666666</ele><time>2026-04-27T09:42:38.89Z</time></trkpt><trkpt lat="42.1780683" lon="14.6412783"><ele>9.333333333333334</ele><time>2026-04-27T09:42:40.89Z</time></trkpt><trkpt lat="42.1779783" lon="14.64131"><ele>9.5</ele><time>2026-04-27T09:42:42.89Z</time></trkpt><trkpt lat="42.17789" lon="14.64135"><ele>9.666666666666668</ele><time>2026-04-27T09:42:44.89Z</time></trkpt><trkpt lat="42.1778083" lon="14.6413833"><ele>9.833333333333334</ele><time>2026-04-27T09:42:46.89Z</time></trkpt><trkpt lat="42.1777333" lon="14.641415"><ele>10.0</ele><time>2026-04-27T09:42:48.89Z</time></trkpt><trkpt lat="42.1776683" lon="14.641445"><ele>10.0</ele><time>2026-04-27T09:42:50.889Z</time></trkpt><trkpt lat="42.1776033" lon="14.6414733"><ele>10.0</ele><time>2026-04-27T09:42:52.89Z</time></trkpt><trkpt lat="42.1775283" lon="14.641505"><ele>10.0</ele><time>2026-04-27T09:42:54.889Z</time></trkpt><trkpt lat="42.1774433" lon="14.6415417"><ele>10.0</ele><time>2026-04-27T09:42:56.89Z</time></trkpt><trkpt lat="42.1773667" lon="14.641585"><ele>10.0</ele><time>2026-04-27T09:42:58.89Z</time></trkpt><trkpt lat="42.1772883" lon="14.6416133"><ele>10.0</ele><time>2026-04-27T09:43:00.89Z</time></trkpt><trkpt lat="42.177205" lon="14.6416467"><ele>10.142857142857142</ele><time>2026-04-27T09:43:02.89Z</time></trkpt><trkpt lat="42.1771283" lon="14.6416783"><ele>10.285714285714286</ele><time>2026-04-27T09:43:04.889Z</time></trkpt><trkpt lat="42.17706" lon="14.6417067"><ele>10.428571428571429</ele><time>2026-04-27T09:43:06.89Z</time></trkpt><trkpt lat="42.1769933" lon="14.641715"><ele>10.571428571428571</ele><time>2026-04-27T09:43:08.89Z</time></trkpt><trkpt lat="42.1769233" lon="14.6417433"><ele>10.714285714285714</ele><time>2026-04-27T09:43:10.89Z</time></trkpt><trkpt lat="42.176855" lon="14.6417717"><ele>10.857142857142858</ele><time>2026-04-27T09:43:12.889Z</time></trkpt><trkpt lat="42.176785" lon="14.6417933"><ele>11.0</ele><time>2026-04-27T09:43:14.89Z</time></trkpt><trkpt lat="42.1767167" lon="14.6418233"><ele>11.0</ele><time>2026-04-27T09:43:16.89Z</time></trkpt><trkpt lat="42.176645" lon="14.6418717"><ele>11.0</ele><time>2026-04-27T09:43:19.889Z</time></trkpt><trkpt lat="42.1765917" lon="14.6419317"><ele>11.0</ele><time>2026-04-27T09:43:31.89Z</time></trkpt><trkpt lat="42.1766017" lon="14.64204"><ele>11.0</ele><time>2026-04-27T09:43:34.889Z</time></trkpt><trkpt lat="42.1766183" lon="14.6421617"><ele>11.0</ele><time>2026-04-27T09:43:37.889Z</time></trkpt><trkpt lat="42.1766517" lon="14.642265"><ele>11.0</ele><time>2026-04-27T09:43:40.889Z</time></trkpt><trkpt lat="42.176675" lon="14.6423467"><ele>11.0</ele><time>2026-04-27T09:43:42.89Z</time></trkpt><trkpt lat="42.1767067" lon="14.64246"><ele>11.0</ele><time>2026-04-27T09:43:45.889Z</time></trkpt><trkpt lat="42.17673" lon="14.6425533"><ele>11.0</ele><time>2026-04-27T09:43:47.89Z</time></trkpt><trkpt lat="42.1767533" lon="14.64265"><ele>11.0</ele><time>2026-04-27T09:43:49.89Z</time></trkpt><trkpt lat="42.176775" lon="14.64275"><ele>11.0</ele><time>2026-04-27T09:43:51.89Z</time></trkpt><trkpt lat="42.1767967" lon="14.6428583"><ele>11.0</ele><time>2026-04-27T09:43:54.89Z</time></trkpt><trkpt lat="42.1767783" lon="14.6429583"><ele>11.0</ele><time>2026-04-27T09:44:00.889Z</time></trkpt><trkpt lat="42.1767317" lon="14.64302"><ele>11.0</ele><time>2026-04-27T09:44:03.89Z</time></trkpt><trkpt lat="42.176665" lon="14.64307"><ele>11.0</ele><time>2026-04-27T09:44:06.89Z</time></trkpt><trkpt lat="42.17659" lon="14.6431267"><ele>11.0</ele><time>2026-04-27T09:44:09.889Z</time></trkpt><trkpt lat="42.1765317" lon="14.64318"><ele>11.0</ele><time>2026-04-27T09:44:12.889Z</time></trkpt><trkpt lat="42.1764633" lon="14.6431117"><ele>11.0</ele><time>2026-04-27T09:44:17.89Z</time></trkpt><trkpt lat="42.1764167" lon="14.64301"><ele>11.0</ele><time>2026-04-27T09:44:20.889Z</time></trkpt><trkpt lat="42.17638" lon="14.6429367"><ele>11.0</ele><time>2026-04-27T09:44:22.89Z</time></trkpt><trkpt lat="42.1763383" lon="14.64286"><ele>11.0</ele><time>2026-04-27T09:44:24.889Z</time></trkpt><trkpt lat="42.17629" lon="14.6427883"><ele>11.0</ele><time>2026-04-27T09:44:26.889Z</time></trkpt><trkpt lat="42.1762283" lon="14.6426983"><ele>11.0</ele><time>2026-04-27T09:44:28.89Z</time></trkpt><trkpt lat="42.17617" lon="14.6425967"><ele>11.0</ele><time>2026-04-27T09:44:30.889Z</time></trkpt><trkpt lat="42.176115" lon="14.64249"><ele>11.0</ele><time>2026-04-27T09:44:32.89Z</time></trkpt><trkpt lat="42.1760583" lon="14.6423817"><ele>11.0</ele><time>2026-04-27T09:44:34.89Z</time></trkpt><trkpt lat="42.17601" lon="14.642275"><ele>11.0</ele><time>2026-04-27T09:44:36.89Z</time></trkpt><trkpt lat="42.1759567" lon="14.642185"><ele>11.0</ele><time>2026-04-27T09:44:38.89Z</time></trkpt><trkpt lat="42.1758967" lon="14.6421"><ele>11.0</ele><time>2026-04-27T09:44:40.89Z</time></trkpt><trkpt lat="42.1758217" lon="14.6420167"><ele>11.200000000000001</ele><time>2026-04-27T09:44:42.89Z</time></trkpt><trkpt lat="42.1757483" lon="14.6419283"><ele>11.4</ele><time>2026-04-27T09:44:44.89Z</time></trkpt><trkpt lat="42.1756767" lon="14.6418383"><ele>11.6</ele><time>2026-04-27T09:44:46.889Z</time></trkpt><trkpt lat="42.1756017" lon="14.6417567"><ele>11.8</ele><time>2026-04-27T09:44:48.89Z</time></trkpt><trkpt lat="42.1755283" lon="14.641675"><ele>12.0</ele><time>2026-04-27T09:44:50.889Z</time></trkpt><trkpt lat="42.175455" lon="14.6415983"><ele>12.0</ele><time>2026-04-27T09:44:52.889Z</time></trkpt><trkpt lat="42.1753933" lon="14.6415217"><ele>12.0</ele><time>2026-04-27T09:44:54.889Z</time></trkpt><trkpt lat="42.17531" lon="14.6414483"><ele>12.0</ele><time>2026-04-27T09:44:56.89Z</time></trkpt><trkpt lat="42.1752167" lon="14.6413683"><ele>12.0</ele><time>2026-04-27T09:44:58.889Z</time></trkpt><trkpt lat="42.1751233" lon="14.6412817"><ele>12.0</ele><time>2026-04-27T09:45:00.889Z</time></trkpt><trkpt lat="42.1750267" lon="14.6412067"><ele>12.0</ele><time>2026-04-27T09:45:02.89Z</time></trkpt><trkpt lat="42.1749317" lon="14.6411367"><ele>12.0</ele><time>2026-04-27T09:45:04.89Z</time></trkpt><trkpt lat="42.1748333" lon="14.6410817"><ele>12.0</ele><time>2026-04-27T09:45:06.89Z</time></trkpt><trkpt lat="42.1747267" lon="14.64102"><ele>12.0</ele><time>2026-04-27T09:45:08.89Z</time></trkpt><trkpt lat="42.1746333" lon="14.6409683"><ele>12.0</ele><time>2026-04-27T09:45:10.889Z</time></trkpt><trkpt lat="42.1745483" lon="14.6409267"><ele>11.8</ele><time>2026-04-27T09:45:12.89Z</time></trkpt><trkpt lat="42.1744517" lon="14.640875"><ele>11.6</ele><time>2026-04-27T09:45:14.89Z</time></trkpt><trkpt lat="42.1743383" lon="14.6408383"><ele>11.4</ele><time>2026-04-27T09:45:16.889Z</time></trkpt><trkpt lat="42.17424" lon="14.6408067"><ele>11.200000000000001</ele><time>2026-04-27T09:45:18.89Z</time></trkpt><trkpt lat="42.17415" lon="14.6407717"><ele>11.0</ele><time>2026-04-27T09:45:20.889Z</time></trkpt><trkpt lat="42.174055" lon="14.64074"><ele>11.200000000000001</ele><time>2026-04-27T09:45:22.89Z</time></trkpt><trkpt lat="42.1739467" lon="14.6407133"><ele>11.4</ele><time>2026-04-27T09:45:24.889Z</time></trkpt><trkpt lat="42.1738383" lon="14.6407"><ele>11.6</ele><time>2026-04-27T09:45:26.89Z</time></trkpt><trkpt lat="42.1737267" lon="14.6406817"><ele>11.8</ele><time>2026-04-27T09:45:28.889Z</time></trkpt><trkpt lat="42.1736267" lon="14.640655"><ele>12.0</ele><time>2026-04-27T09:45:30.89Z</time></trkpt><trkpt lat="42.1735133" lon="14.6406317"><ele>12.0</ele><time>2026-04-27T09:45:32.889Z</time></trkpt><trkpt lat="42.1734117" lon="14.64062"><ele>12.0</ele><time>2026-04-27T09:45:34.889Z</time></trkpt><trkpt lat="42.173315" lon="14.6406183"><ele>12.0</ele><time>2026-04-27T09:45:36.89Z</time></trkpt><trkpt lat="42.1732083" lon="14.64062"><ele>12.0</ele><time>2026-04-27T09:45:38.89Z</time></trkpt><trkpt lat="42.173095" lon="14.64063"><ele>12.0</ele><time>2026-04-27T09:45:40.889Z</time></trkpt><trkpt lat="42.172995" lon="14.6406383"><ele>12.399999999999999</ele><time>2026-04-27T09:45:42.89Z</time></trkpt><trkpt lat="42.1728967" lon="14.6406483"><ele>12.799999999999999</ele><time>2026-04-27T09:45:44.89Z</time></trkpt><trkpt lat="42.1728033" lon="14.6406567"><ele>13.2</ele><time>2026-04-27T09:45:46.89Z</time></trkpt><trkpt lat="42.1727083" lon="14.6406683"><ele>13.6</ele><time>2026-04-27T09:45:48.89Z</time></trkpt><trkpt lat="42.1726083" lon="14.6406733"><ele>14.0</ele><time>2026-04-27T09:45:50.89Z</time></trkpt><trkpt lat="42.1725017" lon="14.6407"><ele>14.0</ele><time>2026-04-27T09:45:52.889Z</time></trkpt><trkpt lat="42.172395" lon="14.6407417"><ele>14.0</ele><time>2026-04-27T09:45:54.89Z</time></trkpt><trkpt lat="42.1722867" lon="14.6407717"><ele>14.0</ele><time>2026-04-27T09:45:56.89Z</time></trkpt><trkpt lat="42.172175" lon="14.6408133"><ele>14.0</ele><time>2026-04-27T09:45:58.889Z</time></trkpt><trkpt lat="42.1720583" lon="14.640855"><ele>14.0</ele><time>2026-04-27T09:46:00.89Z</time></trkpt><trkpt lat="42.1719433" lon="14.640905"><ele>13.999999999999998</ele><time>2026-04-27T09:46:02.89Z</time></trkpt><trkpt lat="42.1718333" lon="14.6409567"><ele>13.999999999999998</ele><time>2026-04-27T09:46:04.889Z</time></trkpt><trkpt lat="42.1717317" lon="14.641"><ele>14.0</ele><time>2026-04-27T09:46:06.889Z</time></trkpt><trkpt lat="42.1716367" lon="14.6410517"><ele>14.0</ele><time>2026-04-27T09:46:08.89Z</time></trkpt><trkpt lat="42.1715483" lon="14.6411033"><ele>13.799999999999999</ele><time>2026-04-27T09:46:10.889Z</time></trkpt><trkpt lat="42.1714667" lon="14.641155"><ele>13.599999999999998</ele><time>2026-04-27T09:46:12.89Z</time></trkpt><trkpt lat="42.1713833" lon="14.6412183"><ele>13.4</ele><time>2026-04-27T09:46:14.89Z</time></trkpt><trkpt lat="42.1713033" lon="14.6412833"><ele>13.2</ele><time>2026-04-27T09:46:16.889Z</time></trkpt><trkpt lat="42.1712083" lon="14.6413467"><ele>13.0</ele><time>2026-04-27T09:46:18.889Z</time></trkpt><trkpt lat="42.1711017" lon="14.64141"><ele>13.0</ele><time>2026-04-27T09:46:20.89Z</time></trkpt><trkpt lat="42.1709883" lon="14.64148"><ele>13.0</ele><time>2026-04-27T09:46:22.89Z</time></trkpt><trkpt lat="42.1708817" lon="14.6415483"><ele>13.0</ele><time>2026-04-27T09:46:24.889Z</time></trkpt><trkpt lat="42.170775" lon="14.641605"><ele>13.0</ele><time>2026-04-27T09:46:26.89Z</time></trkpt><trkpt lat="42.170685" lon="14.64166"><ele>12.8</ele><time>2026-04-27T09:46:28.89Z</time></trkpt><trkpt lat="42.1705983" lon="14.641735"><ele>12.600000000000001</ele><time>2026-04-27T09:46:30.89Z</time></trkpt><trkpt lat="42.1705083" lon="14.6418017"><ele>12.399999999999999</ele><time>2026-04-27T09:46:32.89Z</time></trkpt><trkpt lat="42.1704167" lon="14.64187"><ele>12.2</ele><time>2026-04-27T09:46:34.89Z</time></trkpt><trkpt lat="42.1703267" lon="14.6419283"><ele>12.0</ele><time>2026-04-27T09:46:36.89Z</time></trkpt><trkpt lat="42.17023" lon="14.6419917"><ele>12.0</ele><time>2026-04-27T09:46:38.89Z</time></trkpt><trkpt lat="42.1701333" lon="14.6420617"><ele>12.0</ele><time>2026-04-27T09:46:40.89Z</time></trkpt><trkpt lat="42.1700483" lon="14.6421283"><ele>12.0</ele><time>2026-04-27T09:46:42.889Z</time></trkpt><trkpt lat="42.1699683" lon="14.64219"><ele>12.0</ele><time>2026-04-27T09:46:44.89Z</time></trkpt><trkpt lat="42.1698933" lon="14.6422483"><ele>12.0</ele><time>2026-04-27T09:46:46.89Z</time></trkpt><trkpt lat="42.1698217" lon="14.6423033"><ele>12.166666666666666</ele><time>2026-04-27T09:46:48.89Z</time></trkpt><trkpt lat="42.1697467" lon="14.6423667"><ele>12.333333333333332</ele><time>2026-04-27T09:46:50.89Z</time></trkpt><trkpt lat="42.16968" lon="14.6424083"><ele>12.5</ele><time>2026-04-27T09:46:52.89Z</time></trkpt><trkpt lat="42.1696033" lon="14.642365"><ele>12.666666666666666</ele><time>2026-04-27T09:46:55.89Z</time></trkpt><trkpt lat="42.169575" lon="14.64227"><ele>12.833333333333332</ele><time>2026-04-27T09:46:57.889Z</time></trkpt><trkpt lat="42.169555" lon="14.6421383"><ele>13.0</ele><time>2026-04-27T09:46:59.89Z</time></trkpt><trkpt lat="42.1695367" lon="14.6420017"><ele>13.2</ele><time>2026-04-27T09:47:01.89Z</time></trkpt><trkpt lat="42.1695117" lon="14.641855"><ele>13.4</ele><time>2026-04-27T09:47:03.89Z</time></trkpt><trkpt lat="42.1694967" lon="14.641705"><ele>13.599999999999998</ele><time>2026-04-27T09:47:05.89Z</time></trkpt><trkpt lat="42.1694783" lon="14.64157"><ele>13.799999999999999</ele><time>2026-04-27T09:47:07.89Z</time></trkpt><trkpt lat="42.16946" lon="14.6414217"><ele>14.0</ele><time>2026-04-27T09:47:09.889Z</time></trkpt><trkpt lat="42.169435" lon="14.6412767"><ele>14.0</ele><time>2026-04-27T09:47:11.889Z</time></trkpt><trkpt lat="42.1694067" lon="14.641135"><ele>13.999999999999998</ele><time>2026-04-27T09:47:13.89Z</time></trkpt><trkpt lat="42.1693833" lon="14.640995"><ele>13.999999999999998</ele><time>2026-04-27T09:47:15.89Z</time></trkpt><trkpt lat="42.1693583" lon="14.6408567"><ele>14.0</ele><time>2026-04-27T09:47:17.889Z</time></trkpt><trkpt lat="42.1693383" lon="14.6407433"><ele>14.0</ele><time>2026-04-27T09:47:19.89Z</time></trkpt><trkpt lat="42.16928" lon="14.64069"><ele>14.399999999999999</ele><time>2026-04-27T09:47:21.89Z</time></trkpt><trkpt lat="42.169195" lon="14.6406933"><ele>14.799999999999999</ele><time>2026-04-27T09:47:23.889Z</time></trkpt><trkpt lat="42.1690967" lon="14.6406883"><ele>15.200000000000001</ele><time>2026-04-27T09:47:25.89Z</time></trkpt><trkpt lat="42.169" lon="14.6406867"><ele>15.600000000000001</ele><time>2026-04-27T09:47:27.889Z</time></trkpt><trkpt lat="42.1688967" lon="14.6406883"><ele>16.0</ele><time>2026-04-27T09:47:29.89Z</time></trkpt><trkpt lat="42.1687883" lon="14.6407"><ele>16.0</ele><time>2026-04-27T09:47:31.889Z</time></trkpt><trkpt lat="42.1686883" lon="14.6407067"><ele>16.0</ele><time>2026-04-27T09:47:33.889Z</time></trkpt><trkpt lat="42.16859" lon="14.64071"><ele>16.0</ele><time>2026-04-27T09:47:35.89Z</time></trkpt><trkpt lat="42.1684983" lon="14.6407117"><ele>16.0</ele><time>2026-04-27T09:47:37.89Z</time></trkpt><trkpt lat="42.168415" lon="14.640715"><ele>16.0</ele><time>2026-04-27T09:47:39.89Z</time></trkpt><trkpt lat="42.168315" lon="14.640725"><ele>16.0</ele><time>2026-04-27T09:47:41.889Z</time></trkpt><trkpt lat="42.16821" lon="14.640735"><ele>16.0</ele><time>2026-04-27T09:47:43.89Z</time></trkpt><trkpt lat="42.1681017" lon="14.6407383"><ele>16.0</ele><time>2026-04-27T09:47:45.889Z</time></trkpt><trkpt lat="42.1679867" lon="14.640755"><ele>16.0</ele><time>2026-04-27T09:47:47.89Z</time></trkpt><trkpt lat="42.1678733" lon="14.640765"><ele>16.0</ele><time>2026-04-27T09:47:49.889Z</time></trkpt><trkpt lat="42.1677667" lon="14.640775"><ele>16.25</ele><time>2026-04-27T09:47:51.89Z</time></trkpt><trkpt lat="42.1676617" lon="14.6407917"><ele>16.5</ele><time>2026-04-27T09:47:53.89Z</time></trkpt><trkpt lat="42.167545" lon="14.6408067"><ele>16.75</ele><time>2026-04-27T09:47:55.89Z</time></trkpt><trkpt lat="42.167425" lon="14.64082"><ele>17.0</ele><time>2026-04-27T09:47:57.89Z</time></trkpt><trkpt lat="42.1673133" lon="14.6408283"><ele>17.0</ele><time>2026-04-27T09:47:59.89Z</time></trkpt><trkpt lat="42.167195" lon="14.6408467"><ele>17.0</ele><time>2026-04-27T09:48:01.89Z</time></trkpt><trkpt lat="42.1670867" lon="14.6408767"><ele>17.0</ele><time>2026-04-27T09:48:03.889Z</time></trkpt><trkpt lat="42.16698" lon="14.6408983"><ele>17.0</ele><time>2026-04-27T09:48:05.89Z</time></trkpt><trkpt lat="42.1668667" lon="14.640915"><ele>17.0</ele><time>2026-04-27T09:48:07.89Z</time></trkpt><trkpt lat="42.166765" lon="14.64093"><ele>17.0</ele><time>2026-04-27T09:48:09.89Z</time></trkpt><trkpt lat="42.166655" lon="14.640945"><ele>17.0</ele><time>2026-04-27T09:48:11.889Z</time></trkpt><trkpt lat="42.1665483" lon="14.6409583"><ele>17.0</ele><time>2026-04-27T09:48:13.89Z</time></trkpt><trkpt lat="42.16644" lon="14.6409767"><ele>17.0</ele><time>2026-04-27T09:48:15.89Z</time></trkpt><trkpt lat="42.1663333" lon="14.6409967"><ele>17.0</ele><time>2026-04-27T09:48:17.89Z</time></trkpt><trkpt lat="42.1662217" lon="14.641005"><ele>17.0</ele><time>2026-04-27T09:48:19.89Z</time></trkpt><trkpt lat="42.16612" lon="14.6410117"><ele>17.0</ele><time>2026-04-27T09:48:21.889Z</time></trkpt><trkpt lat="42.1660133" lon="14.6410083"><ele>17.0</ele><time>2026-04-27T09:48:23.889Z</time></trkpt><trkpt lat="42.1659067" lon="14.6409967"><ele>17.0</ele><time>2026-04-27T09:48:25.889Z</time></trkpt><trkpt lat="42.1658167" lon="14.640985"><ele>17.0</ele><time>2026-04-27T09:48:27.89Z</time></trkpt><trkpt lat="42.165725" lon="14.6409717"><ele>17.0</ele><time>2026-04-27T09:48:29.89Z</time></trkpt><trkpt lat="42.1656533" lon="14.6409433"><ele>17.0</ele><time>2026-04-27T09:48:31.89Z</time></trkpt><trkpt lat="42.1656067" lon="14.6408633"><ele>17.0</ele><time>2026-04-27T09:48:33.889Z</time></trkpt><trkpt lat="42.16559" lon="14.64075"><ele>17.0</ele><time>2026-04-27T09:48:35.89Z</time></trkpt><trkpt lat="42.1655767" lon="14.6406267"><ele>17.0</ele><time>2026-04-27T09:48:37.889Z</time></trkpt><trkpt lat="42.1655783" lon="14.6405083"><ele>17.333333333333336</ele><time>2026-04-27T09:48:39.889Z</time></trkpt><trkpt lat="42.16559" lon="14.640415"><ele>17.666666666666668</ele><time>2026-04-27T09:48:41.89Z</time></trkpt><trkpt lat="42.1655467" lon="14.64031"><ele>18.0</ele><time>2026-04-27T09:48:51.89Z</time></trkpt><trkpt lat="42.16547" lon="14.6403017"><ele>18.333333333333332</ele><time>2026-04-27T09:48:53.89Z</time></trkpt><trkpt lat="42.1653867" lon="14.6403167"><ele>18.666666666666664</ele><time>2026-04-27T09:48:55.889Z</time></trkpt><trkpt lat="42.16529" lon="14.6403283"><ele>19.0</ele><time>2026-04-27T09:48:57.89Z</time></trkpt><trkpt lat="42.1651817" lon="14.6403517"><ele>19.0</ele><time>2026-04-27T09:48:59.89Z</time></trkpt><trkpt lat="42.1650767" lon="14.6403767"><ele>19.0</ele><time>2026-04-27T09:49:01.89Z</time></trkpt><trkpt lat="42.16497" lon="14.6404017"><ele>19.0</ele><time>2026-04-27T09:49:03.89Z</time></trkpt><trkpt lat="42.1648583" lon="14.6404483"><ele>19.0</ele><time>2026-04-27T09:49:05.89Z</time></trkpt><trkpt lat="42.1647583" lon="14.640495"><ele>19.0</ele><time>2026-04-27T09:49:07.89Z</time></trkpt><trkpt lat="42.1646483" lon="14.6405333"><ele>19.166666666666664</ele><time>2026-04-27T09:49:09.89Z</time></trkpt><trkpt lat="42.1645467" lon="14.640565"><ele>19.333333333333332</ele><time>2026-04-27T09:49:11.889Z</time></trkpt><trkpt lat="42.1644583" lon="14.6405917"><ele>19.5</ele><time>2026-04-27T09:49:13.89Z</time></trkpt><trkpt lat="42.1643717" lon="14.64062"><ele>19.666666666666668</ele><time>2026-04-27T09:49:15.889Z</time></trkpt><trkpt lat="42.1643" lon="14.6406217"><ele>19.833333333333336</ele><time>2026-04-27T09:49:17.89Z</time></trkpt><trkpt lat="42.1642433" lon="14.6405733"><ele>20.0</ele><time>2026-04-27T09:49:19.89Z</time></trkpt><trkpt lat="42.1641617" lon="14.6405417"><ele>20.0</ele><time>2026-04-27T09:49:21.89Z</time></trkpt><trkpt lat="42.1640567" lon="14.640545"><ele>20.0</ele><time>2026-04-27T09:49:23.89Z</time></trkpt><trkpt lat="42.1639417" lon="14.6405817"><ele>20.0</ele><time>2026-04-27T09:49:25.89Z</time></trkpt><trkpt lat="42.1638167" lon="14.6405667"><ele>20.0</ele><time>2026-04-27T09:49:27.889Z</time></trkpt><trkpt lat="42.1637133" lon="14.640485"><ele>20.0</ele><time>2026-04-27T09:49:29.89Z</time></trkpt><trkpt lat="42.16367" lon="14.6404217"><ele>20.0</ele><time>2026-04-27T09:49:30.89Z</time></trkpt><trkpt lat="42.1636367" lon="14.6403483"><ele>20.0</ele><time>2026-04-27T09:49:31.89Z</time></trkpt><trkpt lat="42.1635983" lon="14.6402783"><ele>20.0</ele><time>2026-04-27T09:49:32.889Z</time></trkpt><trkpt lat="42.1635133" lon="14.64017"><ele>20.0</ele><time>2026-04-27T09:49:34.89Z</time></trkpt><trkpt lat="42.1634033" lon="14.640125"><ele>20.0</ele><time>2026-04-27T09:49:36.889Z</time></trkpt><trkpt lat="42.1633033" lon="14.6401533"><ele>20.0</ele><time>2026-04-27T09:49:38.89Z</time></trkpt><trkpt lat="42.163205" lon="14.64017"><ele>20.0</ele><time>2026-04-27T09:49:40.89Z</time></trkpt><trkpt lat="42.1631" lon="14.64014"><ele>20.0</ele><time>2026-04-27T09:49:42.89Z</time></trkpt><trkpt lat="42.1629883" lon="14.64009"><ele>20.0</ele><time>2026-04-27T09:49:44.89Z</time></trkpt><trkpt lat="42.1628783" lon="14.640045"><ele>20.0</ele><time>2026-04-27T09:49:46.89Z</time></trkpt><trkpt lat="42.162765" lon="14.6399917"><ele>20.2</ele><time>2026-04-27T09:49:48.89Z</time></trkpt><trkpt lat="42.1626533" lon="14.6399383"><ele>20.4</ele><time>2026-04-27T09:49:50.889Z</time></trkpt><trkpt lat="42.1625567" lon="14.6398933"><ele>20.6</ele><time>2026-04-27T09:49:52.89Z</time></trkpt><trkpt lat="42.1624467" lon="14.6398483"><ele>20.8</ele><time>2026-04-27T09:49:54.89Z</time></trkpt><trkpt lat="42.16234" lon="14.6397983"><ele>21.0</ele><time>2026-04-27T09:49:56.889Z</time></trkpt><trkpt lat="42.1622383" lon="14.63975"><ele>21.200000000000003</ele><time>2026-04-27T09:49:58.889Z</time></trkpt><trkpt lat="42.1621333" lon="14.6396917"><ele>21.400000000000002</ele><time>2026-04-27T09:50:00.889Z</time></trkpt><trkpt lat="42.1620333" lon="14.6396367"><ele>21.6</ele><time>2026-04-27T09:50:02.89Z</time></trkpt><trkpt lat="42.1619317" lon="14.6395833"><ele>21.8</ele><time>2026-04-27T09:50:04.89Z</time></trkpt><trkpt lat="42.1618333" lon="14.6395333"><ele>22.0</ele><time>2026-04-27T09:50:06.89Z</time></trkpt><trkpt lat="42.16172" lon="14.6394917"><ele>23.0</ele><time>2026-04-27T09:50:08.89Z</time></trkpt><trkpt lat="42.16161" lon="14.6394467"><ele>24.0</ele><time>2026-04-27T09:50:10.889Z</time></trkpt><trkpt lat="42.1615083" lon="14.6393883"><ele>25.000000000000004</ele><time>2026-04-27T09:50:12.89Z</time></trkpt><trkpt lat="42.1613983" lon="14.63934"><ele>26.0</ele><time>2026-04-27T09:50:14.89Z</time></trkpt><trkpt lat="42.1613117" lon="14.6392933"><ele>27.0</ele><time>2026-04-27T09:50:16.89Z</time></trkpt><trkpt lat="42.1612017" lon="14.6392483"><ele>27.25</ele><time>2026-04-27T09:50:18.89Z</time></trkpt><trkpt lat="42.1610917" lon="14.6392083"><ele>27.5</ele><time>2026-04-27T09:50:20.89Z</time></trkpt><trkpt lat="42.16098" lon="14.6391633"><ele>27.75</ele><time>2026-04-27T09:50:22.89Z</time></trkpt><trkpt lat="42.16088" lon="14.639105"><ele>28.0</ele><time>2026-04-27T09:50:24.89Z</time></trkpt><trkpt lat="42.160775" lon="14.6390567"><ele>28.4</ele><time>2026-04-27T09:50:26.89Z</time></trkpt><trkpt lat="42.1606717" lon="14.639005"><ele>28.799999999999997</ele><time>2026-04-27T09:50:28.889Z</time></trkpt><trkpt lat="42.1605667" lon="14.6389517"><ele>29.2</ele><time>2026-04-27T09:50:30.89Z</time></trkpt><trkpt lat="42.1604667" lon="14.6388983"><ele>29.6</ele><time>2026-04-27T09:50:32.889Z</time></trkpt><trkpt lat="42.16036" lon="14.6388533"><ele>30.0</ele><time>2026-04-27T09:50:34.89Z</time></trkpt><trkpt lat="42.1602567" lon="14.638815"><ele>30.0</ele><time>2026-04-27T09:50:36.89Z</time></trkpt><trkpt lat="42.160165" lon="14.6387733"><ele>30.0</ele><time>2026-04-27T09:50:38.89Z</time></trkpt><trkpt lat="42.1600667" lon="14.638745"><ele>30.0</ele><time>2026-04-27T09:50:40.89Z</time></trkpt><trkpt lat="42.1599733" lon="14.6387283"><ele>30.0</ele><time>2026-04-27T09:50:42.889Z</time></trkpt><trkpt lat="42.15991" lon="14.6387183"><ele>30.0</ele><time>2026-04-27T09:50:46.89Z</time></trkpt><trkpt lat="42.1598" lon="14.6386317"><ele>29.666666666666668</ele><time>2026-04-27T09:50:47.89Z</time></trkpt><trkpt lat="42.15974" lon="14.6385983"><ele>29.333333333333336</ele><time>2026-04-27T09:50:48.89Z</time></trkpt><trkpt lat="42.159625" lon="14.638505"><ele>29.0</ele><time>2026-04-27T09:50:50.889Z</time></trkpt><trkpt lat="42.1595633" lon="14.63847"><ele>28.666666666666668</ele><time>2026-04-27T09:50:51.889Z</time></trkpt><trkpt lat="42.1594767" lon="14.6384067"><ele>28.333333333333336</ele><time>2026-04-27T09:50:53.889Z</time></trkpt><trkpt lat="42.1594733" lon="14.6383133"><ele>28.0</ele><time>2026-04-27T09:50:57.89Z</time></trkpt><trkpt lat="42.1595617" lon="14.6382933"><ele>28.000000000000004</ele><time>2026-04-27T09:51:00.889Z</time></trkpt><trkpt lat="42.1596517" lon="14.6382917"><ele>28.0</ele><time>2026-04-27T09:51:03.89Z</time></trkpt><trkpt lat="42.15974" lon="14.6382917"><ele>28.0</ele><time>2026-04-27T09:51:06.889Z</time></trkpt><trkpt lat="42.1597833" lon="14.6382283"><ele>28.0</ele><time>2026-04-27T09:51:08.89Z</time></trkpt><trkpt lat="42.159825" lon="14.63815"><ele>28.000000000000004</ele><time>2026-04-27T09:51:10.89Z</time></trkpt><trkpt lat="42.15988" lon="14.6380667"><ele>28.0</ele><time>2026-04-27T09:51:12.889Z</time></trkpt><trkpt lat="42.1599283" lon="14.6379933"><ele>28.799999999999997</ele><time>2026-04-27T09:51:14.89Z</time></trkpt><trkpt lat="42.1599683" lon="14.6379117"><ele>29.599999999999998</ele><time>2026-04-27T09:51:16.889Z</time></trkpt><trkpt lat="42.1600167" lon="14.6378183"><ele>30.400000000000002</ele><time>2026-04-27T09:51:18.89Z</time></trkpt><trkpt lat="42.1600717" lon="14.6377083"><ele>31.200000000000003</ele><time>2026-04-27T09:51:20.89Z</time></trkpt><trkpt lat="42.1601317" lon="14.6376083"><ele>32.0</ele><time>2026-04-27T09:51:22.89Z</time></trkpt><trkpt lat="42.1601883" lon="14.6374917"><ele>32.2</ele><time>2026-04-27T09:51:24.89Z</time></trkpt><trkpt lat="42.16024" lon="14.6373833"><ele>32.400000000000006</ele><time>2026-04-27T09:51:26.89Z</time></trkpt><trkpt lat="42.1602933" lon="14.6372733"><ele>32.599999999999994</ele><time>2026-04-27T09:51:28.889Z</time></trkpt><trkpt lat="42.1603483" lon="14.637175"><ele>32.8</ele><time>2026-04-27T09:51:30.89Z</time></trkpt><trkpt lat="42.1604017" lon="14.6370817"><ele>33.0</ele><time>2026-04-27T09:51:32.89Z</time></trkpt><trkpt lat="42.16046" lon="14.636985"><ele>32.666666666666664</ele><time>2026-04-27T09:51:34.89Z</time></trkpt><trkpt lat="42.160515" lon="14.6368833"><ele>32.333333333333336</ele><time>2026-04-27T09:51:36.89Z</time></trkpt><trkpt lat="42.1605567" lon="14.63679"><ele>32.0</ele><time>2026-04-27T09:51:38.889Z</time></trkpt><trkpt lat="42.1605767" lon="14.6366883"><ele>31.666666666666668</ele><time>2026-04-27T09:51:40.89Z</time></trkpt><trkpt lat="42.16058" lon="14.6365767"><ele>31.333333333333336</ele><time>2026-04-27T09:51:42.89Z</time></trkpt><trkpt lat="42.160575" lon="14.636485"><ele>31.0</ele><time>2026-04-27T09:51:44.89Z</time></trkpt><trkpt lat="42.16056" lon="14.6364"><ele>31.0</ele><time>2026-04-27T09:51:46.89Z</time></trkpt><trkpt lat="42.1605133" lon="14.6363117"><ele>31.0</ele><time>2026-04-27T09:51:49.89Z</time></trkpt><trkpt lat="42.1604517" lon="14.63624"><ele>31.0</ele><time>2026-04-27T09:51:51.889Z</time></trkpt><trkpt lat="42.1603683" lon="14.636165"><ele>31.0</ele><time>2026-04-27T09:51:53.89Z</time></trkpt><trkpt lat="42.1602867" lon="14.636085"><ele>31.0</ele><time>2026-04-27T09:51:55.89Z</time></trkpt><trkpt lat="42.1601867" lon="14.6359617"><ele>31.166666666666668</ele><time>2026-04-27T09:51:57.89Z</time></trkpt><trkpt lat="42.1601367" lon="14.635875"><ele>31.333333333333336</ele><time>2026-04-27T09:51:58.889Z</time></trkpt><trkpt lat="42.1600867" lon="14.635785"><ele>31.5</ele><time>2026-04-27T09:51:59.89Z</time></trkpt><trkpt lat="42.1600267" lon="14.635705"><ele>31.666666666666664</ele><time>2026-04-27T09:52:00.89Z</time></trkpt><trkpt lat="42.1599717" lon="14.6356267"><ele>31.833333333333332</ele><time>2026-04-27T09:52:01.89Z</time></trkpt><trkpt lat="42.1599133" lon="14.6355533"><ele>32.0</ele><time>2026-04-27T09:52:02.89Z</time></trkpt><trkpt lat="42.1598617" lon="14.63548"><ele>31.499999999999996</ele><time>2026-04-27T09:52:03.89Z</time></trkpt><trkpt lat="42.1598033" lon="14.6354117"><ele>31.0</ele><time>2026-04-27T09:52:04.89Z</time></trkpt><trkpt lat="42.15975" lon="14.635345"><ele>30.5</ele><time>2026-04-27T09:52:05.889Z</time></trkpt><trkpt lat="42.15971" lon="14.6352767"><ele>30.0</ele><time>2026-04-27T09:52:06.889Z</time></trkpt><trkpt lat="42.159645" lon="14.63515"><ele>29.499999999999996</ele><time>2026-04-27T09:52:08.89Z</time></trkpt><trkpt lat="42.1595783" lon="14.63504"><ele>29.0</ele><time>2026-04-27T09:52:10.889Z</time></trkpt><trkpt lat="42.1595067" lon="14.634945"><ele>29.0</ele><time>2026-04-27T09:52:12.89Z</time></trkpt><trkpt lat="42.1594283" lon="14.6348367"><ele>29.0</ele><time>2026-04-27T09:52:14.89Z</time></trkpt><trkpt lat="42.1593517" lon="14.6347317"><ele>29.0</ele><time>2026-04-27T09:52:16.89Z</time></trkpt><trkpt lat="42.1593017" lon="14.634655"><ele>29.0</ele><time>2026-04-27T09:52:18.889Z</time></trkpt><trkpt lat="42.15925" lon="14.6345783"><ele>29.0</ele><time>2026-04-27T09:52:21.89Z</time></trkpt><trkpt lat="42.15919" lon="14.634485"><ele>28.999999999999996</ele><time>2026-04-27T09:52:24.89Z</time></trkpt><trkpt lat="42.1591483" lon="14.63442"><ele>29.0</ele><time>2026-04-27T09:52:26.89Z</time></trkpt><trkpt lat="42.159095" lon="14.6343467"><ele>29.0</ele><time>2026-04-27T09:52:28.889Z</time></trkpt><trkpt lat="42.1590317" lon="14.6342617"><ele>29.0</ele><time>2026-04-27T09:52:30.889Z</time></trkpt><trkpt lat="42.1589983" lon="14.6341617"><ele>28.999999999999996</ele><time>2026-04-27T09:52:32.889Z</time></trkpt><trkpt lat="42.1589983" lon="14.63406"><ele>29.0</ele><time>2026-04-27T09:52:34.89Z</time></trkpt><trkpt lat="42.1589983" lon="14.6339233"><ele>29.0</ele><time>2026-04-27T09:52:36.89Z</time></trkpt><trkpt lat="42.1590067" lon="14.6337633"><ele>29.0</ele><time>2026-04-27T09:52:38.889Z</time></trkpt><trkpt lat="42.1590017" lon="14.6336083"><ele>29.0</ele><time>2026-04-27T09:52:40.89Z</time></trkpt><trkpt lat="42.15898" lon="14.633455"><ele>29.0</ele><time>2026-04-27T09:52:42.889Z</time></trkpt><trkpt lat="42.15896" lon="14.6333067"><ele>29.4</ele><time>2026-04-27T09:52:44.89Z</time></trkpt><trkpt lat="42.1589283" lon="14.6331783"><ele>29.799999999999997</ele><time>2026-04-27T09:52:46.89Z</time></trkpt><trkpt lat="42.1588967" lon="14.6330517"><ele>30.200000000000003</ele><time>2026-04-27T09:52:48.89Z</time></trkpt><trkpt lat="42.1588617" lon="14.6329283"><ele>30.6</ele><time>2026-04-27T09:52:50.89Z</time></trkpt><trkpt lat="42.15883" lon="14.6327967"><ele>31.0</ele><time>2026-04-27T09:52:52.889Z</time></trkpt><trkpt lat="42.1587917" lon="14.63267"><ele>31.200000000000003</ele><time>2026-04-27T09:52:54.89Z</time></trkpt><trkpt lat="42.15876" lon="14.632545"><ele>31.400000000000002</ele><time>2026-04-27T09:52:56.889Z</time></trkpt><trkpt lat="42.1587317" lon="14.6324167"><ele>31.6</ele><time>2026-04-27T09:52:58.89Z</time></trkpt><trkpt lat="42.1587033" lon="14.6322983"><ele>31.8</ele><time>2026-04-27T09:53:00.889Z</time></trkpt><trkpt lat="42.15867" lon="14.6321867"><ele>32.0</ele><time>2026-04-27T09:53:02.89Z</time></trkpt><trkpt lat="42.1586317" lon="14.6320683"><ele>32.800000000000004</ele><time>2026-04-27T09:53:04.89Z</time></trkpt><trkpt lat="42.158595" lon="14.63195"><ele>33.6</ele><time>2026-04-27T09:53:06.889Z</time></trkpt><trkpt lat="42.1585583" lon="14.631825"><ele>34.400000000000006</ele><time>2026-04-27T09:53:08.89Z</time></trkpt><trkpt lat="42.158535" lon="14.6316883"><ele>35.2</ele><time>2026-04-27T09:53:10.89Z</time></trkpt><trkpt lat="42.1585033" lon="14.631545"><ele>36.0</ele><time>2026-04-27T09:53:12.89Z</time></trkpt><trkpt lat="42.1584683" lon="14.6314017"><ele>36.0</ele><time>2026-04-27T09:53:14.89Z</time></trkpt><trkpt lat="42.1584533" lon="14.6313183"><ele>36.0</ele><time>2026-04-27T09:53:15.889Z</time></trkpt><trkpt lat="42.1584167" lon="14.6311767"><ele>36.0</ele><time>2026-04-27T09:53:17.889Z</time></trkpt><trkpt lat="42.1583867" lon="14.63104"><ele>36.0</ele><time>2026-04-27T09:53:19.89Z</time></trkpt><trkpt lat="42.1583483" lon="14.63089"><ele>36.0</ele><time>2026-04-27T09:53:21.89Z</time></trkpt><trkpt lat="42.1583167" lon="14.6307417"><ele>35.75</ele><time>2026-04-27T09:53:23.89Z</time></trkpt><trkpt lat="42.1582883" lon="14.6305917"><ele>35.5</ele><time>2026-04-27T09:53:25.889Z</time></trkpt><trkpt lat="42.1582483" lon="14.6304483"><ele>35.25</ele><time>2026-04-27T09:53:27.89Z</time></trkpt><trkpt lat="42.1581883" lon="14.6303117"><ele>35.0</ele><time>2026-04-27T09:53:29.89Z</time></trkpt><trkpt lat="42.1581283" lon="14.6301867"><ele>35.0</ele><time>2026-04-27T09:53:31.889Z</time></trkpt><trkpt lat="42.1580667" lon="14.6300917"><ele>35.0</ele><time>2026-04-27T09:53:33.889Z</time></trkpt><trkpt lat="42.158" lon="14.6299967"><ele>35.0</ele><time>2026-04-27T09:53:35.89Z</time></trkpt><trkpt lat="42.1579333" lon="14.62989"><ele>35.0</ele><time>2026-04-27T09:53:37.889Z</time></trkpt><trkpt lat="42.157855" lon="14.6297583"><ele>35.0</ele><time>2026-04-27T09:53:39.89Z</time></trkpt><trkpt lat="42.1577733" lon="14.6296467"><ele>35.0</ele><time>2026-04-27T09:53:41.89Z</time></trkpt><trkpt lat="42.1577017" lon="14.629535"><ele>35.0</ele><time>2026-04-27T09:53:43.889Z</time></trkpt><trkpt lat="42.15765" lon="14.6294233"><ele>35.0</ele><time>2026-04-27T09:53:45.89Z</time></trkpt><trkpt lat="42.1576067" lon="14.6293"><ele>35.0</ele><time>2026-04-27T09:53:47.89Z</time></trkpt><trkpt lat="42.1575633" lon="14.6291633"><ele>35.0</ele><time>2026-04-27T09:53:49.889Z</time></trkpt><trkpt lat="42.1575267" lon="14.6290217"><ele>35.4</ele><time>2026-04-27T09:53:51.889Z</time></trkpt><trkpt lat="42.1574817" lon="14.62889"><ele>35.8</ele><time>2026-04-27T09:53:53.889Z</time></trkpt><trkpt lat="42.1574467" lon="14.6287467"><ele>36.2</ele><time>2026-04-27T09:53:55.89Z</time></trkpt><trkpt lat="42.1574017" lon="14.62861"><ele>36.6</ele><time>2026-04-27T09:53:57.889Z</time></trkpt><trkpt lat="42.1573467" lon="14.6284733"><ele>37.0</ele><time>2026-04-27T09:53:59.89Z</time></trkpt><trkpt lat="42.15732" lon="14.628395"><ele>37.0</ele><time>2026-04-27T09:54:00.889Z</time></trkpt><trkpt lat="42.1572833" lon="14.6282567"><ele>37.0</ele><time>2026-04-27T09:54:02.89Z</time></trkpt><trkpt lat="42.1572533" lon="14.628125"><ele>37.0</ele><time>2026-04-27T09:54:04.89Z</time></trkpt><trkpt lat="42.1572117" lon="14.6279783"><ele>37.0</ele><time>2026-04-27T09:54:06.889Z</time></trkpt><trkpt lat="42.1571767" lon="14.627835"><ele>37.0</ele><time>2026-04-27T09:54:08.89Z</time></trkpt><trkpt lat="42.1571433" lon="14.627705"><ele>37.2</ele><time>2026-04-27T09:54:10.89Z</time></trkpt><trkpt lat="42.1571117" lon="14.62758"><ele>37.400000000000006</ele><time>2026-04-27T09:54:12.89Z</time></trkpt><trkpt lat="42.1570733" lon="14.627455"><ele>37.599999999999994</ele><time>2026-04-27T09:54:14.889Z</time></trkpt><trkpt lat="42.1570367" lon="14.62733"><ele>37.8</ele><time>2026-04-27T09:54:16.89Z</time></trkpt><trkpt lat="42.1570033" lon="14.6272117"><ele>38.0</ele><time>2026-04-27T09:54:18.889Z</time></trkpt><trkpt lat="42.1569683" lon="14.6271067"><ele>38.0</ele><time>2026-04-27T09:54:20.89Z</time></trkpt><trkpt lat="42.1569183" lon="14.626985"><ele>38.0</ele><time>2026-04-27T09:54:22.89Z</time></trkpt><trkpt lat="42.1568417" lon="14.626865"><ele>38.0</ele><time>2026-04-27T09:54:24.89Z</time></trkpt><trkpt lat="42.156765" lon="14.6267483"><ele>38.0</ele><time>2026-04-27T09:54:26.89Z</time></trkpt><trkpt lat="42.1566933" lon="14.62663"><ele>38.0</ele><time>2026-04-27T09:54:28.89Z</time></trkpt><trkpt lat="42.1566133" lon="14.6265217"><ele>38.199999999999996</ele><time>2026-04-27T09:54:30.889Z</time></trkpt><trkpt lat="42.1565317" lon="14.6264167"><ele>38.4</ele><time>2026-04-27T09:54:32.89Z</time></trkpt><trkpt lat="42.1564533" lon="14.626315"><ele>38.599999999999994</ele><time>2026-04-27T09:54:34.889Z</time></trkpt><trkpt lat="42.15639" lon="14.6262217"><ele>38.8</ele><time>2026-04-27T09:54:36.89Z</time></trkpt><trkpt lat="42.1563383" lon="14.6261317"><ele>39.0</ele><time>2026-04-27T09:54:38.89Z</time></trkpt><trkpt lat="42.15628" lon="14.626035"><ele>39.0</ele><time>2026-04-27T09:54:40.89Z</time></trkpt><trkpt lat="42.1562333" lon="14.6259183"><ele>39.0</ele><time>2026-04-27T09:54:42.889Z</time></trkpt><trkpt lat="42.156185" lon="14.6258067"><ele>39.0</ele><time>2026-04-27T09:54:44.889Z</time></trkpt><trkpt lat="42.156125" lon="14.6257283"><ele>39.0</ele><time>2026-04-27T09:54:46.89Z</time></trkpt><trkpt lat="42.1560483" lon="14.6256567"><ele>39.0</ele><time>2026-04-27T09:54:48.89Z</time></trkpt><trkpt lat="42.1559633" lon="14.6255883"><ele>39.0</ele><time>2026-04-27T09:54:50.89Z</time></trkpt><trkpt lat="42.1558617" lon="14.6255017"><ele>39.0</ele><time>2026-04-27T09:54:52.889Z</time></trkpt><trkpt lat="42.1557667" lon="14.62542"><ele>39.0</ele><time>2026-04-27T09:54:54.889Z</time></trkpt><trkpt lat="42.1556733" lon="14.625335"><ele>39.0</ele><time>2026-04-27T09:54:56.89Z</time></trkpt><trkpt lat="42.15558" lon="14.6252417"><ele>39.4</ele><time>2026-04-27T09:54:58.89Z</time></trkpt><trkpt lat="42.155495" lon="14.62515"><ele>39.8</ele><time>2026-04-27T09:55:00.889Z</time></trkpt><trkpt lat="42.1554083" lon="14.6250483"><ele>40.199999999999996</ele><time>2026-04-27T09:55:02.889Z</time></trkpt><trkpt lat="42.15534" lon="14.624945"><ele>40.599999999999994</ele><time>2026-04-27T09:55:04.889Z</time></trkpt><trkpt lat="42.15529" lon="14.6248367"><ele>41.0</ele><time>2026-04-27T09:55:06.89Z</time></trkpt><trkpt lat="42.1552517" lon="14.6247317"><ele>41.0</ele><time>2026-04-27T09:55:08.889Z</time></trkpt><trkpt lat="42.1552083" lon="14.6246317"><ele>41.0</ele><time>2026-04-27T09:55:10.89Z</time></trkpt><trkpt lat="42.1551633" lon="14.6245283"><ele>41.0</ele><time>2026-04-27T09:55:12.89Z</time></trkpt><trkpt lat="42.1551083" lon="14.62442"><ele>41.0</ele><time>2026-04-27T09:55:14.89Z</time></trkpt><trkpt lat="42.1550417" lon="14.6243"><ele>41.0</ele><time>2026-04-27T09:55:16.89Z</time></trkpt><trkpt lat="42.1549717" lon="14.6241783"><ele>41.0</ele><time>2026-04-27T09:55:18.89Z</time></trkpt><trkpt lat="42.15491" lon="14.6240433"><ele>41.0</ele><time>2026-04-27T09:55:20.889Z</time></trkpt><trkpt lat="42.1548467" lon="14.6239117"><ele>41.0</ele><time>2026-04-27T09:55:22.89Z</time></trkpt><trkpt lat="42.1547767" lon="14.6237783"><ele>41.0</ele><time>2026-04-27T09:55:24.889Z</time></trkpt><trkpt lat="42.1547067" lon="14.6236533"><ele>41.5</ele><time>2026-04-27T09:55:26.89Z</time></trkpt><trkpt lat="42.154625" lon="14.623535"><ele>42.0</ele><time>2026-04-27T09:55:28.89Z</time></trkpt><trkpt lat="42.1545567" lon="14.6234133"><ele>42.5</ele><time>2026-04-27T09:55:30.89Z</time></trkpt><trkpt lat="42.1545" lon="14.6232833"><ele>43.0</ele><time>2026-04-27T09:55:32.89Z</time></trkpt><trkpt lat="42.15444" lon="14.6231467"><ele>43.0</ele><time>2026-04-27T09:55:34.89Z</time></trkpt><trkpt lat="42.15438" lon="14.6230167"><ele>43.0</ele><time>2026-04-27T09:55:36.89Z</time></trkpt><trkpt lat="42.1543267" lon="14.6228917"><ele>43.0</ele><time>2026-04-27T09:55:38.89Z</time></trkpt><trkpt lat="42.1542567" lon="14.6227583"><ele>43.0</ele><time>2026-04-27T09:55:40.89Z</time></trkpt><trkpt lat="42.1541883" lon="14.6226383"><ele>43.2</ele><time>2026-04-27T09:55:42.89Z</time></trkpt><trkpt lat="42.1541283" lon="14.6225117"><ele>43.4</ele><time>2026-04-27T09:55:44.889Z</time></trkpt><trkpt lat="42.1540733" lon="14.6223783"><ele>43.6</ele><time>2026-04-27T09:55:46.889Z</time></trkpt><trkpt lat="42.1540217" lon="14.6222517"><ele>43.800000000000004</ele><time>2026-04-27T09:55:48.89Z</time></trkpt><trkpt lat="42.1539767" lon="14.6221217"><ele>44.0</ele><time>2026-04-27T09:55:50.89Z</time></trkpt><trkpt lat="42.1539333" lon="14.6219933"><ele>44.2</ele><time>2026-04-27T09:55:52.89Z</time></trkpt><trkpt lat="42.153895" lon="14.62186"><ele>44.400000000000006</ele><time>2026-04-27T09:55:54.889Z</time></trkpt><trkpt lat="42.1538633" lon="14.6217283"><ele>44.6</ele><time>2026-04-27T09:55:56.89Z</time></trkpt><trkpt lat="42.153825" lon="14.6215867"><ele>44.8</ele><time>2026-04-27T09:55:58.889Z</time></trkpt><trkpt lat="42.1537833" lon="14.6214567"><ele>45.0</ele><time>2026-04-27T09:56:00.889Z</time></trkpt><trkpt lat="42.153765" lon="14.6213283"><ele>45.0</ele><time>2026-04-27T09:56:02.889Z</time></trkpt><trkpt lat="42.1537317" lon="14.6211883"><ele>45.0</ele><time>2026-04-27T09:56:04.89Z</time></trkpt><trkpt lat="42.1537033" lon="14.6210583"><ele>45.0</ele><time>2026-04-27T09:56:06.89Z</time></trkpt><trkpt lat="42.1536733" lon="14.6209183"><ele>45.0</ele><time>2026-04-27T09:56:08.889Z</time></trkpt><trkpt lat="42.1536317" lon="14.6207817"><ele>45.0</ele><time>2026-04-27T09:56:10.889Z</time></trkpt><trkpt lat="42.1536017" lon="14.6206483"><ele>45.2</ele><time>2026-04-27T09:56:12.89Z</time></trkpt><trkpt lat="42.1535633" lon="14.6205133"><ele>45.4</ele><time>2026-04-27T09:56:14.889Z</time></trkpt><trkpt lat="42.15353" lon="14.6203833"><ele>45.599999999999994</ele><time>2026-04-27T09:56:16.889Z</time></trkpt><trkpt lat="42.1534883" lon="14.6202417"><ele>45.8</ele><time>2026-04-27T09:56:18.889Z</time></trkpt><trkpt lat="42.1534467" lon="14.6200967"><ele>46.0</ele><time>2026-04-27T09:56:20.89Z</time></trkpt><trkpt lat="42.1534017" lon="14.6199617"><ele>46.8</ele><time>2026-04-27T09:56:22.89Z</time></trkpt><trkpt lat="42.1533883" lon="14.6198183"><ele>47.599999999999994</ele><time>2026-04-27T09:56:24.89Z</time></trkpt><trkpt lat="42.153355" lon="14.6196883"><ele>48.4</ele><time>2026-04-27T09:56:26.889Z</time></trkpt><trkpt lat="42.1533017" lon="14.619565"><ele>49.2</ele><time>2026-04-27T09:56:28.89Z</time></trkpt><trkpt lat="42.1532567" lon="14.6194383"><ele>50.0</ele><time>2026-04-27T09:56:30.889Z</time></trkpt><trkpt lat="42.1532367" lon="14.6193"><ele>50.8</ele><time>2026-04-27T09:56:32.889Z</time></trkpt><trkpt lat="42.1532317" lon="14.6191617"><ele>51.6</ele><time>2026-04-27T09:56:34.89Z</time></trkpt><trkpt lat="42.1532317" lon="14.6190217"><ele>52.400000000000006</ele><time>2026-04-27T09:56:36.889Z</time></trkpt><trkpt lat="42.15325" lon="14.6188833"><ele>53.2</ele><time>2026-04-27T09:56:38.889Z</time></trkpt><trkpt lat="42.15328" lon="14.618745"><ele>54.0</ele><time>2026-04-27T09:56:40.89Z</time></trkpt><trkpt lat="42.1533117" lon="14.6186067"><ele>54.800000000000004</ele><time>2026-04-27T09:56:42.889Z</time></trkpt><trkpt lat="42.1533533" lon="14.6184683"><ele>55.60000000000001</ele><time>2026-04-27T09:56:44.889Z</time></trkpt><trkpt lat="42.1533867" lon="14.6183317"><ele>56.4</ele><time>2026-04-27T09:56:46.89Z</time></trkpt><trkpt lat="42.1534217" lon="14.618205"><ele>57.2</ele><time>2026-04-27T09:56:48.89Z</time></trkpt><trkpt lat="42.1534567" lon="14.6180733"><ele>58.0</ele><time>2026-04-27T09:56:50.89Z</time></trkpt><trkpt lat="42.15348" lon="14.61794"><ele>58.8</ele><time>2026-04-27T09:56:52.89Z</time></trkpt><trkpt lat="42.1534967" lon="14.617815"><ele>59.599999999999994</ele><time>2026-04-27T09:56:54.89Z</time></trkpt><trkpt lat="42.1535083" lon="14.6176867"><ele>60.400000000000006</ele><time>2026-04-27T09:56:56.889Z</time></trkpt><trkpt lat="42.1535167" lon="14.6175617"><ele>61.2</ele><time>2026-04-27T09:56:58.889Z</time></trkpt><trkpt lat="42.1535333" lon="14.617445"><ele>62.0</ele><time>2026-04-27T09:57:00.889Z</time></trkpt><trkpt lat="42.1535483" lon="14.6173383"><ele>62.00000000000001</ele><time>2026-04-27T09:57:02.89Z</time></trkpt><trkpt lat="42.1535583" lon="14.61722"><ele>62.0</ele><time>2026-04-27T09:57:04.89Z</time></trkpt><trkpt lat="42.1535617" lon="14.6170983"><ele>62.0</ele><time>2026-04-27T09:57:06.89Z</time></trkpt><trkpt lat="42.1535633" lon="14.6169817"><ele>62.0</ele><time>2026-04-27T09:57:08.889Z</time></trkpt><trkpt lat="42.1535733" lon="14.6168617"><ele>62.00000000000001</ele><time>2026-04-27T09:57:10.89Z</time></trkpt><trkpt lat="42.153575" lon="14.61675"><ele>62.0</ele><time>2026-04-27T09:57:12.889Z</time></trkpt><trkpt lat="42.1535733" lon="14.6166383"><ele>62.66666666666667</ele><time>2026-04-27T09:57:14.89Z</time></trkpt><trkpt lat="42.15358" lon="14.61653"><ele>63.333333333333336</ele><time>2026-04-27T09:57:16.89Z</time></trkpt><trkpt lat="42.1535867" lon="14.6164217"><ele>64.0</ele><time>2026-04-27T09:57:18.889Z</time></trkpt><trkpt lat="42.1535917" lon="14.616305"><ele>64.66666666666667</ele><time>2026-04-27T09:57:20.89Z</time></trkpt><trkpt lat="42.1536083" lon="14.6161917"><ele>65.33333333333333</ele><time>2026-04-27T09:57:22.89Z</time></trkpt><trkpt lat="42.1536133" lon="14.6160933"><ele>66.0</ele><time>2026-04-27T09:57:24.89Z</time></trkpt><trkpt lat="42.15361" lon="14.6159967"><ele>67.66666666666667</ele><time>2026-04-27T09:57:26.89Z</time></trkpt><trkpt lat="42.1536167" lon="14.6159067"><ele>69.33333333333333</ele><time>2026-04-27T09:57:28.89Z</time></trkpt><trkpt lat="42.153625" lon="14.6158183"><ele>71.0</ele><time>2026-04-27T09:57:30.889Z</time></trkpt><trkpt lat="42.1536317" lon="14.6157217"><ele>72.66666666666666</ele><time>2026-04-27T09:57:32.889Z</time></trkpt><trkpt lat="42.15364" lon="14.6156033"><ele>74.33333333333333</ele><time>2026-04-27T09:57:34.89Z</time></trkpt><trkpt lat="42.1536517" lon="14.6154717"><ele>76.0</ele><time>2026-04-27T09:57:36.89Z</time></trkpt><trkpt lat="42.1536517" lon="14.6153633"><ele>76.5</ele><time>2026-04-27T09:57:38.889Z</time></trkpt><trkpt lat="42.1536417" lon="14.6152517"><ele>77.0</ele><time>2026-04-27T09:57:40.89Z</time></trkpt><trkpt lat="42.15363" lon="14.6151417"><ele>77.5</ele><time>2026-04-27T09:57:42.889Z</time></trkpt><trkpt lat="42.1536133" lon="14.61504"><ele>78.0</ele><time>2026-04-27T09:57:44.89Z</time></trkpt><trkpt lat="42.1536017" lon="14.6149317"><ele>78.5</ele><time>2026-04-27T09:57:46.89Z</time></trkpt><trkpt lat="42.1535917" lon="14.614825"><ele>79.0</ele><time>2026-04-27T09:57:48.889Z</time></trkpt><trkpt lat="42.1536017" lon="14.6147167"><ele>79.00000000000001</ele><time>2026-04-27T09:57:50.889Z</time></trkpt><trkpt lat="42.1536217" lon="14.61462"><ele>79.0</ele><time>2026-04-27T09:57:52.889Z</time></trkpt><trkpt lat="42.1536567" lon="14.614515"><ele>79.0</ele><time>2026-04-27T09:57:54.889Z</time></trkpt><trkpt lat="42.1536767" lon="14.6144183"><ele>79.0</ele><time>2026-04-27T09:57:56.889Z</time></trkpt><trkpt lat="42.1536867" lon="14.6143217"><ele>79.0</ele><time>2026-04-27T09:57:58.889Z</time></trkpt><trkpt lat="42.153685" lon="14.6142283"><ele>79.00000000000001</ele><time>2026-04-27T09:58:00.89Z</time></trkpt><trkpt lat="42.1536783" lon="14.614135"><ele>79.0</ele><time>2026-04-27T09:58:02.889Z</time></trkpt><trkpt lat="42.1536667" lon="14.614035"><ele>79.85714285714286</ele><time>2026-04-27T09:58:04.889Z</time></trkpt><trkpt lat="42.1536617" lon="14.6139317"><ele>80.71428571428572</ele><time>2026-04-27T09:58:06.889Z</time></trkpt><trkpt lat="42.153665" lon="14.6138283"><ele>81.57142857142858</ele><time>2026-04-27T09:58:08.889Z</time></trkpt><trkpt lat="42.153665" lon="14.6137267"><ele>82.42857142857143</ele><time>2026-04-27T09:58:10.89Z</time></trkpt><trkpt lat="42.15366" lon="14.6136333"><ele>83.28571428571428</ele><time>2026-04-27T09:58:12.89Z</time></trkpt><trkpt lat="42.1536467" lon="14.6135417"><ele>84.14285714285715</ele><time>2026-04-27T09:58:14.889Z</time></trkpt><trkpt lat="42.1536283" lon="14.613445"><ele>85.0</ele><time>2026-04-27T09:58:16.89Z</time></trkpt><trkpt lat="42.1536017" lon="14.613355"><ele>86.33333333333333</ele><time>2026-04-27T09:58:18.889Z</time></trkpt><trkpt lat="42.1535733" lon="14.6132617"><ele>87.66666666666666</ele><time>2026-04-27T09:58:20.89Z</time></trkpt><trkpt lat="42.153545" lon="14.6131633"><ele>89.0</ele><time>2026-04-27T09:58:22.89Z</time></trkpt><trkpt lat="42.1535183" lon="14.61307"><ele>90.33333333333333</ele><time>2026-04-27T09:58:24.889Z</time></trkpt><trkpt lat="42.1534883" lon="14.612985"><ele>91.66666666666667</ele><time>2026-04-27T09:58:26.889Z</time></trkpt><trkpt lat="42.1534517" lon="14.6128883"><ele>93.0</ele><time>2026-04-27T09:58:28.889Z</time></trkpt><trkpt lat="42.1534" lon="14.612805"><ele>94.33333333333333</ele><time>2026-04-27T09:58:30.89Z</time></trkpt><trkpt lat="42.1533633" lon="14.6127017"><ele>95.66666666666666</ele><time>2026-04-27T09:58:32.89Z</time></trkpt><trkpt lat="42.15333" lon="14.6126067"><ele>97.0</ele><time>2026-04-27T09:58:34.889Z</time></trkpt><trkpt lat="42.153285" lon="14.612515"><ele>98.33333333333333</ele><time>2026-04-27T09:58:36.89Z</time></trkpt><trkpt lat="42.153235" lon="14.6124367"><ele>99.66666666666666</ele><time>2026-04-27T09:58:38.89Z</time></trkpt><trkpt lat="42.1531933" lon="14.61236"><ele>101.0</ele><time>2026-04-27T09:58:40.89Z</time></trkpt><trkpt lat="42.15315" lon="14.6122717"><ele>101.57142857142857</ele><time>2026-04-27T09:58:42.889Z</time></trkpt><trkpt lat="42.1530933" lon="14.612195"><ele>102.14285714285714</ele><time>2026-04-27T09:58:44.89Z</time></trkpt><trkpt lat="42.15304" lon="14.6121383"><ele>102.71428571428572</ele><time>2026-04-27T09:58:46.889Z</time></trkpt><trkpt lat="42.1529933" lon="14.6120633"><ele>103.28571428571428</ele><time>2026-04-27T09:58:48.889Z</time></trkpt><trkpt lat="42.152955" lon="14.61197"><ele>103.85714285714286</ele><time>2026-04-27T09:58:50.89Z</time></trkpt><trkpt lat="42.1529183" lon="14.6118783"><ele>104.42857142857143</ele><time>2026-04-27T09:58:52.889Z</time></trkpt><trkpt lat="42.1528933" lon="14.6117883"><ele>105.0</ele><time>2026-04-27T09:58:54.89Z</time></trkpt><trkpt lat="42.15286" lon="14.6117"><ele>106.0</ele><time>2026-04-27T09:58:56.889Z</time></trkpt><trkpt lat="42.1528183" lon="14.611615"><ele>107.0</ele><time>2026-04-27T09:58:58.89Z</time></trkpt><trkpt lat="42.1527633" lon="14.6115417"><ele>108.0</ele><time>2026-04-27T09:59:00.89Z</time></trkpt><trkpt lat="42.1526883" lon="14.6114983"><ele>109.0</ele><time>2026-04-27T09:59:02.89Z</time></trkpt><trkpt lat="42.15261" lon="14.6114967"><ele>110.0</ele><time>2026-04-27T09:59:04.89Z</time></trkpt><trkpt lat="42.1525367" lon="14.6114983"><ele>111.0</ele><time>2026-04-27T09:59:06.889Z</time></trkpt><trkpt lat="42.1524617" lon="14.61151"><ele>111.0</ele><time>2026-04-27T09:59:08.889Z</time></trkpt><trkpt lat="42.15239" lon="14.6115167"><ele>111.0</ele><time>2026-04-27T09:59:10.89Z</time></trkpt><trkpt lat="42.152315" lon="14.6115333"><ele>111.0</ele><time>2026-04-27T09:59:12.89Z</time></trkpt><trkpt lat="42.1522433" lon="14.6115483"><ele>111.0</ele><time>2026-04-27T09:59:14.889Z</time></trkpt><trkpt lat="42.1521717" lon="14.6115867"><ele>111.0</ele><time>2026-04-27T09:59:16.889Z</time></trkpt><trkpt lat="42.152095" lon="14.61161"><ele>111.0</ele><time>2026-04-27T09:59:18.89Z</time></trkpt><trkpt lat="42.15202" lon="14.611625"><ele>112.5</ele><time>2026-04-27T09:59:20.89Z</time></trkpt><trkpt lat="42.151945" lon="14.6116183"><ele>114.0</ele><time>2026-04-27T09:59:23.89Z</time></trkpt><trkpt lat="42.1518567" lon="14.6116267"><ele>115.5</ele><time>2026-04-27T09:59:27.889Z</time></trkpt><trkpt lat="42.1517667" lon="14.6116267"><ele>117.0</ele><time>2026-04-27T09:59:30.89Z</time></trkpt><trkpt lat="42.1516917" lon="14.6116267"><ele>118.5</ele><time>2026-04-27T09:59:32.89Z</time></trkpt><trkpt lat="42.1516017" lon="14.6116383"><ele>120.0</ele><time>2026-04-27T09:59:34.89Z</time></trkpt><trkpt lat="42.1515217" lon="14.6116583"><ele>119.0</ele><time>2026-04-27T09:59:36.89Z</time></trkpt><trkpt lat="42.1514617" lon="14.61169"><ele>118.0</ele><time>2026-04-27T09:59:38.89Z</time></trkpt><trkpt lat="42.1513983" lon="14.6117417"><ele>117.0</ele><time>2026-04-27T09:59:40.89Z</time></trkpt><trkpt lat="42.1513367" lon="14.6118017"><ele>116.0</ele><time>2026-04-27T09:59:42.89Z</time></trkpt><trkpt lat="42.151275" lon="14.6118717"><ele>115.0</ele><time>2026-04-27T09:59:44.889Z</time></trkpt><trkpt lat="42.15122" lon="14.6119517"><ele>114.0</ele><time>2026-04-27T09:59:46.89Z</time></trkpt><trkpt lat="42.1511533" lon="14.6120367"><ele>114.0</ele><time>2026-04-27T09:59:48.889Z</time></trkpt><trkpt lat="42.151085" lon="14.612095"><ele>114.0</ele><time>2026-04-27T09:59:50.89Z</time></trkpt><trkpt lat="42.1510117" lon="14.61215"><ele>114.0</ele><time>2026-04-27T09:59:53.89Z</time></trkpt><trkpt lat="42.15097" lon="14.6120633"><ele>114.0</ele><time>2026-04-27T09:59:57.889Z</time></trkpt><trkpt lat="42.15097" lon="14.611975"><ele>114.0</ele><time>2026-04-27T10:00:00.89Z</time></trkpt><trkpt lat="42.15094" lon="14.6118767"><ele>114.0</ele><time>2026-04-27T10:00:03.889Z</time></trkpt><trkpt lat="42.1509117" lon="14.6117817"><ele>116.33333333333333</ele><time>2026-04-27T10:00:05.889Z</time></trkpt><trkpt lat="42.1508817" lon="14.6116983"><ele>118.66666666666666</ele><time>2026-04-27T10:00:07.89Z</time></trkpt><trkpt lat="42.1508633" lon="14.6115833"><ele>121.0</ele><time>2026-04-27T10:00:09.89Z</time></trkpt><trkpt lat="42.1508367" lon="14.61148"><ele>123.33333333333333</ele><time>2026-04-27T10:00:11.89Z</time></trkpt><trkpt lat="42.1508017" lon="14.6113817"><ele>125.66666666666666</ele><time>2026-04-27T10:00:13.889Z</time></trkpt><trkpt lat="42.150775" lon="14.61128"><ele>128.0</ele><time>2026-04-27T10:00:15.89Z</time></trkpt><trkpt lat="42.15077" lon="14.6111517"><ele>128.8</ele><time>2026-04-27T10:00:17.89Z</time></trkpt><trkpt lat="42.15077" lon="14.61102"><ele>129.60000000000002</ele><time>2026-04-27T10:00:19.89Z</time></trkpt><trkpt lat="42.1507683" lon="14.6108767"><ele>130.39999999999998</ele><time>2026-04-27T10:00:21.89Z</time></trkpt><trkpt lat="42.1507683" lon="14.6107467"><ele>131.2</ele><time>2026-04-27T10:00:23.889Z</time></trkpt><trkpt lat="42.150765" lon="14.6106217"><ele>132.0</ele><time>2026-04-27T10:00:25.889Z</time></trkpt><trkpt lat="42.1507617" lon="14.61047"><ele>132.0</ele><time>2026-04-27T10:00:27.889Z</time></trkpt><trkpt lat="42.1507517" lon="14.6103367"><ele>132.0</ele><time>2026-04-27T10:00:29.889Z</time></trkpt><trkpt lat="42.1507467" lon="14.6101967"><ele>132.0</ele><time>2026-04-27T10:00:31.89Z</time></trkpt><trkpt lat="42.15075" lon="14.61004"><ele>132.0</ele><time>2026-04-27T10:00:33.89Z</time></trkpt><trkpt lat="42.1507467" lon="14.6098883"><ele>132.0</ele><time>2026-04-27T10:00:35.89Z</time></trkpt><trkpt lat="42.1507417" lon="14.6097633"><ele>132.5</ele><time>2026-04-27T10:00:37.889Z</time></trkpt><trkpt lat="42.1507383" lon="14.6096517"><ele>133.0</ele><time>2026-04-27T10:00:39.89Z</time></trkpt><trkpt lat="42.150735" lon="14.6095283"><ele>133.5</ele><time>2026-04-27T10:00:41.89Z</time></trkpt><trkpt lat="42.1507333" lon="14.60939"><ele>134.0</ele><time>2026-04-27T10:00:43.889Z</time></trkpt><trkpt lat="42.1507467" lon="14.609275"><ele>134.5</ele><time>2026-04-27T10:00:45.89Z</time></trkpt><trkpt lat="42.1507783" lon="14.6091717"><ele>135.0</ele><time>2026-04-27T10:00:47.889Z</time></trkpt><trkpt lat="42.1508183" lon="14.609055"><ele>135.2</ele><time>2026-04-27T10:00:49.89Z</time></trkpt><trkpt lat="42.150865" lon="14.6089467"><ele>135.4</ele><time>2026-04-27T10:00:51.89Z</time></trkpt><trkpt lat="42.1509083" lon="14.60882"><ele>135.6</ele><time>2026-04-27T10:00:53.89Z</time></trkpt><trkpt lat="42.1509417" lon="14.6086817"><ele>135.8</ele><time>2026-04-27T10:00:55.889Z</time></trkpt><trkpt lat="42.150965" lon="14.6085567"><ele>136.0</ele><time>2026-04-27T10:00:57.89Z</time></trkpt><trkpt lat="42.1509817" lon="14.608435"><ele>136.2</ele><time>2026-04-27T10:00:59.889Z</time></trkpt><trkpt lat="42.1509867" lon="14.6083033"><ele>136.39999999999998</ele><time>2026-04-27T10:01:01.889Z</time></trkpt><trkpt lat="42.1509833" lon="14.6081617"><ele>136.6</ele><time>2026-04-27T10:01:03.89Z</time></trkpt><trkpt lat="42.15099" lon="14.6080317"><ele>136.79999999999998</ele><time>2026-04-27T10:01:05.89Z</time></trkpt><trkpt lat="42.1509883" lon="14.6079"><ele>137.0</ele><time>2026-04-27T10:01:07.89Z</time></trkpt><trkpt lat="42.1509783" lon="14.6077717"><ele>137.2</ele><time>2026-04-27T10:01:09.89Z</time></trkpt><trkpt lat="42.15097" lon="14.6076417"><ele>137.39999999999998</ele><time>2026-04-27T10:01:11.889Z</time></trkpt><trkpt lat="42.1509633" lon="14.6075183"><ele>137.60000000000002</ele><time>2026-04-27T10:01:13.89Z</time></trkpt><trkpt lat="42.1509483" lon="14.60739"><ele>137.8</ele><time>2026-04-27T10:01:15.89Z</time></trkpt><trkpt lat="42.1509283" lon="14.607265"><ele>138.0</ele><time>2026-04-27T10:01:17.89Z</time></trkpt><trkpt lat="42.15091" lon="14.6071367"><ele>138.0</ele><time>2026-04-27T10:01:19.89Z</time></trkpt><trkpt lat="42.1508983" lon="14.607015"><ele>138.0</ele><time>2026-04-27T10:01:21.889Z</time></trkpt><trkpt lat="42.1509017" lon="14.6068983"><ele>138.0</ele><time>2026-04-27T10:01:23.89Z</time></trkpt><trkpt lat="42.1509383" lon="14.606795"><ele>138.0</ele><time>2026-04-27T10:01:25.889Z</time></trkpt><trkpt lat="42.1509983" lon="14.6067183"><ele>138.0</ele><time>2026-04-27T10:01:27.89Z</time></trkpt><trkpt lat="42.1510633" lon="14.6066433"><ele>138.0</ele><time>2026-04-27T10:01:29.89Z</time></trkpt><trkpt lat="42.1511333" lon="14.606555"><ele>138.16666666666666</ele><time>2026-04-27T10:01:31.889Z</time></trkpt><trkpt lat="42.1512133" lon="14.6064883"><ele>138.33333333333334</ele><time>2026-04-27T10:01:33.889Z</time></trkpt><trkpt lat="42.15128" lon="14.6064333"><ele>138.5</ele><time>2026-04-27T10:01:35.889Z</time></trkpt><trkpt lat="42.1513533" lon="14.6063583"><ele>138.66666666666669</ele><time>2026-04-27T10:01:37.89Z</time></trkpt><trkpt lat="42.1514167" lon="14.6062783"><ele>138.83333333333334</ele><time>2026-04-27T10:01:39.89Z</time></trkpt><trkpt lat="42.1514733" lon="14.60621"><ele>139.0</ele><time>2026-04-27T10:01:41.89Z</time></trkpt><trkpt lat="42.1515167" lon="14.6061483"><ele>139.83333333333334</ele><time>2026-04-27T10:01:43.89Z</time></trkpt><trkpt lat="42.1515567" lon="14.6060733"><ele>140.66666666666669</ele><time>2026-04-27T10:01:45.89Z</time></trkpt><trkpt lat="42.1515917" lon="14.605975"><ele>141.5</ele><time>2026-04-27T10:01:47.89Z</time></trkpt><trkpt lat="42.15161" lon="14.6058717"><ele>142.33333333333334</ele><time>2026-04-27T10:01:49.889Z</time></trkpt><trkpt lat="42.1516167" lon="14.6057583"><ele>143.16666666666666</ele><time>2026-04-27T10:01:51.889Z</time></trkpt><trkpt lat="42.1516017" lon="14.60564"><ele>144.0</ele><time>2026-04-27T10:01:53.889Z</time></trkpt><trkpt lat="42.1515633" lon="14.60552"><ele>144.0</ele><time>2026-04-27T10:01:55.889Z</time></trkpt><trkpt lat="42.1515083" lon="14.6053967"><ele>144.0</ele><time>2026-04-27T10:01:57.889Z</time></trkpt><trkpt lat="42.15145" lon="14.6052617"><ele>144.0</ele><time>2026-04-27T10:01:59.89Z</time></trkpt><trkpt lat="42.151395" lon="14.6051267"><ele>144.0</ele><time>2026-04-27T10:02:01.89Z</time></trkpt><trkpt lat="42.1513283" lon="14.60499"><ele>144.75</ele><time>2026-04-27T10:02:03.889Z</time></trkpt><trkpt lat="42.1512617" lon="14.6048567"><ele>145.5</ele><time>2026-04-27T10:02:05.89Z</time></trkpt><trkpt lat="42.1511867" lon="14.6047267"><ele>146.25</ele><time>2026-04-27T10:02:07.89Z</time></trkpt><trkpt lat="42.1511233" lon="14.6045967"><ele>147.0</ele><time>2026-04-27T10:02:09.889Z</time></trkpt><trkpt lat="42.1510617" lon="14.6044683"><ele>147.0</ele><time>2026-04-27T10:02:11.889Z</time></trkpt><trkpt lat="42.1509917" lon="14.6043433"><ele>147.0</ele><time>2026-04-27T10:02:13.89Z</time></trkpt><trkpt lat="42.1509167" lon="14.6042367"><ele>147.0</ele><time>2026-04-27T10:02:15.89Z</time></trkpt><trkpt lat="42.1508517" lon="14.6041233"><ele>147.0</ele><time>2026-04-27T10:02:17.89Z</time></trkpt><trkpt lat="42.15079" lon="14.604"><ele>147.0</ele><time>2026-04-27T10:02:19.89Z</time></trkpt><trkpt lat="42.1507317" lon="14.6038917"><ele>147.6</ele><time>2026-04-27T10:02:21.889Z</time></trkpt><trkpt lat="42.1506733" lon="14.603775"><ele>148.2</ele><time>2026-04-27T10:02:23.89Z</time></trkpt><trkpt lat="42.150595" lon="14.60367"><ele>148.8</ele><time>2026-04-27T10:02:25.889Z</time></trkpt><trkpt lat="42.1505133" lon="14.603575"><ele>149.4</ele><time>2026-04-27T10:02:27.89Z</time></trkpt><trkpt lat="42.150425" lon="14.60347"><ele>150.0</ele><time>2026-04-27T10:02:29.889Z</time></trkpt><trkpt lat="42.1503317" lon="14.6033767"><ele>150.0</ele><time>2026-04-27T10:02:31.889Z</time></trkpt><trkpt lat="42.1502383" lon="14.603285"><ele>150.0</ele><time>2026-04-27T10:02:33.89Z</time></trkpt><trkpt lat="42.1501467" lon="14.6032033"><ele>150.0</ele><time>2026-04-27T10:02:35.89Z</time></trkpt><trkpt lat="42.1500533" lon="14.60312"><ele>150.0</ele><time>2026-04-27T10:02:37.89Z</time></trkpt><trkpt lat="42.1499533" lon="14.6030383"><ele>150.0</ele><time>2026-04-27T10:02:39.89Z</time></trkpt><trkpt lat="42.149855" lon="14.60296"><ele>150.0</ele><time>2026-04-27T10:02:41.89Z</time></trkpt><trkpt lat="42.149765" lon="14.6028717"><ele>150.0</ele><time>2026-04-27T10:02:43.889Z</time></trkpt><trkpt lat="42.1496783" lon="14.6027633"><ele>150.0</ele><time>2026-04-27T10:02:45.889Z</time></trkpt><trkpt lat="42.1496" lon="14.6026633"><ele>150.4</ele><time>2026-04-27T10:02:47.89Z</time></trkpt><trkpt lat="42.1495233" lon="14.6025633"><ele>150.8</ele><time>2026-04-27T10:02:49.89Z</time></trkpt><trkpt lat="42.1494483" lon="14.6024567"><ele>151.2</ele><time>2026-04-27T10:02:51.89Z</time></trkpt><trkpt lat="42.1493667" lon="14.6023567"><ele>151.6</ele><time>2026-04-27T10:02:53.889Z</time></trkpt><trkpt lat="42.1492983" lon="14.6022617"><ele>152.0</ele><time>2026-04-27T10:02:55.889Z</time></trkpt><trkpt lat="42.1492217" lon="14.6021533"><ele>152.0</ele><time>2026-04-27T10:02:57.89Z</time></trkpt><trkpt lat="42.14914" lon="14.6020517"><ele>152.0</ele><time>2026-04-27T10:02:59.89Z</time></trkpt><trkpt lat="42.14905" lon="14.6019617"><ele>152.0</ele><time>2026-04-27T10:03:01.889Z</time></trkpt><trkpt lat="42.1489567" lon="14.60189"><ele>152.0</ele><time>2026-04-27T10:03:03.889Z</time></trkpt><trkpt lat="42.1488567" lon="14.6018233"><ele>152.0</ele><time>2026-04-27T10:03:05.89Z</time></trkpt><trkpt lat="42.148765" lon="14.6017333"><ele>151.0</ele><time>2026-04-27T10:03:07.89Z</time></trkpt><trkpt lat="42.1486983" lon="14.6016217"><ele>150.0</ele><time>2026-04-27T10:03:09.89Z</time></trkpt><trkpt lat="42.14867" lon="14.6014833"><ele>149.0</ele><time>2026-04-27T10:03:11.889Z</time></trkpt><trkpt lat="42.14867" lon="14.601335"><ele>148.0</ele><time>2026-04-27T10:03:13.89Z</time></trkpt><trkpt lat="42.1486633" lon="14.60118"><ele>147.0</ele><time>2026-04-27T10:03:15.89Z</time></trkpt><trkpt lat="42.1486617" lon="14.6010433"><ele>147.0</ele><time>2026-04-27T10:03:17.89Z</time></trkpt><trkpt lat="42.1486533" lon="14.600915"><ele>147.0</ele><time>2026-04-27T10:03:19.89Z</time></trkpt><trkpt lat="42.148655" lon="14.60077"><ele>147.0</ele><time>2026-04-27T10:03:21.89Z</time></trkpt><trkpt lat="42.1486333" lon="14.6006167"><ele>147.0</ele><time>2026-04-27T10:03:23.89Z</time></trkpt><trkpt lat="42.14862" lon="14.6004617"><ele>147.0</ele><time>2026-04-27T10:03:25.89Z</time></trkpt><trkpt lat="42.1486017" lon="14.6003317"><ele>146.5</ele><time>2026-04-27T10:03:27.889Z</time></trkpt><trkpt lat="42.1486" lon="14.6001717"><ele>146.0</ele><time>2026-04-27T10:03:29.889Z</time></trkpt><trkpt lat="42.1485967" lon="14.6000117"><ele>145.5</ele><time>2026-04-27T10:03:31.889Z</time></trkpt><trkpt lat="42.1485967" lon="14.59986"><ele>145.0</ele><time>2026-04-27T10:03:33.889Z</time></trkpt><trkpt lat="42.1485983" lon="14.5997183"><ele>145.0</ele><time>2026-04-27T10:03:35.889Z</time></trkpt><trkpt lat="42.14861" lon="14.5995767"><ele>145.0</ele><time>2026-04-27T10:03:37.889Z</time></trkpt><trkpt lat="42.148625" lon="14.5994333"><ele>145.0</ele><time>2026-04-27T10:03:39.889Z</time></trkpt><trkpt lat="42.14864" lon="14.5992967"><ele>145.0</ele><time>2026-04-27T10:03:41.89Z</time></trkpt><trkpt lat="42.1486533" lon="14.5991483"><ele>145.0</ele><time>2026-04-27T10:03:43.889Z</time></trkpt><trkpt lat="42.1486633" lon="14.59902"><ele>145.2</ele><time>2026-04-27T10:03:45.89Z</time></trkpt><trkpt lat="42.1486733" lon="14.59888"><ele>145.4</ele><time>2026-04-27T10:03:47.889Z</time></trkpt><trkpt lat="42.1486883" lon="14.5987517"><ele>145.6</ele><time>2026-04-27T10:03:49.89Z</time></trkpt><trkpt lat="42.1486917" lon="14.5986067"><ele>145.8</ele><time>2026-04-27T10:03:51.89Z</time></trkpt><trkpt lat="42.1486967" lon="14.5984817"><ele>146.0</ele><time>2026-04-27T10:03:53.89Z</time></trkpt><trkpt lat="42.1487067" lon="14.5983517"><ele>145.6</ele><time>2026-04-27T10:03:55.889Z</time></trkpt><trkpt lat="42.1487083" lon="14.5982633"><ele>145.2</ele><time>2026-04-27T10:03:56.89Z</time></trkpt><trkpt lat="42.1487167" lon="14.5981033"><ele>144.8</ele><time>2026-04-27T10:03:58.89Z</time></trkpt><trkpt lat="42.14872" lon="14.5979367"><ele>144.4</ele><time>2026-04-27T10:04:00.89Z</time></trkpt><trkpt lat="42.1487117" lon="14.59779"><ele>144.0</ele><time>2026-04-27T10:04:02.889Z</time></trkpt><trkpt lat="42.1487217" lon="14.59764"><ele>144.0</ele><time>2026-04-27T10:04:04.89Z</time></trkpt><trkpt lat="42.148735" lon="14.59747"><ele>144.0</ele><time>2026-04-27T10:04:06.89Z</time></trkpt><trkpt lat="42.14874" lon="14.597385"><ele>144.0</ele><time>2026-04-27T10:04:07.89Z</time></trkpt><trkpt lat="42.1487417" lon="14.5972317"><ele>144.0</ele><time>2026-04-27T10:04:09.89Z</time></trkpt><trkpt lat="42.14874" lon="14.59707"><ele>144.0</ele><time>2026-04-27T10:04:11.89Z</time></trkpt><trkpt lat="42.148745" lon="14.5969117"><ele>145.25</ele><time>2026-04-27T10:04:13.889Z</time></trkpt><trkpt lat="42.1487467" lon="14.59675"><ele>146.5</ele><time>2026-04-27T10:04:15.889Z</time></trkpt><trkpt lat="42.1487267" lon="14.596595"><ele>147.75</ele><time>2026-04-27T10:04:17.889Z</time></trkpt><trkpt lat="42.1487067" lon="14.5964483"><ele>149.0</ele><time>2026-04-27T10:04:19.89Z</time></trkpt><trkpt lat="42.1486833" lon="14.5963017"><ele>150.25</ele><time>2026-04-27T10:04:21.89Z</time></trkpt><trkpt lat="42.1486583" lon="14.5961567"><ele>151.5</ele><time>2026-04-27T10:04:23.89Z</time></trkpt><trkpt lat="42.1486383" lon="14.596005"><ele>152.75</ele><time>2026-04-27T10:04:25.889Z</time></trkpt><trkpt lat="42.14862" lon="14.5958467"><ele>154.0</ele><time>2026-04-27T10:04:27.889Z</time></trkpt><trkpt lat="42.148605" lon="14.595695"><ele>154.0</ele><time>2026-04-27T10:04:29.89Z</time></trkpt><trkpt lat="42.1485967" lon="14.5955517"><ele>154.0</ele><time>2026-04-27T10:04:31.889Z</time></trkpt><trkpt lat="42.1485817" lon="14.59544"><ele>154.0</ele><time>2026-04-27T10:04:33.889Z</time></trkpt><trkpt lat="42.14858" lon="14.59534"><ele>154.0</ele><time>2026-04-27T10:04:34.89Z</time></trkpt><trkpt lat="42.1485633" lon="14.5951883"><ele>154.0</ele><time>2026-04-27T10:04:36.889Z</time></trkpt><trkpt lat="42.1485517" lon="14.59503"><ele>154.6</ele><time>2026-04-27T10:04:38.89Z</time></trkpt><trkpt lat="42.1485617" lon="14.5948817"><ele>155.2</ele><time>2026-04-27T10:04:40.89Z</time></trkpt><trkpt lat="42.148585" lon="14.5947517"><ele>155.79999999999998</ele><time>2026-04-27T10:04:42.89Z</time></trkpt><trkpt lat="42.1486133" lon="14.5946083"><ele>156.4</ele><time>2026-04-27T10:04:44.889Z</time></trkpt><trkpt lat="42.1486233" lon="14.594485"><ele>157.0</ele><time>2026-04-27T10:04:46.89Z</time></trkpt><trkpt lat="42.1486117" lon="14.5943617"><ele>158.0</ele><time>2026-04-27T10:04:48.889Z</time></trkpt><trkpt lat="42.1485917" lon="14.59423"><ele>159.0</ele><time>2026-04-27T10:04:50.89Z</time></trkpt><trkpt lat="42.148565" lon="14.5940833"><ele>160.0</ele><time>2026-04-27T10:04:52.889Z</time></trkpt><trkpt lat="42.14854" lon="14.5939417"><ele>161.0</ele><time>2026-04-27T10:04:54.89Z</time></trkpt><trkpt lat="42.1485367" lon="14.5937967"><ele>162.0</ele><time>2026-04-27T10:04:56.89Z</time></trkpt><trkpt lat="42.148545" lon="14.5936483"><ele>162.8</ele><time>2026-04-27T10:04:58.89Z</time></trkpt><trkpt lat="42.14855" lon="14.59351"><ele>163.6</ele><time>2026-04-27T10:05:00.89Z</time></trkpt><trkpt lat="42.14855" lon="14.59337"><ele>164.4</ele><time>2026-04-27T10:05:02.889Z</time></trkpt><trkpt lat="42.14855" lon="14.59322"><ele>165.20000000000002</ele><time>2026-04-27T10:05:04.889Z</time></trkpt><trkpt lat="42.1485467" lon="14.5930733"><ele>166.0</ele><time>2026-04-27T10:05:06.89Z</time></trkpt><trkpt lat="42.1485633" lon="14.592925"><ele>166.60000000000002</ele><time>2026-04-27T10:05:08.889Z</time></trkpt><trkpt lat="42.14857" lon="14.5927817"><ele>167.2</ele><time>2026-04-27T10:05:10.889Z</time></trkpt><trkpt lat="42.1485783" lon="14.5926367"><ele>167.8</ele><time>2026-04-27T10:05:12.89Z</time></trkpt><trkpt lat="42.1485867" lon="14.5924917"><ele>168.39999999999998</ele><time>2026-04-27T10:05:14.889Z</time></trkpt><trkpt lat="42.1485883" lon="14.5923333"><ele>169.0</ele><time>2026-04-27T10:05:16.889Z</time></trkpt><trkpt lat="42.1485867" lon="14.5921767"><ele>169.0</ele><time>2026-04-27T10:05:18.89Z</time></trkpt><trkpt lat="42.1485817" lon="14.5920133"><ele>169.0</ele><time>2026-04-27T10:05:20.89Z</time></trkpt><trkpt lat="42.14858" lon="14.591865"><ele>169.0</ele><time>2026-04-27T10:05:22.889Z</time></trkpt><trkpt lat="42.1485733" lon="14.5917133"><ele>169.0</ele><time>2026-04-27T10:05:24.89Z</time></trkpt><trkpt lat="42.1485733" lon="14.5915617"><ele>169.39999999999998</ele><time>2026-04-27T10:05:26.89Z</time></trkpt><trkpt lat="42.1485667" lon="14.5914117"><ele>169.8</ele><time>2026-04-27T10:05:28.89Z</time></trkpt><trkpt lat="42.1485667" lon="14.5912667"><ele>170.2</ele><time>2026-04-27T10:05:30.89Z</time></trkpt><trkpt lat="42.1485633" lon="14.591115"><ele>170.60000000000002</ele><time>2026-04-27T10:05:32.889Z</time></trkpt><trkpt lat="42.148565" lon="14.5909667"><ele>171.0</ele><time>2026-04-27T10:05:34.89Z</time></trkpt><trkpt lat="42.14857" lon="14.59082"><ele>171.4</ele><time>2026-04-27T10:05:36.89Z</time></trkpt><trkpt lat="42.14856" lon="14.590665"><ele>171.8</ele><time>2026-04-27T10:05:38.89Z</time></trkpt><trkpt lat="42.148565" lon="14.5905083"><ele>172.20000000000002</ele><time>2026-04-27T10:05:40.889Z</time></trkpt><trkpt lat="42.1485733" lon="14.59036"><ele>172.60000000000002</ele><time>2026-04-27T10:05:42.889Z</time></trkpt><trkpt lat="42.1485767" lon="14.590215"><ele>173.0</ele><time>2026-04-27T10:05:44.89Z</time></trkpt><trkpt lat="42.1485833" lon="14.5900817"><ele>173.25</ele><time>2026-04-27T10:05:46.889Z</time></trkpt><trkpt lat="42.1485983" lon="14.5899267"><ele>173.5</ele><time>2026-04-27T10:05:48.89Z</time></trkpt><trkpt lat="42.1486133" lon="14.5897733"><ele>173.75</ele><time>2026-04-27T10:05:50.889Z</time></trkpt><trkpt lat="42.1486283" lon="14.5896117"><ele>174.0</ele><time>2026-04-27T10:05:52.89Z</time></trkpt><trkpt lat="42.1486417" lon="14.5894667"><ele>174.6</ele><time>2026-04-27T10:05:54.89Z</time></trkpt><trkpt lat="42.1486567" lon="14.5893233"><ele>175.2</ele><time>2026-04-27T10:05:56.889Z</time></trkpt><trkpt lat="42.14867" lon="14.5891767"><ele>175.79999999999998</ele><time>2026-04-27T10:05:58.89Z</time></trkpt><trkpt lat="42.1486983" lon="14.58904"><ele>176.39999999999998</ele><time>2026-04-27T10:06:00.89Z</time></trkpt><trkpt lat="42.1487067" lon="14.5889033"><ele>177.0</ele><time>2026-04-27T10:06:02.89Z</time></trkpt><trkpt lat="42.1487167" lon="14.5887567"><ele>177.39999999999998</ele><time>2026-04-27T10:06:04.89Z</time></trkpt><trkpt lat="42.1487133" lon="14.588605"><ele>177.79999999999998</ele><time>2026-04-27T10:06:06.89Z</time></trkpt><trkpt lat="42.1487333" lon="14.58846"><ele>178.2</ele><time>2026-04-27T10:06:08.89Z</time></trkpt><trkpt lat="42.1487533" lon="14.5883133"><ele>178.6</ele><time>2026-04-27T10:06:10.89Z</time></trkpt><trkpt lat="42.1487633" lon="14.5882283"><ele>179.0</ele><time>2026-04-27T10:06:11.89Z</time></trkpt><trkpt lat="42.1487733" lon="14.58807"><ele>179.0</ele><time>2026-04-27T10:06:13.889Z</time></trkpt><trkpt lat="42.1487867" lon="14.5879167"><ele>179.0</ele><time>2026-04-27T10:06:15.89Z</time></trkpt><trkpt lat="42.14878" lon="14.5877633"><ele>179.0</ele><time>2026-04-27T10:06:17.89Z</time></trkpt><trkpt lat="42.1487867" lon="14.587605"><ele>179.0</ele><time>2026-04-27T10:06:19.89Z</time></trkpt><trkpt lat="42.1487933" lon="14.58752"><ele>179.0</ele><time>2026-04-27T10:06:20.889Z</time></trkpt><trkpt lat="42.14881" lon="14.58737"><ele>179.6</ele><time>2026-04-27T10:06:22.89Z</time></trkpt><trkpt lat="42.148845" lon="14.5872217"><ele>180.2</ele><time>2026-04-27T10:06:24.89Z</time></trkpt><trkpt lat="42.1488783" lon="14.58707"><ele>180.79999999999998</ele><time>2026-04-27T10:06:26.89Z</time></trkpt><trkpt lat="42.14891" lon="14.5869383"><ele>181.39999999999998</ele><time>2026-04-27T10:06:28.89Z</time></trkpt><trkpt lat="42.148925" lon="14.5868"><ele>182.0</ele><time>2026-04-27T10:06:30.89Z</time></trkpt><trkpt lat="42.148965" lon="14.5866833"><ele>182.0</ele><time>2026-04-27T10:06:32.889Z</time></trkpt><trkpt lat="42.1489967" lon="14.586545"><ele>182.0</ele><time>2026-04-27T10:06:34.89Z</time></trkpt><trkpt lat="42.1490183" lon="14.5864117"><ele>182.0</ele><time>2026-04-27T10:06:36.889Z</time></trkpt><trkpt lat="42.14905" lon="14.586275"><ele>182.0</ele><time>2026-04-27T10:06:38.89Z</time></trkpt><trkpt lat="42.1490783" lon="14.5861467"><ele>182.0</ele><time>2026-04-27T10:06:40.89Z</time></trkpt><trkpt lat="42.1490967" lon="14.5860217"><ele>183.83333333333331</ele><time>2026-04-27T10:06:42.89Z</time></trkpt><trkpt lat="42.14912" lon="14.5859067"><ele>185.66666666666666</ele><time>2026-04-27T10:06:44.89Z</time></trkpt><trkpt lat="42.14913" lon="14.5858183"><ele>187.5</ele><time>2026-04-27T10:06:46.889Z</time></trkpt><trkpt lat="42.1491583" lon="14.585725"><ele>189.33333333333331</ele><time>2026-04-27T10:06:49.89Z</time></trkpt><trkpt lat="42.1491933" lon="14.5856233"><ele>191.16666666666666</ele><time>2026-04-27T10:06:52.89Z</time></trkpt><trkpt lat="42.1491567" lon="14.5855167"><ele>193.0</ele><time>2026-04-27T10:06:56.889Z</time></trkpt><trkpt lat="42.14913" lon="14.5854033"><ele>193.66666666666666</ele><time>2026-04-27T10:06:59.89Z</time></trkpt><trkpt lat="42.1491183" lon="14.5853083"><ele>194.33333333333331</ele><time>2026-04-27T10:07:01.889Z</time></trkpt><trkpt lat="42.1491" lon="14.5852233"><ele>195.0</ele><time>2026-04-27T10:07:03.89Z</time></trkpt><trkpt lat="42.1491017" lon="14.5850917"><ele>195.66666666666669</ele><time>2026-04-27T10:07:06.889Z</time></trkpt><trkpt lat="42.14913" lon="14.5849933"><ele>196.33333333333334</ele><time>2026-04-27T10:07:09.889Z</time></trkpt><trkpt lat="42.1492133" lon="14.5850217"><ele>197.0</ele><time>2026-04-27T10:07:12.89Z</time></trkpt><trkpt lat="42.149275" lon="14.58509"><ele>197.0</ele><time>2026-04-27T10:07:14.89Z</time></trkpt><trkpt lat="42.149335" lon="14.5851567"><ele>197.0</ele><time>2026-04-27T10:07:16.89Z</time></trkpt><trkpt lat="42.14941" lon="14.58519"><ele>197.0</ele><time>2026-04-27T10:07:18.89Z</time></trkpt><trkpt lat="42.149475" lon="14.585235"><ele>197.0</ele><time>2026-04-27T10:07:20.889Z</time></trkpt><trkpt lat="42.1495617" lon="14.5852617"><ele>197.0</ele><time>2026-04-27T10:07:23.889Z</time></trkpt><trkpt lat="42.149625" lon="14.585255"><ele>197.0</ele><time>2026-04-27T10:07:25.89Z</time></trkpt><trkpt lat="42.1496867" lon="14.585235"><ele>197.0</ele><time>2026-04-27T10:07:27.89Z</time></trkpt><trkpt lat="42.14975" lon="14.58524"><ele>197.0</ele><time>2026-04-27T10:07:30.889Z</time></trkpt><trkpt lat="42.14982" lon="14.585235"><ele>197.0</ele><time>2026-04-27T10:07:33.89Z</time></trkpt><trkpt lat="42.1498883" lon="14.5852633"><ele>197.0</ele><time>2026-04-27T10:07:37.889Z</time></trkpt><trkpt lat="42.1500083" lon="14.5852617"><ele>197.0</ele><time>2026-04-27T10:08:10.889Z</time></trkpt><trkpt lat="42.1501117" lon="14.5854167"><ele>197.0</ele><time>2026-04-27T10:09:18.392Z</time></trkpt><trkpt lat="42.1500367" lon="14.5853583"><ele>196.5</ele><time>2026-04-27T10:09:20.892Z</time></trkpt><trkpt lat="42.14999" lon="14.58529"><ele>196.0</ele><time>2026-04-27T10:10:04.891Z</time></trkpt><trkpt lat="42.15004" lon="14.58538"><ele>195.5</ele><time>2026-04-27T10:11:37.89Z</time></trkpt><trkpt lat="42.14999" lon="14.585325"><ele>195.0</ele><time>2026-04-27T10:11:48.889Z</time></trkpt><trkpt lat="42.1498782" lon="14.5848147"><ele>194.0</ele><time>2026-04-27T10:16:04.894Z</time></trkpt><trkpt lat="42.1497146" lon="14.5831631"><ele>194.00000000000003</ele><time>2026-04-27T10:17:39.895Z</time></trkpt><trkpt lat="42.1497177" lon="14.5830457"><ele>194.0</ele><time>2026-04-27T10:17:42.895Z</time></trkpt><trkpt lat="42.1497168" lon="14.5829296"><ele>194.0</ele><time>2026-04-27T10:17:45.895Z</time></trkpt><trkpt lat="42.1497173" lon="14.5828018"><ele>194.0</ele><time>2026-04-27T10:17:48.896Z</time></trkpt><trkpt lat="42.1496923" lon="14.5828901"><ele>194.00000000000003</ele><time>2026-04-27T10:17:57.896Z</time></trkpt><trkpt lat="42.1496397" lon="14.5828418"><ele>194.0</ele><time>2026-04-27T10:18:04.896Z</time></trkpt><trkpt lat="42.1495687" lon="14.582833"><ele>194.0</ele><time>2026-04-27T10:18:08.895Z</time></trkpt><trkpt lat="42.1495161" lon="14.5828874"><ele>194.0</ele><time>2026-04-27T10:18:12.896Z</time></trkpt><trkpt lat="42.149467" lon="14.5829617"><ele>194.0</ele><time>2026-04-27T10:18:15.896Z</time></trkpt><trkpt lat="42.149462" lon="14.583138"><ele>194.0</ele><time>2026-04-27T10:18:16.896Z</time></trkpt><trkpt lat="42.149469" lon="14.5833167"><ele>194.0</ele><time>2026-04-27T10:18:17.896Z</time></trkpt><trkpt lat="42.1494833" lon="14.5834417"><ele>194.00000000000003</ele><time>2026-04-27T10:18:23.896Z</time></trkpt><trkpt lat="42.149492" lon="14.5835556"><ele>194.0</ele><time>2026-04-27T10:18:24.896Z</time></trkpt><trkpt lat="42.1495017" lon="14.583675"><ele>194.0</ele><time>2026-04-27T10:18:25.896Z</time></trkpt><trkpt lat="42.1495104" lon="14.5837698"><ele>194.0</ele><time>2026-04-27T10:18:26.895Z</time></trkpt><trkpt lat="42.1495358" lon="14.5838496"><ele>194.00000000000003</ele><time>2026-04-27T10:18:32.896Z</time></trkpt><trkpt lat="42.1495653" lon="14.5839629"><ele>194.0</ele><time>2026-04-27T10:18:34.896Z</time></trkpt><trkpt lat="42.1496048" lon="14.5841325"><ele>194.0</ele><time>2026-04-27T10:18:36.896Z</time></trkpt><trkpt lat="42.1496647" lon="14.5843181"><ele>194.0</ele><time>2026-04-27T10:18:38.895Z</time></trkpt><trkpt lat="42.1497311" lon="14.5844728"><ele>194.0</ele><time>2026-04-27T10:18:41.896Z</time></trkpt><trkpt lat="42.1497998" lon="14.5846864"><ele>194.42857142857142</ele><time>2026-04-27T10:18:42.896Z</time></trkpt><trkpt lat="42.1498231" lon="14.5847699"><ele>194.85714285714286</ele><time>2026-04-27T10:19:04.896Z</time></trkpt><trkpt lat="42.1498138" lon="14.5848547"><ele>195.28571428571428</ele><time>2026-04-27T10:19:09.896Z</time></trkpt><trkpt lat="42.1497934" lon="14.5849557"><ele>195.71428571428572</ele><time>2026-04-27T10:19:14.895Z</time></trkpt><trkpt lat="42.1498139" lon="14.5850397"><ele>196.14285714285717</ele><time>2026-04-27T10:19:18.896Z</time></trkpt><trkpt lat="42.1498311" lon="14.5851311"><ele>196.57142857142858</ele><time>2026-04-27T10:19:22.895Z</time></trkpt><trkpt lat="42.1498752" lon="14.5852146"><ele>197.0</ele><time>2026-04-27T10:19:27.895Z</time></trkpt><trkpt lat="42.1499181" lon="14.5853169"><ele>196.66666666666669</ele><time>2026-04-27T10:19:31.895Z</time></trkpt><trkpt lat="42.150007" lon="14.5853372"><ele>196.33333333333334</ele><time>2026-04-27T10:19:41.896Z</time></trkpt><trkpt lat="42.1500805" lon="14.5853494"><ele>196.0</ele><time>2026-04-27T10:19:51.896Z</time></trkpt><trkpt lat="42.1500631" lon="14.5852538"><ele>195.66666666666669</ele><time>2026-04-27T10:19:59.896Z</time></trkpt><trkpt lat="42.1500398" lon="14.585135"><ele>195.33333333333334</ele><time>2026-04-27T10:20:02.896Z</time></trkpt><trkpt lat="42.1500492" lon="14.5850491"><ele>195.0</ele><time>2026-04-27T10:20:04.896Z</time></trkpt><trkpt lat="42.1500844" lon="14.5849696"><ele>196.66666666666666</ele><time>2026-04-27T10:20:09.895Z</time></trkpt><trkpt lat="42.150124" lon="14.5848788"><ele>198.33333333333331</ele><time>2026-04-27T10:20:13.896Z</time></trkpt><trkpt lat="42.1501812" lon="14.5848122"><ele>200.0</ele><time>2026-04-27T10:20:19.896Z</time></trkpt><trkpt lat="42.150279" lon="14.5848354"><ele>201.66666666666666</ele><time>2026-04-27T10:20:31.895Z</time></trkpt><trkpt lat="42.1502995" lon="14.5849254"><ele>203.33333333333331</ele><time>2026-04-27T10:20:36.895Z</time></trkpt><trkpt lat="42.1502367" lon="14.5848904"><ele>205.0</ele><time>2026-04-27T10:20:42.896Z</time></trkpt><trkpt lat="42.1501889" lon="14.5848043"><ele>205.0</ele><time>2026-04-27T10:20:44.895Z</time></trkpt><trkpt lat="42.1501506" lon="14.5847144"><ele>205.0</ele><time>2026-04-27T10:20:46.896Z</time></trkpt><trkpt lat="42.1501062" lon="14.5846385"><ele>205.0</ele><time>2026-04-27T10:20:48.896Z</time></trkpt><trkpt lat="42.1500674" lon="14.584564"><ele>205.0</ele><time>2026-04-27T10:20:52.896Z</time></trkpt><trkpt lat="42.150029" lon="14.5844952"><ele>205.0</ele><time>2026-04-27T10:20:58.895Z</time></trkpt><trkpt lat="42.1500078" lon="14.5844127"><ele>205.0</ele><time>2026-04-27T10:21:02.896Z</time></trkpt><trkpt lat="42.1499496" lon="14.5843027"><ele>205.0</ele><time>2026-04-27T10:21:06.896Z</time></trkpt><trkpt lat="42.1498964" lon="14.5842307"><ele>203.66666666666666</ele><time>2026-04-27T10:21:08.896Z</time></trkpt><trkpt lat="42.149836" lon="14.5842755"><ele>202.33333333333331</ele><time>2026-04-27T10:21:15.895Z</time></trkpt><trkpt lat="42.1497739" lon="14.5842597"><ele>201.0</ele><time>2026-04-27T10:21:19.896Z</time></trkpt><trkpt lat="42.1497057" lon="14.5842373"><ele>199.66666666666669</ele><time>2026-04-27T10:21:23.896Z</time></trkpt><trkpt lat="42.1497042" lon="14.5843724"><ele>198.33333333333334</ele><time>2026-04-27T10:21:29.895Z</time></trkpt><trkpt lat="42.1497524" lon="14.5845116"><ele>197.0</ele><time>2026-04-27T10:21:31.896Z</time></trkpt><trkpt lat="42.1497913" lon="14.5846469"><ele>197.00000000000003</ele><time>2026-04-27T10:21:33.895Z</time></trkpt><trkpt lat="42.149805" lon="14.5848374"><ele>197.0</ele><time>2026-04-27T10:21:45.895Z</time></trkpt><trkpt lat="42.1498198" lon="14.5849227"><ele>197.0</ele><time>2026-04-27T10:21:49.896Z</time></trkpt><trkpt lat="42.1498312" lon="14.5850244"><ele>197.0</ele><time>2026-04-27T10:21:56.896Z</time></trkpt><trkpt lat="42.1498455" lon="14.5851164"><ele>197.00000000000003</ele><time>2026-04-27T10:22:02.896Z</time></trkpt><trkpt lat="42.1498478" lon="14.5852083"><ele>197.0</ele><time>2026-04-27T10:22:09.895Z</time></trkpt><trkpt lat="42.149875" lon="14.5852907"><ele>197.0</ele><time>2026-04-27T10:22:15.896Z</time></trkpt><trkpt lat="42.1498324" lon="14.5850771"><ele>197.0</ele><time>2026-04-27T10:22:29.896Z</time></trkpt><trkpt lat="42.1498081" lon="14.5849976"><ele>197.0</ele><time>2026-04-27T10:22:32.896Z</time></trkpt><trkpt lat="42.1499837" lon="14.5847984"><ele>198.6</ele><time>2026-04-27T10:25:22.894Z</time></trkpt><trkpt lat="42.1500278" lon="14.5850597"><ele>200.2</ele><time>2026-04-27T10:25:26.894Z</time></trkpt><trkpt lat="42.1500314" lon="14.5851461"><ele>201.8</ele><time>2026-04-27T10:25:57.893Z</time></trkpt><trkpt lat="42.149969" lon="14.5852742"><ele>203.4</ele><time>2026-04-27T10:26:26.894Z</time></trkpt><trkpt lat="42.1499036" lon="14.5852793"><ele>205.0</ele><time>2026-04-27T10:26:32.893Z</time></trkpt><trkpt lat="42.1499776" lon="14.5853319"><ele>205.0</ele><time>2026-04-27T10:26:34.894Z</time></trkpt><trkpt lat="42.1500002" lon="14.5854191"><ele>205.0</ele><time>2026-04-27T10:26:36.894Z</time></trkpt><trkpt lat="42.1500697" lon="14.5854637"><ele>205.0</ele><time>2026-04-27T10:26:39.894Z</time></trkpt><trkpt lat="42.15" lon="14.5854353"><ele>205.0</ele><time>2026-04-27T10:26:52.894Z</time></trkpt><trkpt lat="42.1499359" lon="14.5853913"><ele>205.0</ele><time>2026-04-27T10:26:57.894Z</time></trkpt><trkpt lat="42.1499431" lon="14.5853062"><ele>205.0</ele><time>2026-04-27T10:27:08.893Z</time></trkpt><trkpt lat="42.1500127" lon="14.5852623"><ele>205.0</ele><time>2026-04-27T10:27:15.893Z</time></trkpt><trkpt lat="42.1499915" lon="14.5853531"><ele>205.0</ele><time>2026-04-27T10:28:06.894Z</time></trkpt><trkpt lat="42.1500362" lon="14.5854141"><ele>205.0</ele><time>2026-04-27T10:28:19.894Z</time></trkpt><trkpt lat="42.1500609" lon="14.5853337"><ele>205.0</ele><time>2026-04-27T10:28:25.894Z</time></trkpt><trkpt lat="42.1499987" lon="14.5853572"><ele>205.0</ele><time>2026-04-27T10:28:43.894Z</time></trkpt><trkpt lat="42.150044" lon="14.585275"><ele>205.0</ele><time>2026-04-27T10:29:47.893Z</time></trkpt><trkpt lat="42.1499729" lon="14.5852573"><ele>205.0</ele><time>2026-04-27T10:30:09.893Z</time></trkpt><trkpt lat="42.1499093" lon="14.5852433"><ele>205.0</ele><time>2026-04-27T10:30:14.894Z</time></trkpt><trkpt lat="42.1498498" lon="14.5852728"><ele>205.0</ele><time>2026-04-27T10:30:27.894Z</time></trkpt><trkpt lat="42.1499139" lon="14.5852034"><ele>205.0</ele><time>2026-04-27T10:30:39.893Z</time></trkpt><trkpt lat="42.1499141" lon="14.5851085"><ele>205.0</ele><time>2026-04-27T10:30:55.894Z</time></trkpt><trkpt lat="42.1498646" lon="14.585056"><ele>205.0</ele><time>2026-04-27T10:30:58.894Z</time></trkpt><trkpt lat="42.1498619" lon="14.5851492"><ele>205.0</ele><time>2026-04-27T10:31:13.894Z</time></trkpt><trkpt lat="42.1499101" lon="14.5852359"><ele>205.0</ele><time>2026-04-27T10:31:16.894Z</time></trkpt><trkpt lat="42.1499646" lon="14.5852809"><ele>205.0</ele><time>2026-04-27T10:31:23.894Z</time></trkpt><trkpt lat="42.1500172" lon="14.5853332"><ele>203.0</ele><time>2026-04-27T10:31:28.893Z</time></trkpt><trkpt lat="42.1500707" lon="14.5854935"><ele>201.0</ele><time>2026-04-27T10:31:44.893Z</time></trkpt><trkpt lat="42.1499868" lon="14.5854519"><ele>199.0</ele><time>2026-04-27T10:31:52.894Z</time></trkpt><trkpt lat="42.150055" lon="14.5854078"><ele>197.0</ele><time>2026-04-27T10:31:59.893Z</time></trkpt><trkpt lat="42.1501767" lon="14.5854119"><ele>195.0</ele><time>2026-04-27T10:33:52.894Z</time></trkpt><trkpt lat="42.1501113" lon="14.5854352"><ele>195.0</ele><time>2026-04-27T10:34:05.894Z</time></trkpt><trkpt lat="42.1500791" lon="14.5853481"><ele>195.0</ele><time>2026-04-27T10:34:37.894Z</time></trkpt><trkpt lat="42.1500112" lon="14.5853892"><ele>195.0</ele><time>2026-04-27T10:35:53.894Z</time></trkpt><trkpt lat="42.1500696" lon="14.5852682"><ele>195.0</ele><time>2026-04-27T10:36:57.263Z</time></trkpt><trkpt lat="42.1501236" lon="14.5853203"><ele>195.0</ele><time>2026-04-27T10:37:13.891Z</time></trkpt><trkpt lat="42.1502033" lon="14.5853125"><ele>195.0</ele><time>2026-04-27T10:37:22.891Z</time></trkpt><trkpt lat="42.1502696" lon="14.5852913"><ele>205.0</ele><time>2026-04-27T10:37:25.892Z</time></trkpt><trkpt lat="42.1501933" lon="14.5853306"><ele>205.0</ele><time>2026-04-27T10:37:37.892Z</time></trkpt><trkpt lat="42.1501299" lon="14.5853522"><ele>195.0</ele><time>2026-04-27T10:37:44.892Z</time></trkpt><trkpt lat="42.1500823" lon="14.5854151"><ele>195.0</ele><time>2026-04-27T10:37:53.891Z</time></trkpt><trkpt lat="42.1501267" lon="14.5853508"><ele>195.0</ele><time>2026-04-27T10:38:05.892Z</time></trkpt></trkseg></trk></gpx>